<?xml version="1.0" encoding="UTF-8" standalone="no" ?>
<gpx xmlns="http://www.topografix.com/GPX/1/1" xmlns:xsi="http://www.w3.org/2001/XMLSchema-instance" xsi:schemaLocation="http://www.topografix.com/GPX/1/1 http://www.topografix.com/GPX/1/1/gpx.xsd" version="1.1" creator="VisuGPX - https://www.visugpx.com">
  <metadata>
    <name>Le sentier Estelle avec Baptiste </name>
    <desc><![CDATA[

]]></desc>
  </metadata>
  <trk>
    <name><![CDATA[Le sentier Estelle avec Baptiste ]]></name>
    <trkseg>
      <trkpt lat="46.11355" lon="4.57004">
        <ele>360</ele>
        <time>2020-10-24T06:08:08Z</time>
      </trkpt>
      <trkpt lat="46.11355" lon="4.57004">
        <ele>360</ele>
        <time>2020-10-24T06:08:08Z</time>
      </trkpt>
      <trkpt lat="46.11355" lon="4.57004">
        <ele>360</ele>
        <time>2020-10-24T06:08:08Z</time>
      </trkpt>
      <trkpt lat="46.11355" lon="4.57004">
        <ele>360</ele>
        <time>2020-10-24T06:08:10Z</time>
      </trkpt>
      <trkpt lat="46.11354" lon="4.57003">
        <ele>360</ele>
        <time>2020-10-24T06:08:11Z</time>
      </trkpt>
      <trkpt lat="46.11352" lon="4.57">
        <ele>360</ele>
        <time>2020-10-24T06:08:13Z</time>
      </trkpt>
      <trkpt lat="46.1135" lon="4.56996">
        <ele>360</ele>
        <time>2020-10-24T06:08:15Z</time>
      </trkpt>
      <trkpt lat="46.11348" lon="4.56993">
        <ele>360</ele>
        <time>2020-10-24T06:08:17Z</time>
      </trkpt>
      <trkpt lat="46.11348" lon="4.56993">
        <ele>360.2</ele>
        <time>2020-10-24T06:08:18Z</time>
      </trkpt>
      <trkpt lat="46.11347" lon="4.56989">
        <ele>360.2</ele>
        <time>2020-10-24T06:08:19Z</time>
      </trkpt>
      <trkpt lat="46.11346" lon="4.56987">
        <ele>360.4</ele>
        <time>2020-10-24T06:08:20Z</time>
      </trkpt>
      <trkpt lat="46.11346" lon="4.56987">
        <ele>360.2</ele>
        <time>2020-10-24T06:08:21Z</time>
      </trkpt>
      <trkpt lat="46.11344" lon="4.56983">
        <ele>360.4</ele>
        <time>2020-10-24T06:08:22Z</time>
      </trkpt>
      <trkpt lat="46.11343" lon="4.5698">
        <ele>360.2</ele>
        <time>2020-10-24T06:08:23Z</time>
      </trkpt>
      <trkpt lat="46.11342" lon="4.56978">
        <ele>360.4</ele>
        <time>2020-10-24T06:08:24Z</time>
      </trkpt>
      <trkpt lat="46.11342" lon="4.56978">
        <ele>360.6</ele>
        <time>2020-10-24T06:08:25Z</time>
      </trkpt>
      <trkpt lat="46.11339" lon="4.56975">
        <ele>360.4</ele>
        <time>2020-10-24T06:08:26Z</time>
      </trkpt>
      <trkpt lat="46.11337" lon="4.56973">
        <ele>360.6</ele>
        <time>2020-10-24T06:08:27Z</time>
      </trkpt>
      <trkpt lat="46.11337" lon="4.56973">
        <ele>359.8</ele>
        <time>2020-10-24T06:08:28Z</time>
      </trkpt>
      <trkpt lat="46.11334" lon="4.5697">
        <ele>360</ele>
        <time>2020-10-24T06:08:29Z</time>
      </trkpt>
      <trkpt lat="46.11333" lon="4.56969">
        <ele>360.4</ele>
        <time>2020-10-24T06:08:30Z</time>
      </trkpt>
      <trkpt lat="46.11331" lon="4.56967">
        <ele>360.2</ele>
        <time>2020-10-24T06:08:31Z</time>
      </trkpt>
      <trkpt lat="46.11329" lon="4.56966">
        <ele>360</ele>
        <time>2020-10-24T06:08:32Z</time>
      </trkpt>
      <trkpt lat="46.11327" lon="4.56965">
        <ele>360.2</ele>
        <time>2020-10-24T06:08:33Z</time>
      </trkpt>
      <trkpt lat="46.11327" lon="4.56965">
        <ele>360.4</ele>
        <time>2020-10-24T06:08:34Z</time>
      </trkpt>
      <trkpt lat="46.11323" lon="4.56965">
        <ele>360.6</ele>
        <time>2020-10-24T06:08:35Z</time>
      </trkpt>
      <trkpt lat="46.11321" lon="4.56965">
        <ele>360.2</ele>
        <time>2020-10-24T06:08:36Z</time>
      </trkpt>
      <trkpt lat="46.11318" lon="4.56966">
        <ele>360.2</ele>
        <time>2020-10-24T06:08:37Z</time>
      </trkpt>
      <trkpt lat="46.11316" lon="4.56967">
        <ele>360.6</ele>
        <time>2020-10-24T06:08:38Z</time>
      </trkpt>
      <trkpt lat="46.11314" lon="4.56967">
        <ele>360.8</ele>
        <time>2020-10-24T06:08:39Z</time>
      </trkpt>
      <trkpt lat="46.11312" lon="4.56968">
        <ele>360.8</ele>
        <time>2020-10-24T06:08:40Z</time>
      </trkpt>
      <trkpt lat="46.1131" lon="4.56969">
        <ele>360.4</ele>
        <time>2020-10-24T06:08:41Z</time>
      </trkpt>
      <trkpt lat="46.11308" lon="4.56971">
        <ele>360.4</ele>
        <time>2020-10-24T06:08:42Z</time>
      </trkpt>
      <trkpt lat="46.11306" lon="4.56973">
        <ele>361</ele>
        <time>2020-10-24T06:08:43Z</time>
      </trkpt>
      <trkpt lat="46.11304" lon="4.56974">
        <ele>360.8</ele>
        <time>2020-10-24T06:08:44Z</time>
      </trkpt>
      <trkpt lat="46.11302" lon="4.56976">
        <ele>360.8</ele>
        <time>2020-10-24T06:08:45Z</time>
      </trkpt>
      <trkpt lat="46.113" lon="4.56977">
        <ele>361.2</ele>
        <time>2020-10-24T06:08:46Z</time>
      </trkpt>
      <trkpt lat="46.11298" lon="4.56978">
        <ele>361.4</ele>
        <time>2020-10-24T06:08:47Z</time>
      </trkpt>
      <trkpt lat="46.11296" lon="4.5698">
        <ele>361.6</ele>
        <time>2020-10-24T06:08:48Z</time>
      </trkpt>
      <trkpt lat="46.11294" lon="4.56981">
        <ele>361.6</ele>
        <time>2020-10-24T06:08:49Z</time>
      </trkpt>
      <trkpt lat="46.11292" lon="4.56983">
        <ele>361.6</ele>
        <time>2020-10-24T06:08:50Z</time>
      </trkpt>
      <trkpt lat="46.1129" lon="4.56984">
        <ele>361.6</ele>
        <time>2020-10-24T06:08:51Z</time>
      </trkpt>
      <trkpt lat="46.11288" lon="4.56986">
        <ele>361.8</ele>
        <time>2020-10-24T06:08:52Z</time>
      </trkpt>
      <trkpt lat="46.11286" lon="4.56987">
        <ele>362.2</ele>
        <time>2020-10-24T06:08:53Z</time>
      </trkpt>
      <trkpt lat="46.11284" lon="4.56989">
        <ele>362</ele>
        <time>2020-10-24T06:08:54Z</time>
      </trkpt>
      <trkpt lat="46.11282" lon="4.56991">
        <ele>362.6</ele>
        <time>2020-10-24T06:08:55Z</time>
      </trkpt>
      <trkpt lat="46.11281" lon="4.56993">
        <ele>362.8</ele>
        <time>2020-10-24T06:08:56Z</time>
      </trkpt>
      <trkpt lat="46.11279" lon="4.56995">
        <ele>363</ele>
        <time>2020-10-24T06:08:57Z</time>
      </trkpt>
      <trkpt lat="46.11277" lon="4.56997">
        <ele>363.2</ele>
        <time>2020-10-24T06:08:58Z</time>
      </trkpt>
      <trkpt lat="46.11275" lon="4.56999">
        <ele>363.2</ele>
        <time>2020-10-24T06:08:59Z</time>
      </trkpt>
      <trkpt lat="46.11273" lon="4.57">
        <ele>363.2</ele>
        <time>2020-10-24T06:09:00Z</time>
      </trkpt>
      <trkpt lat="46.11271" lon="4.57001">
        <ele>363.2</ele>
        <time>2020-10-24T06:09:01Z</time>
      </trkpt>
      <trkpt lat="46.11271" lon="4.57001">
        <ele>363.2</ele>
        <time>2020-10-24T06:09:02Z</time>
      </trkpt>
      <trkpt lat="46.11268" lon="4.57005">
        <ele>363.6</ele>
        <time>2020-10-24T06:09:03Z</time>
      </trkpt>
      <trkpt lat="46.11266" lon="4.57007">
        <ele>363.2</ele>
        <time>2020-10-24T06:09:04Z</time>
      </trkpt>
      <trkpt lat="46.11264" lon="4.57009">
        <ele>363.2</ele>
        <time>2020-10-24T06:09:05Z</time>
      </trkpt>
      <trkpt lat="46.11262" lon="4.57011">
        <ele>363.6</ele>
        <time>2020-10-24T06:09:06Z</time>
      </trkpt>
      <trkpt lat="46.11259" lon="4.57013">
        <ele>363.4</ele>
        <time>2020-10-24T06:09:07Z</time>
      </trkpt>
      <trkpt lat="46.11257" lon="4.57015">
        <ele>363.2</ele>
        <time>2020-10-24T06:09:08Z</time>
      </trkpt>
      <trkpt lat="46.11256" lon="4.57016">
        <ele>363.6</ele>
        <time>2020-10-24T06:09:09Z</time>
      </trkpt>
      <trkpt lat="46.11254" lon="4.57018">
        <ele>363.8</ele>
        <time>2020-10-24T06:09:10Z</time>
      </trkpt>
      <trkpt lat="46.11252" lon="4.57019">
        <ele>364.4</ele>
        <time>2020-10-24T06:09:11Z</time>
      </trkpt>
      <trkpt lat="46.1125" lon="4.5702">
        <ele>364</ele>
        <time>2020-10-24T06:09:12Z</time>
      </trkpt>
      <trkpt lat="46.11248" lon="4.57022">
        <ele>364</ele>
        <time>2020-10-24T06:09:13Z</time>
      </trkpt>
      <trkpt lat="46.11246" lon="4.57024">
        <ele>364.6</ele>
        <time>2020-10-24T06:09:14Z</time>
      </trkpt>
      <trkpt lat="46.11244" lon="4.57025">
        <ele>364.6</ele>
        <time>2020-10-24T06:09:15Z</time>
      </trkpt>
      <trkpt lat="46.11242" lon="4.57026">
        <ele>364.4</ele>
        <time>2020-10-24T06:09:16Z</time>
      </trkpt>
      <trkpt lat="46.1124" lon="4.57028">
        <ele>364.6</ele>
        <time>2020-10-24T06:09:17Z</time>
      </trkpt>
      <trkpt lat="46.11238" lon="4.5703">
        <ele>364.8</ele>
        <time>2020-10-24T06:09:18Z</time>
      </trkpt>
      <trkpt lat="46.11236" lon="4.57031">
        <ele>365</ele>
        <time>2020-10-24T06:09:19Z</time>
      </trkpt>
      <trkpt lat="46.11235" lon="4.57032">
        <ele>364.8</ele>
        <time>2020-10-24T06:09:20Z</time>
      </trkpt>
      <trkpt lat="46.11233" lon="4.57034">
        <ele>365</ele>
        <time>2020-10-24T06:09:21Z</time>
      </trkpt>
      <trkpt lat="46.1123" lon="4.57035">
        <ele>365.4</ele>
        <time>2020-10-24T06:09:22Z</time>
      </trkpt>
      <trkpt lat="46.11228" lon="4.57036">
        <ele>365.6</ele>
        <time>2020-10-24T06:09:23Z</time>
      </trkpt>
      <trkpt lat="46.11226" lon="4.57037">
        <ele>366</ele>
        <time>2020-10-24T06:09:24Z</time>
      </trkpt>
      <trkpt lat="46.11224" lon="4.57039">
        <ele>366.4</ele>
        <time>2020-10-24T06:09:25Z</time>
      </trkpt>
      <trkpt lat="46.11223" lon="4.5704">
        <ele>366.4</ele>
        <time>2020-10-24T06:09:26Z</time>
      </trkpt>
      <trkpt lat="46.11221" lon="4.57041">
        <ele>366.6</ele>
        <time>2020-10-24T06:09:27Z</time>
      </trkpt>
      <trkpt lat="46.11219" lon="4.57042">
        <ele>366.4</ele>
        <time>2020-10-24T06:09:28Z</time>
      </trkpt>
      <trkpt lat="46.11217" lon="4.57044">
        <ele>366.2</ele>
        <time>2020-10-24T06:09:29Z</time>
      </trkpt>
      <trkpt lat="46.11217" lon="4.57044">
        <ele>366.8</ele>
        <time>2020-10-24T06:09:30Z</time>
      </trkpt>
      <trkpt lat="46.11214" lon="4.57045">
        <ele>366.6</ele>
        <time>2020-10-24T06:09:31Z</time>
      </trkpt>
      <trkpt lat="46.11212" lon="4.57046">
        <ele>366.4</ele>
        <time>2020-10-24T06:09:32Z</time>
      </trkpt>
      <trkpt lat="46.11211" lon="4.57048">
        <ele>366.8</ele>
        <time>2020-10-24T06:09:33Z</time>
      </trkpt>
      <trkpt lat="46.11209" lon="4.5705">
        <ele>367</ele>
        <time>2020-10-24T06:09:34Z</time>
      </trkpt>
      <trkpt lat="46.11208" lon="4.57052">
        <ele>367</ele>
        <time>2020-10-24T06:09:35Z</time>
      </trkpt>
      <trkpt lat="46.11206" lon="4.57053">
        <ele>367</ele>
        <time>2020-10-24T06:09:36Z</time>
      </trkpt>
      <trkpt lat="46.11206" lon="4.57053">
        <ele>367.2</ele>
        <time>2020-10-24T06:09:37Z</time>
      </trkpt>
      <trkpt lat="46.11204" lon="4.57054">
        <ele>367.2</ele>
        <time>2020-10-24T06:09:38Z</time>
      </trkpt>
      <trkpt lat="46.11204" lon="4.57054">
        <ele>367.4</ele>
        <time>2020-10-24T06:09:39Z</time>
      </trkpt>
      <trkpt lat="46.11202" lon="4.57052">
        <ele>367.4</ele>
        <time>2020-10-24T06:09:40Z</time>
      </trkpt>
      <trkpt lat="46.11202" lon="4.57052">
        <ele>367.6</ele>
        <time>2020-10-24T06:09:41Z</time>
      </trkpt>
      <trkpt lat="46.11201" lon="4.57049">
        <ele>367.8</ele>
        <time>2020-10-24T06:09:42Z</time>
      </trkpt>
      <trkpt lat="46.11201" lon="4.57049">
        <ele>368</ele>
        <time>2020-10-24T06:09:43Z</time>
      </trkpt>
      <trkpt lat="46.11201" lon="4.57045">
        <ele>368.2</ele>
        <time>2020-10-24T06:09:44Z</time>
      </trkpt>
      <trkpt lat="46.11201" lon="4.57045">
        <ele>368.6</ele>
        <time>2020-10-24T06:09:45Z</time>
      </trkpt>
      <trkpt lat="46.11202" lon="4.5704">
        <ele>368.8</ele>
        <time>2020-10-24T06:09:46Z</time>
      </trkpt>
      <trkpt lat="46.11202" lon="4.5704">
        <ele>369</ele>
        <time>2020-10-24T06:09:47Z</time>
      </trkpt>
      <trkpt lat="46.11204" lon="4.57036">
        <ele>369</ele>
        <time>2020-10-24T06:09:48Z</time>
      </trkpt>
      <trkpt lat="46.11204" lon="4.57036">
        <ele>369</ele>
        <time>2020-10-24T06:09:49Z</time>
      </trkpt>
      <trkpt lat="46.11206" lon="4.57033">
        <ele>369</ele>
        <time>2020-10-24T06:09:50Z</time>
      </trkpt>
      <trkpt lat="46.11206" lon="4.57033">
        <ele>369.2</ele>
        <time>2020-10-24T06:09:51Z</time>
      </trkpt>
      <trkpt lat="46.11207" lon="4.57029">
        <ele>369.4</ele>
        <time>2020-10-24T06:09:52Z</time>
      </trkpt>
      <trkpt lat="46.11207" lon="4.57029">
        <ele>369.6</ele>
        <time>2020-10-24T06:09:53Z</time>
      </trkpt>
      <trkpt lat="46.11208" lon="4.57026">
        <ele>369.8</ele>
        <time>2020-10-24T06:09:54Z</time>
      </trkpt>
      <trkpt lat="46.11208" lon="4.57026">
        <ele>370</ele>
        <time>2020-10-24T06:09:55Z</time>
      </trkpt>
      <trkpt lat="46.11209" lon="4.57022">
        <ele>370.4</ele>
        <time>2020-10-24T06:09:56Z</time>
      </trkpt>
      <trkpt lat="46.11209" lon="4.57022">
        <ele>370.6</ele>
        <time>2020-10-24T06:09:57Z</time>
      </trkpt>
      <trkpt lat="46.1121" lon="4.57018">
        <ele>370.8</ele>
        <time>2020-10-24T06:09:58Z</time>
      </trkpt>
      <trkpt lat="46.1121" lon="4.57018">
        <ele>371</ele>
        <time>2020-10-24T06:09:59Z</time>
      </trkpt>
      <trkpt lat="46.11211" lon="4.57014">
        <ele>371</ele>
        <time>2020-10-24T06:10:00Z</time>
      </trkpt>
      <trkpt lat="46.11211" lon="4.57014">
        <ele>371.2</ele>
        <time>2020-10-24T06:10:01Z</time>
      </trkpt>
      <trkpt lat="46.11212" lon="4.57011">
        <ele>371.4</ele>
        <time>2020-10-24T06:10:02Z</time>
      </trkpt>
      <trkpt lat="46.11212" lon="4.57011">
        <ele>371.4</ele>
        <time>2020-10-24T06:10:03Z</time>
      </trkpt>
      <trkpt lat="46.11213" lon="4.57007">
        <ele>371.6</ele>
        <time>2020-10-24T06:10:04Z</time>
      </trkpt>
      <trkpt lat="46.11213" lon="4.57007">
        <ele>371.6</ele>
        <time>2020-10-24T06:10:05Z</time>
      </trkpt>
      <trkpt lat="46.11215" lon="4.57003">
        <ele>371.6</ele>
        <time>2020-10-24T06:10:06Z</time>
      </trkpt>
      <trkpt lat="46.11216" lon="4.57001">
        <ele>371.8</ele>
        <time>2020-10-24T06:10:07Z</time>
      </trkpt>
      <trkpt lat="46.11216" lon="4.57001">
        <ele>371.8</ele>
        <time>2020-10-24T06:10:08Z</time>
      </trkpt>
      <trkpt lat="46.11217" lon="4.56997">
        <ele>372.2</ele>
        <time>2020-10-24T06:10:09Z</time>
      </trkpt>
      <trkpt lat="46.11217" lon="4.56997">
        <ele>372.6</ele>
        <time>2020-10-24T06:10:10Z</time>
      </trkpt>
      <trkpt lat="46.11217" lon="4.56993">
        <ele>373</ele>
        <time>2020-10-24T06:10:11Z</time>
      </trkpt>
      <trkpt lat="46.11217" lon="4.56993">
        <ele>373.4</ele>
        <time>2020-10-24T06:10:12Z</time>
      </trkpt>
      <trkpt lat="46.11219" lon="4.56989">
        <ele>373.6</ele>
        <time>2020-10-24T06:10:13Z</time>
      </trkpt>
      <trkpt lat="46.11219" lon="4.56989">
        <ele>373.8</ele>
        <time>2020-10-24T06:10:14Z</time>
      </trkpt>
      <trkpt lat="46.1122" lon="4.56985">
        <ele>373.8</ele>
        <time>2020-10-24T06:10:15Z</time>
      </trkpt>
      <trkpt lat="46.1122" lon="4.56985">
        <ele>374</ele>
        <time>2020-10-24T06:10:16Z</time>
      </trkpt>
      <trkpt lat="46.11221" lon="4.56981">
        <ele>374.2</ele>
        <time>2020-10-24T06:10:17Z</time>
      </trkpt>
      <trkpt lat="46.11221" lon="4.56981">
        <ele>374.4</ele>
        <time>2020-10-24T06:10:18Z</time>
      </trkpt>
      <trkpt lat="46.11222" lon="4.56976">
        <ele>374.6</ele>
        <time>2020-10-24T06:10:19Z</time>
      </trkpt>
      <trkpt lat="46.11222" lon="4.56976">
        <ele>375</ele>
        <time>2020-10-24T06:10:20Z</time>
      </trkpt>
      <trkpt lat="46.11223" lon="4.56972">
        <ele>375</ele>
        <time>2020-10-24T06:10:21Z</time>
      </trkpt>
      <trkpt lat="46.11223" lon="4.56972">
        <ele>375.4</ele>
        <time>2020-10-24T06:10:22Z</time>
      </trkpt>
      <trkpt lat="46.11223" lon="4.56968">
        <ele>375.6</ele>
        <time>2020-10-24T06:10:23Z</time>
      </trkpt>
      <trkpt lat="46.11223" lon="4.56968">
        <ele>375.8</ele>
        <time>2020-10-24T06:10:24Z</time>
      </trkpt>
      <trkpt lat="46.11224" lon="4.56964">
        <ele>376</ele>
        <time>2020-10-24T06:10:25Z</time>
      </trkpt>
      <trkpt lat="46.11224" lon="4.56964">
        <ele>376.2</ele>
        <time>2020-10-24T06:10:26Z</time>
      </trkpt>
      <trkpt lat="46.11223" lon="4.56961">
        <ele>376.4</ele>
        <time>2020-10-24T06:10:27Z</time>
      </trkpt>
      <trkpt lat="46.11223" lon="4.56961">
        <ele>376.4</ele>
        <time>2020-10-24T06:10:28Z</time>
      </trkpt>
      <trkpt lat="46.11223" lon="4.56957">
        <ele>376.6</ele>
        <time>2020-10-24T06:10:29Z</time>
      </trkpt>
      <trkpt lat="46.11223" lon="4.56957">
        <ele>376.8</ele>
        <time>2020-10-24T06:10:30Z</time>
      </trkpt>
      <trkpt lat="46.11221" lon="4.56953">
        <ele>376.8</ele>
        <time>2020-10-24T06:10:31Z</time>
      </trkpt>
      <trkpt lat="46.11221" lon="4.56953">
        <ele>376.8</ele>
        <time>2020-10-24T06:10:32Z</time>
      </trkpt>
      <trkpt lat="46.1122" lon="4.56949">
        <ele>377</ele>
        <time>2020-10-24T06:10:33Z</time>
      </trkpt>
      <trkpt lat="46.1122" lon="4.56949">
        <ele>377.2</ele>
        <time>2020-10-24T06:10:34Z</time>
      </trkpt>
      <trkpt lat="46.1122" lon="4.56945">
        <ele>377.4</ele>
        <time>2020-10-24T06:10:35Z</time>
      </trkpt>
      <trkpt lat="46.1122" lon="4.56945">
        <ele>377.8</ele>
        <time>2020-10-24T06:10:36Z</time>
      </trkpt>
      <trkpt lat="46.11218" lon="4.5694">
        <ele>378.2</ele>
        <time>2020-10-24T06:10:37Z</time>
      </trkpt>
      <trkpt lat="46.11218" lon="4.5694">
        <ele>378.6</ele>
        <time>2020-10-24T06:10:38Z</time>
      </trkpt>
      <trkpt lat="46.11218" lon="4.56936">
        <ele>378.8</ele>
        <time>2020-10-24T06:10:39Z</time>
      </trkpt>
      <trkpt lat="46.11218" lon="4.56936">
        <ele>379</ele>
        <time>2020-10-24T06:10:40Z</time>
      </trkpt>
      <trkpt lat="46.11217" lon="4.56931">
        <ele>379.2</ele>
        <time>2020-10-24T06:10:41Z</time>
      </trkpt>
      <trkpt lat="46.11217" lon="4.56931">
        <ele>379.2</ele>
        <time>2020-10-24T06:10:42Z</time>
      </trkpt>
      <trkpt lat="46.11216" lon="4.56927">
        <ele>379.2</ele>
        <time>2020-10-24T06:10:43Z</time>
      </trkpt>
      <trkpt lat="46.11216" lon="4.56927">
        <ele>379.4</ele>
        <time>2020-10-24T06:10:44Z</time>
      </trkpt>
      <trkpt lat="46.11214" lon="4.56924">
        <ele>379.6</ele>
        <time>2020-10-24T06:10:45Z</time>
      </trkpt>
      <trkpt lat="46.11214" lon="4.56924">
        <ele>379.8</ele>
        <time>2020-10-24T06:10:46Z</time>
      </trkpt>
      <trkpt lat="46.11213" lon="4.5692">
        <ele>380</ele>
        <time>2020-10-24T06:10:47Z</time>
      </trkpt>
      <trkpt lat="46.11213" lon="4.5692">
        <ele>380.2</ele>
        <time>2020-10-24T06:10:48Z</time>
      </trkpt>
      <trkpt lat="46.11212" lon="4.56916">
        <ele>380.4</ele>
        <time>2020-10-24T06:10:49Z</time>
      </trkpt>
      <trkpt lat="46.11212" lon="4.56916">
        <ele>380.8</ele>
        <time>2020-10-24T06:10:50Z</time>
      </trkpt>
      <trkpt lat="46.11211" lon="4.56912">
        <ele>380.8</ele>
        <time>2020-10-24T06:10:51Z</time>
      </trkpt>
      <trkpt lat="46.11211" lon="4.56912">
        <ele>381</ele>
        <time>2020-10-24T06:10:52Z</time>
      </trkpt>
      <trkpt lat="46.11209" lon="4.56908">
        <ele>381</ele>
        <time>2020-10-24T06:10:53Z</time>
      </trkpt>
      <trkpt lat="46.11209" lon="4.56908">
        <ele>381.2</ele>
        <time>2020-10-24T06:10:54Z</time>
      </trkpt>
      <trkpt lat="46.11209" lon="4.56904">
        <ele>381.4</ele>
        <time>2020-10-24T06:10:55Z</time>
      </trkpt>
      <trkpt lat="46.11209" lon="4.56904">
        <ele>381.6</ele>
        <time>2020-10-24T06:10:56Z</time>
      </trkpt>
      <trkpt lat="46.11207" lon="4.569">
        <ele>382</ele>
        <time>2020-10-24T06:10:57Z</time>
      </trkpt>
      <trkpt lat="46.11207" lon="4.569">
        <ele>382.2</ele>
        <time>2020-10-24T06:10:58Z</time>
      </trkpt>
      <trkpt lat="46.11206" lon="4.56896">
        <ele>382.4</ele>
        <time>2020-10-24T06:10:59Z</time>
      </trkpt>
      <trkpt lat="46.11206" lon="4.56896">
        <ele>382.6</ele>
        <time>2020-10-24T06:11:00Z</time>
      </trkpt>
      <trkpt lat="46.11205" lon="4.56892">
        <ele>382.8</ele>
        <time>2020-10-24T06:11:01Z</time>
      </trkpt>
      <trkpt lat="46.11205" lon="4.56892">
        <ele>383</ele>
        <time>2020-10-24T06:11:02Z</time>
      </trkpt>
      <trkpt lat="46.11204" lon="4.56888">
        <ele>383</ele>
        <time>2020-10-24T06:11:03Z</time>
      </trkpt>
      <trkpt lat="46.11204" lon="4.56888">
        <ele>383</ele>
        <time>2020-10-24T06:11:04Z</time>
      </trkpt>
      <trkpt lat="46.11203" lon="4.56884">
        <ele>383</ele>
        <time>2020-10-24T06:11:05Z</time>
      </trkpt>
      <trkpt lat="46.11203" lon="4.56884">
        <ele>383</ele>
        <time>2020-10-24T06:11:06Z</time>
      </trkpt>
      <trkpt lat="46.11202" lon="4.5688">
        <ele>383</ele>
        <time>2020-10-24T06:11:07Z</time>
      </trkpt>
      <trkpt lat="46.11202" lon="4.5688">
        <ele>383.4</ele>
        <time>2020-10-24T06:11:08Z</time>
      </trkpt>
      <trkpt lat="46.11201" lon="4.56875">
        <ele>383.4</ele>
        <time>2020-10-24T06:11:09Z</time>
      </trkpt>
      <trkpt lat="46.11201" lon="4.56875">
        <ele>383.6</ele>
        <time>2020-10-24T06:11:10Z</time>
      </trkpt>
      <trkpt lat="46.112" lon="4.56871">
        <ele>383.6</ele>
        <time>2020-10-24T06:11:11Z</time>
      </trkpt>
      <trkpt lat="46.112" lon="4.56871">
        <ele>384.2</ele>
        <time>2020-10-24T06:11:12Z</time>
      </trkpt>
      <trkpt lat="46.11199" lon="4.56867">
        <ele>384.4</ele>
        <time>2020-10-24T06:11:13Z</time>
      </trkpt>
      <trkpt lat="46.11199" lon="4.56867">
        <ele>384.8</ele>
        <time>2020-10-24T06:11:14Z</time>
      </trkpt>
      <trkpt lat="46.11198" lon="4.56863">
        <ele>385.2</ele>
        <time>2020-10-24T06:11:15Z</time>
      </trkpt>
      <trkpt lat="46.11198" lon="4.56863">
        <ele>385.2</ele>
        <time>2020-10-24T06:11:16Z</time>
      </trkpt>
      <trkpt lat="46.11198" lon="4.56858">
        <ele>385.4</ele>
        <time>2020-10-24T06:11:17Z</time>
      </trkpt>
      <trkpt lat="46.11198" lon="4.56858">
        <ele>385.6</ele>
        <time>2020-10-24T06:11:18Z</time>
      </trkpt>
      <trkpt lat="46.11199" lon="4.56853">
        <ele>385.8</ele>
        <time>2020-10-24T06:11:19Z</time>
      </trkpt>
      <trkpt lat="46.11199" lon="4.56853">
        <ele>386</ele>
        <time>2020-10-24T06:11:20Z</time>
      </trkpt>
      <trkpt lat="46.11201" lon="4.5685">
        <ele>386.2</ele>
        <time>2020-10-24T06:11:21Z</time>
      </trkpt>
      <trkpt lat="46.11201" lon="4.5685">
        <ele>386.4</ele>
        <time>2020-10-24T06:11:22Z</time>
      </trkpt>
      <trkpt lat="46.11203" lon="4.56848">
        <ele>386.8</ele>
        <time>2020-10-24T06:11:23Z</time>
      </trkpt>
      <trkpt lat="46.11203" lon="4.56848">
        <ele>387</ele>
        <time>2020-10-24T06:11:24Z</time>
      </trkpt>
      <trkpt lat="46.11205" lon="4.56845">
        <ele>387.2</ele>
        <time>2020-10-24T06:11:25Z</time>
      </trkpt>
      <trkpt lat="46.11205" lon="4.56845">
        <ele>387.4</ele>
        <time>2020-10-24T06:11:26Z</time>
      </trkpt>
      <trkpt lat="46.11207" lon="4.56842">
        <ele>387.4</ele>
        <time>2020-10-24T06:11:27Z</time>
      </trkpt>
      <trkpt lat="46.11207" lon="4.56842">
        <ele>387.6</ele>
        <time>2020-10-24T06:11:28Z</time>
      </trkpt>
      <trkpt lat="46.1121" lon="4.56839">
        <ele>388</ele>
        <time>2020-10-24T06:11:29Z</time>
      </trkpt>
      <trkpt lat="46.1121" lon="4.56839">
        <ele>388.2</ele>
        <time>2020-10-24T06:11:30Z</time>
      </trkpt>
      <trkpt lat="46.11212" lon="4.56836">
        <ele>388.6</ele>
        <time>2020-10-24T06:11:31Z</time>
      </trkpt>
      <trkpt lat="46.11212" lon="4.56836">
        <ele>389.2</ele>
        <time>2020-10-24T06:11:32Z</time>
      </trkpt>
      <trkpt lat="46.11215" lon="4.56834">
        <ele>389.4</ele>
        <time>2020-10-24T06:11:33Z</time>
      </trkpt>
      <trkpt lat="46.11215" lon="4.56834">
        <ele>389.6</ele>
        <time>2020-10-24T06:11:34Z</time>
      </trkpt>
      <trkpt lat="46.11218" lon="4.56833">
        <ele>389.8</ele>
        <time>2020-10-24T06:11:35Z</time>
      </trkpt>
      <trkpt lat="46.11218" lon="4.56833">
        <ele>390.2</ele>
        <time>2020-10-24T06:11:36Z</time>
      </trkpt>
      <trkpt lat="46.1122" lon="4.56832">
        <ele>390.6</ele>
        <time>2020-10-24T06:11:37Z</time>
      </trkpt>
      <trkpt lat="46.1122" lon="4.56832">
        <ele>391</ele>
        <time>2020-10-24T06:11:38Z</time>
      </trkpt>
      <trkpt lat="46.11222" lon="4.56831">
        <ele>391.2</ele>
        <time>2020-10-24T06:11:39Z</time>
      </trkpt>
      <trkpt lat="46.11222" lon="4.56831">
        <ele>391.6</ele>
        <time>2020-10-24T06:11:40Z</time>
      </trkpt>
      <trkpt lat="46.11225" lon="4.5683">
        <ele>391.8</ele>
        <time>2020-10-24T06:11:41Z</time>
      </trkpt>
      <trkpt lat="46.11225" lon="4.5683">
        <ele>392</ele>
        <time>2020-10-24T06:11:42Z</time>
      </trkpt>
      <trkpt lat="46.11228" lon="4.56828">
        <ele>392.2</ele>
        <time>2020-10-24T06:11:43Z</time>
      </trkpt>
      <trkpt lat="46.11228" lon="4.56828">
        <ele>392.4</ele>
        <time>2020-10-24T06:11:44Z</time>
      </trkpt>
      <trkpt lat="46.11231" lon="4.56827">
        <ele>392.6</ele>
        <time>2020-10-24T06:11:45Z</time>
      </trkpt>
      <trkpt lat="46.11231" lon="4.56827">
        <ele>392.8</ele>
        <time>2020-10-24T06:11:46Z</time>
      </trkpt>
      <trkpt lat="46.11234" lon="4.56825">
        <ele>393</ele>
        <time>2020-10-24T06:11:47Z</time>
      </trkpt>
      <trkpt lat="46.11234" lon="4.56825">
        <ele>393.4</ele>
        <time>2020-10-24T06:11:48Z</time>
      </trkpt>
      <trkpt lat="46.11237" lon="4.56823">
        <ele>393.6</ele>
        <time>2020-10-24T06:11:49Z</time>
      </trkpt>
      <trkpt lat="46.11237" lon="4.56823">
        <ele>394</ele>
        <time>2020-10-24T06:11:50Z</time>
      </trkpt>
      <trkpt lat="46.11239" lon="4.5682">
        <ele>394.4</ele>
        <time>2020-10-24T06:11:51Z</time>
      </trkpt>
      <trkpt lat="46.1124" lon="4.56817">
        <ele>394.6</ele>
        <time>2020-10-24T06:11:52Z</time>
      </trkpt>
      <trkpt lat="46.1124" lon="4.56815">
        <ele>394.8</ele>
        <time>2020-10-24T06:11:53Z</time>
      </trkpt>
      <trkpt lat="46.1124" lon="4.56815">
        <ele>395.2</ele>
        <time>2020-10-24T06:11:54Z</time>
      </trkpt>
      <trkpt lat="46.11241" lon="4.56811">
        <ele>395.4</ele>
        <time>2020-10-24T06:11:55Z</time>
      </trkpt>
      <trkpt lat="46.11241" lon="4.56811">
        <ele>395.8</ele>
        <time>2020-10-24T06:11:56Z</time>
      </trkpt>
      <trkpt lat="46.11241" lon="4.56807">
        <ele>396.2</ele>
        <time>2020-10-24T06:11:57Z</time>
      </trkpt>
      <trkpt lat="46.11241" lon="4.56807">
        <ele>396.2</ele>
        <time>2020-10-24T06:11:58Z</time>
      </trkpt>
      <trkpt lat="46.11241" lon="4.56807">
        <ele>396.4</ele>
        <time>2020-10-24T06:11:59Z</time>
      </trkpt>
      <trkpt lat="46.11242" lon="4.56803">
        <ele>396.4</ele>
        <time>2020-10-24T06:12:00Z</time>
      </trkpt>
      <trkpt lat="46.11242" lon="4.56803">
        <ele>396.6</ele>
        <time>2020-10-24T06:12:01Z</time>
      </trkpt>
      <trkpt lat="46.11242" lon="4.56803">
        <ele>396.8</ele>
        <time>2020-10-24T06:12:02Z</time>
      </trkpt>
      <trkpt lat="46.11242" lon="4.56797">
        <ele>397</ele>
        <time>2020-10-24T06:12:03Z</time>
      </trkpt>
      <trkpt lat="46.11243" lon="4.56795">
        <ele>397.4</ele>
        <time>2020-10-24T06:12:04Z</time>
      </trkpt>
      <trkpt lat="46.11243" lon="4.56795">
        <ele>397.4</ele>
        <time>2020-10-24T06:12:05Z</time>
      </trkpt>
      <trkpt lat="46.11244" lon="4.56792">
        <ele>397.6</ele>
        <time>2020-10-24T06:12:06Z</time>
      </trkpt>
      <trkpt lat="46.11244" lon="4.56792">
        <ele>398</ele>
        <time>2020-10-24T06:12:07Z</time>
      </trkpt>
      <trkpt lat="46.11245" lon="4.56789">
        <ele>398.2</ele>
        <time>2020-10-24T06:12:08Z</time>
      </trkpt>
      <trkpt lat="46.11245" lon="4.56789">
        <ele>398.6</ele>
        <time>2020-10-24T06:12:09Z</time>
      </trkpt>
      <trkpt lat="46.11246" lon="4.56786">
        <ele>398.8</ele>
        <time>2020-10-24T06:12:10Z</time>
      </trkpt>
      <trkpt lat="46.11246" lon="4.56786">
        <ele>398.8</ele>
        <time>2020-10-24T06:12:11Z</time>
      </trkpt>
      <trkpt lat="46.11248" lon="4.56783">
        <ele>398.8</ele>
        <time>2020-10-24T06:12:12Z</time>
      </trkpt>
      <trkpt lat="46.11248" lon="4.56783">
        <ele>399.2</ele>
        <time>2020-10-24T06:12:13Z</time>
      </trkpt>
      <trkpt lat="46.11249" lon="4.56779">
        <ele>399.8</ele>
        <time>2020-10-24T06:12:14Z</time>
      </trkpt>
      <trkpt lat="46.11249" lon="4.56779">
        <ele>399.8</ele>
        <time>2020-10-24T06:12:15Z</time>
      </trkpt>
      <trkpt lat="46.11251" lon="4.56776">
        <ele>400.2</ele>
        <time>2020-10-24T06:12:16Z</time>
      </trkpt>
      <trkpt lat="46.11251" lon="4.56776">
        <ele>400.4</ele>
        <time>2020-10-24T06:12:17Z</time>
      </trkpt>
      <trkpt lat="46.11252" lon="4.56773">
        <ele>400.6</ele>
        <time>2020-10-24T06:12:18Z</time>
      </trkpt>
      <trkpt lat="46.11252" lon="4.56773">
        <ele>400.8</ele>
        <time>2020-10-24T06:12:19Z</time>
      </trkpt>
      <trkpt lat="46.11253" lon="4.5677">
        <ele>401</ele>
        <time>2020-10-24T06:12:20Z</time>
      </trkpt>
      <trkpt lat="46.11253" lon="4.5677">
        <ele>401.2</ele>
        <time>2020-10-24T06:12:21Z</time>
      </trkpt>
      <trkpt lat="46.11255" lon="4.56767">
        <ele>401.4</ele>
        <time>2020-10-24T06:12:22Z</time>
      </trkpt>
      <trkpt lat="46.11255" lon="4.56767">
        <ele>401.8</ele>
        <time>2020-10-24T06:12:23Z</time>
      </trkpt>
      <trkpt lat="46.11256" lon="4.56763">
        <ele>402.2</ele>
        <time>2020-10-24T06:12:24Z</time>
      </trkpt>
      <trkpt lat="46.11256" lon="4.56763">
        <ele>402.6</ele>
        <time>2020-10-24T06:12:25Z</time>
      </trkpt>
      <trkpt lat="46.11257" lon="4.56759">
        <ele>402.8</ele>
        <time>2020-10-24T06:12:26Z</time>
      </trkpt>
      <trkpt lat="46.11257" lon="4.56759">
        <ele>403</ele>
        <time>2020-10-24T06:12:27Z</time>
      </trkpt>
      <trkpt lat="46.11257" lon="4.56755">
        <ele>403.2</ele>
        <time>2020-10-24T06:12:28Z</time>
      </trkpt>
      <trkpt lat="46.11257" lon="4.56755">
        <ele>403.6</ele>
        <time>2020-10-24T06:12:29Z</time>
      </trkpt>
      <trkpt lat="46.11258" lon="4.56752">
        <ele>403.8</ele>
        <time>2020-10-24T06:12:30Z</time>
      </trkpt>
      <trkpt lat="46.11258" lon="4.56752">
        <ele>404.2</ele>
        <time>2020-10-24T06:12:31Z</time>
      </trkpt>
      <trkpt lat="46.11259" lon="4.56748">
        <ele>404.4</ele>
        <time>2020-10-24T06:12:32Z</time>
      </trkpt>
      <trkpt lat="46.11259" lon="4.56748">
        <ele>404.6</ele>
        <time>2020-10-24T06:12:33Z</time>
      </trkpt>
      <trkpt lat="46.1126" lon="4.56745">
        <ele>404.8</ele>
        <time>2020-10-24T06:12:34Z</time>
      </trkpt>
      <trkpt lat="46.1126" lon="4.56745">
        <ele>405</ele>
        <time>2020-10-24T06:12:35Z</time>
      </trkpt>
      <trkpt lat="46.11261" lon="4.5674">
        <ele>405</ele>
        <time>2020-10-24T06:12:36Z</time>
      </trkpt>
      <trkpt lat="46.11262" lon="4.56737">
        <ele>405.2</ele>
        <time>2020-10-24T06:12:37Z</time>
      </trkpt>
      <trkpt lat="46.11262" lon="4.56737">
        <ele>406</ele>
        <time>2020-10-24T06:12:38Z</time>
      </trkpt>
      <trkpt lat="46.11263" lon="4.56734">
        <ele>406.2</ele>
        <time>2020-10-24T06:12:39Z</time>
      </trkpt>
      <trkpt lat="46.11263" lon="4.56734">
        <ele>406.4</ele>
        <time>2020-10-24T06:12:40Z</time>
      </trkpt>
      <trkpt lat="46.11264" lon="4.5673">
        <ele>406.8</ele>
        <time>2020-10-24T06:12:41Z</time>
      </trkpt>
      <trkpt lat="46.11264" lon="4.5673">
        <ele>406.8</ele>
        <time>2020-10-24T06:12:42Z</time>
      </trkpt>
      <trkpt lat="46.11266" lon="4.56726">
        <ele>406.8</ele>
        <time>2020-10-24T06:12:43Z</time>
      </trkpt>
      <trkpt lat="46.11266" lon="4.56726">
        <ele>407.2</ele>
        <time>2020-10-24T06:12:44Z</time>
      </trkpt>
      <trkpt lat="46.11267" lon="4.56723">
        <ele>407.4</ele>
        <time>2020-10-24T06:12:45Z</time>
      </trkpt>
      <trkpt lat="46.11267" lon="4.56723">
        <ele>407.6</ele>
        <time>2020-10-24T06:12:46Z</time>
      </trkpt>
      <trkpt lat="46.11269" lon="4.5672">
        <ele>408</ele>
        <time>2020-10-24T06:12:47Z</time>
      </trkpt>
      <trkpt lat="46.11269" lon="4.5672">
        <ele>408</ele>
        <time>2020-10-24T06:12:48Z</time>
      </trkpt>
      <trkpt lat="46.1127" lon="4.56716">
        <ele>408.4</ele>
        <time>2020-10-24T06:12:49Z</time>
      </trkpt>
      <trkpt lat="46.1127" lon="4.56716">
        <ele>408.6</ele>
        <time>2020-10-24T06:12:50Z</time>
      </trkpt>
      <trkpt lat="46.1127" lon="4.56713">
        <ele>408.8</ele>
        <time>2020-10-24T06:12:51Z</time>
      </trkpt>
      <trkpt lat="46.1127" lon="4.56713">
        <ele>409</ele>
        <time>2020-10-24T06:12:52Z</time>
      </trkpt>
      <trkpt lat="46.11272" lon="4.56709">
        <ele>409</ele>
        <time>2020-10-24T06:12:53Z</time>
      </trkpt>
      <trkpt lat="46.11272" lon="4.56709">
        <ele>409.2</ele>
        <time>2020-10-24T06:12:54Z</time>
      </trkpt>
      <trkpt lat="46.11273" lon="4.56704">
        <ele>409.6</ele>
        <time>2020-10-24T06:12:55Z</time>
      </trkpt>
      <trkpt lat="46.11273" lon="4.56704">
        <ele>410</ele>
        <time>2020-10-24T06:12:56Z</time>
      </trkpt>
      <trkpt lat="46.11274" lon="4.567">
        <ele>410.2</ele>
        <time>2020-10-24T06:12:57Z</time>
      </trkpt>
      <trkpt lat="46.11274" lon="4.567">
        <ele>410.4</ele>
        <time>2020-10-24T06:12:58Z</time>
      </trkpt>
      <trkpt lat="46.11274" lon="4.56696">
        <ele>410.8</ele>
        <time>2020-10-24T06:12:59Z</time>
      </trkpt>
      <trkpt lat="46.11274" lon="4.56696">
        <ele>411.2</ele>
        <time>2020-10-24T06:13:00Z</time>
      </trkpt>
      <trkpt lat="46.11275" lon="4.56692">
        <ele>411.6</ele>
        <time>2020-10-24T06:13:01Z</time>
      </trkpt>
      <trkpt lat="46.11275" lon="4.56692">
        <ele>411.6</ele>
        <time>2020-10-24T06:13:02Z</time>
      </trkpt>
      <trkpt lat="46.11275" lon="4.56689">
        <ele>411.8</ele>
        <time>2020-10-24T06:13:03Z</time>
      </trkpt>
      <trkpt lat="46.11275" lon="4.56689">
        <ele>412</ele>
        <time>2020-10-24T06:13:04Z</time>
      </trkpt>
      <trkpt lat="46.11276" lon="4.56686">
        <ele>412.4</ele>
        <time>2020-10-24T06:13:05Z</time>
      </trkpt>
      <trkpt lat="46.11276" lon="4.56686">
        <ele>412.8</ele>
        <time>2020-10-24T06:13:06Z</time>
      </trkpt>
      <trkpt lat="46.11275" lon="4.56683">
        <ele>413</ele>
        <time>2020-10-24T06:13:07Z</time>
      </trkpt>
      <trkpt lat="46.11274" lon="4.56681">
        <ele>413.4</ele>
        <time>2020-10-24T06:13:08Z</time>
      </trkpt>
      <trkpt lat="46.11274" lon="4.56681">
        <ele>413.6</ele>
        <time>2020-10-24T06:13:09Z</time>
      </trkpt>
      <trkpt lat="46.11272" lon="4.56678">
        <ele>413.8</ele>
        <time>2020-10-24T06:13:10Z</time>
      </trkpt>
      <trkpt lat="46.11272" lon="4.56678">
        <ele>414.2</ele>
        <time>2020-10-24T06:13:11Z</time>
      </trkpt>
      <trkpt lat="46.11269" lon="4.56676">
        <ele>414.4</ele>
        <time>2020-10-24T06:13:12Z</time>
      </trkpt>
      <trkpt lat="46.11269" lon="4.56676">
        <ele>414.6</ele>
        <time>2020-10-24T06:13:13Z</time>
      </trkpt>
      <trkpt lat="46.11267" lon="4.56673">
        <ele>414.8</ele>
        <time>2020-10-24T06:13:14Z</time>
      </trkpt>
      <trkpt lat="46.11267" lon="4.56673">
        <ele>415</ele>
        <time>2020-10-24T06:13:15Z</time>
      </trkpt>
      <trkpt lat="46.11265" lon="4.5667">
        <ele>415.4</ele>
        <time>2020-10-24T06:13:16Z</time>
      </trkpt>
      <trkpt lat="46.11265" lon="4.5667">
        <ele>416</ele>
        <time>2020-10-24T06:13:17Z</time>
      </trkpt>
      <trkpt lat="46.11263" lon="4.56667">
        <ele>416.2</ele>
        <time>2020-10-24T06:13:18Z</time>
      </trkpt>
      <trkpt lat="46.11263" lon="4.56667">
        <ele>416.4</ele>
        <time>2020-10-24T06:13:19Z</time>
      </trkpt>
      <trkpt lat="46.11261" lon="4.56664">
        <ele>416.6</ele>
        <time>2020-10-24T06:13:20Z</time>
      </trkpt>
      <trkpt lat="46.11261" lon="4.56664">
        <ele>416.8</ele>
        <time>2020-10-24T06:13:21Z</time>
      </trkpt>
      <trkpt lat="46.11259" lon="4.56661">
        <ele>417.2</ele>
        <time>2020-10-24T06:13:22Z</time>
      </trkpt>
      <trkpt lat="46.11259" lon="4.56661">
        <ele>417.4</ele>
        <time>2020-10-24T06:13:23Z</time>
      </trkpt>
      <trkpt lat="46.11257" lon="4.56658">
        <ele>417.6</ele>
        <time>2020-10-24T06:13:24Z</time>
      </trkpt>
      <trkpt lat="46.11257" lon="4.56658">
        <ele>418</ele>
        <time>2020-10-24T06:13:25Z</time>
      </trkpt>
      <trkpt lat="46.11256" lon="4.56655">
        <ele>418.4</ele>
        <time>2020-10-24T06:13:26Z</time>
      </trkpt>
      <trkpt lat="46.11256" lon="4.56655">
        <ele>418.4</ele>
        <time>2020-10-24T06:13:27Z</time>
      </trkpt>
      <trkpt lat="46.11255" lon="4.56652">
        <ele>418.6</ele>
        <time>2020-10-24T06:13:28Z</time>
      </trkpt>
      <trkpt lat="46.11255" lon="4.56652">
        <ele>419</ele>
        <time>2020-10-24T06:13:29Z</time>
      </trkpt>
      <trkpt lat="46.11254" lon="4.56648">
        <ele>419.4</ele>
        <time>2020-10-24T06:13:30Z</time>
      </trkpt>
      <trkpt lat="46.11254" lon="4.56648">
        <ele>419.6</ele>
        <time>2020-10-24T06:13:31Z</time>
      </trkpt>
      <trkpt lat="46.11255" lon="4.56644">
        <ele>419.8</ele>
        <time>2020-10-24T06:13:32Z</time>
      </trkpt>
      <trkpt lat="46.11255" lon="4.56644">
        <ele>420.2</ele>
        <time>2020-10-24T06:13:33Z</time>
      </trkpt>
      <trkpt lat="46.11256" lon="4.5664">
        <ele>420.4</ele>
        <time>2020-10-24T06:13:34Z</time>
      </trkpt>
      <trkpt lat="46.11256" lon="4.5664">
        <ele>420.6</ele>
        <time>2020-10-24T06:13:35Z</time>
      </trkpt>
      <trkpt lat="46.11257" lon="4.56637">
        <ele>420.8</ele>
        <time>2020-10-24T06:13:36Z</time>
      </trkpt>
      <trkpt lat="46.11257" lon="4.56637">
        <ele>421.2</ele>
        <time>2020-10-24T06:13:37Z</time>
      </trkpt>
      <trkpt lat="46.11259" lon="4.56633">
        <ele>421.4</ele>
        <time>2020-10-24T06:13:38Z</time>
      </trkpt>
      <trkpt lat="46.11259" lon="4.56633">
        <ele>421.8</ele>
        <time>2020-10-24T06:13:39Z</time>
      </trkpt>
      <trkpt lat="46.11261" lon="4.5663">
        <ele>421.8</ele>
        <time>2020-10-24T06:13:40Z</time>
      </trkpt>
      <trkpt lat="46.11261" lon="4.5663">
        <ele>422.4</ele>
        <time>2020-10-24T06:13:41Z</time>
      </trkpt>
      <trkpt lat="46.11262" lon="4.56628">
        <ele>422.4</ele>
        <time>2020-10-24T06:13:42Z</time>
      </trkpt>
      <trkpt lat="46.11262" lon="4.56628">
        <ele>422.6</ele>
        <time>2020-10-24T06:13:43Z</time>
      </trkpt>
      <trkpt lat="46.11264" lon="4.56625">
        <ele>422.8</ele>
        <time>2020-10-24T06:13:44Z</time>
      </trkpt>
      <trkpt lat="46.11264" lon="4.56625">
        <ele>422.8</ele>
        <time>2020-10-24T06:13:45Z</time>
      </trkpt>
      <trkpt lat="46.11266" lon="4.56623">
        <ele>423.2</ele>
        <time>2020-10-24T06:13:46Z</time>
      </trkpt>
      <trkpt lat="46.11266" lon="4.56623">
        <ele>423.6</ele>
        <time>2020-10-24T06:13:47Z</time>
      </trkpt>
      <trkpt lat="46.11268" lon="4.5662">
        <ele>423.8</ele>
        <time>2020-10-24T06:13:48Z</time>
      </trkpt>
      <trkpt lat="46.11268" lon="4.5662">
        <ele>424</ele>
        <time>2020-10-24T06:13:49Z</time>
      </trkpt>
      <trkpt lat="46.11269" lon="4.56616">
        <ele>424.2</ele>
        <time>2020-10-24T06:13:50Z</time>
      </trkpt>
      <trkpt lat="46.11269" lon="4.56616">
        <ele>424.4</ele>
        <time>2020-10-24T06:13:51Z</time>
      </trkpt>
      <trkpt lat="46.11271" lon="4.56613">
        <ele>424.4</ele>
        <time>2020-10-24T06:13:52Z</time>
      </trkpt>
      <trkpt lat="46.11271" lon="4.56613">
        <ele>424.6</ele>
        <time>2020-10-24T06:13:53Z</time>
      </trkpt>
      <trkpt lat="46.11273" lon="4.56611">
        <ele>424.8</ele>
        <time>2020-10-24T06:13:54Z</time>
      </trkpt>
      <trkpt lat="46.11273" lon="4.56611">
        <ele>425.2</ele>
        <time>2020-10-24T06:13:55Z</time>
      </trkpt>
      <trkpt lat="46.11274" lon="4.56607">
        <ele>425.6</ele>
        <time>2020-10-24T06:13:56Z</time>
      </trkpt>
      <trkpt lat="46.11274" lon="4.56607">
        <ele>425.8</ele>
        <time>2020-10-24T06:13:57Z</time>
      </trkpt>
      <trkpt lat="46.11276" lon="4.56604">
        <ele>426</ele>
        <time>2020-10-24T06:13:58Z</time>
      </trkpt>
      <trkpt lat="46.11276" lon="4.56604">
        <ele>426.4</ele>
        <time>2020-10-24T06:13:59Z</time>
      </trkpt>
      <trkpt lat="46.11276" lon="4.56601">
        <ele>426.6</ele>
        <time>2020-10-24T06:14:00Z</time>
      </trkpt>
      <trkpt lat="46.11276" lon="4.56601">
        <ele>426.8</ele>
        <time>2020-10-24T06:14:01Z</time>
      </trkpt>
      <trkpt lat="46.11277" lon="4.56598">
        <ele>427</ele>
        <time>2020-10-24T06:14:02Z</time>
      </trkpt>
      <trkpt lat="46.11277" lon="4.56598">
        <ele>427.2</ele>
        <time>2020-10-24T06:14:03Z</time>
      </trkpt>
      <trkpt lat="46.11277" lon="4.56595">
        <ele>427.8</ele>
        <time>2020-10-24T06:14:04Z</time>
      </trkpt>
      <trkpt lat="46.11277" lon="4.56595">
        <ele>428</ele>
        <time>2020-10-24T06:14:05Z</time>
      </trkpt>
      <trkpt lat="46.11278" lon="4.56592">
        <ele>428.2</ele>
        <time>2020-10-24T06:14:06Z</time>
      </trkpt>
      <trkpt lat="46.11278" lon="4.56592">
        <ele>428.4</ele>
        <time>2020-10-24T06:14:07Z</time>
      </trkpt>
      <trkpt lat="46.11279" lon="4.56589">
        <ele>428.8</ele>
        <time>2020-10-24T06:14:08Z</time>
      </trkpt>
      <trkpt lat="46.11279" lon="4.56589">
        <ele>429</ele>
        <time>2020-10-24T06:14:09Z</time>
      </trkpt>
      <trkpt lat="46.11281" lon="4.56586">
        <ele>429.4</ele>
        <time>2020-10-24T06:14:10Z</time>
      </trkpt>
      <trkpt lat="46.11281" lon="4.56586">
        <ele>429.6</ele>
        <time>2020-10-24T06:14:11Z</time>
      </trkpt>
      <trkpt lat="46.11281" lon="4.56583">
        <ele>429.8</ele>
        <time>2020-10-24T06:14:12Z</time>
      </trkpt>
      <trkpt lat="46.11281" lon="4.56583">
        <ele>430.4</ele>
        <time>2020-10-24T06:14:13Z</time>
      </trkpt>
      <trkpt lat="46.11282" lon="4.56581">
        <ele>430.6</ele>
        <time>2020-10-24T06:14:14Z</time>
      </trkpt>
      <trkpt lat="46.11282" lon="4.56581">
        <ele>430.8</ele>
        <time>2020-10-24T06:14:15Z</time>
      </trkpt>
      <trkpt lat="46.11284" lon="4.56577">
        <ele>431</ele>
        <time>2020-10-24T06:14:16Z</time>
      </trkpt>
      <trkpt lat="46.11284" lon="4.56577">
        <ele>431.2</ele>
        <time>2020-10-24T06:14:17Z</time>
      </trkpt>
      <trkpt lat="46.11285" lon="4.56574">
        <ele>431.6</ele>
        <time>2020-10-24T06:14:18Z</time>
      </trkpt>
      <trkpt lat="46.11285" lon="4.56574">
        <ele>431.8</ele>
        <time>2020-10-24T06:14:19Z</time>
      </trkpt>
      <trkpt lat="46.11286" lon="4.56571">
        <ele>432</ele>
        <time>2020-10-24T06:14:20Z</time>
      </trkpt>
      <trkpt lat="46.11286" lon="4.56571">
        <ele>432.2</ele>
        <time>2020-10-24T06:14:21Z</time>
      </trkpt>
      <trkpt lat="46.11287" lon="4.56567">
        <ele>432.4</ele>
        <time>2020-10-24T06:14:22Z</time>
      </trkpt>
      <trkpt lat="46.11287" lon="4.56567">
        <ele>432.8</ele>
        <time>2020-10-24T06:14:23Z</time>
      </trkpt>
      <trkpt lat="46.11288" lon="4.56563">
        <ele>433.2</ele>
        <time>2020-10-24T06:14:24Z</time>
      </trkpt>
      <trkpt lat="46.11288" lon="4.56563">
        <ele>433.2</ele>
        <time>2020-10-24T06:14:25Z</time>
      </trkpt>
      <trkpt lat="46.11288" lon="4.5656">
        <ele>433.4</ele>
        <time>2020-10-24T06:14:26Z</time>
      </trkpt>
      <trkpt lat="46.11288" lon="4.5656">
        <ele>433.8</ele>
        <time>2020-10-24T06:14:27Z</time>
      </trkpt>
      <trkpt lat="46.11289" lon="4.56557">
        <ele>433.8</ele>
        <time>2020-10-24T06:14:28Z</time>
      </trkpt>
      <trkpt lat="46.11289" lon="4.56557">
        <ele>434</ele>
        <time>2020-10-24T06:14:29Z</time>
      </trkpt>
      <trkpt lat="46.1129" lon="4.56553">
        <ele>434.4</ele>
        <time>2020-10-24T06:14:30Z</time>
      </trkpt>
      <trkpt lat="46.1129" lon="4.56553">
        <ele>434.6</ele>
        <time>2020-10-24T06:14:31Z</time>
      </trkpt>
      <trkpt lat="46.11291" lon="4.5655">
        <ele>434.8</ele>
        <time>2020-10-24T06:14:32Z</time>
      </trkpt>
      <trkpt lat="46.11291" lon="4.5655">
        <ele>435.2</ele>
        <time>2020-10-24T06:14:33Z</time>
      </trkpt>
      <trkpt lat="46.11292" lon="4.56548">
        <ele>435.6</ele>
        <time>2020-10-24T06:14:34Z</time>
      </trkpt>
      <trkpt lat="46.11292" lon="4.56548">
        <ele>436</ele>
        <time>2020-10-24T06:14:35Z</time>
      </trkpt>
      <trkpt lat="46.11293" lon="4.56544">
        <ele>436.4</ele>
        <time>2020-10-24T06:14:36Z</time>
      </trkpt>
      <trkpt lat="46.11293" lon="4.56544">
        <ele>436.6</ele>
        <time>2020-10-24T06:14:37Z</time>
      </trkpt>
      <trkpt lat="46.11294" lon="4.56541">
        <ele>436.8</ele>
        <time>2020-10-24T06:14:38Z</time>
      </trkpt>
      <trkpt lat="46.11294" lon="4.56541">
        <ele>437</ele>
        <time>2020-10-24T06:14:39Z</time>
      </trkpt>
      <trkpt lat="46.11295" lon="4.56538">
        <ele>437.4</ele>
        <time>2020-10-24T06:14:40Z</time>
      </trkpt>
      <trkpt lat="46.11295" lon="4.56538">
        <ele>437.6</ele>
        <time>2020-10-24T06:14:41Z</time>
      </trkpt>
      <trkpt lat="46.11296" lon="4.56534">
        <ele>437.8</ele>
        <time>2020-10-24T06:14:42Z</time>
      </trkpt>
      <trkpt lat="46.11296" lon="4.56534">
        <ele>438.2</ele>
        <time>2020-10-24T06:14:43Z</time>
      </trkpt>
      <trkpt lat="46.11297" lon="4.56531">
        <ele>438.2</ele>
        <time>2020-10-24T06:14:44Z</time>
      </trkpt>
      <trkpt lat="46.11297" lon="4.56531">
        <ele>438.6</ele>
        <time>2020-10-24T06:14:45Z</time>
      </trkpt>
      <trkpt lat="46.11298" lon="4.56528">
        <ele>438.8</ele>
        <time>2020-10-24T06:14:46Z</time>
      </trkpt>
      <trkpt lat="46.11298" lon="4.56528">
        <ele>438.8</ele>
        <time>2020-10-24T06:14:47Z</time>
      </trkpt>
      <trkpt lat="46.11299" lon="4.56525">
        <ele>439</ele>
        <time>2020-10-24T06:14:48Z</time>
      </trkpt>
      <trkpt lat="46.11299" lon="4.56525">
        <ele>439.4</ele>
        <time>2020-10-24T06:14:49Z</time>
      </trkpt>
      <trkpt lat="46.113" lon="4.56522">
        <ele>439.6</ele>
        <time>2020-10-24T06:14:50Z</time>
      </trkpt>
      <trkpt lat="46.113" lon="4.56522">
        <ele>439.8</ele>
        <time>2020-10-24T06:14:51Z</time>
      </trkpt>
      <trkpt lat="46.113" lon="4.56522">
        <ele>440.2</ele>
        <time>2020-10-24T06:14:52Z</time>
      </trkpt>
      <trkpt lat="46.113" lon="4.56522">
        <ele>440.4</ele>
        <time>2020-10-24T06:14:53Z</time>
      </trkpt>
      <trkpt lat="46.113" lon="4.56522">
        <ele>440.4</ele>
        <time>2020-10-24T06:14:54Z</time>
      </trkpt>
      <trkpt lat="46.11298" lon="4.5652">
        <ele>440.6</ele>
        <time>2020-10-24T06:14:55Z</time>
      </trkpt>
      <trkpt lat="46.11298" lon="4.5652">
        <ele>441.2</ele>
        <time>2020-10-24T06:14:56Z</time>
      </trkpt>
      <trkpt lat="46.11296" lon="4.56519">
        <ele>441.4</ele>
        <time>2020-10-24T06:14:57Z</time>
      </trkpt>
      <trkpt lat="46.11296" lon="4.56519">
        <ele>441.8</ele>
        <time>2020-10-24T06:14:58Z</time>
      </trkpt>
      <trkpt lat="46.11294" lon="4.56518">
        <ele>442</ele>
        <time>2020-10-24T06:14:59Z</time>
      </trkpt>
      <trkpt lat="46.11294" lon="4.56518">
        <ele>442.4</ele>
        <time>2020-10-24T06:15:00Z</time>
      </trkpt>
      <trkpt lat="46.11292" lon="4.56516">
        <ele>442.6</ele>
        <time>2020-10-24T06:15:01Z</time>
      </trkpt>
      <trkpt lat="46.11292" lon="4.56516">
        <ele>443</ele>
        <time>2020-10-24T06:15:02Z</time>
      </trkpt>
      <trkpt lat="46.11289" lon="4.56514">
        <ele>443.2</ele>
        <time>2020-10-24T06:15:03Z</time>
      </trkpt>
      <trkpt lat="46.11289" lon="4.56514">
        <ele>443.6</ele>
        <time>2020-10-24T06:15:04Z</time>
      </trkpt>
      <trkpt lat="46.11287" lon="4.56512">
        <ele>443.8</ele>
        <time>2020-10-24T06:15:05Z</time>
      </trkpt>
      <trkpt lat="46.11287" lon="4.56512">
        <ele>444.2</ele>
        <time>2020-10-24T06:15:06Z</time>
      </trkpt>
      <trkpt lat="46.11285" lon="4.56511">
        <ele>444.4</ele>
        <time>2020-10-24T06:15:07Z</time>
      </trkpt>
      <trkpt lat="46.11285" lon="4.56511">
        <ele>444.4</ele>
        <time>2020-10-24T06:15:08Z</time>
      </trkpt>
      <trkpt lat="46.11283" lon="4.56508">
        <ele>444.8</ele>
        <time>2020-10-24T06:15:09Z</time>
      </trkpt>
      <trkpt lat="46.11283" lon="4.56508">
        <ele>445.2</ele>
        <time>2020-10-24T06:15:10Z</time>
      </trkpt>
      <trkpt lat="46.11281" lon="4.56505">
        <ele>445.4</ele>
        <time>2020-10-24T06:15:11Z</time>
      </trkpt>
      <trkpt lat="46.11281" lon="4.56505">
        <ele>445.6</ele>
        <time>2020-10-24T06:15:12Z</time>
      </trkpt>
      <trkpt lat="46.11279" lon="4.56503">
        <ele>446</ele>
        <time>2020-10-24T06:15:13Z</time>
      </trkpt>
      <trkpt lat="46.11279" lon="4.56503">
        <ele>446.2</ele>
        <time>2020-10-24T06:15:14Z</time>
      </trkpt>
      <trkpt lat="46.11277" lon="4.565">
        <ele>446.4</ele>
        <time>2020-10-24T06:15:15Z</time>
      </trkpt>
      <trkpt lat="46.11277" lon="4.565">
        <ele>447</ele>
        <time>2020-10-24T06:15:16Z</time>
      </trkpt>
      <trkpt lat="46.11275" lon="4.56498">
        <ele>447.4</ele>
        <time>2020-10-24T06:15:17Z</time>
      </trkpt>
      <trkpt lat="46.11275" lon="4.56498">
        <ele>447.6</ele>
        <time>2020-10-24T06:15:18Z</time>
      </trkpt>
      <trkpt lat="46.11273" lon="4.56496">
        <ele>447.6</ele>
        <time>2020-10-24T06:15:19Z</time>
      </trkpt>
      <trkpt lat="46.11273" lon="4.56496">
        <ele>448</ele>
        <time>2020-10-24T06:15:20Z</time>
      </trkpt>
      <trkpt lat="46.11272" lon="4.56494">
        <ele>448.2</ele>
        <time>2020-10-24T06:15:21Z</time>
      </trkpt>
      <trkpt lat="46.11272" lon="4.56494">
        <ele>448.4</ele>
        <time>2020-10-24T06:15:22Z</time>
      </trkpt>
      <trkpt lat="46.1127" lon="4.56491">
        <ele>448.4</ele>
        <time>2020-10-24T06:15:23Z</time>
      </trkpt>
      <trkpt lat="46.1127" lon="4.56491">
        <ele>449</ele>
        <time>2020-10-24T06:15:24Z</time>
      </trkpt>
      <trkpt lat="46.11269" lon="4.56488">
        <ele>449.2</ele>
        <time>2020-10-24T06:15:25Z</time>
      </trkpt>
      <trkpt lat="46.11269" lon="4.56488">
        <ele>449.4</ele>
        <time>2020-10-24T06:15:26Z</time>
      </trkpt>
      <trkpt lat="46.11268" lon="4.56485">
        <ele>449.8</ele>
        <time>2020-10-24T06:15:27Z</time>
      </trkpt>
      <trkpt lat="46.11268" lon="4.56485">
        <ele>450.2</ele>
        <time>2020-10-24T06:15:28Z</time>
      </trkpt>
      <trkpt lat="46.11267" lon="4.56482">
        <ele>450.4</ele>
        <time>2020-10-24T06:15:29Z</time>
      </trkpt>
      <trkpt lat="46.11267" lon="4.56482">
        <ele>450.6</ele>
        <time>2020-10-24T06:15:30Z</time>
      </trkpt>
      <trkpt lat="46.11265" lon="4.56478">
        <ele>450.6</ele>
        <time>2020-10-24T06:15:31Z</time>
      </trkpt>
      <trkpt lat="46.11265" lon="4.56478">
        <ele>450.8</ele>
        <time>2020-10-24T06:15:32Z</time>
      </trkpt>
      <trkpt lat="46.11264" lon="4.56475">
        <ele>451</ele>
        <time>2020-10-24T06:15:33Z</time>
      </trkpt>
      <trkpt lat="46.11264" lon="4.56475">
        <ele>451.2</ele>
        <time>2020-10-24T06:15:34Z</time>
      </trkpt>
      <trkpt lat="46.11263" lon="4.56472">
        <ele>451.4</ele>
        <time>2020-10-24T06:15:35Z</time>
      </trkpt>
      <trkpt lat="46.11263" lon="4.56472">
        <ele>451.8</ele>
        <time>2020-10-24T06:15:36Z</time>
      </trkpt>
      <trkpt lat="46.11262" lon="4.5647">
        <ele>452</ele>
        <time>2020-10-24T06:15:37Z</time>
      </trkpt>
      <trkpt lat="46.11262" lon="4.5647">
        <ele>452.2</ele>
        <time>2020-10-24T06:15:38Z</time>
      </trkpt>
      <trkpt lat="46.11261" lon="4.56467">
        <ele>452.6</ele>
        <time>2020-10-24T06:15:39Z</time>
      </trkpt>
      <trkpt lat="46.11261" lon="4.56467">
        <ele>453</ele>
        <time>2020-10-24T06:15:40Z</time>
      </trkpt>
      <trkpt lat="46.1126" lon="4.56464">
        <ele>453.2</ele>
        <time>2020-10-24T06:15:41Z</time>
      </trkpt>
      <trkpt lat="46.1126" lon="4.56464">
        <ele>453.6</ele>
        <time>2020-10-24T06:15:42Z</time>
      </trkpt>
      <trkpt lat="46.11258" lon="4.56462">
        <ele>453.8</ele>
        <time>2020-10-24T06:15:43Z</time>
      </trkpt>
      <trkpt lat="46.11258" lon="4.56462">
        <ele>454</ele>
        <time>2020-10-24T06:15:44Z</time>
      </trkpt>
      <trkpt lat="46.11256" lon="4.56459">
        <ele>454.4</ele>
        <time>2020-10-24T06:15:45Z</time>
      </trkpt>
      <trkpt lat="46.11256" lon="4.56459">
        <ele>454.6</ele>
        <time>2020-10-24T06:15:46Z</time>
      </trkpt>
      <trkpt lat="46.11254" lon="4.56455">
        <ele>454.8</ele>
        <time>2020-10-24T06:15:47Z</time>
      </trkpt>
      <trkpt lat="46.11254" lon="4.56455">
        <ele>455</ele>
        <time>2020-10-24T06:15:48Z</time>
      </trkpt>
      <trkpt lat="46.11252" lon="4.56451">
        <ele>455.2</ele>
        <time>2020-10-24T06:15:49Z</time>
      </trkpt>
      <trkpt lat="46.11252" lon="4.56451">
        <ele>455.4</ele>
        <time>2020-10-24T06:15:50Z</time>
      </trkpt>
      <trkpt lat="46.1125" lon="4.56448">
        <ele>455.6</ele>
        <time>2020-10-24T06:15:51Z</time>
      </trkpt>
      <trkpt lat="46.1125" lon="4.56448">
        <ele>456</ele>
        <time>2020-10-24T06:15:52Z</time>
      </trkpt>
      <trkpt lat="46.11249" lon="4.56445">
        <ele>456.2</ele>
        <time>2020-10-24T06:15:53Z</time>
      </trkpt>
      <trkpt lat="46.11249" lon="4.56445">
        <ele>456.2</ele>
        <time>2020-10-24T06:15:54Z</time>
      </trkpt>
      <trkpt lat="46.11248" lon="4.56442">
        <ele>456.6</ele>
        <time>2020-10-24T06:15:55Z</time>
      </trkpt>
      <trkpt lat="46.11248" lon="4.56442">
        <ele>456.8</ele>
        <time>2020-10-24T06:15:56Z</time>
      </trkpt>
      <trkpt lat="46.11246" lon="4.5644">
        <ele>457</ele>
        <time>2020-10-24T06:15:57Z</time>
      </trkpt>
      <trkpt lat="46.11246" lon="4.5644">
        <ele>457.4</ele>
        <time>2020-10-24T06:15:58Z</time>
      </trkpt>
      <trkpt lat="46.11244" lon="4.56437">
        <ele>458</ele>
        <time>2020-10-24T06:15:59Z</time>
      </trkpt>
      <trkpt lat="46.11244" lon="4.56437">
        <ele>458.2</ele>
        <time>2020-10-24T06:16:00Z</time>
      </trkpt>
      <trkpt lat="46.11243" lon="4.56433">
        <ele>458.2</ele>
        <time>2020-10-24T06:16:01Z</time>
      </trkpt>
      <trkpt lat="46.11243" lon="4.56433">
        <ele>458.2</ele>
        <time>2020-10-24T06:16:02Z</time>
      </trkpt>
      <trkpt lat="46.11242" lon="4.5643">
        <ele>458.2</ele>
        <time>2020-10-24T06:16:03Z</time>
      </trkpt>
      <trkpt lat="46.11242" lon="4.5643">
        <ele>458.6</ele>
        <time>2020-10-24T06:16:04Z</time>
      </trkpt>
      <trkpt lat="46.11241" lon="4.56427">
        <ele>458.8</ele>
        <time>2020-10-24T06:16:05Z</time>
      </trkpt>
      <trkpt lat="46.11241" lon="4.56427">
        <ele>459.4</ele>
        <time>2020-10-24T06:16:06Z</time>
      </trkpt>
      <trkpt lat="46.11241" lon="4.56423">
        <ele>459.4</ele>
        <time>2020-10-24T06:16:07Z</time>
      </trkpt>
      <trkpt lat="46.11241" lon="4.56423">
        <ele>459.6</ele>
        <time>2020-10-24T06:16:08Z</time>
      </trkpt>
      <trkpt lat="46.11241" lon="4.56419">
        <ele>459.8</ele>
        <time>2020-10-24T06:16:09Z</time>
      </trkpt>
      <trkpt lat="46.11241" lon="4.56419">
        <ele>460.2</ele>
        <time>2020-10-24T06:16:10Z</time>
      </trkpt>
      <trkpt lat="46.11241" lon="4.56416">
        <ele>460.6</ele>
        <time>2020-10-24T06:16:11Z</time>
      </trkpt>
      <trkpt lat="46.11241" lon="4.56416">
        <ele>460.6</ele>
        <time>2020-10-24T06:16:12Z</time>
      </trkpt>
      <trkpt lat="46.11242" lon="4.56413">
        <ele>460.6</ele>
        <time>2020-10-24T06:16:13Z</time>
      </trkpt>
      <trkpt lat="46.11242" lon="4.56413">
        <ele>461</ele>
        <time>2020-10-24T06:16:14Z</time>
      </trkpt>
      <trkpt lat="46.11242" lon="4.56409">
        <ele>461</ele>
        <time>2020-10-24T06:16:15Z</time>
      </trkpt>
      <trkpt lat="46.11242" lon="4.56409">
        <ele>461.2</ele>
        <time>2020-10-24T06:16:16Z</time>
      </trkpt>
      <trkpt lat="46.11242" lon="4.56405">
        <ele>461.6</ele>
        <time>2020-10-24T06:16:17Z</time>
      </trkpt>
      <trkpt lat="46.11242" lon="4.56405">
        <ele>461.8</ele>
        <time>2020-10-24T06:16:18Z</time>
      </trkpt>
      <trkpt lat="46.11243" lon="4.56402">
        <ele>462</ele>
        <time>2020-10-24T06:16:19Z</time>
      </trkpt>
      <trkpt lat="46.11243" lon="4.56402">
        <ele>462.2</ele>
        <time>2020-10-24T06:16:20Z</time>
      </trkpt>
      <trkpt lat="46.11243" lon="4.56399">
        <ele>462.6</ele>
        <time>2020-10-24T06:16:21Z</time>
      </trkpt>
      <trkpt lat="46.11243" lon="4.56399">
        <ele>462.8</ele>
        <time>2020-10-24T06:16:22Z</time>
      </trkpt>
      <trkpt lat="46.11244" lon="4.56395">
        <ele>463</ele>
        <time>2020-10-24T06:16:23Z</time>
      </trkpt>
      <trkpt lat="46.11244" lon="4.56395">
        <ele>463.2</ele>
        <time>2020-10-24T06:16:24Z</time>
      </trkpt>
      <trkpt lat="46.11244" lon="4.56392">
        <ele>463.4</ele>
        <time>2020-10-24T06:16:25Z</time>
      </trkpt>
      <trkpt lat="46.11244" lon="4.56392">
        <ele>463.8</ele>
        <time>2020-10-24T06:16:26Z</time>
      </trkpt>
      <trkpt lat="46.11245" lon="4.56388">
        <ele>464</ele>
        <time>2020-10-24T06:16:27Z</time>
      </trkpt>
      <trkpt lat="46.11245" lon="4.56388">
        <ele>464.6</ele>
        <time>2020-10-24T06:16:28Z</time>
      </trkpt>
      <trkpt lat="46.11245" lon="4.56385">
        <ele>465</ele>
        <time>2020-10-24T06:16:29Z</time>
      </trkpt>
      <trkpt lat="46.11245" lon="4.56385">
        <ele>465.2</ele>
        <time>2020-10-24T06:16:30Z</time>
      </trkpt>
      <trkpt lat="46.11246" lon="4.56382">
        <ele>465.6</ele>
        <time>2020-10-24T06:16:31Z</time>
      </trkpt>
      <trkpt lat="46.11246" lon="4.56382">
        <ele>465.8</ele>
        <time>2020-10-24T06:16:32Z</time>
      </trkpt>
      <trkpt lat="46.11246" lon="4.56379">
        <ele>466.2</ele>
        <time>2020-10-24T06:16:33Z</time>
      </trkpt>
      <trkpt lat="46.11246" lon="4.56379">
        <ele>466.4</ele>
        <time>2020-10-24T06:16:34Z</time>
      </trkpt>
      <trkpt lat="46.11247" lon="4.56376">
        <ele>466.6</ele>
        <time>2020-10-24T06:16:35Z</time>
      </trkpt>
      <trkpt lat="46.11247" lon="4.56376">
        <ele>467</ele>
        <time>2020-10-24T06:16:36Z</time>
      </trkpt>
      <trkpt lat="46.11247" lon="4.56373">
        <ele>467.4</ele>
        <time>2020-10-24T06:16:37Z</time>
      </trkpt>
      <trkpt lat="46.11247" lon="4.56373">
        <ele>467.8</ele>
        <time>2020-10-24T06:16:38Z</time>
      </trkpt>
      <trkpt lat="46.11247" lon="4.5637">
        <ele>468.2</ele>
        <time>2020-10-24T06:16:39Z</time>
      </trkpt>
      <trkpt lat="46.11247" lon="4.5637">
        <ele>468.6</ele>
        <time>2020-10-24T06:16:40Z</time>
      </trkpt>
      <trkpt lat="46.11247" lon="4.56367">
        <ele>468.8</ele>
        <time>2020-10-24T06:16:41Z</time>
      </trkpt>
      <trkpt lat="46.11247" lon="4.56367">
        <ele>469</ele>
        <time>2020-10-24T06:16:42Z</time>
      </trkpt>
      <trkpt lat="46.11247" lon="4.56367">
        <ele>469.2</ele>
        <time>2020-10-24T06:16:43Z</time>
      </trkpt>
      <trkpt lat="46.11249" lon="4.56365">
        <ele>469.4</ele>
        <time>2020-10-24T06:16:44Z</time>
      </trkpt>
      <trkpt lat="46.11249" lon="4.56365">
        <ele>469.6</ele>
        <time>2020-10-24T06:16:45Z</time>
      </trkpt>
      <trkpt lat="46.11249" lon="4.56365">
        <ele>469.8</ele>
        <time>2020-10-24T06:16:46Z</time>
      </trkpt>
      <trkpt lat="46.11251" lon="4.56366">
        <ele>470</ele>
        <time>2020-10-24T06:16:47Z</time>
      </trkpt>
      <trkpt lat="46.11251" lon="4.56366">
        <ele>470.2</ele>
        <time>2020-10-24T06:16:48Z</time>
      </trkpt>
      <trkpt lat="46.11251" lon="4.56366">
        <ele>470.4</ele>
        <time>2020-10-24T06:16:49Z</time>
      </trkpt>
      <trkpt lat="46.11251" lon="4.56366">
        <ele>470.8</ele>
        <time>2020-10-24T06:16:50Z</time>
      </trkpt>
      <trkpt lat="46.11251" lon="4.56366">
        <ele>470.8</ele>
        <time>2020-10-24T06:16:51Z</time>
      </trkpt>
      <trkpt lat="46.11251" lon="4.56366">
        <ele>470.6</ele>
        <time>2020-10-24T06:16:52Z</time>
      </trkpt>
      <trkpt lat="46.11251" lon="4.56366">
        <ele>470.4</ele>
        <time>2020-10-24T06:16:53Z</time>
      </trkpt>
      <trkpt lat="46.11251" lon="4.56366">
        <ele>470.4</ele>
        <time>2020-10-24T06:16:54Z</time>
      </trkpt>
      <trkpt lat="46.11251" lon="4.56366">
        <ele>470.4</ele>
        <time>2020-10-24T06:16:55Z</time>
      </trkpt>
      <trkpt lat="46.11251" lon="4.56366">
        <ele>470.2</ele>
        <time>2020-10-24T06:16:56Z</time>
      </trkpt>
      <trkpt lat="46.11251" lon="4.56366">
        <ele>470</ele>
        <time>2020-10-24T06:16:57Z</time>
      </trkpt>
      <trkpt lat="46.11253" lon="4.56367">
        <ele>469.8</ele>
        <time>2020-10-24T06:16:58Z</time>
      </trkpt>
      <trkpt lat="46.11253" lon="4.56367">
        <ele>469.6</ele>
        <time>2020-10-24T06:16:59Z</time>
      </trkpt>
      <trkpt lat="46.11254" lon="4.56369">
        <ele>469.6</ele>
        <time>2020-10-24T06:17:00Z</time>
      </trkpt>
      <trkpt lat="46.11254" lon="4.56369">
        <ele>469.4</ele>
        <time>2020-10-24T06:17:01Z</time>
      </trkpt>
      <trkpt lat="46.11257" lon="4.5637">
        <ele>469.4</ele>
        <time>2020-10-24T06:17:02Z</time>
      </trkpt>
      <trkpt lat="46.11257" lon="4.5637">
        <ele>469.4</ele>
        <time>2020-10-24T06:17:03Z</time>
      </trkpt>
      <trkpt lat="46.11259" lon="4.56371">
        <ele>469.4</ele>
        <time>2020-10-24T06:17:04Z</time>
      </trkpt>
      <trkpt lat="46.11259" lon="4.56371">
        <ele>469.6</ele>
        <time>2020-10-24T06:17:05Z</time>
      </trkpt>
      <trkpt lat="46.11261" lon="4.56372">
        <ele>469.4</ele>
        <time>2020-10-24T06:17:06Z</time>
      </trkpt>
      <trkpt lat="46.11261" lon="4.56372">
        <ele>469.6</ele>
        <time>2020-10-24T06:17:07Z</time>
      </trkpt>
      <trkpt lat="46.11261" lon="4.56372">
        <ele>469.6</ele>
        <time>2020-10-24T06:17:08Z</time>
      </trkpt>
      <trkpt lat="46.11263" lon="4.56372">
        <ele>469.6</ele>
        <time>2020-10-24T06:17:09Z</time>
      </trkpt>
      <trkpt lat="46.11263" lon="4.56372">
        <ele>469.6</ele>
        <time>2020-10-24T06:17:10Z</time>
      </trkpt>
      <trkpt lat="46.11265" lon="4.56373">
        <ele>469.6</ele>
        <time>2020-10-24T06:17:11Z</time>
      </trkpt>
      <trkpt lat="46.11265" lon="4.56373">
        <ele>469.8</ele>
        <time>2020-10-24T06:17:12Z</time>
      </trkpt>
      <trkpt lat="46.11265" lon="4.56373">
        <ele>469.6</ele>
        <time>2020-10-24T06:17:13Z</time>
      </trkpt>
      <trkpt lat="46.11265" lon="4.56373">
        <ele>469.6</ele>
        <time>2020-10-24T06:17:14Z</time>
      </trkpt>
      <trkpt lat="46.11265" lon="4.56373">
        <ele>470.2</ele>
        <time>2020-10-24T06:17:15Z</time>
      </trkpt>
      <trkpt lat="46.11265" lon="4.56373">
        <ele>470.6</ele>
        <time>2020-10-24T06:17:16Z</time>
      </trkpt>
      <trkpt lat="46.11265" lon="4.56373">
        <ele>470.6</ele>
        <time>2020-10-24T06:17:17Z</time>
      </trkpt>
      <trkpt lat="46.11265" lon="4.56373">
        <ele>470.6</ele>
        <time>2020-10-24T06:17:18Z</time>
      </trkpt>
      <trkpt lat="46.11266" lon="4.56375">
        <ele>470.4</ele>
        <time>2020-10-24T06:17:19Z</time>
      </trkpt>
      <trkpt lat="46.11266" lon="4.56375">
        <ele>470.4</ele>
        <time>2020-10-24T06:17:20Z</time>
      </trkpt>
      <trkpt lat="46.11266" lon="4.56375">
        <ele>470.2</ele>
        <time>2020-10-24T06:17:21Z</time>
      </trkpt>
      <trkpt lat="46.11264" lon="4.56377">
        <ele>470</ele>
        <time>2020-10-24T06:17:22Z</time>
      </trkpt>
      <trkpt lat="46.11264" lon="4.56377">
        <ele>470</ele>
        <time>2020-10-24T06:17:23Z</time>
      </trkpt>
      <trkpt lat="46.11263" lon="4.56375">
        <ele>469.8</ele>
        <time>2020-10-24T06:17:24Z</time>
      </trkpt>
      <trkpt lat="46.11263" lon="4.56375">
        <ele>469.8</ele>
        <time>2020-10-24T06:17:25Z</time>
      </trkpt>
      <trkpt lat="46.11261" lon="4.56372">
        <ele>469.8</ele>
        <time>2020-10-24T06:17:26Z</time>
      </trkpt>
      <trkpt lat="46.11261" lon="4.56372">
        <ele>469.8</ele>
        <time>2020-10-24T06:17:27Z</time>
      </trkpt>
      <trkpt lat="46.11258" lon="4.5637">
        <ele>469.8</ele>
        <time>2020-10-24T06:17:28Z</time>
      </trkpt>
      <trkpt lat="46.11258" lon="4.5637">
        <ele>469.6</ele>
        <time>2020-10-24T06:17:29Z</time>
      </trkpt>
      <trkpt lat="46.11256" lon="4.56368">
        <ele>469.4</ele>
        <time>2020-10-24T06:17:30Z</time>
      </trkpt>
      <trkpt lat="46.11256" lon="4.56368">
        <ele>469.4</ele>
        <time>2020-10-24T06:17:31Z</time>
      </trkpt>
      <trkpt lat="46.11253" lon="4.56366">
        <ele>469.4</ele>
        <time>2020-10-24T06:17:32Z</time>
      </trkpt>
      <trkpt lat="46.11253" lon="4.56366">
        <ele>469.4</ele>
        <time>2020-10-24T06:17:33Z</time>
      </trkpt>
      <trkpt lat="46.11251" lon="4.56365">
        <ele>469.2</ele>
        <time>2020-10-24T06:17:34Z</time>
      </trkpt>
      <trkpt lat="46.11251" lon="4.56365">
        <ele>469.2</ele>
        <time>2020-10-24T06:17:35Z</time>
      </trkpt>
      <trkpt lat="46.11248" lon="4.56363">
        <ele>469.2</ele>
        <time>2020-10-24T06:17:36Z</time>
      </trkpt>
      <trkpt lat="46.11248" lon="4.56363">
        <ele>469.2</ele>
        <time>2020-10-24T06:17:37Z</time>
      </trkpt>
      <trkpt lat="46.11246" lon="4.5636">
        <ele>469.2</ele>
        <time>2020-10-24T06:17:38Z</time>
      </trkpt>
      <trkpt lat="46.11246" lon="4.5636">
        <ele>469.2</ele>
        <time>2020-10-24T06:17:39Z</time>
      </trkpt>
      <trkpt lat="46.11246" lon="4.56356">
        <ele>469.4</ele>
        <time>2020-10-24T06:17:40Z</time>
      </trkpt>
      <trkpt lat="46.11246" lon="4.56356">
        <ele>469.4</ele>
        <time>2020-10-24T06:17:41Z</time>
      </trkpt>
      <trkpt lat="46.11246" lon="4.56352">
        <ele>469.4</ele>
        <time>2020-10-24T06:17:42Z</time>
      </trkpt>
      <trkpt lat="46.11246" lon="4.56352">
        <ele>469.8</ele>
        <time>2020-10-24T06:17:43Z</time>
      </trkpt>
      <trkpt lat="46.11247" lon="4.56348">
        <ele>470</ele>
        <time>2020-10-24T06:17:44Z</time>
      </trkpt>
      <trkpt lat="46.11247" lon="4.56348">
        <ele>470</ele>
        <time>2020-10-24T06:17:45Z</time>
      </trkpt>
      <trkpt lat="46.11247" lon="4.56344">
        <ele>470</ele>
        <time>2020-10-24T06:17:46Z</time>
      </trkpt>
      <trkpt lat="46.11247" lon="4.56344">
        <ele>470</ele>
        <time>2020-10-24T06:17:47Z</time>
      </trkpt>
      <trkpt lat="46.11248" lon="4.5634">
        <ele>470.4</ele>
        <time>2020-10-24T06:17:48Z</time>
      </trkpt>
      <trkpt lat="46.11248" lon="4.5634">
        <ele>470.4</ele>
        <time>2020-10-24T06:17:49Z</time>
      </trkpt>
      <trkpt lat="46.1125" lon="4.56336">
        <ele>470.4</ele>
        <time>2020-10-24T06:17:50Z</time>
      </trkpt>
      <trkpt lat="46.1125" lon="4.56336">
        <ele>470.8</ele>
        <time>2020-10-24T06:17:51Z</time>
      </trkpt>
      <trkpt lat="46.11252" lon="4.56332">
        <ele>471</ele>
        <time>2020-10-24T06:17:52Z</time>
      </trkpt>
      <trkpt lat="46.11252" lon="4.56332">
        <ele>471.2</ele>
        <time>2020-10-24T06:17:53Z</time>
      </trkpt>
      <trkpt lat="46.11253" lon="4.56328">
        <ele>471.2</ele>
        <time>2020-10-24T06:17:54Z</time>
      </trkpt>
      <trkpt lat="46.11253" lon="4.56328">
        <ele>471.2</ele>
        <time>2020-10-24T06:17:55Z</time>
      </trkpt>
      <trkpt lat="46.11255" lon="4.56324">
        <ele>471.4</ele>
        <time>2020-10-24T06:17:56Z</time>
      </trkpt>
      <trkpt lat="46.11255" lon="4.56324">
        <ele>471.8</ele>
        <time>2020-10-24T06:17:57Z</time>
      </trkpt>
      <trkpt lat="46.11256" lon="4.5632">
        <ele>471.8</ele>
        <time>2020-10-24T06:17:58Z</time>
      </trkpt>
      <trkpt lat="46.11256" lon="4.5632">
        <ele>472</ele>
        <time>2020-10-24T06:17:59Z</time>
      </trkpt>
      <trkpt lat="46.11258" lon="4.56317">
        <ele>472</ele>
        <time>2020-10-24T06:18:00Z</time>
      </trkpt>
      <trkpt lat="46.11258" lon="4.56317">
        <ele>472.2</ele>
        <time>2020-10-24T06:18:01Z</time>
      </trkpt>
      <trkpt lat="46.1126" lon="4.56313">
        <ele>472.4</ele>
        <time>2020-10-24T06:18:02Z</time>
      </trkpt>
      <trkpt lat="46.1126" lon="4.56313">
        <ele>472.6</ele>
        <time>2020-10-24T06:18:03Z</time>
      </trkpt>
      <trkpt lat="46.11261" lon="4.56309">
        <ele>472.8</ele>
        <time>2020-10-24T06:18:04Z</time>
      </trkpt>
      <trkpt lat="46.11261" lon="4.56309">
        <ele>473.2</ele>
        <time>2020-10-24T06:18:05Z</time>
      </trkpt>
      <trkpt lat="46.11262" lon="4.56305">
        <ele>473.2</ele>
        <time>2020-10-24T06:18:06Z</time>
      </trkpt>
      <trkpt lat="46.11262" lon="4.56305">
        <ele>473.4</ele>
        <time>2020-10-24T06:18:07Z</time>
      </trkpt>
      <trkpt lat="46.11264" lon="4.56302">
        <ele>473.6</ele>
        <time>2020-10-24T06:18:08Z</time>
      </trkpt>
      <trkpt lat="46.11265" lon="4.563">
        <ele>473.6</ele>
        <time>2020-10-24T06:18:09Z</time>
      </trkpt>
      <trkpt lat="46.11265" lon="4.563">
        <ele>473.8</ele>
        <time>2020-10-24T06:18:10Z</time>
      </trkpt>
      <trkpt lat="46.11267" lon="4.56296">
        <ele>474</ele>
        <time>2020-10-24T06:18:11Z</time>
      </trkpt>
      <trkpt lat="46.11267" lon="4.56296">
        <ele>474</ele>
        <time>2020-10-24T06:18:12Z</time>
      </trkpt>
      <trkpt lat="46.11269" lon="4.56291">
        <ele>474.2</ele>
        <time>2020-10-24T06:18:13Z</time>
      </trkpt>
      <trkpt lat="46.11269" lon="4.56291">
        <ele>474.4</ele>
        <time>2020-10-24T06:18:14Z</time>
      </trkpt>
      <trkpt lat="46.11271" lon="4.56288">
        <ele>474.6</ele>
        <time>2020-10-24T06:18:15Z</time>
      </trkpt>
      <trkpt lat="46.11271" lon="4.56288">
        <ele>474.8</ele>
        <time>2020-10-24T06:18:16Z</time>
      </trkpt>
      <trkpt lat="46.11273" lon="4.56284">
        <ele>475.2</ele>
        <time>2020-10-24T06:18:17Z</time>
      </trkpt>
      <trkpt lat="46.11275" lon="4.56282">
        <ele>475.6</ele>
        <time>2020-10-24T06:18:18Z</time>
      </trkpt>
      <trkpt lat="46.11276" lon="4.5628">
        <ele>476</ele>
        <time>2020-10-24T06:18:19Z</time>
      </trkpt>
      <trkpt lat="46.11277" lon="4.56278">
        <ele>476.4</ele>
        <time>2020-10-24T06:18:20Z</time>
      </trkpt>
      <trkpt lat="46.11277" lon="4.56278">
        <ele>476.4</ele>
        <time>2020-10-24T06:18:21Z</time>
      </trkpt>
      <trkpt lat="46.11279" lon="4.56274">
        <ele>476.4</ele>
        <time>2020-10-24T06:18:22Z</time>
      </trkpt>
      <trkpt lat="46.11279" lon="4.56274">
        <ele>476.6</ele>
        <time>2020-10-24T06:18:23Z</time>
      </trkpt>
      <trkpt lat="46.11281" lon="4.56271">
        <ele>476.8</ele>
        <time>2020-10-24T06:18:24Z</time>
      </trkpt>
      <trkpt lat="46.11281" lon="4.56271">
        <ele>476.8</ele>
        <time>2020-10-24T06:18:25Z</time>
      </trkpt>
      <trkpt lat="46.11283" lon="4.56268">
        <ele>477</ele>
        <time>2020-10-24T06:18:26Z</time>
      </trkpt>
      <trkpt lat="46.11283" lon="4.56268">
        <ele>477</ele>
        <time>2020-10-24T06:18:27Z</time>
      </trkpt>
      <trkpt lat="46.11285" lon="4.56264">
        <ele>477.2</ele>
        <time>2020-10-24T06:18:28Z</time>
      </trkpt>
      <trkpt lat="46.11285" lon="4.56264">
        <ele>477.6</ele>
        <time>2020-10-24T06:18:29Z</time>
      </trkpt>
      <trkpt lat="46.11287" lon="4.56261">
        <ele>477.8</ele>
        <time>2020-10-24T06:18:30Z</time>
      </trkpt>
      <trkpt lat="46.11287" lon="4.56261">
        <ele>478.2</ele>
        <time>2020-10-24T06:18:31Z</time>
      </trkpt>
      <trkpt lat="46.11288" lon="4.56258">
        <ele>478.6</ele>
        <time>2020-10-24T06:18:32Z</time>
      </trkpt>
      <trkpt lat="46.11288" lon="4.56258">
        <ele>478.8</ele>
        <time>2020-10-24T06:18:33Z</time>
      </trkpt>
      <trkpt lat="46.1129" lon="4.56256">
        <ele>478.8</ele>
        <time>2020-10-24T06:18:34Z</time>
      </trkpt>
      <trkpt lat="46.1129" lon="4.56256">
        <ele>479.2</ele>
        <time>2020-10-24T06:18:35Z</time>
      </trkpt>
      <trkpt lat="46.11292" lon="4.56253">
        <ele>479.4</ele>
        <time>2020-10-24T06:18:36Z</time>
      </trkpt>
      <trkpt lat="46.11292" lon="4.56253">
        <ele>479.4</ele>
        <time>2020-10-24T06:18:37Z</time>
      </trkpt>
      <trkpt lat="46.11294" lon="4.5625">
        <ele>479.6</ele>
        <time>2020-10-24T06:18:38Z</time>
      </trkpt>
      <trkpt lat="46.11294" lon="4.5625">
        <ele>479.8</ele>
        <time>2020-10-24T06:18:39Z</time>
      </trkpt>
      <trkpt lat="46.11296" lon="4.56246">
        <ele>479.8</ele>
        <time>2020-10-24T06:18:40Z</time>
      </trkpt>
      <trkpt lat="46.11296" lon="4.56246">
        <ele>480</ele>
        <time>2020-10-24T06:18:41Z</time>
      </trkpt>
      <trkpt lat="46.11297" lon="4.56242">
        <ele>480.2</ele>
        <time>2020-10-24T06:18:42Z</time>
      </trkpt>
      <trkpt lat="46.11297" lon="4.56242">
        <ele>480.6</ele>
        <time>2020-10-24T06:18:43Z</time>
      </trkpt>
      <trkpt lat="46.11298" lon="4.56237">
        <ele>481</ele>
        <time>2020-10-24T06:18:44Z</time>
      </trkpt>
      <trkpt lat="46.11298" lon="4.56237">
        <ele>481.6</ele>
        <time>2020-10-24T06:18:45Z</time>
      </trkpt>
      <trkpt lat="46.11298" lon="4.56233">
        <ele>482</ele>
        <time>2020-10-24T06:18:46Z</time>
      </trkpt>
      <trkpt lat="46.11298" lon="4.56233">
        <ele>482.4</ele>
        <time>2020-10-24T06:18:47Z</time>
      </trkpt>
      <trkpt lat="46.11298" lon="4.56228">
        <ele>482.4</ele>
        <time>2020-10-24T06:18:48Z</time>
      </trkpt>
      <trkpt lat="46.11298" lon="4.56228">
        <ele>482.6</ele>
        <time>2020-10-24T06:18:49Z</time>
      </trkpt>
      <trkpt lat="46.11298" lon="4.56223">
        <ele>482.8</ele>
        <time>2020-10-24T06:18:50Z</time>
      </trkpt>
      <trkpt lat="46.11298" lon="4.56223">
        <ele>483</ele>
        <time>2020-10-24T06:18:51Z</time>
      </trkpt>
      <trkpt lat="46.11299" lon="4.56219">
        <ele>483.2</ele>
        <time>2020-10-24T06:18:52Z</time>
      </trkpt>
      <trkpt lat="46.11299" lon="4.56219">
        <ele>483</ele>
        <time>2020-10-24T06:18:53Z</time>
      </trkpt>
      <trkpt lat="46.11299" lon="4.56215">
        <ele>483</ele>
        <time>2020-10-24T06:18:54Z</time>
      </trkpt>
      <trkpt lat="46.11299" lon="4.56215">
        <ele>483.2</ele>
        <time>2020-10-24T06:18:55Z</time>
      </trkpt>
      <trkpt lat="46.113" lon="4.56211">
        <ele>483.4</ele>
        <time>2020-10-24T06:18:56Z</time>
      </trkpt>
      <trkpt lat="46.113" lon="4.56211">
        <ele>483.6</ele>
        <time>2020-10-24T06:18:57Z</time>
      </trkpt>
      <trkpt lat="46.11301" lon="4.56207">
        <ele>484</ele>
        <time>2020-10-24T06:18:58Z</time>
      </trkpt>
      <trkpt lat="46.11301" lon="4.56207">
        <ele>484</ele>
        <time>2020-10-24T06:18:59Z</time>
      </trkpt>
      <trkpt lat="46.11301" lon="4.56202">
        <ele>484.4</ele>
        <time>2020-10-24T06:19:00Z</time>
      </trkpt>
      <trkpt lat="46.11301" lon="4.56202">
        <ele>484.6</ele>
        <time>2020-10-24T06:19:01Z</time>
      </trkpt>
      <trkpt lat="46.11301" lon="4.56198">
        <ele>484.8</ele>
        <time>2020-10-24T06:19:02Z</time>
      </trkpt>
      <trkpt lat="46.11301" lon="4.56198">
        <ele>484.8</ele>
        <time>2020-10-24T06:19:03Z</time>
      </trkpt>
      <trkpt lat="46.11301" lon="4.56194">
        <ele>484.8</ele>
        <time>2020-10-24T06:19:04Z</time>
      </trkpt>
      <trkpt lat="46.11301" lon="4.56194">
        <ele>485</ele>
        <time>2020-10-24T06:19:05Z</time>
      </trkpt>
      <trkpt lat="46.11302" lon="4.56189">
        <ele>485</ele>
        <time>2020-10-24T06:19:06Z</time>
      </trkpt>
      <trkpt lat="46.11302" lon="4.56189">
        <ele>485</ele>
        <time>2020-10-24T06:19:07Z</time>
      </trkpt>
      <trkpt lat="46.11302" lon="4.56185">
        <ele>485.4</ele>
        <time>2020-10-24T06:19:08Z</time>
      </trkpt>
      <trkpt lat="46.11302" lon="4.56185">
        <ele>485.8</ele>
        <time>2020-10-24T06:19:09Z</time>
      </trkpt>
      <trkpt lat="46.11302" lon="4.5618">
        <ele>486.2</ele>
        <time>2020-10-24T06:19:10Z</time>
      </trkpt>
      <trkpt lat="46.11302" lon="4.5618">
        <ele>486.8</ele>
        <time>2020-10-24T06:19:11Z</time>
      </trkpt>
      <trkpt lat="46.11302" lon="4.56176">
        <ele>487</ele>
        <time>2020-10-24T06:19:12Z</time>
      </trkpt>
      <trkpt lat="46.11302" lon="4.56176">
        <ele>487.4</ele>
        <time>2020-10-24T06:19:13Z</time>
      </trkpt>
      <trkpt lat="46.11302" lon="4.56172">
        <ele>487.8</ele>
        <time>2020-10-24T06:19:14Z</time>
      </trkpt>
      <trkpt lat="46.11302" lon="4.56172">
        <ele>488.4</ele>
        <time>2020-10-24T06:19:15Z</time>
      </trkpt>
      <trkpt lat="46.11301" lon="4.56167">
        <ele>488.6</ele>
        <time>2020-10-24T06:19:16Z</time>
      </trkpt>
      <trkpt lat="46.11301" lon="4.56167">
        <ele>488.8</ele>
        <time>2020-10-24T06:19:17Z</time>
      </trkpt>
      <trkpt lat="46.11299" lon="4.56163">
        <ele>489</ele>
        <time>2020-10-24T06:19:18Z</time>
      </trkpt>
      <trkpt lat="46.11299" lon="4.56163">
        <ele>489</ele>
        <time>2020-10-24T06:19:19Z</time>
      </trkpt>
      <trkpt lat="46.11297" lon="4.56159">
        <ele>489.2</ele>
        <time>2020-10-24T06:19:20Z</time>
      </trkpt>
      <trkpt lat="46.11297" lon="4.56159">
        <ele>489.4</ele>
        <time>2020-10-24T06:19:21Z</time>
      </trkpt>
      <trkpt lat="46.11296" lon="4.56156">
        <ele>489.6</ele>
        <time>2020-10-24T06:19:22Z</time>
      </trkpt>
      <trkpt lat="46.11296" lon="4.56156">
        <ele>489.8</ele>
        <time>2020-10-24T06:19:23Z</time>
      </trkpt>
      <trkpt lat="46.11295" lon="4.56153">
        <ele>490.2</ele>
        <time>2020-10-24T06:19:24Z</time>
      </trkpt>
      <trkpt lat="46.11295" lon="4.56153">
        <ele>490.4</ele>
        <time>2020-10-24T06:19:25Z</time>
      </trkpt>
      <trkpt lat="46.11294" lon="4.56149">
        <ele>490.8</ele>
        <time>2020-10-24T06:19:26Z</time>
      </trkpt>
      <trkpt lat="46.11294" lon="4.56149">
        <ele>491</ele>
        <time>2020-10-24T06:19:27Z</time>
      </trkpt>
      <trkpt lat="46.11293" lon="4.56146">
        <ele>491.2</ele>
        <time>2020-10-24T06:19:28Z</time>
      </trkpt>
      <trkpt lat="46.11293" lon="4.56146">
        <ele>491.6</ele>
        <time>2020-10-24T06:19:29Z</time>
      </trkpt>
      <trkpt lat="46.11293" lon="4.56142">
        <ele>491.8</ele>
        <time>2020-10-24T06:19:30Z</time>
      </trkpt>
      <trkpt lat="46.11293" lon="4.56142">
        <ele>492.2</ele>
        <time>2020-10-24T06:19:31Z</time>
      </trkpt>
      <trkpt lat="46.11292" lon="4.56138">
        <ele>492.4</ele>
        <time>2020-10-24T06:19:32Z</time>
      </trkpt>
      <trkpt lat="46.11292" lon="4.56138">
        <ele>492.6</ele>
        <time>2020-10-24T06:19:33Z</time>
      </trkpt>
      <trkpt lat="46.11292" lon="4.56134">
        <ele>492.8</ele>
        <time>2020-10-24T06:19:34Z</time>
      </trkpt>
      <trkpt lat="46.11292" lon="4.56134">
        <ele>493.2</ele>
        <time>2020-10-24T06:19:35Z</time>
      </trkpt>
      <trkpt lat="46.11292" lon="4.5613">
        <ele>493.4</ele>
        <time>2020-10-24T06:19:36Z</time>
      </trkpt>
      <trkpt lat="46.11292" lon="4.5613">
        <ele>493.8</ele>
        <time>2020-10-24T06:19:37Z</time>
      </trkpt>
      <trkpt lat="46.11291" lon="4.56126">
        <ele>494</ele>
        <time>2020-10-24T06:19:38Z</time>
      </trkpt>
      <trkpt lat="46.11291" lon="4.56126">
        <ele>494</ele>
        <time>2020-10-24T06:19:39Z</time>
      </trkpt>
      <trkpt lat="46.11291" lon="4.56122">
        <ele>494.2</ele>
        <time>2020-10-24T06:19:40Z</time>
      </trkpt>
      <trkpt lat="46.11291" lon="4.56122">
        <ele>494.6</ele>
        <time>2020-10-24T06:19:41Z</time>
      </trkpt>
      <trkpt lat="46.11291" lon="4.56119">
        <ele>495</ele>
        <time>2020-10-24T06:19:42Z</time>
      </trkpt>
      <trkpt lat="46.11291" lon="4.56119">
        <ele>495.4</ele>
        <time>2020-10-24T06:19:43Z</time>
      </trkpt>
      <trkpt lat="46.11291" lon="4.56115">
        <ele>495.6</ele>
        <time>2020-10-24T06:19:44Z</time>
      </trkpt>
      <trkpt lat="46.11291" lon="4.56115">
        <ele>495.8</ele>
        <time>2020-10-24T06:19:45Z</time>
      </trkpt>
      <trkpt lat="46.11292" lon="4.56112">
        <ele>496.2</ele>
        <time>2020-10-24T06:19:46Z</time>
      </trkpt>
      <trkpt lat="46.11292" lon="4.56112">
        <ele>496.6</ele>
        <time>2020-10-24T06:19:47Z</time>
      </trkpt>
      <trkpt lat="46.11293" lon="4.56109">
        <ele>496.8</ele>
        <time>2020-10-24T06:19:48Z</time>
      </trkpt>
      <trkpt lat="46.11293" lon="4.56109">
        <ele>497</ele>
        <time>2020-10-24T06:19:49Z</time>
      </trkpt>
      <trkpt lat="46.11294" lon="4.56106">
        <ele>497.6</ele>
        <time>2020-10-24T06:19:50Z</time>
      </trkpt>
      <trkpt lat="46.11294" lon="4.56106">
        <ele>498</ele>
        <time>2020-10-24T06:19:51Z</time>
      </trkpt>
      <trkpt lat="46.11295" lon="4.56103">
        <ele>498.4</ele>
        <time>2020-10-24T06:19:52Z</time>
      </trkpt>
      <trkpt lat="46.11295" lon="4.56103">
        <ele>498.8</ele>
        <time>2020-10-24T06:19:53Z</time>
      </trkpt>
      <trkpt lat="46.11296" lon="4.561">
        <ele>499.2</ele>
        <time>2020-10-24T06:19:54Z</time>
      </trkpt>
      <trkpt lat="46.11296" lon="4.561">
        <ele>499.4</ele>
        <time>2020-10-24T06:19:55Z</time>
      </trkpt>
      <trkpt lat="46.11298" lon="4.56098">
        <ele>499.6</ele>
        <time>2020-10-24T06:19:56Z</time>
      </trkpt>
      <trkpt lat="46.11298" lon="4.56098">
        <ele>500</ele>
        <time>2020-10-24T06:19:57Z</time>
      </trkpt>
      <trkpt lat="46.113" lon="4.56096">
        <ele>500.4</ele>
        <time>2020-10-24T06:19:58Z</time>
      </trkpt>
      <trkpt lat="46.113" lon="4.56096">
        <ele>501</ele>
        <time>2020-10-24T06:19:59Z</time>
      </trkpt>
      <trkpt lat="46.11302" lon="4.56094">
        <ele>501</ele>
        <time>2020-10-24T06:20:00Z</time>
      </trkpt>
      <trkpt lat="46.11302" lon="4.56094">
        <ele>502</ele>
        <time>2020-10-24T06:20:01Z</time>
      </trkpt>
      <trkpt lat="46.11304" lon="4.56091">
        <ele>502</ele>
        <time>2020-10-24T06:20:02Z</time>
      </trkpt>
      <trkpt lat="46.11304" lon="4.56091">
        <ele>502</ele>
        <time>2020-10-24T06:20:03Z</time>
      </trkpt>
      <trkpt lat="46.11306" lon="4.56089">
        <ele>502</ele>
        <time>2020-10-24T06:20:04Z</time>
      </trkpt>
      <trkpt lat="46.11306" lon="4.56089">
        <ele>502.4</ele>
        <time>2020-10-24T06:20:05Z</time>
      </trkpt>
      <trkpt lat="46.11308" lon="4.56087">
        <ele>502.6</ele>
        <time>2020-10-24T06:20:06Z</time>
      </trkpt>
      <trkpt lat="46.11308" lon="4.56087">
        <ele>502.8</ele>
        <time>2020-10-24T06:20:07Z</time>
      </trkpt>
      <trkpt lat="46.11309" lon="4.56084">
        <ele>503</ele>
        <time>2020-10-24T06:20:08Z</time>
      </trkpt>
      <trkpt lat="46.11309" lon="4.56084">
        <ele>503</ele>
        <time>2020-10-24T06:20:09Z</time>
      </trkpt>
      <trkpt lat="46.11311" lon="4.56082">
        <ele>503.4</ele>
        <time>2020-10-24T06:20:10Z</time>
      </trkpt>
      <trkpt lat="46.11311" lon="4.56082">
        <ele>503.8</ele>
        <time>2020-10-24T06:20:11Z</time>
      </trkpt>
      <trkpt lat="46.11313" lon="4.56079">
        <ele>504</ele>
        <time>2020-10-24T06:20:12Z</time>
      </trkpt>
      <trkpt lat="46.11313" lon="4.56079">
        <ele>504.4</ele>
        <time>2020-10-24T06:20:13Z</time>
      </trkpt>
      <trkpt lat="46.11315" lon="4.56077">
        <ele>504.6</ele>
        <time>2020-10-24T06:20:14Z</time>
      </trkpt>
      <trkpt lat="46.11315" lon="4.56077">
        <ele>504.6</ele>
        <time>2020-10-24T06:20:15Z</time>
      </trkpt>
      <trkpt lat="46.11317" lon="4.56075">
        <ele>505</ele>
        <time>2020-10-24T06:20:16Z</time>
      </trkpt>
      <trkpt lat="46.11317" lon="4.56075">
        <ele>505.4</ele>
        <time>2020-10-24T06:20:17Z</time>
      </trkpt>
      <trkpt lat="46.11318" lon="4.56072">
        <ele>505.8</ele>
        <time>2020-10-24T06:20:18Z</time>
      </trkpt>
      <trkpt lat="46.11318" lon="4.56072">
        <ele>506</ele>
        <time>2020-10-24T06:20:19Z</time>
      </trkpt>
      <trkpt lat="46.1132" lon="4.5607">
        <ele>506.4</ele>
        <time>2020-10-24T06:20:20Z</time>
      </trkpt>
      <trkpt lat="46.1132" lon="4.5607">
        <ele>506.6</ele>
        <time>2020-10-24T06:20:21Z</time>
      </trkpt>
      <trkpt lat="46.11321" lon="4.56067">
        <ele>506.8</ele>
        <time>2020-10-24T06:20:22Z</time>
      </trkpt>
      <trkpt lat="46.11321" lon="4.56067">
        <ele>507.2</ele>
        <time>2020-10-24T06:20:23Z</time>
      </trkpt>
      <trkpt lat="46.11323" lon="4.56064">
        <ele>507.6</ele>
        <time>2020-10-24T06:20:24Z</time>
      </trkpt>
      <trkpt lat="46.11323" lon="4.56064">
        <ele>507.8</ele>
        <time>2020-10-24T06:20:25Z</time>
      </trkpt>
      <trkpt lat="46.11324" lon="4.56061">
        <ele>508</ele>
        <time>2020-10-24T06:20:26Z</time>
      </trkpt>
      <trkpt lat="46.11324" lon="4.56061">
        <ele>508.2</ele>
        <time>2020-10-24T06:20:27Z</time>
      </trkpt>
      <trkpt lat="46.11325" lon="4.56059">
        <ele>508.6</ele>
        <time>2020-10-24T06:20:28Z</time>
      </trkpt>
      <trkpt lat="46.11325" lon="4.56059">
        <ele>509</ele>
        <time>2020-10-24T06:20:29Z</time>
      </trkpt>
      <trkpt lat="46.11326" lon="4.56056">
        <ele>509</ele>
        <time>2020-10-24T06:20:30Z</time>
      </trkpt>
      <trkpt lat="46.11326" lon="4.56056">
        <ele>509.2</ele>
        <time>2020-10-24T06:20:31Z</time>
      </trkpt>
      <trkpt lat="46.11328" lon="4.56053">
        <ele>509.4</ele>
        <time>2020-10-24T06:20:32Z</time>
      </trkpt>
      <trkpt lat="46.11328" lon="4.56053">
        <ele>509.8</ele>
        <time>2020-10-24T06:20:33Z</time>
      </trkpt>
      <trkpt lat="46.11329" lon="4.56051">
        <ele>510</ele>
        <time>2020-10-24T06:20:34Z</time>
      </trkpt>
      <trkpt lat="46.11329" lon="4.56051">
        <ele>510.4</ele>
        <time>2020-10-24T06:20:35Z</time>
      </trkpt>
      <trkpt lat="46.11329" lon="4.56048">
        <ele>510.8</ele>
        <time>2020-10-24T06:20:36Z</time>
      </trkpt>
      <trkpt lat="46.11329" lon="4.56048">
        <ele>511</ele>
        <time>2020-10-24T06:20:37Z</time>
      </trkpt>
      <trkpt lat="46.11329" lon="4.56048">
        <ele>511.4</ele>
        <time>2020-10-24T06:20:38Z</time>
      </trkpt>
      <trkpt lat="46.11331" lon="4.56044">
        <ele>511.6</ele>
        <time>2020-10-24T06:20:39Z</time>
      </trkpt>
      <trkpt lat="46.11331" lon="4.56044">
        <ele>512</ele>
        <time>2020-10-24T06:20:40Z</time>
      </trkpt>
      <trkpt lat="46.11332" lon="4.56041">
        <ele>512.4</ele>
        <time>2020-10-24T06:20:41Z</time>
      </trkpt>
      <trkpt lat="46.11332" lon="4.56041">
        <ele>512.8</ele>
        <time>2020-10-24T06:20:42Z</time>
      </trkpt>
      <trkpt lat="46.11333" lon="4.56039">
        <ele>513</ele>
        <time>2020-10-24T06:20:43Z</time>
      </trkpt>
      <trkpt lat="46.11333" lon="4.56039">
        <ele>513.4</ele>
        <time>2020-10-24T06:20:44Z</time>
      </trkpt>
      <trkpt lat="46.11333" lon="4.56036">
        <ele>513.8</ele>
        <time>2020-10-24T06:20:45Z</time>
      </trkpt>
      <trkpt lat="46.11333" lon="4.56036">
        <ele>514.2</ele>
        <time>2020-10-24T06:20:46Z</time>
      </trkpt>
      <trkpt lat="46.11333" lon="4.56036">
        <ele>514.6</ele>
        <time>2020-10-24T06:20:47Z</time>
      </trkpt>
      <trkpt lat="46.11334" lon="4.56033">
        <ele>514.6</ele>
        <time>2020-10-24T06:20:48Z</time>
      </trkpt>
      <trkpt lat="46.11334" lon="4.56033">
        <ele>515</ele>
        <time>2020-10-24T06:20:49Z</time>
      </trkpt>
      <trkpt lat="46.11335" lon="4.56031">
        <ele>515.4</ele>
        <time>2020-10-24T06:20:50Z</time>
      </trkpt>
      <trkpt lat="46.11335" lon="4.56031">
        <ele>516</ele>
        <time>2020-10-24T06:20:51Z</time>
      </trkpt>
      <trkpt lat="46.11336" lon="4.56028">
        <ele>516.4</ele>
        <time>2020-10-24T06:20:52Z</time>
      </trkpt>
      <trkpt lat="46.11336" lon="4.56028">
        <ele>516.6</ele>
        <time>2020-10-24T06:20:53Z</time>
      </trkpt>
      <trkpt lat="46.11337" lon="4.56024">
        <ele>517</ele>
        <time>2020-10-24T06:20:54Z</time>
      </trkpt>
      <trkpt lat="46.11337" lon="4.56024">
        <ele>517.4</ele>
        <time>2020-10-24T06:20:55Z</time>
      </trkpt>
      <trkpt lat="46.11338" lon="4.56022">
        <ele>517.6</ele>
        <time>2020-10-24T06:20:56Z</time>
      </trkpt>
      <trkpt lat="46.11338" lon="4.56022">
        <ele>517.8</ele>
        <time>2020-10-24T06:20:57Z</time>
      </trkpt>
      <trkpt lat="46.11339" lon="4.56019">
        <ele>518.2</ele>
        <time>2020-10-24T06:20:58Z</time>
      </trkpt>
      <trkpt lat="46.11339" lon="4.56019">
        <ele>518.6</ele>
        <time>2020-10-24T06:20:59Z</time>
      </trkpt>
      <trkpt lat="46.1134" lon="4.56016">
        <ele>518.8</ele>
        <time>2020-10-24T06:21:00Z</time>
      </trkpt>
      <trkpt lat="46.1134" lon="4.56016">
        <ele>519.2</ele>
        <time>2020-10-24T06:21:01Z</time>
      </trkpt>
      <trkpt lat="46.11341" lon="4.56014">
        <ele>519.8</ele>
        <time>2020-10-24T06:21:02Z</time>
      </trkpt>
      <trkpt lat="46.11341" lon="4.56014">
        <ele>520</ele>
        <time>2020-10-24T06:21:03Z</time>
      </trkpt>
      <trkpt lat="46.11342" lon="4.56011">
        <ele>520.2</ele>
        <time>2020-10-24T06:21:04Z</time>
      </trkpt>
      <trkpt lat="46.11342" lon="4.56011">
        <ele>520.6</ele>
        <time>2020-10-24T06:21:05Z</time>
      </trkpt>
      <trkpt lat="46.11343" lon="4.56009">
        <ele>521</ele>
        <time>2020-10-24T06:21:06Z</time>
      </trkpt>
      <trkpt lat="46.11343" lon="4.56009">
        <ele>521.2</ele>
        <time>2020-10-24T06:21:07Z</time>
      </trkpt>
      <trkpt lat="46.11343" lon="4.56006">
        <ele>521.6</ele>
        <time>2020-10-24T06:21:08Z</time>
      </trkpt>
      <trkpt lat="46.11343" lon="4.56006">
        <ele>522</ele>
        <time>2020-10-24T06:21:09Z</time>
      </trkpt>
      <trkpt lat="46.11343" lon="4.56003">
        <ele>522</ele>
        <time>2020-10-24T06:21:10Z</time>
      </trkpt>
      <trkpt lat="46.11343" lon="4.56003">
        <ele>522.4</ele>
        <time>2020-10-24T06:21:11Z</time>
      </trkpt>
      <trkpt lat="46.11343" lon="4.56">
        <ele>522.6</ele>
        <time>2020-10-24T06:21:12Z</time>
      </trkpt>
      <trkpt lat="46.11343" lon="4.56">
        <ele>523</ele>
        <time>2020-10-24T06:21:13Z</time>
      </trkpt>
      <trkpt lat="46.11343" lon="4.55997">
        <ele>523.4</ele>
        <time>2020-10-24T06:21:14Z</time>
      </trkpt>
      <trkpt lat="46.11343" lon="4.55997">
        <ele>523.8</ele>
        <time>2020-10-24T06:21:15Z</time>
      </trkpt>
      <trkpt lat="46.11343" lon="4.55994">
        <ele>524.2</ele>
        <time>2020-10-24T06:21:16Z</time>
      </trkpt>
      <trkpt lat="46.11343" lon="4.55994">
        <ele>524.6</ele>
        <time>2020-10-24T06:21:17Z</time>
      </trkpt>
      <trkpt lat="46.11343" lon="4.55991">
        <ele>524.6</ele>
        <time>2020-10-24T06:21:18Z</time>
      </trkpt>
      <trkpt lat="46.11343" lon="4.55991">
        <ele>525</ele>
        <time>2020-10-24T06:21:19Z</time>
      </trkpt>
      <trkpt lat="46.11344" lon="4.55988">
        <ele>525.2</ele>
        <time>2020-10-24T06:21:20Z</time>
      </trkpt>
      <trkpt lat="46.11344" lon="4.55988">
        <ele>525.6</ele>
        <time>2020-10-24T06:21:21Z</time>
      </trkpt>
      <trkpt lat="46.11344" lon="4.55986">
        <ele>525.8</ele>
        <time>2020-10-24T06:21:22Z</time>
      </trkpt>
      <trkpt lat="46.11344" lon="4.55986">
        <ele>526.2</ele>
        <time>2020-10-24T06:21:23Z</time>
      </trkpt>
      <trkpt lat="46.11344" lon="4.55986">
        <ele>526.4</ele>
        <time>2020-10-24T06:21:24Z</time>
      </trkpt>
      <trkpt lat="46.11347" lon="4.55985">
        <ele>526.4</ele>
        <time>2020-10-24T06:21:25Z</time>
      </trkpt>
      <trkpt lat="46.11347" lon="4.55985">
        <ele>526.8</ele>
        <time>2020-10-24T06:21:26Z</time>
      </trkpt>
      <trkpt lat="46.11349" lon="4.55983">
        <ele>527</ele>
        <time>2020-10-24T06:21:27Z</time>
      </trkpt>
      <trkpt lat="46.11349" lon="4.55983">
        <ele>527.6</ele>
        <time>2020-10-24T06:21:28Z</time>
      </trkpt>
      <trkpt lat="46.11351" lon="4.55982">
        <ele>527.4</ele>
        <time>2020-10-24T06:21:29Z</time>
      </trkpt>
      <trkpt lat="46.11351" lon="4.55982">
        <ele>527.4</ele>
        <time>2020-10-24T06:21:30Z</time>
      </trkpt>
      <trkpt lat="46.11353" lon="4.5598">
        <ele>527.6</ele>
        <time>2020-10-24T06:21:31Z</time>
      </trkpt>
      <trkpt lat="46.11353" lon="4.5598">
        <ele>527.8</ele>
        <time>2020-10-24T06:21:32Z</time>
      </trkpt>
      <trkpt lat="46.11355" lon="4.55979">
        <ele>528</ele>
        <time>2020-10-24T06:21:33Z</time>
      </trkpt>
      <trkpt lat="46.11355" lon="4.55979">
        <ele>528.2</ele>
        <time>2020-10-24T06:21:34Z</time>
      </trkpt>
      <trkpt lat="46.11357" lon="4.55976">
        <ele>528.4</ele>
        <time>2020-10-24T06:21:35Z</time>
      </trkpt>
      <trkpt lat="46.11357" lon="4.55976">
        <ele>528.2</ele>
        <time>2020-10-24T06:21:36Z</time>
      </trkpt>
      <trkpt lat="46.11358" lon="4.55973">
        <ele>528.6</ele>
        <time>2020-10-24T06:21:37Z</time>
      </trkpt>
      <trkpt lat="46.11358" lon="4.55973">
        <ele>529</ele>
        <time>2020-10-24T06:21:38Z</time>
      </trkpt>
      <trkpt lat="46.11359" lon="4.5597">
        <ele>529.2</ele>
        <time>2020-10-24T06:21:39Z</time>
      </trkpt>
      <trkpt lat="46.11359" lon="4.5597">
        <ele>529.8</ele>
        <time>2020-10-24T06:21:40Z</time>
      </trkpt>
      <trkpt lat="46.11359" lon="4.55966">
        <ele>530.6</ele>
        <time>2020-10-24T06:21:41Z</time>
      </trkpt>
      <trkpt lat="46.11359" lon="4.55966">
        <ele>531</ele>
        <time>2020-10-24T06:21:42Z</time>
      </trkpt>
      <trkpt lat="46.11359" lon="4.55962">
        <ele>531.4</ele>
        <time>2020-10-24T06:21:43Z</time>
      </trkpt>
      <trkpt lat="46.11359" lon="4.55962">
        <ele>531.8</ele>
        <time>2020-10-24T06:21:44Z</time>
      </trkpt>
      <trkpt lat="46.11359" lon="4.55958">
        <ele>531.8</ele>
        <time>2020-10-24T06:21:45Z</time>
      </trkpt>
      <trkpt lat="46.11359" lon="4.55958">
        <ele>531.8</ele>
        <time>2020-10-24T06:21:46Z</time>
      </trkpt>
      <trkpt lat="46.11358" lon="4.55953">
        <ele>532</ele>
        <time>2020-10-24T06:21:47Z</time>
      </trkpt>
      <trkpt lat="46.11358" lon="4.55953">
        <ele>532.4</ele>
        <time>2020-10-24T06:21:48Z</time>
      </trkpt>
      <trkpt lat="46.11358" lon="4.55949">
        <ele>532.8</ele>
        <time>2020-10-24T06:21:49Z</time>
      </trkpt>
      <trkpt lat="46.11358" lon="4.55949">
        <ele>533.2</ele>
        <time>2020-10-24T06:21:50Z</time>
      </trkpt>
      <trkpt lat="46.11357" lon="4.55946">
        <ele>533.4</ele>
        <time>2020-10-24T06:21:51Z</time>
      </trkpt>
      <trkpt lat="46.11357" lon="4.55946">
        <ele>533.4</ele>
        <time>2020-10-24T06:21:52Z</time>
      </trkpt>
      <trkpt lat="46.11356" lon="4.55942">
        <ele>533.8</ele>
        <time>2020-10-24T06:21:53Z</time>
      </trkpt>
      <trkpt lat="46.11356" lon="4.55942">
        <ele>534.2</ele>
        <time>2020-10-24T06:21:54Z</time>
      </trkpt>
      <trkpt lat="46.11355" lon="4.55938">
        <ele>534.2</ele>
        <time>2020-10-24T06:21:55Z</time>
      </trkpt>
      <trkpt lat="46.11355" lon="4.55938">
        <ele>534.4</ele>
        <time>2020-10-24T06:21:56Z</time>
      </trkpt>
      <trkpt lat="46.11354" lon="4.55935">
        <ele>534.4</ele>
        <time>2020-10-24T06:21:57Z</time>
      </trkpt>
      <trkpt lat="46.11354" lon="4.55935">
        <ele>534.2</ele>
        <time>2020-10-24T06:21:58Z</time>
      </trkpt>
      <trkpt lat="46.11354" lon="4.55931">
        <ele>534.4</ele>
        <time>2020-10-24T06:21:59Z</time>
      </trkpt>
      <trkpt lat="46.11354" lon="4.55931">
        <ele>535</ele>
        <time>2020-10-24T06:22:00Z</time>
      </trkpt>
      <trkpt lat="46.11353" lon="4.55927">
        <ele>535.6</ele>
        <time>2020-10-24T06:22:01Z</time>
      </trkpt>
      <trkpt lat="46.11353" lon="4.55927">
        <ele>535.8</ele>
        <time>2020-10-24T06:22:02Z</time>
      </trkpt>
      <trkpt lat="46.11352" lon="4.55922">
        <ele>536</ele>
        <time>2020-10-24T06:22:03Z</time>
      </trkpt>
      <trkpt lat="46.11352" lon="4.55922">
        <ele>536.2</ele>
        <time>2020-10-24T06:22:04Z</time>
      </trkpt>
      <trkpt lat="46.11351" lon="4.55918">
        <ele>536.2</ele>
        <time>2020-10-24T06:22:05Z</time>
      </trkpt>
      <trkpt lat="46.11351" lon="4.55918">
        <ele>536.4</ele>
        <time>2020-10-24T06:22:06Z</time>
      </trkpt>
      <trkpt lat="46.11351" lon="4.55918">
        <ele>536.6</ele>
        <time>2020-10-24T06:22:07Z</time>
      </trkpt>
      <trkpt lat="46.11351" lon="4.55918">
        <ele>536.8</ele>
        <time>2020-10-24T06:22:08Z</time>
      </trkpt>
      <trkpt lat="46.1135" lon="4.55915">
        <ele>536.8</ele>
        <time>2020-10-24T06:22:09Z</time>
      </trkpt>
      <trkpt lat="46.1135" lon="4.55912">
        <ele>537.2</ele>
        <time>2020-10-24T06:22:10Z</time>
      </trkpt>
      <trkpt lat="46.1135" lon="4.55909">
        <ele>537.2</ele>
        <time>2020-10-24T06:22:11Z</time>
      </trkpt>
      <trkpt lat="46.11349" lon="4.55906">
        <ele>537.6</ele>
        <time>2020-10-24T06:22:12Z</time>
      </trkpt>
      <trkpt lat="46.11349" lon="4.55903">
        <ele>537.4</ele>
        <time>2020-10-24T06:22:13Z</time>
      </trkpt>
      <trkpt lat="46.11349" lon="4.55899">
        <ele>537.4</ele>
        <time>2020-10-24T06:22:14Z</time>
      </trkpt>
      <trkpt lat="46.11349" lon="4.55895">
        <ele>537.8</ele>
        <time>2020-10-24T06:22:15Z</time>
      </trkpt>
      <trkpt lat="46.11349" lon="4.55891">
        <ele>537.8</ele>
        <time>2020-10-24T06:22:16Z</time>
      </trkpt>
      <trkpt lat="46.11348" lon="4.55888">
        <ele>538</ele>
        <time>2020-10-24T06:22:17Z</time>
      </trkpt>
      <trkpt lat="46.11348" lon="4.55884">
        <ele>538.4</ele>
        <time>2020-10-24T06:22:18Z</time>
      </trkpt>
      <trkpt lat="46.11347" lon="4.5588">
        <ele>538.2</ele>
        <time>2020-10-24T06:22:19Z</time>
      </trkpt>
      <trkpt lat="46.11347" lon="4.55876">
        <ele>538.6</ele>
        <time>2020-10-24T06:22:20Z</time>
      </trkpt>
      <trkpt lat="46.11346" lon="4.55873">
        <ele>538.4</ele>
        <time>2020-10-24T06:22:21Z</time>
      </trkpt>
      <trkpt lat="46.11346" lon="4.55869">
        <ele>538.2</ele>
        <time>2020-10-24T06:22:22Z</time>
      </trkpt>
      <trkpt lat="46.11345" lon="4.55865">
        <ele>538.6</ele>
        <time>2020-10-24T06:22:23Z</time>
      </trkpt>
      <trkpt lat="46.11345" lon="4.55862">
        <ele>537.8</ele>
        <time>2020-10-24T06:22:24Z</time>
      </trkpt>
      <trkpt lat="46.11344" lon="4.55859">
        <ele>537.4</ele>
        <time>2020-10-24T06:22:25Z</time>
      </trkpt>
      <trkpt lat="46.11344" lon="4.55856">
        <ele>537.8</ele>
        <time>2020-10-24T06:22:26Z</time>
      </trkpt>
      <trkpt lat="46.11343" lon="4.55852">
        <ele>537.6</ele>
        <time>2020-10-24T06:22:27Z</time>
      </trkpt>
      <trkpt lat="46.11343" lon="4.55849">
        <ele>537.4</ele>
        <time>2020-10-24T06:22:28Z</time>
      </trkpt>
      <trkpt lat="46.11342" lon="4.55845">
        <ele>537.6</ele>
        <time>2020-10-24T06:22:29Z</time>
      </trkpt>
      <trkpt lat="46.11341" lon="4.55842">
        <ele>537.4</ele>
        <time>2020-10-24T06:22:30Z</time>
      </trkpt>
      <trkpt lat="46.11341" lon="4.55838">
        <ele>537</ele>
        <time>2020-10-24T06:22:31Z</time>
      </trkpt>
      <trkpt lat="46.1134" lon="4.55835">
        <ele>537.4</ele>
        <time>2020-10-24T06:22:32Z</time>
      </trkpt>
      <trkpt lat="46.11339" lon="4.55831">
        <ele>537.2</ele>
        <time>2020-10-24T06:22:33Z</time>
      </trkpt>
      <trkpt lat="46.11338" lon="4.55828">
        <ele>536.8</ele>
        <time>2020-10-24T06:22:34Z</time>
      </trkpt>
      <trkpt lat="46.11338" lon="4.55824">
        <ele>537.2</ele>
        <time>2020-10-24T06:22:35Z</time>
      </trkpt>
      <trkpt lat="46.11338" lon="4.5582">
        <ele>536.8</ele>
        <time>2020-10-24T06:22:36Z</time>
      </trkpt>
      <trkpt lat="46.11337" lon="4.55817">
        <ele>537</ele>
        <time>2020-10-24T06:22:37Z</time>
      </trkpt>
      <trkpt lat="46.11337" lon="4.55814">
        <ele>537.2</ele>
        <time>2020-10-24T06:22:38Z</time>
      </trkpt>
      <trkpt lat="46.11336" lon="4.5581">
        <ele>537</ele>
        <time>2020-10-24T06:22:39Z</time>
      </trkpt>
      <trkpt lat="46.11336" lon="4.55806">
        <ele>537.2</ele>
        <time>2020-10-24T06:22:40Z</time>
      </trkpt>
      <trkpt lat="46.11336" lon="4.55803">
        <ele>537</ele>
        <time>2020-10-24T06:22:41Z</time>
      </trkpt>
      <trkpt lat="46.11336" lon="4.558">
        <ele>536.8</ele>
        <time>2020-10-24T06:22:42Z</time>
      </trkpt>
      <trkpt lat="46.11336" lon="4.55796">
        <ele>536.8</ele>
        <time>2020-10-24T06:22:43Z</time>
      </trkpt>
      <trkpt lat="46.11335" lon="4.55793">
        <ele>536.8</ele>
        <time>2020-10-24T06:22:44Z</time>
      </trkpt>
      <trkpt lat="46.11334" lon="4.55789">
        <ele>536.6</ele>
        <time>2020-10-24T06:22:45Z</time>
      </trkpt>
      <trkpt lat="46.11333" lon="4.55786">
        <ele>536.8</ele>
        <time>2020-10-24T06:22:46Z</time>
      </trkpt>
      <trkpt lat="46.11332" lon="4.55783">
        <ele>536.4</ele>
        <time>2020-10-24T06:22:47Z</time>
      </trkpt>
      <trkpt lat="46.11331" lon="4.55781">
        <ele>536.2</ele>
        <time>2020-10-24T06:22:48Z</time>
      </trkpt>
      <trkpt lat="46.11331" lon="4.55778">
        <ele>535.6</ele>
        <time>2020-10-24T06:22:49Z</time>
      </trkpt>
      <trkpt lat="46.1133" lon="4.55775">
        <ele>535.4</ele>
        <time>2020-10-24T06:22:50Z</time>
      </trkpt>
      <trkpt lat="46.11329" lon="4.55772">
        <ele>535.8</ele>
        <time>2020-10-24T06:22:51Z</time>
      </trkpt>
      <trkpt lat="46.11328" lon="4.55769">
        <ele>535.6</ele>
        <time>2020-10-24T06:22:52Z</time>
      </trkpt>
      <trkpt lat="46.11328" lon="4.55766">
        <ele>535.4</ele>
        <time>2020-10-24T06:22:53Z</time>
      </trkpt>
      <trkpt lat="46.11327" lon="4.55763">
        <ele>535.8</ele>
        <time>2020-10-24T06:22:54Z</time>
      </trkpt>
      <trkpt lat="46.11326" lon="4.55759">
        <ele>535.8</ele>
        <time>2020-10-24T06:22:55Z</time>
      </trkpt>
      <trkpt lat="46.11325" lon="4.55756">
        <ele>535.8</ele>
        <time>2020-10-24T06:22:56Z</time>
      </trkpt>
      <trkpt lat="46.11323" lon="4.55753">
        <ele>536.2</ele>
        <time>2020-10-24T06:22:57Z</time>
      </trkpt>
      <trkpt lat="46.11321" lon="4.5575">
        <ele>536</ele>
        <time>2020-10-24T06:22:58Z</time>
      </trkpt>
      <trkpt lat="46.1132" lon="4.55748">
        <ele>536.2</ele>
        <time>2020-10-24T06:22:59Z</time>
      </trkpt>
      <trkpt lat="46.11319" lon="4.55745">
        <ele>536.6</ele>
        <time>2020-10-24T06:23:00Z</time>
      </trkpt>
      <trkpt lat="46.11318" lon="4.55741">
        <ele>536.4</ele>
        <time>2020-10-24T06:23:01Z</time>
      </trkpt>
      <trkpt lat="46.11316" lon="4.55738">
        <ele>536.6</ele>
        <time>2020-10-24T06:23:02Z</time>
      </trkpt>
      <trkpt lat="46.11315" lon="4.55735">
        <ele>536.6</ele>
        <time>2020-10-24T06:23:03Z</time>
      </trkpt>
      <trkpt lat="46.11313" lon="4.55732">
        <ele>536.6</ele>
        <time>2020-10-24T06:23:04Z</time>
      </trkpt>
      <trkpt lat="46.11312" lon="4.55729">
        <ele>537</ele>
        <time>2020-10-24T06:23:05Z</time>
      </trkpt>
      <trkpt lat="46.11311" lon="4.55726">
        <ele>536.8</ele>
        <time>2020-10-24T06:23:06Z</time>
      </trkpt>
      <trkpt lat="46.11309" lon="4.55724">
        <ele>536.8</ele>
        <time>2020-10-24T06:23:07Z</time>
      </trkpt>
      <trkpt lat="46.11309" lon="4.55724">
        <ele>537.2</ele>
        <time>2020-10-24T06:23:08Z</time>
      </trkpt>
      <trkpt lat="46.11308" lon="4.55719">
        <ele>537</ele>
        <time>2020-10-24T06:23:09Z</time>
      </trkpt>
      <trkpt lat="46.11306" lon="4.55716">
        <ele>536.8</ele>
        <time>2020-10-24T06:23:10Z</time>
      </trkpt>
      <trkpt lat="46.11305" lon="4.55714">
        <ele>537.4</ele>
        <time>2020-10-24T06:23:11Z</time>
      </trkpt>
      <trkpt lat="46.11304" lon="4.55711">
        <ele>537.4</ele>
        <time>2020-10-24T06:23:12Z</time>
      </trkpt>
      <trkpt lat="46.11303" lon="4.55708">
        <ele>537.6</ele>
        <time>2020-10-24T06:23:13Z</time>
      </trkpt>
      <trkpt lat="46.11303" lon="4.55708">
        <ele>537.8</ele>
        <time>2020-10-24T06:23:14Z</time>
      </trkpt>
      <trkpt lat="46.11301" lon="4.55705">
        <ele>537.8</ele>
        <time>2020-10-24T06:23:15Z</time>
      </trkpt>
      <trkpt lat="46.113" lon="4.55702">
        <ele>538.2</ele>
        <time>2020-10-24T06:23:16Z</time>
      </trkpt>
      <trkpt lat="46.11299" lon="4.55699">
        <ele>538</ele>
        <time>2020-10-24T06:23:17Z</time>
      </trkpt>
      <trkpt lat="46.11297" lon="4.55696">
        <ele>538</ele>
        <time>2020-10-24T06:23:18Z</time>
      </trkpt>
      <trkpt lat="46.11295" lon="4.55694">
        <ele>538.4</ele>
        <time>2020-10-24T06:23:19Z</time>
      </trkpt>
      <trkpt lat="46.11294" lon="4.55692">
        <ele>538.2</ele>
        <time>2020-10-24T06:23:20Z</time>
      </trkpt>
      <trkpt lat="46.11292" lon="4.5569">
        <ele>538.2</ele>
        <time>2020-10-24T06:23:21Z</time>
      </trkpt>
      <trkpt lat="46.1129" lon="4.55688">
        <ele>538.6</ele>
        <time>2020-10-24T06:23:22Z</time>
      </trkpt>
      <trkpt lat="46.11288" lon="4.55686">
        <ele>538.8</ele>
        <time>2020-10-24T06:23:23Z</time>
      </trkpt>
      <trkpt lat="46.11286" lon="4.55684">
        <ele>538.8</ele>
        <time>2020-10-24T06:23:24Z</time>
      </trkpt>
      <trkpt lat="46.11284" lon="4.55682">
        <ele>539.4</ele>
        <time>2020-10-24T06:23:25Z</time>
      </trkpt>
      <trkpt lat="46.11283" lon="4.5568">
        <ele>539.6</ele>
        <time>2020-10-24T06:23:26Z</time>
      </trkpt>
      <trkpt lat="46.11283" lon="4.5568">
        <ele>540</ele>
        <time>2020-10-24T06:23:27Z</time>
      </trkpt>
      <trkpt lat="46.11281" lon="4.55676">
        <ele>540.4</ele>
        <time>2020-10-24T06:23:28Z</time>
      </trkpt>
      <trkpt lat="46.1128" lon="4.55674">
        <ele>540.4</ele>
        <time>2020-10-24T06:23:29Z</time>
      </trkpt>
      <trkpt lat="46.1128" lon="4.55674">
        <ele>540.8</ele>
        <time>2020-10-24T06:23:30Z</time>
      </trkpt>
      <trkpt lat="46.11277" lon="4.5567">
        <ele>540.6</ele>
        <time>2020-10-24T06:23:31Z</time>
      </trkpt>
      <trkpt lat="46.11276" lon="4.55668">
        <ele>540.6</ele>
        <time>2020-10-24T06:23:32Z</time>
      </trkpt>
      <trkpt lat="46.11275" lon="4.55666">
        <ele>541.4</ele>
        <time>2020-10-24T06:23:33Z</time>
      </trkpt>
      <trkpt lat="46.11273" lon="4.55664">
        <ele>541</ele>
        <time>2020-10-24T06:23:34Z</time>
      </trkpt>
      <trkpt lat="46.11271" lon="4.55661">
        <ele>541</ele>
        <time>2020-10-24T06:23:35Z</time>
      </trkpt>
      <trkpt lat="46.1127" lon="4.55659">
        <ele>541.6</ele>
        <time>2020-10-24T06:23:36Z</time>
      </trkpt>
      <trkpt lat="46.1127" lon="4.55659">
        <ele>541.6</ele>
        <time>2020-10-24T06:23:37Z</time>
      </trkpt>
      <trkpt lat="46.11268" lon="4.55654">
        <ele>542</ele>
        <time>2020-10-24T06:23:38Z</time>
      </trkpt>
      <trkpt lat="46.11267" lon="4.55651">
        <ele>542.4</ele>
        <time>2020-10-24T06:23:39Z</time>
      </trkpt>
      <trkpt lat="46.11265" lon="4.55649">
        <ele>542.4</ele>
        <time>2020-10-24T06:23:40Z</time>
      </trkpt>
      <trkpt lat="46.11264" lon="4.55646">
        <ele>542.8</ele>
        <time>2020-10-24T06:23:41Z</time>
      </trkpt>
      <trkpt lat="46.11263" lon="4.55643">
        <ele>543</ele>
        <time>2020-10-24T06:23:42Z</time>
      </trkpt>
      <trkpt lat="46.11262" lon="4.5564">
        <ele>543</ele>
        <time>2020-10-24T06:23:43Z</time>
      </trkpt>
      <trkpt lat="46.11261" lon="4.55638">
        <ele>543.4</ele>
        <time>2020-10-24T06:23:44Z</time>
      </trkpt>
      <trkpt lat="46.1126" lon="4.55636">
        <ele>543.4</ele>
        <time>2020-10-24T06:23:45Z</time>
      </trkpt>
      <trkpt lat="46.11258" lon="4.55633">
        <ele>543.4</ele>
        <time>2020-10-24T06:23:46Z</time>
      </trkpt>
      <trkpt lat="46.11256" lon="4.55631">
        <ele>544</ele>
        <time>2020-10-24T06:23:47Z</time>
      </trkpt>
      <trkpt lat="46.11255" lon="4.55628">
        <ele>544</ele>
        <time>2020-10-24T06:23:48Z</time>
      </trkpt>
      <trkpt lat="46.11253" lon="4.55626">
        <ele>544</ele>
        <time>2020-10-24T06:23:49Z</time>
      </trkpt>
      <trkpt lat="46.11252" lon="4.55623">
        <ele>544.8</ele>
        <time>2020-10-24T06:23:50Z</time>
      </trkpt>
      <trkpt lat="46.11251" lon="4.55621">
        <ele>545.2</ele>
        <time>2020-10-24T06:23:51Z</time>
      </trkpt>
      <trkpt lat="46.11251" lon="4.55621">
        <ele>545.4</ele>
        <time>2020-10-24T06:23:52Z</time>
      </trkpt>
      <trkpt lat="46.1125" lon="4.55616">
        <ele>545.8</ele>
        <time>2020-10-24T06:23:53Z</time>
      </trkpt>
      <trkpt lat="46.1125" lon="4.55616">
        <ele>546.2</ele>
        <time>2020-10-24T06:23:54Z</time>
      </trkpt>
      <trkpt lat="46.11249" lon="4.55614">
        <ele>546.4</ele>
        <time>2020-10-24T06:23:55Z</time>
      </trkpt>
      <trkpt lat="46.11249" lon="4.55614">
        <ele>546.4</ele>
        <time>2020-10-24T06:23:56Z</time>
      </trkpt>
      <trkpt lat="46.11248" lon="4.55611">
        <ele>546.6</ele>
        <time>2020-10-24T06:23:57Z</time>
      </trkpt>
      <trkpt lat="46.11248" lon="4.55611">
        <ele>546.8</ele>
        <time>2020-10-24T06:23:58Z</time>
      </trkpt>
      <trkpt lat="46.11246" lon="4.55609">
        <ele>547</ele>
        <time>2020-10-24T06:23:59Z</time>
      </trkpt>
      <trkpt lat="46.11246" lon="4.55609">
        <ele>547.2</ele>
        <time>2020-10-24T06:24:00Z</time>
      </trkpt>
      <trkpt lat="46.11244" lon="4.55608">
        <ele>547.4</ele>
        <time>2020-10-24T06:24:01Z</time>
      </trkpt>
      <trkpt lat="46.11244" lon="4.55608">
        <ele>547.8</ele>
        <time>2020-10-24T06:24:02Z</time>
      </trkpt>
      <trkpt lat="46.11241" lon="4.55607">
        <ele>548</ele>
        <time>2020-10-24T06:24:03Z</time>
      </trkpt>
      <trkpt lat="46.11241" lon="4.55607">
        <ele>548.6</ele>
        <time>2020-10-24T06:24:04Z</time>
      </trkpt>
      <trkpt lat="46.11239" lon="4.55606">
        <ele>548.4</ele>
        <time>2020-10-24T06:24:05Z</time>
      </trkpt>
      <trkpt lat="46.11238" lon="4.55606">
        <ele>548.4</ele>
        <time>2020-10-24T06:24:06Z</time>
      </trkpt>
      <trkpt lat="46.11238" lon="4.55606">
        <ele>548.4</ele>
        <time>2020-10-24T06:24:07Z</time>
      </trkpt>
      <trkpt lat="46.11234" lon="4.55605">
        <ele>548.4</ele>
        <time>2020-10-24T06:24:08Z</time>
      </trkpt>
      <trkpt lat="46.11234" lon="4.55605">
        <ele>548.4</ele>
        <time>2020-10-24T06:24:09Z</time>
      </trkpt>
      <trkpt lat="46.11232" lon="4.55605">
        <ele>548.8</ele>
        <time>2020-10-24T06:24:10Z</time>
      </trkpt>
      <trkpt lat="46.11232" lon="4.55605">
        <ele>549.2</ele>
        <time>2020-10-24T06:24:11Z</time>
      </trkpt>
      <trkpt lat="46.1123" lon="4.55605">
        <ele>549.6</ele>
        <time>2020-10-24T06:24:12Z</time>
      </trkpt>
      <trkpt lat="46.1123" lon="4.55605">
        <ele>549.8</ele>
        <time>2020-10-24T06:24:13Z</time>
      </trkpt>
      <trkpt lat="46.11228" lon="4.55603">
        <ele>549.8</ele>
        <time>2020-10-24T06:24:14Z</time>
      </trkpt>
      <trkpt lat="46.11228" lon="4.55603">
        <ele>550</ele>
        <time>2020-10-24T06:24:15Z</time>
      </trkpt>
      <trkpt lat="46.11228" lon="4.55599">
        <ele>550.2</ele>
        <time>2020-10-24T06:24:16Z</time>
      </trkpt>
      <trkpt lat="46.11228" lon="4.55599">
        <ele>550.2</ele>
        <time>2020-10-24T06:24:17Z</time>
      </trkpt>
      <trkpt lat="46.11228" lon="4.55599">
        <ele>550.4</ele>
        <time>2020-10-24T06:24:18Z</time>
      </trkpt>
      <trkpt lat="46.11228" lon="4.55599">
        <ele>550.2</ele>
        <time>2020-10-24T06:24:19Z</time>
      </trkpt>
      <trkpt lat="46.11227" lon="4.55596">
        <ele>550.4</ele>
        <time>2020-10-24T06:24:20Z</time>
      </trkpt>
      <trkpt lat="46.11227" lon="4.55596">
        <ele>550.4</ele>
        <time>2020-10-24T06:24:21Z</time>
      </trkpt>
      <trkpt lat="46.11227" lon="4.55596">
        <ele>550.8</ele>
        <time>2020-10-24T06:24:22Z</time>
      </trkpt>
      <trkpt lat="46.11227" lon="4.55596">
        <ele>550.8</ele>
        <time>2020-10-24T06:24:23Z</time>
      </trkpt>
      <trkpt lat="46.11224" lon="4.55595">
        <ele>550.8</ele>
        <time>2020-10-24T06:24:24Z</time>
      </trkpt>
      <trkpt lat="46.11224" lon="4.55595">
        <ele>550.6</ele>
        <time>2020-10-24T06:24:25Z</time>
      </trkpt>
      <trkpt lat="46.11223" lon="4.55594">
        <ele>550.8</ele>
        <time>2020-10-24T06:24:26Z</time>
      </trkpt>
      <trkpt lat="46.11223" lon="4.55594">
        <ele>551</ele>
        <time>2020-10-24T06:24:27Z</time>
      </trkpt>
      <trkpt lat="46.11223" lon="4.55594">
        <ele>551.2</ele>
        <time>2020-10-24T06:24:28Z</time>
      </trkpt>
      <trkpt lat="46.11221" lon="4.55591">
        <ele>551.4</ele>
        <time>2020-10-24T06:24:29Z</time>
      </trkpt>
      <trkpt lat="46.11221" lon="4.55591">
        <ele>551.8</ele>
        <time>2020-10-24T06:24:30Z</time>
      </trkpt>
      <trkpt lat="46.11221" lon="4.55591">
        <ele>552.2</ele>
        <time>2020-10-24T06:24:31Z</time>
      </trkpt>
      <trkpt lat="46.11219" lon="4.55589">
        <ele>552.4</ele>
        <time>2020-10-24T06:24:32Z</time>
      </trkpt>
      <trkpt lat="46.11219" lon="4.55589">
        <ele>552.4</ele>
        <time>2020-10-24T06:24:33Z</time>
      </trkpt>
      <trkpt lat="46.11217" lon="4.55586">
        <ele>552.6</ele>
        <time>2020-10-24T06:24:34Z</time>
      </trkpt>
      <trkpt lat="46.11217" lon="4.55586">
        <ele>552.6</ele>
        <time>2020-10-24T06:24:35Z</time>
      </trkpt>
      <trkpt lat="46.11216" lon="4.55583">
        <ele>552.8</ele>
        <time>2020-10-24T06:24:36Z</time>
      </trkpt>
      <trkpt lat="46.11214" lon="4.55581">
        <ele>552.8</ele>
        <time>2020-10-24T06:24:37Z</time>
      </trkpt>
      <trkpt lat="46.11214" lon="4.55581">
        <ele>553</ele>
        <time>2020-10-24T06:24:38Z</time>
      </trkpt>
      <trkpt lat="46.11213" lon="4.55578">
        <ele>553.4</ele>
        <time>2020-10-24T06:24:39Z</time>
      </trkpt>
      <trkpt lat="46.11213" lon="4.55578">
        <ele>553.6</ele>
        <time>2020-10-24T06:24:40Z</time>
      </trkpt>
      <trkpt lat="46.11212" lon="4.55575">
        <ele>553.8</ele>
        <time>2020-10-24T06:24:41Z</time>
      </trkpt>
      <trkpt lat="46.11212" lon="4.55575">
        <ele>553.8</ele>
        <time>2020-10-24T06:24:42Z</time>
      </trkpt>
      <trkpt lat="46.1121" lon="4.55573">
        <ele>553.8</ele>
        <time>2020-10-24T06:24:43Z</time>
      </trkpt>
      <trkpt lat="46.1121" lon="4.55573">
        <ele>554</ele>
        <time>2020-10-24T06:24:44Z</time>
      </trkpt>
      <trkpt lat="46.11208" lon="4.5557">
        <ele>554.2</ele>
        <time>2020-10-24T06:24:45Z</time>
      </trkpt>
      <trkpt lat="46.11208" lon="4.5557">
        <ele>554.2</ele>
        <time>2020-10-24T06:24:46Z</time>
      </trkpt>
      <trkpt lat="46.11207" lon="4.55567">
        <ele>554.4</ele>
        <time>2020-10-24T06:24:47Z</time>
      </trkpt>
      <trkpt lat="46.11207" lon="4.55567">
        <ele>554.8</ele>
        <time>2020-10-24T06:24:48Z</time>
      </trkpt>
      <trkpt lat="46.11207" lon="4.55564">
        <ele>555</ele>
        <time>2020-10-24T06:24:49Z</time>
      </trkpt>
      <trkpt lat="46.11207" lon="4.55564">
        <ele>555.4</ele>
        <time>2020-10-24T06:24:50Z</time>
      </trkpt>
      <trkpt lat="46.11205" lon="4.55561">
        <ele>555.6</ele>
        <time>2020-10-24T06:24:51Z</time>
      </trkpt>
      <trkpt lat="46.11204" lon="4.55559">
        <ele>555.6</ele>
        <time>2020-10-24T06:24:52Z</time>
      </trkpt>
      <trkpt lat="46.11204" lon="4.55559">
        <ele>555.6</ele>
        <time>2020-10-24T06:24:53Z</time>
      </trkpt>
      <trkpt lat="46.11202" lon="4.55556">
        <ele>555.6</ele>
        <time>2020-10-24T06:24:54Z</time>
      </trkpt>
      <trkpt lat="46.11202" lon="4.55556">
        <ele>555.6</ele>
        <time>2020-10-24T06:24:55Z</time>
      </trkpt>
      <trkpt lat="46.11199" lon="4.55552">
        <ele>555.8</ele>
        <time>2020-10-24T06:24:56Z</time>
      </trkpt>
      <trkpt lat="46.11198" lon="4.55551">
        <ele>555.8</ele>
        <time>2020-10-24T06:24:57Z</time>
      </trkpt>
      <trkpt lat="46.11198" lon="4.55551">
        <ele>555.8</ele>
        <time>2020-10-24T06:24:58Z</time>
      </trkpt>
      <trkpt lat="46.11196" lon="4.55548">
        <ele>556</ele>
        <time>2020-10-24T06:24:59Z</time>
      </trkpt>
      <trkpt lat="46.11196" lon="4.55548">
        <ele>556</ele>
        <time>2020-10-24T06:25:00Z</time>
      </trkpt>
      <trkpt lat="46.11193" lon="4.55547">
        <ele>556.2</ele>
        <time>2020-10-24T06:25:01Z</time>
      </trkpt>
      <trkpt lat="46.11193" lon="4.55547">
        <ele>556.4</ele>
        <time>2020-10-24T06:25:02Z</time>
      </trkpt>
      <trkpt lat="46.11192" lon="4.55545">
        <ele>556.6</ele>
        <time>2020-10-24T06:25:03Z</time>
      </trkpt>
      <trkpt lat="46.11192" lon="4.55545">
        <ele>556.8</ele>
        <time>2020-10-24T06:25:04Z</time>
      </trkpt>
      <trkpt lat="46.1119" lon="4.55542">
        <ele>557.2</ele>
        <time>2020-10-24T06:25:05Z</time>
      </trkpt>
      <trkpt lat="46.1119" lon="4.55542">
        <ele>557.6</ele>
        <time>2020-10-24T06:25:06Z</time>
      </trkpt>
      <trkpt lat="46.11188" lon="4.55539">
        <ele>557.8</ele>
        <time>2020-10-24T06:25:07Z</time>
      </trkpt>
      <trkpt lat="46.11188" lon="4.55539">
        <ele>557.8</ele>
        <time>2020-10-24T06:25:08Z</time>
      </trkpt>
      <trkpt lat="46.11185" lon="4.55535">
        <ele>557.8</ele>
        <time>2020-10-24T06:25:09Z</time>
      </trkpt>
      <trkpt lat="46.11185" lon="4.55535">
        <ele>558</ele>
        <time>2020-10-24T06:25:10Z</time>
      </trkpt>
      <trkpt lat="46.11183" lon="4.55532">
        <ele>558</ele>
        <time>2020-10-24T06:25:11Z</time>
      </trkpt>
      <trkpt lat="46.11183" lon="4.55532">
        <ele>558</ele>
        <time>2020-10-24T06:25:12Z</time>
      </trkpt>
      <trkpt lat="46.11181" lon="4.5553">
        <ele>558.2</ele>
        <time>2020-10-24T06:25:13Z</time>
      </trkpt>
      <trkpt lat="46.11181" lon="4.5553">
        <ele>558.6</ele>
        <time>2020-10-24T06:25:14Z</time>
      </trkpt>
      <trkpt lat="46.11179" lon="4.55527">
        <ele>558.8</ele>
        <time>2020-10-24T06:25:15Z</time>
      </trkpt>
      <trkpt lat="46.11179" lon="4.55527">
        <ele>559.2</ele>
        <time>2020-10-24T06:25:16Z</time>
      </trkpt>
      <trkpt lat="46.11177" lon="4.55524">
        <ele>559.2</ele>
        <time>2020-10-24T06:25:17Z</time>
      </trkpt>
      <trkpt lat="46.11177" lon="4.55524">
        <ele>559.6</ele>
        <time>2020-10-24T06:25:18Z</time>
      </trkpt>
      <trkpt lat="46.11175" lon="4.55521">
        <ele>559.8</ele>
        <time>2020-10-24T06:25:19Z</time>
      </trkpt>
      <trkpt lat="46.11175" lon="4.55521">
        <ele>560</ele>
        <time>2020-10-24T06:25:20Z</time>
      </trkpt>
      <trkpt lat="46.11173" lon="4.55517">
        <ele>560</ele>
        <time>2020-10-24T06:25:21Z</time>
      </trkpt>
      <trkpt lat="46.11173" lon="4.55517">
        <ele>560</ele>
        <time>2020-10-24T06:25:22Z</time>
      </trkpt>
      <trkpt lat="46.11171" lon="4.55515">
        <ele>560.2</ele>
        <time>2020-10-24T06:25:23Z</time>
      </trkpt>
      <trkpt lat="46.11171" lon="4.55515">
        <ele>560.6</ele>
        <time>2020-10-24T06:25:24Z</time>
      </trkpt>
      <trkpt lat="46.1117" lon="4.55512">
        <ele>560.8</ele>
        <time>2020-10-24T06:25:25Z</time>
      </trkpt>
      <trkpt lat="46.1117" lon="4.55512">
        <ele>561</ele>
        <time>2020-10-24T06:25:26Z</time>
      </trkpt>
      <trkpt lat="46.11168" lon="4.5551">
        <ele>561</ele>
        <time>2020-10-24T06:25:27Z</time>
      </trkpt>
      <trkpt lat="46.11167" lon="4.55509">
        <ele>561.2</ele>
        <time>2020-10-24T06:25:28Z</time>
      </trkpt>
      <trkpt lat="46.11167" lon="4.55509">
        <ele>561.2</ele>
        <time>2020-10-24T06:25:29Z</time>
      </trkpt>
      <trkpt lat="46.11164" lon="4.55506">
        <ele>561.4</ele>
        <time>2020-10-24T06:25:30Z</time>
      </trkpt>
      <trkpt lat="46.11164" lon="4.55506">
        <ele>561.6</ele>
        <time>2020-10-24T06:25:31Z</time>
      </trkpt>
      <trkpt lat="46.11161" lon="4.55504">
        <ele>561.8</ele>
        <time>2020-10-24T06:25:32Z</time>
      </trkpt>
      <trkpt lat="46.11161" lon="4.55504">
        <ele>562.2</ele>
        <time>2020-10-24T06:25:33Z</time>
      </trkpt>
      <trkpt lat="46.11158" lon="4.55502">
        <ele>562.4</ele>
        <time>2020-10-24T06:25:34Z</time>
      </trkpt>
      <trkpt lat="46.11158" lon="4.55502">
        <ele>562.6</ele>
        <time>2020-10-24T06:25:35Z</time>
      </trkpt>
      <trkpt lat="46.11158" lon="4.55502">
        <ele>562.8</ele>
        <time>2020-10-24T06:25:36Z</time>
      </trkpt>
      <trkpt lat="46.11158" lon="4.55502">
        <ele>563</ele>
        <time>2020-10-24T06:25:37Z</time>
      </trkpt>
      <trkpt lat="46.11157" lon="4.55499">
        <ele>563</ele>
        <time>2020-10-24T06:25:38Z</time>
      </trkpt>
      <trkpt lat="46.11157" lon="4.55499">
        <ele>563.4</ele>
        <time>2020-10-24T06:25:39Z</time>
      </trkpt>
      <trkpt lat="46.11155" lon="4.55496">
        <ele>563.4</ele>
        <time>2020-10-24T06:25:40Z</time>
      </trkpt>
      <trkpt lat="46.11153" lon="4.55494">
        <ele>563.8</ele>
        <time>2020-10-24T06:25:41Z</time>
      </trkpt>
      <trkpt lat="46.11152" lon="4.55493">
        <ele>564.2</ele>
        <time>2020-10-24T06:25:42Z</time>
      </trkpt>
      <trkpt lat="46.1115" lon="4.55491">
        <ele>564.6</ele>
        <time>2020-10-24T06:25:43Z</time>
      </trkpt>
      <trkpt lat="46.11147" lon="4.55488">
        <ele>565</ele>
        <time>2020-10-24T06:25:44Z</time>
      </trkpt>
      <trkpt lat="46.11147" lon="4.55486">
        <ele>565.2</ele>
        <time>2020-10-24T06:25:45Z</time>
      </trkpt>
      <trkpt lat="46.11147" lon="4.55486">
        <ele>565.4</ele>
        <time>2020-10-24T06:25:46Z</time>
      </trkpt>
      <trkpt lat="46.11145" lon="4.55482">
        <ele>566</ele>
        <time>2020-10-24T06:25:47Z</time>
      </trkpt>
      <trkpt lat="46.11144" lon="4.5548">
        <ele>566.6</ele>
        <time>2020-10-24T06:25:48Z</time>
      </trkpt>
      <trkpt lat="46.11144" lon="4.5548">
        <ele>566.8</ele>
        <time>2020-10-24T06:25:49Z</time>
      </trkpt>
      <trkpt lat="46.11142" lon="4.55477">
        <ele>567.2</ele>
        <time>2020-10-24T06:25:50Z</time>
      </trkpt>
      <trkpt lat="46.11142" lon="4.55477">
        <ele>567.2</ele>
        <time>2020-10-24T06:25:51Z</time>
      </trkpt>
      <trkpt lat="46.1114" lon="4.55475">
        <ele>567.2</ele>
        <time>2020-10-24T06:25:52Z</time>
      </trkpt>
      <trkpt lat="46.1114" lon="4.55475">
        <ele>567.4</ele>
        <time>2020-10-24T06:25:53Z</time>
      </trkpt>
      <trkpt lat="46.11137" lon="4.55472">
        <ele>567.6</ele>
        <time>2020-10-24T06:25:54Z</time>
      </trkpt>
      <trkpt lat="46.11137" lon="4.55472">
        <ele>567.6</ele>
        <time>2020-10-24T06:25:55Z</time>
      </trkpt>
      <trkpt lat="46.11135" lon="4.55469">
        <ele>567.6</ele>
        <time>2020-10-24T06:25:56Z</time>
      </trkpt>
      <trkpt lat="46.11135" lon="4.55469">
        <ele>567.8</ele>
        <time>2020-10-24T06:25:57Z</time>
      </trkpt>
      <trkpt lat="46.11133" lon="4.55466">
        <ele>568.2</ele>
        <time>2020-10-24T06:25:58Z</time>
      </trkpt>
      <trkpt lat="46.11133" lon="4.55466">
        <ele>568.6</ele>
        <time>2020-10-24T06:25:59Z</time>
      </trkpt>
      <trkpt lat="46.11133" lon="4.55466">
        <ele>568.8</ele>
        <time>2020-10-24T06:26:00Z</time>
      </trkpt>
      <trkpt lat="46.11131" lon="4.55462">
        <ele>569</ele>
        <time>2020-10-24T06:26:01Z</time>
      </trkpt>
      <trkpt lat="46.11131" lon="4.55462">
        <ele>569.2</ele>
        <time>2020-10-24T06:26:02Z</time>
      </trkpt>
      <trkpt lat="46.11128" lon="4.5546">
        <ele>569.6</ele>
        <time>2020-10-24T06:26:03Z</time>
      </trkpt>
      <trkpt lat="46.11128" lon="4.5546">
        <ele>569.8</ele>
        <time>2020-10-24T06:26:04Z</time>
      </trkpt>
      <trkpt lat="46.11126" lon="4.55458">
        <ele>569.8</ele>
        <time>2020-10-24T06:26:05Z</time>
      </trkpt>
      <trkpt lat="46.11126" lon="4.55458">
        <ele>570</ele>
        <time>2020-10-24T06:26:06Z</time>
      </trkpt>
      <trkpt lat="46.11125" lon="4.55457">
        <ele>570.2</ele>
        <time>2020-10-24T06:26:07Z</time>
      </trkpt>
      <trkpt lat="46.11125" lon="4.55457">
        <ele>570.2</ele>
        <time>2020-10-24T06:26:08Z</time>
      </trkpt>
      <trkpt lat="46.11122" lon="4.55457">
        <ele>570.4</ele>
        <time>2020-10-24T06:26:09Z</time>
      </trkpt>
      <trkpt lat="46.11122" lon="4.55457">
        <ele>570.4</ele>
        <time>2020-10-24T06:26:10Z</time>
      </trkpt>
      <trkpt lat="46.1112" lon="4.55454">
        <ele>570.8</ele>
        <time>2020-10-24T06:26:11Z</time>
      </trkpt>
      <trkpt lat="46.1112" lon="4.55454">
        <ele>570.8</ele>
        <time>2020-10-24T06:26:12Z</time>
      </trkpt>
      <trkpt lat="46.11118" lon="4.55452">
        <ele>570.8</ele>
        <time>2020-10-24T06:26:13Z</time>
      </trkpt>
      <trkpt lat="46.11118" lon="4.55452">
        <ele>571</ele>
        <time>2020-10-24T06:26:14Z</time>
      </trkpt>
      <trkpt lat="46.11117" lon="4.5545">
        <ele>571.2</ele>
        <time>2020-10-24T06:26:15Z</time>
      </trkpt>
      <trkpt lat="46.11117" lon="4.5545">
        <ele>571.6</ele>
        <time>2020-10-24T06:26:16Z</time>
      </trkpt>
      <trkpt lat="46.11114" lon="4.55448">
        <ele>571.8</ele>
        <time>2020-10-24T06:26:17Z</time>
      </trkpt>
      <trkpt lat="46.11114" lon="4.55448">
        <ele>572</ele>
        <time>2020-10-24T06:26:18Z</time>
      </trkpt>
      <trkpt lat="46.11111" lon="4.55445">
        <ele>572</ele>
        <time>2020-10-24T06:26:19Z</time>
      </trkpt>
      <trkpt lat="46.11111" lon="4.55445">
        <ele>572</ele>
        <time>2020-10-24T06:26:20Z</time>
      </trkpt>
      <trkpt lat="46.11109" lon="4.55443">
        <ele>572.2</ele>
        <time>2020-10-24T06:26:21Z</time>
      </trkpt>
      <trkpt lat="46.11109" lon="4.55443">
        <ele>572.6</ele>
        <time>2020-10-24T06:26:22Z</time>
      </trkpt>
      <trkpt lat="46.11106" lon="4.55441">
        <ele>572.8</ele>
        <time>2020-10-24T06:26:23Z</time>
      </trkpt>
      <trkpt lat="46.11105" lon="4.55438">
        <ele>573.2</ele>
        <time>2020-10-24T06:26:24Z</time>
      </trkpt>
      <trkpt lat="46.11105" lon="4.55438">
        <ele>573.4</ele>
        <time>2020-10-24T06:26:25Z</time>
      </trkpt>
      <trkpt lat="46.11102" lon="4.55435">
        <ele>573.4</ele>
        <time>2020-10-24T06:26:26Z</time>
      </trkpt>
      <trkpt lat="46.111" lon="4.55434">
        <ele>573.6</ele>
        <time>2020-10-24T06:26:27Z</time>
      </trkpt>
      <trkpt lat="46.111" lon="4.55434">
        <ele>574</ele>
        <time>2020-10-24T06:26:28Z</time>
      </trkpt>
      <trkpt lat="46.11097" lon="4.55431">
        <ele>574.4</ele>
        <time>2020-10-24T06:26:29Z</time>
      </trkpt>
      <trkpt lat="46.11097" lon="4.55431">
        <ele>574.6</ele>
        <time>2020-10-24T06:26:30Z</time>
      </trkpt>
      <trkpt lat="46.11095" lon="4.55427">
        <ele>574.6</ele>
        <time>2020-10-24T06:26:31Z</time>
      </trkpt>
      <trkpt lat="46.11095" lon="4.55427">
        <ele>574.8</ele>
        <time>2020-10-24T06:26:32Z</time>
      </trkpt>
      <trkpt lat="46.11095" lon="4.55427">
        <ele>574.8</ele>
        <time>2020-10-24T06:26:33Z</time>
      </trkpt>
      <trkpt lat="46.11094" lon="4.55423">
        <ele>575</ele>
        <time>2020-10-24T06:26:34Z</time>
      </trkpt>
      <trkpt lat="46.11094" lon="4.55423">
        <ele>575.2</ele>
        <time>2020-10-24T06:26:35Z</time>
      </trkpt>
      <trkpt lat="46.11092" lon="4.55421">
        <ele>575.4</ele>
        <time>2020-10-24T06:26:36Z</time>
      </trkpt>
      <trkpt lat="46.11092" lon="4.55421">
        <ele>575.4</ele>
        <time>2020-10-24T06:26:37Z</time>
      </trkpt>
      <trkpt lat="46.11091" lon="4.55418">
        <ele>575.6</ele>
        <time>2020-10-24T06:26:38Z</time>
      </trkpt>
      <trkpt lat="46.11091" lon="4.55418">
        <ele>575.8</ele>
        <time>2020-10-24T06:26:39Z</time>
      </trkpt>
      <trkpt lat="46.11089" lon="4.55416">
        <ele>576</ele>
        <time>2020-10-24T06:26:40Z</time>
      </trkpt>
      <trkpt lat="46.11088" lon="4.55414">
        <ele>575.8</ele>
        <time>2020-10-24T06:26:41Z</time>
      </trkpt>
      <trkpt lat="46.11086" lon="4.55412">
        <ele>576</ele>
        <time>2020-10-24T06:26:42Z</time>
      </trkpt>
      <trkpt lat="46.11084" lon="4.55411">
        <ele>576.2</ele>
        <time>2020-10-24T06:26:43Z</time>
      </trkpt>
      <trkpt lat="46.11084" lon="4.55411">
        <ele>576.4</ele>
        <time>2020-10-24T06:26:44Z</time>
      </trkpt>
      <trkpt lat="46.11082" lon="4.55409">
        <ele>576.8</ele>
        <time>2020-10-24T06:26:45Z</time>
      </trkpt>
      <trkpt lat="46.11082" lon="4.55409">
        <ele>577.2</ele>
        <time>2020-10-24T06:26:46Z</time>
      </trkpt>
      <trkpt lat="46.1108" lon="4.55407">
        <ele>577.4</ele>
        <time>2020-10-24T06:26:47Z</time>
      </trkpt>
      <trkpt lat="46.1108" lon="4.55407">
        <ele>577.6</ele>
        <time>2020-10-24T06:26:48Z</time>
      </trkpt>
      <trkpt lat="46.11078" lon="4.55403">
        <ele>577.8</ele>
        <time>2020-10-24T06:26:49Z</time>
      </trkpt>
      <trkpt lat="46.11078" lon="4.55403">
        <ele>577.8</ele>
        <time>2020-10-24T06:26:50Z</time>
      </trkpt>
      <trkpt lat="46.11076" lon="4.55401">
        <ele>578.4</ele>
        <time>2020-10-24T06:26:51Z</time>
      </trkpt>
      <trkpt lat="46.11076" lon="4.55401">
        <ele>578.8</ele>
        <time>2020-10-24T06:26:52Z</time>
      </trkpt>
      <trkpt lat="46.11075" lon="4.55399">
        <ele>579</ele>
        <time>2020-10-24T06:26:53Z</time>
      </trkpt>
      <trkpt lat="46.11075" lon="4.55399">
        <ele>579</ele>
        <time>2020-10-24T06:26:54Z</time>
      </trkpt>
      <trkpt lat="46.11073" lon="4.55395">
        <ele>579</ele>
        <time>2020-10-24T06:26:55Z</time>
      </trkpt>
      <trkpt lat="46.11073" lon="4.55395">
        <ele>579.4</ele>
        <time>2020-10-24T06:26:56Z</time>
      </trkpt>
      <trkpt lat="46.11071" lon="4.55393">
        <ele>579.8</ele>
        <time>2020-10-24T06:26:57Z</time>
      </trkpt>
      <trkpt lat="46.11071" lon="4.55393">
        <ele>580</ele>
        <time>2020-10-24T06:26:58Z</time>
      </trkpt>
      <trkpt lat="46.11069" lon="4.5539">
        <ele>580.2</ele>
        <time>2020-10-24T06:26:59Z</time>
      </trkpt>
      <trkpt lat="46.11069" lon="4.5539">
        <ele>580.4</ele>
        <time>2020-10-24T06:27:00Z</time>
      </trkpt>
      <trkpt lat="46.11067" lon="4.55387">
        <ele>580.6</ele>
        <time>2020-10-24T06:27:01Z</time>
      </trkpt>
      <trkpt lat="46.11067" lon="4.55387">
        <ele>580.8</ele>
        <time>2020-10-24T06:27:02Z</time>
      </trkpt>
      <trkpt lat="46.11064" lon="4.55384">
        <ele>581</ele>
        <time>2020-10-24T06:27:03Z</time>
      </trkpt>
      <trkpt lat="46.11064" lon="4.55384">
        <ele>581.2</ele>
        <time>2020-10-24T06:27:04Z</time>
      </trkpt>
      <trkpt lat="46.11062" lon="4.5538">
        <ele>581.4</ele>
        <time>2020-10-24T06:27:05Z</time>
      </trkpt>
      <trkpt lat="46.11062" lon="4.5538">
        <ele>581.6</ele>
        <time>2020-10-24T06:27:06Z</time>
      </trkpt>
      <trkpt lat="46.1106" lon="4.55377">
        <ele>581.8</ele>
        <time>2020-10-24T06:27:07Z</time>
      </trkpt>
      <trkpt lat="46.1106" lon="4.55377">
        <ele>582</ele>
        <time>2020-10-24T06:27:08Z</time>
      </trkpt>
      <trkpt lat="46.11058" lon="4.55375">
        <ele>582.2</ele>
        <time>2020-10-24T06:27:09Z</time>
      </trkpt>
      <trkpt lat="46.11058" lon="4.55375">
        <ele>582.2</ele>
        <time>2020-10-24T06:27:10Z</time>
      </trkpt>
      <trkpt lat="46.11056" lon="4.55374">
        <ele>582.4</ele>
        <time>2020-10-24T06:27:11Z</time>
      </trkpt>
      <trkpt lat="46.11055" lon="4.55372">
        <ele>582.6</ele>
        <time>2020-10-24T06:27:12Z</time>
      </trkpt>
      <trkpt lat="46.11055" lon="4.55372">
        <ele>582.6</ele>
        <time>2020-10-24T06:27:13Z</time>
      </trkpt>
      <trkpt lat="46.11052" lon="4.5537">
        <ele>582.8</ele>
        <time>2020-10-24T06:27:14Z</time>
      </trkpt>
      <trkpt lat="46.11052" lon="4.5537">
        <ele>583.2</ele>
        <time>2020-10-24T06:27:15Z</time>
      </trkpt>
      <trkpt lat="46.1105" lon="4.55367">
        <ele>583.4</ele>
        <time>2020-10-24T06:27:16Z</time>
      </trkpt>
      <trkpt lat="46.1105" lon="4.55367">
        <ele>583.4</ele>
        <time>2020-10-24T06:27:17Z</time>
      </trkpt>
      <trkpt lat="46.11048" lon="4.55365">
        <ele>583.4</ele>
        <time>2020-10-24T06:27:18Z</time>
      </trkpt>
      <trkpt lat="46.11047" lon="4.55363">
        <ele>583.6</ele>
        <time>2020-10-24T06:27:19Z</time>
      </trkpt>
      <trkpt lat="46.11047" lon="4.55363">
        <ele>583.8</ele>
        <time>2020-10-24T06:27:20Z</time>
      </trkpt>
      <trkpt lat="46.11044" lon="4.55361">
        <ele>584.2</ele>
        <time>2020-10-24T06:27:21Z</time>
      </trkpt>
      <trkpt lat="46.11044" lon="4.55361">
        <ele>584.4</ele>
        <time>2020-10-24T06:27:22Z</time>
      </trkpt>
      <trkpt lat="46.11041" lon="4.55359">
        <ele>584.8</ele>
        <time>2020-10-24T06:27:23Z</time>
      </trkpt>
      <trkpt lat="46.11041" lon="4.55359">
        <ele>585</ele>
        <time>2020-10-24T06:27:24Z</time>
      </trkpt>
      <trkpt lat="46.11039" lon="4.55357">
        <ele>585.2</ele>
        <time>2020-10-24T06:27:25Z</time>
      </trkpt>
      <trkpt lat="46.11037" lon="4.55356">
        <ele>585.4</ele>
        <time>2020-10-24T06:27:26Z</time>
      </trkpt>
      <trkpt lat="46.11037" lon="4.55356">
        <ele>585.6</ele>
        <time>2020-10-24T06:27:27Z</time>
      </trkpt>
      <trkpt lat="46.11035" lon="4.55354">
        <ele>586</ele>
        <time>2020-10-24T06:27:28Z</time>
      </trkpt>
      <trkpt lat="46.11035" lon="4.55354">
        <ele>586.2</ele>
        <time>2020-10-24T06:27:29Z</time>
      </trkpt>
      <trkpt lat="46.11032" lon="4.55351">
        <ele>586.2</ele>
        <time>2020-10-24T06:27:30Z</time>
      </trkpt>
      <trkpt lat="46.1103" lon="4.5535">
        <ele>586.2</ele>
        <time>2020-10-24T06:27:31Z</time>
      </trkpt>
      <trkpt lat="46.1103" lon="4.5535">
        <ele>586.2</ele>
        <time>2020-10-24T06:27:32Z</time>
      </trkpt>
      <trkpt lat="46.11028" lon="4.55348">
        <ele>586.4</ele>
        <time>2020-10-24T06:27:33Z</time>
      </trkpt>
      <trkpt lat="46.11028" lon="4.55348">
        <ele>586.8</ele>
        <time>2020-10-24T06:27:34Z</time>
      </trkpt>
      <trkpt lat="46.11026" lon="4.55346">
        <ele>587</ele>
        <time>2020-10-24T06:27:35Z</time>
      </trkpt>
      <trkpt lat="46.11026" lon="4.55346">
        <ele>587.2</ele>
        <time>2020-10-24T06:27:36Z</time>
      </trkpt>
      <trkpt lat="46.11025" lon="4.55344">
        <ele>587.4</ele>
        <time>2020-10-24T06:27:37Z</time>
      </trkpt>
      <trkpt lat="46.11025" lon="4.55344">
        <ele>587.6</ele>
        <time>2020-10-24T06:27:38Z</time>
      </trkpt>
      <trkpt lat="46.11023" lon="4.55342">
        <ele>587.8</ele>
        <time>2020-10-24T06:27:39Z</time>
      </trkpt>
      <trkpt lat="46.11023" lon="4.55342">
        <ele>588</ele>
        <time>2020-10-24T06:27:40Z</time>
      </trkpt>
      <trkpt lat="46.11021" lon="4.55341">
        <ele>588.2</ele>
        <time>2020-10-24T06:27:41Z</time>
      </trkpt>
      <trkpt lat="46.11021" lon="4.55341">
        <ele>588.2</ele>
        <time>2020-10-24T06:27:42Z</time>
      </trkpt>
      <trkpt lat="46.11021" lon="4.55341">
        <ele>588.6</ele>
        <time>2020-10-24T06:27:43Z</time>
      </trkpt>
      <trkpt lat="46.1102" lon="4.55338">
        <ele>589</ele>
        <time>2020-10-24T06:27:44Z</time>
      </trkpt>
      <trkpt lat="46.1102" lon="4.55338">
        <ele>589.4</ele>
        <time>2020-10-24T06:27:45Z</time>
      </trkpt>
      <trkpt lat="46.11017" lon="4.55336">
        <ele>589.4</ele>
        <time>2020-10-24T06:27:46Z</time>
      </trkpt>
      <trkpt lat="46.11017" lon="4.55336">
        <ele>589.6</ele>
        <time>2020-10-24T06:27:47Z</time>
      </trkpt>
      <trkpt lat="46.11014" lon="4.55333">
        <ele>590</ele>
        <time>2020-10-24T06:27:48Z</time>
      </trkpt>
      <trkpt lat="46.11014" lon="4.55333">
        <ele>590.2</ele>
        <time>2020-10-24T06:27:49Z</time>
      </trkpt>
      <trkpt lat="46.11013" lon="4.5533">
        <ele>590.4</ele>
        <time>2020-10-24T06:27:50Z</time>
      </trkpt>
      <trkpt lat="46.11013" lon="4.5533">
        <ele>590.6</ele>
        <time>2020-10-24T06:27:51Z</time>
      </trkpt>
      <trkpt lat="46.11011" lon="4.55328">
        <ele>591</ele>
        <time>2020-10-24T06:27:52Z</time>
      </trkpt>
      <trkpt lat="46.11011" lon="4.55328">
        <ele>591.2</ele>
        <time>2020-10-24T06:27:53Z</time>
      </trkpt>
      <trkpt lat="46.11009" lon="4.55326">
        <ele>591.2</ele>
        <time>2020-10-24T06:27:54Z</time>
      </trkpt>
      <trkpt lat="46.11009" lon="4.55326">
        <ele>591.4</ele>
        <time>2020-10-24T06:27:55Z</time>
      </trkpt>
      <trkpt lat="46.11006" lon="4.55324">
        <ele>591.8</ele>
        <time>2020-10-24T06:27:56Z</time>
      </trkpt>
      <trkpt lat="46.11006" lon="4.55324">
        <ele>592.2</ele>
        <time>2020-10-24T06:27:57Z</time>
      </trkpt>
      <trkpt lat="46.11005" lon="4.55321">
        <ele>592.4</ele>
        <time>2020-10-24T06:27:58Z</time>
      </trkpt>
      <trkpt lat="46.11005" lon="4.55321">
        <ele>592.8</ele>
        <time>2020-10-24T06:27:59Z</time>
      </trkpt>
      <trkpt lat="46.11002" lon="4.55318">
        <ele>593.2</ele>
        <time>2020-10-24T06:28:00Z</time>
      </trkpt>
      <trkpt lat="46.11002" lon="4.55318">
        <ele>593.4</ele>
        <time>2020-10-24T06:28:01Z</time>
      </trkpt>
      <trkpt lat="46.11" lon="4.55316">
        <ele>593.6</ele>
        <time>2020-10-24T06:28:02Z</time>
      </trkpt>
      <trkpt lat="46.11" lon="4.55316">
        <ele>594</ele>
        <time>2020-10-24T06:28:03Z</time>
      </trkpt>
      <trkpt lat="46.10998" lon="4.55315">
        <ele>594.4</ele>
        <time>2020-10-24T06:28:04Z</time>
      </trkpt>
      <trkpt lat="46.10998" lon="4.55315">
        <ele>594.4</ele>
        <time>2020-10-24T06:28:05Z</time>
      </trkpt>
      <trkpt lat="46.10995" lon="4.55313">
        <ele>594.6</ele>
        <time>2020-10-24T06:28:06Z</time>
      </trkpt>
      <trkpt lat="46.10993" lon="4.55312">
        <ele>594.8</ele>
        <time>2020-10-24T06:28:07Z</time>
      </trkpt>
      <trkpt lat="46.10993" lon="4.55312">
        <ele>595.2</ele>
        <time>2020-10-24T06:28:08Z</time>
      </trkpt>
      <trkpt lat="46.1099" lon="4.5531">
        <ele>595.4</ele>
        <time>2020-10-24T06:28:09Z</time>
      </trkpt>
      <trkpt lat="46.1099" lon="4.5531">
        <ele>595.6</ele>
        <time>2020-10-24T06:28:10Z</time>
      </trkpt>
      <trkpt lat="46.10988" lon="4.55308">
        <ele>595.8</ele>
        <time>2020-10-24T06:28:11Z</time>
      </trkpt>
      <trkpt lat="46.10988" lon="4.55308">
        <ele>596</ele>
        <time>2020-10-24T06:28:12Z</time>
      </trkpt>
      <trkpt lat="46.10987" lon="4.55306">
        <ele>596.2</ele>
        <time>2020-10-24T06:28:13Z</time>
      </trkpt>
      <trkpt lat="46.10987" lon="4.55306">
        <ele>596.4</ele>
        <time>2020-10-24T06:28:14Z</time>
      </trkpt>
      <trkpt lat="46.10984" lon="4.55304">
        <ele>596.6</ele>
        <time>2020-10-24T06:28:15Z</time>
      </trkpt>
      <trkpt lat="46.10984" lon="4.55304">
        <ele>596.6</ele>
        <time>2020-10-24T06:28:16Z</time>
      </trkpt>
      <trkpt lat="46.10982" lon="4.55301">
        <ele>596.8</ele>
        <time>2020-10-24T06:28:17Z</time>
      </trkpt>
      <trkpt lat="46.10982" lon="4.55301">
        <ele>597.2</ele>
        <time>2020-10-24T06:28:18Z</time>
      </trkpt>
      <trkpt lat="46.1098" lon="4.55299">
        <ele>597.4</ele>
        <time>2020-10-24T06:28:19Z</time>
      </trkpt>
      <trkpt lat="46.1098" lon="4.55299">
        <ele>597.4</ele>
        <time>2020-10-24T06:28:20Z</time>
      </trkpt>
      <trkpt lat="46.10979" lon="4.55296">
        <ele>597.6</ele>
        <time>2020-10-24T06:28:21Z</time>
      </trkpt>
      <trkpt lat="46.10979" lon="4.55296">
        <ele>597.8</ele>
        <time>2020-10-24T06:28:22Z</time>
      </trkpt>
      <trkpt lat="46.10977" lon="4.55293">
        <ele>597.8</ele>
        <time>2020-10-24T06:28:23Z</time>
      </trkpt>
      <trkpt lat="46.10977" lon="4.55293">
        <ele>598</ele>
        <time>2020-10-24T06:28:24Z</time>
      </trkpt>
      <trkpt lat="46.10976" lon="4.55288">
        <ele>598.2</ele>
        <time>2020-10-24T06:28:25Z</time>
      </trkpt>
      <trkpt lat="46.10976" lon="4.55288">
        <ele>598.2</ele>
        <time>2020-10-24T06:28:26Z</time>
      </trkpt>
      <trkpt lat="46.10975" lon="4.55286">
        <ele>598.6</ele>
        <time>2020-10-24T06:28:27Z</time>
      </trkpt>
      <trkpt lat="46.10975" lon="4.55286">
        <ele>599</ele>
        <time>2020-10-24T06:28:28Z</time>
      </trkpt>
      <trkpt lat="46.10974" lon="4.55282">
        <ele>599</ele>
        <time>2020-10-24T06:28:29Z</time>
      </trkpt>
      <trkpt lat="46.10974" lon="4.55282">
        <ele>599.2</ele>
        <time>2020-10-24T06:28:30Z</time>
      </trkpt>
      <trkpt lat="46.10973" lon="4.55278">
        <ele>599.4</ele>
        <time>2020-10-24T06:28:31Z</time>
      </trkpt>
      <trkpt lat="46.10973" lon="4.55278">
        <ele>599.8</ele>
        <time>2020-10-24T06:28:32Z</time>
      </trkpt>
      <trkpt lat="46.10973" lon="4.55275">
        <ele>599.8</ele>
        <time>2020-10-24T06:28:33Z</time>
      </trkpt>
      <trkpt lat="46.10973" lon="4.55275">
        <ele>600</ele>
        <time>2020-10-24T06:28:34Z</time>
      </trkpt>
      <trkpt lat="46.10973" lon="4.55271">
        <ele>600.2</ele>
        <time>2020-10-24T06:28:35Z</time>
      </trkpt>
      <trkpt lat="46.10973" lon="4.55271">
        <ele>600.6</ele>
        <time>2020-10-24T06:28:36Z</time>
      </trkpt>
      <trkpt lat="46.10972" lon="4.55268">
        <ele>601</ele>
        <time>2020-10-24T06:28:37Z</time>
      </trkpt>
      <trkpt lat="46.10972" lon="4.55268">
        <ele>601.2</ele>
        <time>2020-10-24T06:28:38Z</time>
      </trkpt>
      <trkpt lat="46.10972" lon="4.55265">
        <ele>601.4</ele>
        <time>2020-10-24T06:28:39Z</time>
      </trkpt>
      <trkpt lat="46.10972" lon="4.55265">
        <ele>601.8</ele>
        <time>2020-10-24T06:28:40Z</time>
      </trkpt>
      <trkpt lat="46.10972" lon="4.55261">
        <ele>601.8</ele>
        <time>2020-10-24T06:28:41Z</time>
      </trkpt>
      <trkpt lat="46.10972" lon="4.55261">
        <ele>602</ele>
        <time>2020-10-24T06:28:42Z</time>
      </trkpt>
      <trkpt lat="46.10973" lon="4.55257">
        <ele>602.2</ele>
        <time>2020-10-24T06:28:43Z</time>
      </trkpt>
      <trkpt lat="46.10973" lon="4.55257">
        <ele>602.8</ele>
        <time>2020-10-24T06:28:44Z</time>
      </trkpt>
      <trkpt lat="46.10972" lon="4.55253">
        <ele>603</ele>
        <time>2020-10-24T06:28:45Z</time>
      </trkpt>
      <trkpt lat="46.10972" lon="4.55253">
        <ele>603.2</ele>
        <time>2020-10-24T06:28:46Z</time>
      </trkpt>
      <trkpt lat="46.10971" lon="4.55251">
        <ele>603.4</ele>
        <time>2020-10-24T06:28:47Z</time>
      </trkpt>
      <trkpt lat="46.10971" lon="4.55251">
        <ele>603.8</ele>
        <time>2020-10-24T06:28:48Z</time>
      </trkpt>
      <trkpt lat="46.10968" lon="4.5525">
        <ele>604.2</ele>
        <time>2020-10-24T06:28:49Z</time>
      </trkpt>
      <trkpt lat="46.10968" lon="4.5525">
        <ele>604.4</ele>
        <time>2020-10-24T06:28:50Z</time>
      </trkpt>
      <trkpt lat="46.10966" lon="4.55251">
        <ele>604.6</ele>
        <time>2020-10-24T06:28:51Z</time>
      </trkpt>
      <trkpt lat="46.10966" lon="4.55251">
        <ele>604.8</ele>
        <time>2020-10-24T06:28:52Z</time>
      </trkpt>
      <trkpt lat="46.10964" lon="4.55251">
        <ele>605.2</ele>
        <time>2020-10-24T06:28:53Z</time>
      </trkpt>
      <trkpt lat="46.10964" lon="4.55251">
        <ele>605.6</ele>
        <time>2020-10-24T06:28:54Z</time>
      </trkpt>
      <trkpt lat="46.10961" lon="4.55251">
        <ele>605.8</ele>
        <time>2020-10-24T06:28:55Z</time>
      </trkpt>
      <trkpt lat="46.10961" lon="4.55251">
        <ele>606.2</ele>
        <time>2020-10-24T06:28:56Z</time>
      </trkpt>
      <trkpt lat="46.10958" lon="4.5525">
        <ele>606.4</ele>
        <time>2020-10-24T06:28:57Z</time>
      </trkpt>
      <trkpt lat="46.10958" lon="4.5525">
        <ele>606.8</ele>
        <time>2020-10-24T06:28:58Z</time>
      </trkpt>
      <trkpt lat="46.10956" lon="4.5525">
        <ele>607</ele>
        <time>2020-10-24T06:28:59Z</time>
      </trkpt>
      <trkpt lat="46.10956" lon="4.5525">
        <ele>607</ele>
        <time>2020-10-24T06:29:00Z</time>
      </trkpt>
      <trkpt lat="46.10953" lon="4.55249">
        <ele>607.2</ele>
        <time>2020-10-24T06:29:01Z</time>
      </trkpt>
      <trkpt lat="46.10953" lon="4.55249">
        <ele>607.2</ele>
        <time>2020-10-24T06:29:02Z</time>
      </trkpt>
      <trkpt lat="46.1095" lon="4.55247">
        <ele>607.4</ele>
        <time>2020-10-24T06:29:03Z</time>
      </trkpt>
      <trkpt lat="46.1095" lon="4.55247">
        <ele>607.8</ele>
        <time>2020-10-24T06:29:04Z</time>
      </trkpt>
      <trkpt lat="46.10947" lon="4.55247">
        <ele>608</ele>
        <time>2020-10-24T06:29:05Z</time>
      </trkpt>
      <trkpt lat="46.10947" lon="4.55247">
        <ele>608</ele>
        <time>2020-10-24T06:29:06Z</time>
      </trkpt>
      <trkpt lat="46.10945" lon="4.55246">
        <ele>608.2</ele>
        <time>2020-10-24T06:29:07Z</time>
      </trkpt>
      <trkpt lat="46.10945" lon="4.55246">
        <ele>608.2</ele>
        <time>2020-10-24T06:29:08Z</time>
      </trkpt>
      <trkpt lat="46.10943" lon="4.55244">
        <ele>608.6</ele>
        <time>2020-10-24T06:29:09Z</time>
      </trkpt>
      <trkpt lat="46.10943" lon="4.55244">
        <ele>608.8</ele>
        <time>2020-10-24T06:29:10Z</time>
      </trkpt>
      <trkpt lat="46.10941" lon="4.5524">
        <ele>609</ele>
        <time>2020-10-24T06:29:11Z</time>
      </trkpt>
      <trkpt lat="46.10941" lon="4.5524">
        <ele>609</ele>
        <time>2020-10-24T06:29:12Z</time>
      </trkpt>
      <trkpt lat="46.10939" lon="4.55237">
        <ele>609.2</ele>
        <time>2020-10-24T06:29:13Z</time>
      </trkpt>
      <trkpt lat="46.10939" lon="4.55237">
        <ele>609.2</ele>
        <time>2020-10-24T06:29:14Z</time>
      </trkpt>
      <trkpt lat="46.10938" lon="4.55234">
        <ele>609.4</ele>
        <time>2020-10-24T06:29:15Z</time>
      </trkpt>
      <trkpt lat="46.10938" lon="4.55234">
        <ele>609.6</ele>
        <time>2020-10-24T06:29:16Z</time>
      </trkpt>
      <trkpt lat="46.10936" lon="4.5523">
        <ele>609.8</ele>
        <time>2020-10-24T06:29:17Z</time>
      </trkpt>
      <trkpt lat="46.10936" lon="4.5523">
        <ele>610</ele>
        <time>2020-10-24T06:29:18Z</time>
      </trkpt>
      <trkpt lat="46.10935" lon="4.55225">
        <ele>610</ele>
        <time>2020-10-24T06:29:19Z</time>
      </trkpt>
      <trkpt lat="46.10934" lon="4.55223">
        <ele>610</ele>
        <time>2020-10-24T06:29:20Z</time>
      </trkpt>
      <trkpt lat="46.10934" lon="4.5522">
        <ele>609.8</ele>
        <time>2020-10-24T06:29:21Z</time>
      </trkpt>
      <trkpt lat="46.10933" lon="4.55217">
        <ele>610</ele>
        <time>2020-10-24T06:29:22Z</time>
      </trkpt>
      <trkpt lat="46.10933" lon="4.55217">
        <ele>610</ele>
        <time>2020-10-24T06:29:23Z</time>
      </trkpt>
      <trkpt lat="46.10932" lon="4.55214">
        <ele>610.2</ele>
        <time>2020-10-24T06:29:24Z</time>
      </trkpt>
      <trkpt lat="46.10932" lon="4.55214">
        <ele>610.4</ele>
        <time>2020-10-24T06:29:25Z</time>
      </trkpt>
      <trkpt lat="46.10931" lon="4.5521">
        <ele>610.6</ele>
        <time>2020-10-24T06:29:26Z</time>
      </trkpt>
      <trkpt lat="46.10931" lon="4.5521">
        <ele>610.8</ele>
        <time>2020-10-24T06:29:27Z</time>
      </trkpt>
      <trkpt lat="46.1093" lon="4.55206">
        <ele>611</ele>
        <time>2020-10-24T06:29:28Z</time>
      </trkpt>
      <trkpt lat="46.1093" lon="4.55203">
        <ele>611</ele>
        <time>2020-10-24T06:29:29Z</time>
      </trkpt>
      <trkpt lat="46.10929" lon="4.55201">
        <ele>611.2</ele>
        <time>2020-10-24T06:29:30Z</time>
      </trkpt>
      <trkpt lat="46.10928" lon="4.55198">
        <ele>611.2</ele>
        <time>2020-10-24T06:29:31Z</time>
      </trkpt>
      <trkpt lat="46.10928" lon="4.55198">
        <ele>611.2</ele>
        <time>2020-10-24T06:29:32Z</time>
      </trkpt>
      <trkpt lat="46.10927" lon="4.55194">
        <ele>611.4</ele>
        <time>2020-10-24T06:29:33Z</time>
      </trkpt>
      <trkpt lat="46.10927" lon="4.55194">
        <ele>611.6</ele>
        <time>2020-10-24T06:29:34Z</time>
      </trkpt>
      <trkpt lat="46.10927" lon="4.5519">
        <ele>612</ele>
        <time>2020-10-24T06:29:35Z</time>
      </trkpt>
      <trkpt lat="46.10927" lon="4.5519">
        <ele>612.4</ele>
        <time>2020-10-24T06:29:36Z</time>
      </trkpt>
      <trkpt lat="46.10927" lon="4.55185">
        <ele>612.6</ele>
        <time>2020-10-24T06:29:37Z</time>
      </trkpt>
      <trkpt lat="46.10927" lon="4.55185">
        <ele>613.2</ele>
        <time>2020-10-24T06:29:38Z</time>
      </trkpt>
      <trkpt lat="46.10926" lon="4.55182">
        <ele>613.6</ele>
        <time>2020-10-24T06:29:39Z</time>
      </trkpt>
      <trkpt lat="46.10926" lon="4.55182">
        <ele>614</ele>
        <time>2020-10-24T06:29:40Z</time>
      </trkpt>
      <trkpt lat="46.10925" lon="4.55178">
        <ele>614.4</ele>
        <time>2020-10-24T06:29:41Z</time>
      </trkpt>
      <trkpt lat="46.10925" lon="4.55178">
        <ele>614.4</ele>
        <time>2020-10-24T06:29:42Z</time>
      </trkpt>
      <trkpt lat="46.10924" lon="4.55174">
        <ele>614.6</ele>
        <time>2020-10-24T06:29:43Z</time>
      </trkpt>
      <trkpt lat="46.10923" lon="4.55172">
        <ele>614.6</ele>
        <time>2020-10-24T06:29:44Z</time>
      </trkpt>
      <trkpt lat="46.10922" lon="4.5517">
        <ele>614.4</ele>
        <time>2020-10-24T06:29:45Z</time>
      </trkpt>
      <trkpt lat="46.10922" lon="4.55168">
        <ele>614.4</ele>
        <time>2020-10-24T06:29:46Z</time>
      </trkpt>
      <trkpt lat="46.10921" lon="4.55166">
        <ele>614.6</ele>
        <time>2020-10-24T06:29:47Z</time>
      </trkpt>
      <trkpt lat="46.10921" lon="4.55164">
        <ele>615</ele>
        <time>2020-10-24T06:29:48Z</time>
      </trkpt>
      <trkpt lat="46.10921" lon="4.55163">
        <ele>615.2</ele>
        <time>2020-10-24T06:29:49Z</time>
      </trkpt>
      <trkpt lat="46.10921" lon="4.55163">
        <ele>615.6</ele>
        <time>2020-10-24T06:29:50Z</time>
      </trkpt>
      <trkpt lat="46.10921" lon="4.55163">
        <ele>616</ele>
        <time>2020-10-24T06:29:51Z</time>
      </trkpt>
      <trkpt lat="46.1092" lon="4.55159">
        <ele>616</ele>
        <time>2020-10-24T06:29:52Z</time>
      </trkpt>
      <trkpt lat="46.1092" lon="4.55159">
        <ele>616.2</ele>
        <time>2020-10-24T06:29:53Z</time>
      </trkpt>
      <trkpt lat="46.1092" lon="4.55159">
        <ele>616.4</ele>
        <time>2020-10-24T06:29:54Z</time>
      </trkpt>
      <trkpt lat="46.10918" lon="4.55156">
        <ele>616.4</ele>
        <time>2020-10-24T06:29:55Z</time>
      </trkpt>
      <trkpt lat="46.10918" lon="4.55156">
        <ele>616.6</ele>
        <time>2020-10-24T06:29:56Z</time>
      </trkpt>
      <trkpt lat="46.10915" lon="4.55153">
        <ele>616.8</ele>
        <time>2020-10-24T06:29:57Z</time>
      </trkpt>
      <trkpt lat="46.10915" lon="4.55153">
        <ele>617.2</ele>
        <time>2020-10-24T06:29:58Z</time>
      </trkpt>
      <trkpt lat="46.10914" lon="4.5515">
        <ele>617.2</ele>
        <time>2020-10-24T06:29:59Z</time>
      </trkpt>
      <trkpt lat="46.10912" lon="4.55148">
        <ele>617.2</ele>
        <time>2020-10-24T06:30:00Z</time>
      </trkpt>
      <trkpt lat="46.10912" lon="4.55148">
        <ele>617.8</ele>
        <time>2020-10-24T06:30:01Z</time>
      </trkpt>
      <trkpt lat="46.10911" lon="4.55145">
        <ele>618</ele>
        <time>2020-10-24T06:30:02Z</time>
      </trkpt>
      <trkpt lat="46.10911" lon="4.55145">
        <ele>618</ele>
        <time>2020-10-24T06:30:03Z</time>
      </trkpt>
      <trkpt lat="46.10911" lon="4.55142">
        <ele>618.2</ele>
        <time>2020-10-24T06:30:04Z</time>
      </trkpt>
      <trkpt lat="46.10911" lon="4.55142">
        <ele>618.6</ele>
        <time>2020-10-24T06:30:05Z</time>
      </trkpt>
      <trkpt lat="46.1091" lon="4.55139">
        <ele>618.6</ele>
        <time>2020-10-24T06:30:06Z</time>
      </trkpt>
      <trkpt lat="46.1091" lon="4.55139">
        <ele>618.8</ele>
        <time>2020-10-24T06:30:07Z</time>
      </trkpt>
      <trkpt lat="46.10909" lon="4.55136">
        <ele>619</ele>
        <time>2020-10-24T06:30:08Z</time>
      </trkpt>
      <trkpt lat="46.10909" lon="4.55136">
        <ele>619</ele>
        <time>2020-10-24T06:30:09Z</time>
      </trkpt>
      <trkpt lat="46.10907" lon="4.55132">
        <ele>619</ele>
        <time>2020-10-24T06:30:10Z</time>
      </trkpt>
      <trkpt lat="46.10907" lon="4.55132">
        <ele>619</ele>
        <time>2020-10-24T06:30:11Z</time>
      </trkpt>
      <trkpt lat="46.10905" lon="4.55129">
        <ele>619.4</ele>
        <time>2020-10-24T06:30:12Z</time>
      </trkpt>
      <trkpt lat="46.10905" lon="4.55129">
        <ele>619.6</ele>
        <time>2020-10-24T06:30:13Z</time>
      </trkpt>
      <trkpt lat="46.10904" lon="4.55124">
        <ele>619.6</ele>
        <time>2020-10-24T06:30:14Z</time>
      </trkpt>
      <trkpt lat="46.10904" lon="4.55124">
        <ele>619.8</ele>
        <time>2020-10-24T06:30:15Z</time>
      </trkpt>
      <trkpt lat="46.10903" lon="4.55121">
        <ele>620</ele>
        <time>2020-10-24T06:30:16Z</time>
      </trkpt>
      <trkpt lat="46.10903" lon="4.55121">
        <ele>620.6</ele>
        <time>2020-10-24T06:30:17Z</time>
      </trkpt>
      <trkpt lat="46.10902" lon="4.55118">
        <ele>620.6</ele>
        <time>2020-10-24T06:30:18Z</time>
      </trkpt>
      <trkpt lat="46.10902" lon="4.55118">
        <ele>621</ele>
        <time>2020-10-24T06:30:19Z</time>
      </trkpt>
      <trkpt lat="46.10901" lon="4.55115">
        <ele>621.2</ele>
        <time>2020-10-24T06:30:20Z</time>
      </trkpt>
      <trkpt lat="46.10901" lon="4.55115">
        <ele>621.4</ele>
        <time>2020-10-24T06:30:21Z</time>
      </trkpt>
      <trkpt lat="46.10901" lon="4.55111">
        <ele>621.4</ele>
        <time>2020-10-24T06:30:22Z</time>
      </trkpt>
      <trkpt lat="46.10901" lon="4.55111">
        <ele>621.6</ele>
        <time>2020-10-24T06:30:23Z</time>
      </trkpt>
      <trkpt lat="46.109" lon="4.55109">
        <ele>621.8</ele>
        <time>2020-10-24T06:30:24Z</time>
      </trkpt>
      <trkpt lat="46.109" lon="4.55109">
        <ele>621.8</ele>
        <time>2020-10-24T06:30:25Z</time>
      </trkpt>
      <trkpt lat="46.10898" lon="4.55109">
        <ele>622</ele>
        <time>2020-10-24T06:30:26Z</time>
      </trkpt>
      <trkpt lat="46.10898" lon="4.55109">
        <ele>622</ele>
        <time>2020-10-24T06:30:27Z</time>
      </trkpt>
      <trkpt lat="46.10898" lon="4.55109">
        <ele>622</ele>
        <time>2020-10-24T06:30:28Z</time>
      </trkpt>
      <trkpt lat="46.10898" lon="4.55109">
        <ele>622</ele>
        <time>2020-10-24T06:30:29Z</time>
      </trkpt>
      <trkpt lat="46.10898" lon="4.55109">
        <ele>622.2</ele>
        <time>2020-10-24T06:30:30Z</time>
      </trkpt>
      <trkpt lat="46.10898" lon="4.55109">
        <ele>622</ele>
        <time>2020-10-24T06:30:31Z</time>
      </trkpt>
      <trkpt lat="46.10896" lon="4.55112">
        <ele>621.8</ele>
        <time>2020-10-24T06:30:32Z</time>
      </trkpt>
      <trkpt lat="46.10896" lon="4.55112">
        <ele>621.8</ele>
        <time>2020-10-24T06:30:33Z</time>
      </trkpt>
      <trkpt lat="46.10894" lon="4.55115">
        <ele>621.6</ele>
        <time>2020-10-24T06:30:34Z</time>
      </trkpt>
      <trkpt lat="46.10894" lon="4.55115">
        <ele>621.4</ele>
        <time>2020-10-24T06:30:35Z</time>
      </trkpt>
      <trkpt lat="46.10892" lon="4.55118">
        <ele>621.2</ele>
        <time>2020-10-24T06:30:36Z</time>
      </trkpt>
      <trkpt lat="46.10892" lon="4.55118">
        <ele>620.6</ele>
        <time>2020-10-24T06:30:37Z</time>
      </trkpt>
      <trkpt lat="46.10889" lon="4.55119">
        <ele>620.6</ele>
        <time>2020-10-24T06:30:38Z</time>
      </trkpt>
      <trkpt lat="46.10889" lon="4.55119">
        <ele>620.6</ele>
        <time>2020-10-24T06:30:39Z</time>
      </trkpt>
      <trkpt lat="46.10887" lon="4.55121">
        <ele>620.4</ele>
        <time>2020-10-24T06:30:40Z</time>
      </trkpt>
      <trkpt lat="46.10887" lon="4.55121">
        <ele>620.2</ele>
        <time>2020-10-24T06:30:41Z</time>
      </trkpt>
      <trkpt lat="46.10885" lon="4.55122">
        <ele>620</ele>
        <time>2020-10-24T06:30:42Z</time>
      </trkpt>
      <trkpt lat="46.10885" lon="4.55122">
        <ele>619.6</ele>
        <time>2020-10-24T06:30:43Z</time>
      </trkpt>
      <trkpt lat="46.10882" lon="4.55123">
        <ele>619.2</ele>
        <time>2020-10-24T06:30:44Z</time>
      </trkpt>
      <trkpt lat="46.10882" lon="4.55123">
        <ele>618.8</ele>
        <time>2020-10-24T06:30:45Z</time>
      </trkpt>
      <trkpt lat="46.1088" lon="4.55123">
        <ele>618.4</ele>
        <time>2020-10-24T06:30:46Z</time>
      </trkpt>
      <trkpt lat="46.1088" lon="4.55123">
        <ele>618</ele>
        <time>2020-10-24T06:30:47Z</time>
      </trkpt>
      <trkpt lat="46.10877" lon="4.55122">
        <ele>617.8</ele>
        <time>2020-10-24T06:30:48Z</time>
      </trkpt>
      <trkpt lat="46.10874" lon="4.55122">
        <ele>617.6</ele>
        <time>2020-10-24T06:30:49Z</time>
      </trkpt>
      <trkpt lat="46.10872" lon="4.5512">
        <ele>617.2</ele>
        <time>2020-10-24T06:30:50Z</time>
      </trkpt>
      <trkpt lat="46.1087" lon="4.55119">
        <ele>617.2</ele>
        <time>2020-10-24T06:30:51Z</time>
      </trkpt>
      <trkpt lat="46.10868" lon="4.55117">
        <ele>617.2</ele>
        <time>2020-10-24T06:30:52Z</time>
      </trkpt>
      <trkpt lat="46.10867" lon="4.55116">
        <ele>616.8</ele>
        <time>2020-10-24T06:30:53Z</time>
      </trkpt>
      <trkpt lat="46.10865" lon="4.55115">
        <ele>616.6</ele>
        <time>2020-10-24T06:30:54Z</time>
      </trkpt>
      <trkpt lat="46.10865" lon="4.55115">
        <ele>616.4</ele>
        <time>2020-10-24T06:30:55Z</time>
      </trkpt>
      <trkpt lat="46.10862" lon="4.55113">
        <ele>616.2</ele>
        <time>2020-10-24T06:30:56Z</time>
      </trkpt>
      <trkpt lat="46.1086" lon="4.55112">
        <ele>616.2</ele>
        <time>2020-10-24T06:30:57Z</time>
      </trkpt>
      <trkpt lat="46.10859" lon="4.5511">
        <ele>616</ele>
        <time>2020-10-24T06:30:58Z</time>
      </trkpt>
      <trkpt lat="46.10859" lon="4.5511">
        <ele>616</ele>
        <time>2020-10-24T06:30:59Z</time>
      </trkpt>
      <trkpt lat="46.10856" lon="4.55108">
        <ele>615.6</ele>
        <time>2020-10-24T06:31:00Z</time>
      </trkpt>
      <trkpt lat="46.10854" lon="4.55106">
        <ele>615.6</ele>
        <time>2020-10-24T06:31:01Z</time>
      </trkpt>
      <trkpt lat="46.10854" lon="4.55106">
        <ele>615.4</ele>
        <time>2020-10-24T06:31:02Z</time>
      </trkpt>
      <trkpt lat="46.10851" lon="4.55104">
        <ele>615.2</ele>
        <time>2020-10-24T06:31:03Z</time>
      </trkpt>
      <trkpt lat="46.10851" lon="4.55104">
        <ele>615</ele>
        <time>2020-10-24T06:31:04Z</time>
      </trkpt>
      <trkpt lat="46.10848" lon="4.55101">
        <ele>614.8</ele>
        <time>2020-10-24T06:31:05Z</time>
      </trkpt>
      <trkpt lat="46.10848" lon="4.55101">
        <ele>614.6</ele>
        <time>2020-10-24T06:31:06Z</time>
      </trkpt>
      <trkpt lat="46.10845" lon="4.55098">
        <ele>614.2</ele>
        <time>2020-10-24T06:31:07Z</time>
      </trkpt>
      <trkpt lat="46.10844" lon="4.55096">
        <ele>614.4</ele>
        <time>2020-10-24T06:31:08Z</time>
      </trkpt>
      <trkpt lat="46.10842" lon="4.55094">
        <ele>614.4</ele>
        <time>2020-10-24T06:31:09Z</time>
      </trkpt>
      <trkpt lat="46.10841" lon="4.55092">
        <ele>614</ele>
        <time>2020-10-24T06:31:10Z</time>
      </trkpt>
      <trkpt lat="46.10839" lon="4.5509">
        <ele>614</ele>
        <time>2020-10-24T06:31:11Z</time>
      </trkpt>
      <trkpt lat="46.10838" lon="4.55088">
        <ele>613.8</ele>
        <time>2020-10-24T06:31:12Z</time>
      </trkpt>
      <trkpt lat="46.10836" lon="4.55086">
        <ele>613.4</ele>
        <time>2020-10-24T06:31:13Z</time>
      </trkpt>
      <trkpt lat="46.10834" lon="4.55084">
        <ele>612.8</ele>
        <time>2020-10-24T06:31:14Z</time>
      </trkpt>
      <trkpt lat="46.10832" lon="4.55082">
        <ele>613</ele>
        <time>2020-10-24T06:31:15Z</time>
      </trkpt>
      <trkpt lat="46.1083" lon="4.5508">
        <ele>612.8</ele>
        <time>2020-10-24T06:31:16Z</time>
      </trkpt>
      <trkpt lat="46.10828" lon="4.55077">
        <ele>612.6</ele>
        <time>2020-10-24T06:31:17Z</time>
      </trkpt>
      <trkpt lat="46.10827" lon="4.55076">
        <ele>612.6</ele>
        <time>2020-10-24T06:31:18Z</time>
      </trkpt>
      <trkpt lat="46.10824" lon="4.55074">
        <ele>612.4</ele>
        <time>2020-10-24T06:31:19Z</time>
      </trkpt>
      <trkpt lat="46.10822" lon="4.55073">
        <ele>612.4</ele>
        <time>2020-10-24T06:31:20Z</time>
      </trkpt>
      <trkpt lat="46.1082" lon="4.55071">
        <ele>612.4</ele>
        <time>2020-10-24T06:31:21Z</time>
      </trkpt>
      <trkpt lat="46.10818" lon="4.55069">
        <ele>612.2</ele>
        <time>2020-10-24T06:31:22Z</time>
      </trkpt>
      <trkpt lat="46.10816" lon="4.55068">
        <ele>611.8</ele>
        <time>2020-10-24T06:31:23Z</time>
      </trkpt>
      <trkpt lat="46.10814" lon="4.55066">
        <ele>611.2</ele>
        <time>2020-10-24T06:31:24Z</time>
      </trkpt>
      <trkpt lat="46.10812" lon="4.55064">
        <ele>611</ele>
        <time>2020-10-24T06:31:25Z</time>
      </trkpt>
      <trkpt lat="46.1081" lon="4.55062">
        <ele>611</ele>
        <time>2020-10-24T06:31:26Z</time>
      </trkpt>
      <trkpt lat="46.10808" lon="4.5506">
        <ele>611</ele>
        <time>2020-10-24T06:31:27Z</time>
      </trkpt>
      <trkpt lat="46.10806" lon="4.55058">
        <ele>610.8</ele>
        <time>2020-10-24T06:31:28Z</time>
      </trkpt>
      <trkpt lat="46.10803" lon="4.55057">
        <ele>610.8</ele>
        <time>2020-10-24T06:31:29Z</time>
      </trkpt>
      <trkpt lat="46.10801" lon="4.55055">
        <ele>610.6</ele>
        <time>2020-10-24T06:31:30Z</time>
      </trkpt>
      <trkpt lat="46.10799" lon="4.55052">
        <ele>610.6</ele>
        <time>2020-10-24T06:31:31Z</time>
      </trkpt>
      <trkpt lat="46.10798" lon="4.5505">
        <ele>610.6</ele>
        <time>2020-10-24T06:31:32Z</time>
      </trkpt>
      <trkpt lat="46.10796" lon="4.55048">
        <ele>610.8</ele>
        <time>2020-10-24T06:31:33Z</time>
      </trkpt>
      <trkpt lat="46.10794" lon="4.55046">
        <ele>610.8</ele>
        <time>2020-10-24T06:31:34Z</time>
      </trkpt>
      <trkpt lat="46.10792" lon="4.55044">
        <ele>610.6</ele>
        <time>2020-10-24T06:31:35Z</time>
      </trkpt>
      <trkpt lat="46.1079" lon="4.55043">
        <ele>610</ele>
        <time>2020-10-24T06:31:36Z</time>
      </trkpt>
      <trkpt lat="46.10788" lon="4.55041">
        <ele>609.4</ele>
        <time>2020-10-24T06:31:37Z</time>
      </trkpt>
      <trkpt lat="46.10786" lon="4.55039">
        <ele>609.4</ele>
        <time>2020-10-24T06:31:38Z</time>
      </trkpt>
      <trkpt lat="46.10784" lon="4.55036">
        <ele>609.2</ele>
        <time>2020-10-24T06:31:39Z</time>
      </trkpt>
      <trkpt lat="46.10782" lon="4.55034">
        <ele>608.8</ele>
        <time>2020-10-24T06:31:40Z</time>
      </trkpt>
      <trkpt lat="46.1078" lon="4.55032">
        <ele>609</ele>
        <time>2020-10-24T06:31:41Z</time>
      </trkpt>
      <trkpt lat="46.10778" lon="4.5503">
        <ele>608.4</ele>
        <time>2020-10-24T06:31:42Z</time>
      </trkpt>
      <trkpt lat="46.10776" lon="4.55027">
        <ele>608.2</ele>
        <time>2020-10-24T06:31:43Z</time>
      </trkpt>
      <trkpt lat="46.10774" lon="4.55025">
        <ele>608.2</ele>
        <time>2020-10-24T06:31:44Z</time>
      </trkpt>
      <trkpt lat="46.10772" lon="4.55022">
        <ele>608.2</ele>
        <time>2020-10-24T06:31:45Z</time>
      </trkpt>
      <trkpt lat="46.1077" lon="4.55019">
        <ele>607.8</ele>
        <time>2020-10-24T06:31:46Z</time>
      </trkpt>
      <trkpt lat="46.10769" lon="4.55016">
        <ele>607.8</ele>
        <time>2020-10-24T06:31:47Z</time>
      </trkpt>
      <trkpt lat="46.10767" lon="4.55014">
        <ele>607.6</ele>
        <time>2020-10-24T06:31:48Z</time>
      </trkpt>
      <trkpt lat="46.10765" lon="4.55011">
        <ele>607.4</ele>
        <time>2020-10-24T06:31:49Z</time>
      </trkpt>
      <trkpt lat="46.10764" lon="4.55008">
        <ele>607.4</ele>
        <time>2020-10-24T06:31:50Z</time>
      </trkpt>
      <trkpt lat="46.10762" lon="4.55005">
        <ele>607.4</ele>
        <time>2020-10-24T06:31:51Z</time>
      </trkpt>
      <trkpt lat="46.1076" lon="4.55003">
        <ele>607</ele>
        <time>2020-10-24T06:31:52Z</time>
      </trkpt>
      <trkpt lat="46.10759" lon="4.55">
        <ele>607.2</ele>
        <time>2020-10-24T06:31:53Z</time>
      </trkpt>
      <trkpt lat="46.10757" lon="4.54997">
        <ele>606.8</ele>
        <time>2020-10-24T06:31:54Z</time>
      </trkpt>
      <trkpt lat="46.10755" lon="4.54994">
        <ele>606.4</ele>
        <time>2020-10-24T06:31:55Z</time>
      </trkpt>
      <trkpt lat="46.10754" lon="4.54992">
        <ele>606.4</ele>
        <time>2020-10-24T06:31:56Z</time>
      </trkpt>
      <trkpt lat="46.10752" lon="4.54989">
        <ele>606</ele>
        <time>2020-10-24T06:31:57Z</time>
      </trkpt>
      <trkpt lat="46.10751" lon="4.54986">
        <ele>605.8</ele>
        <time>2020-10-24T06:31:58Z</time>
      </trkpt>
      <trkpt lat="46.1075" lon="4.54983">
        <ele>606</ele>
        <time>2020-10-24T06:31:59Z</time>
      </trkpt>
      <trkpt lat="46.10749" lon="4.54979">
        <ele>605.8</ele>
        <time>2020-10-24T06:32:00Z</time>
      </trkpt>
      <trkpt lat="46.10747" lon="4.54976">
        <ele>605.4</ele>
        <time>2020-10-24T06:32:01Z</time>
      </trkpt>
      <trkpt lat="46.10746" lon="4.54974">
        <ele>605.4</ele>
        <time>2020-10-24T06:32:02Z</time>
      </trkpt>
      <trkpt lat="46.10744" lon="4.54971">
        <ele>605.4</ele>
        <time>2020-10-24T06:32:03Z</time>
      </trkpt>
      <trkpt lat="46.10743" lon="4.54968">
        <ele>605</ele>
        <time>2020-10-24T06:32:04Z</time>
      </trkpt>
      <trkpt lat="46.10741" lon="4.54966">
        <ele>605</ele>
        <time>2020-10-24T06:32:05Z</time>
      </trkpt>
      <trkpt lat="46.1074" lon="4.54963">
        <ele>605</ele>
        <time>2020-10-24T06:32:06Z</time>
      </trkpt>
      <trkpt lat="46.10739" lon="4.54959">
        <ele>604.4</ele>
        <time>2020-10-24T06:32:07Z</time>
      </trkpt>
      <trkpt lat="46.10737" lon="4.54956">
        <ele>604.4</ele>
        <time>2020-10-24T06:32:08Z</time>
      </trkpt>
      <trkpt lat="46.10736" lon="4.54953">
        <ele>604.2</ele>
        <time>2020-10-24T06:32:09Z</time>
      </trkpt>
      <trkpt lat="46.10734" lon="4.5495">
        <ele>603.8</ele>
        <time>2020-10-24T06:32:10Z</time>
      </trkpt>
      <trkpt lat="46.10732" lon="4.54947">
        <ele>603.8</ele>
        <time>2020-10-24T06:32:11Z</time>
      </trkpt>
      <trkpt lat="46.1073" lon="4.54944">
        <ele>603.8</ele>
        <time>2020-10-24T06:32:12Z</time>
      </trkpt>
      <trkpt lat="46.10728" lon="4.54941">
        <ele>603.4</ele>
        <time>2020-10-24T06:32:13Z</time>
      </trkpt>
      <trkpt lat="46.10726" lon="4.54939">
        <ele>603.2</ele>
        <time>2020-10-24T06:32:14Z</time>
      </trkpt>
      <trkpt lat="46.10724" lon="4.54936">
        <ele>603</ele>
        <time>2020-10-24T06:32:15Z</time>
      </trkpt>
      <trkpt lat="46.10723" lon="4.54933">
        <ele>602.6</ele>
        <time>2020-10-24T06:32:16Z</time>
      </trkpt>
      <trkpt lat="46.10722" lon="4.5493">
        <ele>602.8</ele>
        <time>2020-10-24T06:32:17Z</time>
      </trkpt>
      <trkpt lat="46.10722" lon="4.5493">
        <ele>602.6</ele>
        <time>2020-10-24T06:32:18Z</time>
      </trkpt>
      <trkpt lat="46.10721" lon="4.54926">
        <ele>602.8</ele>
        <time>2020-10-24T06:32:19Z</time>
      </trkpt>
      <trkpt lat="46.10721" lon="4.54926">
        <ele>602.8</ele>
        <time>2020-10-24T06:32:20Z</time>
      </trkpt>
      <trkpt lat="46.10721" lon="4.54926">
        <ele>602.8</ele>
        <time>2020-10-24T06:32:21Z</time>
      </trkpt>
      <trkpt lat="46.1072" lon="4.54924">
        <ele>602.8</ele>
        <time>2020-10-24T06:32:22Z</time>
      </trkpt>
      <trkpt lat="46.1072" lon="4.54924">
        <ele>602.8</ele>
        <time>2020-10-24T06:32:23Z</time>
      </trkpt>
      <trkpt lat="46.1072" lon="4.54924">
        <ele>602.8</ele>
        <time>2020-10-24T06:32:24Z</time>
      </trkpt>
      <trkpt lat="46.1072" lon="4.54924">
        <ele>602.8</ele>
        <time>2020-10-24T06:32:25Z</time>
      </trkpt>
      <trkpt lat="46.1072" lon="4.54924">
        <ele>602.6</ele>
        <time>2020-10-24T06:32:26Z</time>
      </trkpt>
      <trkpt lat="46.1072" lon="4.5492">
        <ele>602.8</ele>
        <time>2020-10-24T06:32:27Z</time>
      </trkpt>
      <trkpt lat="46.1072" lon="4.5492">
        <ele>602.6</ele>
        <time>2020-10-24T06:32:28Z</time>
      </trkpt>
      <trkpt lat="46.10719" lon="4.54917">
        <ele>602.8</ele>
        <time>2020-10-24T06:32:29Z</time>
      </trkpt>
      <trkpt lat="46.10719" lon="4.54917">
        <ele>603.2</ele>
        <time>2020-10-24T06:32:30Z</time>
      </trkpt>
      <trkpt lat="46.10718" lon="4.54914">
        <ele>603.6</ele>
        <time>2020-10-24T06:32:31Z</time>
      </trkpt>
      <trkpt lat="46.10718" lon="4.54914">
        <ele>603.6</ele>
        <time>2020-10-24T06:32:32Z</time>
      </trkpt>
      <trkpt lat="46.10715" lon="4.54912">
        <ele>604</ele>
        <time>2020-10-24T06:32:33Z</time>
      </trkpt>
      <trkpt lat="46.10714" lon="4.5491">
        <ele>604.2</ele>
        <time>2020-10-24T06:32:34Z</time>
      </trkpt>
      <trkpt lat="46.10713" lon="4.54908">
        <ele>604.2</ele>
        <time>2020-10-24T06:32:35Z</time>
      </trkpt>
      <trkpt lat="46.10711" lon="4.54905">
        <ele>603.8</ele>
        <time>2020-10-24T06:32:36Z</time>
      </trkpt>
      <trkpt lat="46.1071" lon="4.54903">
        <ele>603.6</ele>
        <time>2020-10-24T06:32:37Z</time>
      </trkpt>
      <trkpt lat="46.10709" lon="4.54901">
        <ele>604</ele>
        <time>2020-10-24T06:32:38Z</time>
      </trkpt>
      <trkpt lat="46.10707" lon="4.54899">
        <ele>603.8</ele>
        <time>2020-10-24T06:32:39Z</time>
      </trkpt>
      <trkpt lat="46.10706" lon="4.54896">
        <ele>603.6</ele>
        <time>2020-10-24T06:32:40Z</time>
      </trkpt>
      <trkpt lat="46.10704" lon="4.54894">
        <ele>604</ele>
        <time>2020-10-24T06:32:41Z</time>
      </trkpt>
      <trkpt lat="46.10703" lon="4.54892">
        <ele>604.2</ele>
        <time>2020-10-24T06:32:42Z</time>
      </trkpt>
      <trkpt lat="46.10702" lon="4.54889">
        <ele>604</ele>
        <time>2020-10-24T06:32:43Z</time>
      </trkpt>
      <trkpt lat="46.107" lon="4.54888">
        <ele>604.4</ele>
        <time>2020-10-24T06:32:44Z</time>
      </trkpt>
      <trkpt lat="46.10699" lon="4.54886">
        <ele>604.6</ele>
        <time>2020-10-24T06:32:45Z</time>
      </trkpt>
      <trkpt lat="46.10697" lon="4.54884">
        <ele>604.6</ele>
        <time>2020-10-24T06:32:46Z</time>
      </trkpt>
      <trkpt lat="46.10695" lon="4.54882">
        <ele>605</ele>
        <time>2020-10-24T06:32:47Z</time>
      </trkpt>
      <trkpt lat="46.10694" lon="4.5488">
        <ele>605</ele>
        <time>2020-10-24T06:32:48Z</time>
      </trkpt>
      <trkpt lat="46.10692" lon="4.54878">
        <ele>604.8</ele>
        <time>2020-10-24T06:32:49Z</time>
      </trkpt>
      <trkpt lat="46.1069" lon="4.54877">
        <ele>605.4</ele>
        <time>2020-10-24T06:32:50Z</time>
      </trkpt>
      <trkpt lat="46.10688" lon="4.54875">
        <ele>605.4</ele>
        <time>2020-10-24T06:32:51Z</time>
      </trkpt>
      <trkpt lat="46.10686" lon="4.54873">
        <ele>605.2</ele>
        <time>2020-10-24T06:32:52Z</time>
      </trkpt>
      <trkpt lat="46.10684" lon="4.54872">
        <ele>605.6</ele>
        <time>2020-10-24T06:32:53Z</time>
      </trkpt>
      <trkpt lat="46.10682" lon="4.5487">
        <ele>605.6</ele>
        <time>2020-10-24T06:32:54Z</time>
      </trkpt>
      <trkpt lat="46.1068" lon="4.54868">
        <ele>605.6</ele>
        <time>2020-10-24T06:32:55Z</time>
      </trkpt>
      <trkpt lat="46.10678" lon="4.54867">
        <ele>606</ele>
        <time>2020-10-24T06:32:56Z</time>
      </trkpt>
      <trkpt lat="46.10676" lon="4.54866">
        <ele>606</ele>
        <time>2020-10-24T06:32:57Z</time>
      </trkpt>
      <trkpt lat="46.10674" lon="4.54864">
        <ele>606</ele>
        <time>2020-10-24T06:32:58Z</time>
      </trkpt>
      <trkpt lat="46.10672" lon="4.54863">
        <ele>606.2</ele>
        <time>2020-10-24T06:32:59Z</time>
      </trkpt>
      <trkpt lat="46.1067" lon="4.54862">
        <ele>606.2</ele>
        <time>2020-10-24T06:33:00Z</time>
      </trkpt>
      <trkpt lat="46.10668" lon="4.54861">
        <ele>606.4</ele>
        <time>2020-10-24T06:33:01Z</time>
      </trkpt>
      <trkpt lat="46.10666" lon="4.5486">
        <ele>606.4</ele>
        <time>2020-10-24T06:33:02Z</time>
      </trkpt>
      <trkpt lat="46.10663" lon="4.54859">
        <ele>606.4</ele>
        <time>2020-10-24T06:33:03Z</time>
      </trkpt>
      <trkpt lat="46.10661" lon="4.54859">
        <ele>606.6</ele>
        <time>2020-10-24T06:33:04Z</time>
      </trkpt>
      <trkpt lat="46.10659" lon="4.54858">
        <ele>606.4</ele>
        <time>2020-10-24T06:33:05Z</time>
      </trkpt>
      <trkpt lat="46.10657" lon="4.54857">
        <ele>606.4</ele>
        <time>2020-10-24T06:33:06Z</time>
      </trkpt>
      <trkpt lat="46.10654" lon="4.54856">
        <ele>606.4</ele>
        <time>2020-10-24T06:33:07Z</time>
      </trkpt>
      <trkpt lat="46.10652" lon="4.54856">
        <ele>606.4</ele>
        <time>2020-10-24T06:33:08Z</time>
      </trkpt>
      <trkpt lat="46.10649" lon="4.54855">
        <ele>606.2</ele>
        <time>2020-10-24T06:33:09Z</time>
      </trkpt>
      <trkpt lat="46.10647" lon="4.54854">
        <ele>606.6</ele>
        <time>2020-10-24T06:33:10Z</time>
      </trkpt>
      <trkpt lat="46.10645" lon="4.54853">
        <ele>606.4</ele>
        <time>2020-10-24T06:33:11Z</time>
      </trkpt>
      <trkpt lat="46.10643" lon="4.54852">
        <ele>606.2</ele>
        <time>2020-10-24T06:33:12Z</time>
      </trkpt>
      <trkpt lat="46.10641" lon="4.54851">
        <ele>606.4</ele>
        <time>2020-10-24T06:33:13Z</time>
      </trkpt>
      <trkpt lat="46.10638" lon="4.5485">
        <ele>606.2</ele>
        <time>2020-10-24T06:33:14Z</time>
      </trkpt>
      <trkpt lat="46.10636" lon="4.5485">
        <ele>606</ele>
        <time>2020-10-24T06:33:15Z</time>
      </trkpt>
      <trkpt lat="46.10634" lon="4.54849">
        <ele>606.4</ele>
        <time>2020-10-24T06:33:16Z</time>
      </trkpt>
      <trkpt lat="46.10632" lon="4.54849">
        <ele>606.4</ele>
        <time>2020-10-24T06:33:17Z</time>
      </trkpt>
      <trkpt lat="46.10629" lon="4.54848">
        <ele>606.2</ele>
        <time>2020-10-24T06:33:18Z</time>
      </trkpt>
      <trkpt lat="46.10627" lon="4.54848">
        <ele>606.6</ele>
        <time>2020-10-24T06:33:19Z</time>
      </trkpt>
      <trkpt lat="46.10625" lon="4.54849">
        <ele>606.4</ele>
        <time>2020-10-24T06:33:20Z</time>
      </trkpt>
      <trkpt lat="46.10623" lon="4.54849">
        <ele>606.2</ele>
        <time>2020-10-24T06:33:21Z</time>
      </trkpt>
      <trkpt lat="46.10621" lon="4.5485">
        <ele>606.6</ele>
        <time>2020-10-24T06:33:22Z</time>
      </trkpt>
      <trkpt lat="46.10619" lon="4.54849">
        <ele>606.4</ele>
        <time>2020-10-24T06:33:23Z</time>
      </trkpt>
      <trkpt lat="46.10617" lon="4.54849">
        <ele>606.8</ele>
        <time>2020-10-24T06:33:24Z</time>
      </trkpt>
      <trkpt lat="46.10614" lon="4.54848">
        <ele>606.8</ele>
        <time>2020-10-24T06:33:25Z</time>
      </trkpt>
      <trkpt lat="46.10612" lon="4.54847">
        <ele>606.6</ele>
        <time>2020-10-24T06:33:26Z</time>
      </trkpt>
      <trkpt lat="46.10609" lon="4.54847">
        <ele>606.8</ele>
        <time>2020-10-24T06:33:27Z</time>
      </trkpt>
      <trkpt lat="46.10607" lon="4.54846">
        <ele>606.6</ele>
        <time>2020-10-24T06:33:28Z</time>
      </trkpt>
      <trkpt lat="46.10605" lon="4.54845">
        <ele>606.4</ele>
        <time>2020-10-24T06:33:29Z</time>
      </trkpt>
      <trkpt lat="46.10603" lon="4.54844">
        <ele>606.8</ele>
        <time>2020-10-24T06:33:30Z</time>
      </trkpt>
      <trkpt lat="46.106" lon="4.54843">
        <ele>606.6</ele>
        <time>2020-10-24T06:33:31Z</time>
      </trkpt>
      <trkpt lat="46.10598" lon="4.54841">
        <ele>606.6</ele>
        <time>2020-10-24T06:33:32Z</time>
      </trkpt>
      <trkpt lat="46.10595" lon="4.5484">
        <ele>606.8</ele>
        <time>2020-10-24T06:33:33Z</time>
      </trkpt>
      <trkpt lat="46.10593" lon="4.54839">
        <ele>607</ele>
        <time>2020-10-24T06:33:34Z</time>
      </trkpt>
      <trkpt lat="46.10591" lon="4.54836">
        <ele>606.8</ele>
        <time>2020-10-24T06:33:35Z</time>
      </trkpt>
      <trkpt lat="46.1059" lon="4.54835">
        <ele>607.4</ele>
        <time>2020-10-24T06:33:36Z</time>
      </trkpt>
      <trkpt lat="46.1059" lon="4.54835">
        <ele>607.4</ele>
        <time>2020-10-24T06:33:37Z</time>
      </trkpt>
      <trkpt lat="46.10589" lon="4.54832">
        <ele>607.6</ele>
        <time>2020-10-24T06:33:38Z</time>
      </trkpt>
      <trkpt lat="46.10589" lon="4.54832">
        <ele>607.8</ele>
        <time>2020-10-24T06:33:39Z</time>
      </trkpt>
      <trkpt lat="46.10591" lon="4.54833">
        <ele>607.6</ele>
        <time>2020-10-24T06:33:40Z</time>
      </trkpt>
      <trkpt lat="46.10591" lon="4.54833">
        <ele>607.4</ele>
        <time>2020-10-24T06:33:41Z</time>
      </trkpt>
      <trkpt lat="46.10591" lon="4.54833">
        <ele>607.4</ele>
        <time>2020-10-24T06:33:42Z</time>
      </trkpt>
      <trkpt lat="46.10589" lon="4.54831">
        <ele>607.2</ele>
        <time>2020-10-24T06:33:43Z</time>
      </trkpt>
      <trkpt lat="46.10587" lon="4.5483">
        <ele>607.8</ele>
        <time>2020-10-24T06:33:44Z</time>
      </trkpt>
      <trkpt lat="46.10585" lon="4.54829">
        <ele>607.8</ele>
        <time>2020-10-24T06:33:45Z</time>
      </trkpt>
      <trkpt lat="46.10583" lon="4.54827">
        <ele>608.2</ele>
        <time>2020-10-24T06:33:46Z</time>
      </trkpt>
      <trkpt lat="46.10581" lon="4.54825">
        <ele>608</ele>
        <time>2020-10-24T06:33:47Z</time>
      </trkpt>
      <trkpt lat="46.10581" lon="4.54825">
        <ele>608.4</ele>
        <time>2020-10-24T06:33:48Z</time>
      </trkpt>
      <trkpt lat="46.10578" lon="4.54824">
        <ele>608.4</ele>
        <time>2020-10-24T06:33:49Z</time>
      </trkpt>
      <trkpt lat="46.10577" lon="4.54823">
        <ele>608.6</ele>
        <time>2020-10-24T06:33:50Z</time>
      </trkpt>
      <trkpt lat="46.10577" lon="4.54823">
        <ele>608.8</ele>
        <time>2020-10-24T06:33:51Z</time>
      </trkpt>
      <trkpt lat="46.10573" lon="4.54821">
        <ele>608.8</ele>
        <time>2020-10-24T06:33:52Z</time>
      </trkpt>
      <trkpt lat="46.10571" lon="4.5482">
        <ele>608.8</ele>
        <time>2020-10-24T06:33:53Z</time>
      </trkpt>
      <trkpt lat="46.10569" lon="4.54819">
        <ele>609</ele>
        <time>2020-10-24T06:33:54Z</time>
      </trkpt>
      <trkpt lat="46.10567" lon="4.54818">
        <ele>608.8</ele>
        <time>2020-10-24T06:33:55Z</time>
      </trkpt>
      <trkpt lat="46.10565" lon="4.54817">
        <ele>608.6</ele>
        <time>2020-10-24T06:33:56Z</time>
      </trkpt>
      <trkpt lat="46.10563" lon="4.54816">
        <ele>608.6</ele>
        <time>2020-10-24T06:33:57Z</time>
      </trkpt>
      <trkpt lat="46.1056" lon="4.54816">
        <ele>608.2</ele>
        <time>2020-10-24T06:33:58Z</time>
      </trkpt>
      <trkpt lat="46.10558" lon="4.54815">
        <ele>607.6</ele>
        <time>2020-10-24T06:33:59Z</time>
      </trkpt>
      <trkpt lat="46.10556" lon="4.54813">
        <ele>607.6</ele>
        <time>2020-10-24T06:34:00Z</time>
      </trkpt>
      <trkpt lat="46.10554" lon="4.54812">
        <ele>607.2</ele>
        <time>2020-10-24T06:34:01Z</time>
      </trkpt>
      <trkpt lat="46.10551" lon="4.54811">
        <ele>606.4</ele>
        <time>2020-10-24T06:34:02Z</time>
      </trkpt>
      <trkpt lat="46.10549" lon="4.54811">
        <ele>606.8</ele>
        <time>2020-10-24T06:34:03Z</time>
      </trkpt>
      <trkpt lat="46.10547" lon="4.5481">
        <ele>606.2</ele>
        <time>2020-10-24T06:34:04Z</time>
      </trkpt>
      <trkpt lat="46.10545" lon="4.54809">
        <ele>606</ele>
        <time>2020-10-24T06:34:05Z</time>
      </trkpt>
      <trkpt lat="46.10543" lon="4.54808">
        <ele>606</ele>
        <time>2020-10-24T06:34:06Z</time>
      </trkpt>
      <trkpt lat="46.10541" lon="4.54807">
        <ele>605.4</ele>
        <time>2020-10-24T06:34:07Z</time>
      </trkpt>
      <trkpt lat="46.10539" lon="4.54805">
        <ele>605</ele>
        <time>2020-10-24T06:34:08Z</time>
      </trkpt>
      <trkpt lat="46.10537" lon="4.54804">
        <ele>605</ele>
        <time>2020-10-24T06:34:09Z</time>
      </trkpt>
      <trkpt lat="46.10535" lon="4.54803">
        <ele>604.6</ele>
        <time>2020-10-24T06:34:10Z</time>
      </trkpt>
      <trkpt lat="46.10532" lon="4.54802">
        <ele>604</ele>
        <time>2020-10-24T06:34:11Z</time>
      </trkpt>
      <trkpt lat="46.1053" lon="4.54801">
        <ele>604</ele>
        <time>2020-10-24T06:34:12Z</time>
      </trkpt>
      <trkpt lat="46.10527" lon="4.548">
        <ele>603.6</ele>
        <time>2020-10-24T06:34:13Z</time>
      </trkpt>
      <trkpt lat="46.10524" lon="4.548">
        <ele>603.4</ele>
        <time>2020-10-24T06:34:14Z</time>
      </trkpt>
      <trkpt lat="46.10522" lon="4.54799">
        <ele>603.2</ele>
        <time>2020-10-24T06:34:15Z</time>
      </trkpt>
      <trkpt lat="46.10519" lon="4.54797">
        <ele>602.8</ele>
        <time>2020-10-24T06:34:16Z</time>
      </trkpt>
      <trkpt lat="46.10517" lon="4.54795">
        <ele>602.8</ele>
        <time>2020-10-24T06:34:17Z</time>
      </trkpt>
      <trkpt lat="46.10515" lon="4.54793">
        <ele>602.6</ele>
        <time>2020-10-24T06:34:18Z</time>
      </trkpt>
      <trkpt lat="46.10514" lon="4.54791">
        <ele>602</ele>
        <time>2020-10-24T06:34:19Z</time>
      </trkpt>
      <trkpt lat="46.10512" lon="4.54789">
        <ele>601.6</ele>
        <time>2020-10-24T06:34:20Z</time>
      </trkpt>
      <trkpt lat="46.1051" lon="4.54787">
        <ele>601.6</ele>
        <time>2020-10-24T06:34:21Z</time>
      </trkpt>
      <trkpt lat="46.10508" lon="4.54785">
        <ele>601.2</ele>
        <time>2020-10-24T06:34:22Z</time>
      </trkpt>
      <trkpt lat="46.10506" lon="4.54784">
        <ele>600.6</ele>
        <time>2020-10-24T06:34:23Z</time>
      </trkpt>
      <trkpt lat="46.10504" lon="4.54783">
        <ele>600.4</ele>
        <time>2020-10-24T06:34:24Z</time>
      </trkpt>
      <trkpt lat="46.10502" lon="4.5478">
        <ele>600.2</ele>
        <time>2020-10-24T06:34:25Z</time>
      </trkpt>
      <trkpt lat="46.105" lon="4.54778">
        <ele>599.8</ele>
        <time>2020-10-24T06:34:26Z</time>
      </trkpt>
      <trkpt lat="46.10498" lon="4.54776">
        <ele>599.8</ele>
        <time>2020-10-24T06:34:27Z</time>
      </trkpt>
      <trkpt lat="46.10495" lon="4.54774">
        <ele>599.2</ele>
        <time>2020-10-24T06:34:28Z</time>
      </trkpt>
      <trkpt lat="46.10493" lon="4.54772">
        <ele>599</ele>
        <time>2020-10-24T06:34:29Z</time>
      </trkpt>
      <trkpt lat="46.10492" lon="4.54771">
        <ele>599</ele>
        <time>2020-10-24T06:34:30Z</time>
      </trkpt>
      <trkpt lat="46.1049" lon="4.5477">
        <ele>599</ele>
        <time>2020-10-24T06:34:31Z</time>
      </trkpt>
      <trkpt lat="46.10488" lon="4.54768">
        <ele>598.6</ele>
        <time>2020-10-24T06:34:32Z</time>
      </trkpt>
      <trkpt lat="46.10486" lon="4.54767">
        <ele>598.4</ele>
        <time>2020-10-24T06:34:33Z</time>
      </trkpt>
      <trkpt lat="46.10484" lon="4.54766">
        <ele>598.4</ele>
        <time>2020-10-24T06:34:34Z</time>
      </trkpt>
      <trkpt lat="46.10482" lon="4.54765">
        <ele>598</ele>
        <time>2020-10-24T06:34:35Z</time>
      </trkpt>
      <trkpt lat="46.1048" lon="4.54764">
        <ele>598</ele>
        <time>2020-10-24T06:34:36Z</time>
      </trkpt>
      <trkpt lat="46.10478" lon="4.54762">
        <ele>597.8</ele>
        <time>2020-10-24T06:34:37Z</time>
      </trkpt>
      <trkpt lat="46.10476" lon="4.5476">
        <ele>597.4</ele>
        <time>2020-10-24T06:34:38Z</time>
      </trkpt>
      <trkpt lat="46.10474" lon="4.54759">
        <ele>597.4</ele>
        <time>2020-10-24T06:34:39Z</time>
      </trkpt>
      <trkpt lat="46.10472" lon="4.54758">
        <ele>597.4</ele>
        <time>2020-10-24T06:34:40Z</time>
      </trkpt>
      <trkpt lat="46.1047" lon="4.54757">
        <ele>597</ele>
        <time>2020-10-24T06:34:41Z</time>
      </trkpt>
      <trkpt lat="46.10468" lon="4.54756">
        <ele>597</ele>
        <time>2020-10-24T06:34:42Z</time>
      </trkpt>
      <trkpt lat="46.10466" lon="4.54756">
        <ele>596.8</ele>
        <time>2020-10-24T06:34:43Z</time>
      </trkpt>
      <trkpt lat="46.10464" lon="4.54755">
        <ele>596.4</ele>
        <time>2020-10-24T06:34:44Z</time>
      </trkpt>
      <trkpt lat="46.10462" lon="4.54755">
        <ele>596</ele>
        <time>2020-10-24T06:34:45Z</time>
      </trkpt>
      <trkpt lat="46.1046" lon="4.54754">
        <ele>596</ele>
        <time>2020-10-24T06:34:46Z</time>
      </trkpt>
      <trkpt lat="46.1046" lon="4.54754">
        <ele>595.4</ele>
        <time>2020-10-24T06:34:47Z</time>
      </trkpt>
      <trkpt lat="46.10456" lon="4.54755">
        <ele>595.6</ele>
        <time>2020-10-24T06:34:48Z</time>
      </trkpt>
      <trkpt lat="46.10454" lon="4.54756">
        <ele>594.8</ele>
        <time>2020-10-24T06:34:49Z</time>
      </trkpt>
      <trkpt lat="46.10452" lon="4.54757">
        <ele>594.8</ele>
        <time>2020-10-24T06:34:50Z</time>
      </trkpt>
      <trkpt lat="46.1045" lon="4.54758">
        <ele>594</ele>
        <time>2020-10-24T06:34:51Z</time>
      </trkpt>
      <trkpt lat="46.10449" lon="4.54759">
        <ele>593.6</ele>
        <time>2020-10-24T06:34:52Z</time>
      </trkpt>
      <trkpt lat="46.10447" lon="4.54761">
        <ele>593.2</ele>
        <time>2020-10-24T06:34:53Z</time>
      </trkpt>
      <trkpt lat="46.10447" lon="4.54761">
        <ele>592.6</ele>
        <time>2020-10-24T06:34:54Z</time>
      </trkpt>
      <trkpt lat="46.10444" lon="4.54763">
        <ele>592.2</ele>
        <time>2020-10-24T06:34:55Z</time>
      </trkpt>
      <trkpt lat="46.10442" lon="4.54764">
        <ele>591.6</ele>
        <time>2020-10-24T06:34:56Z</time>
      </trkpt>
      <trkpt lat="46.1044" lon="4.54765">
        <ele>591.4</ele>
        <time>2020-10-24T06:34:57Z</time>
      </trkpt>
      <trkpt lat="46.10438" lon="4.54767">
        <ele>590.8</ele>
        <time>2020-10-24T06:34:58Z</time>
      </trkpt>
      <trkpt lat="46.10436" lon="4.54768">
        <ele>590.2</ele>
        <time>2020-10-24T06:34:59Z</time>
      </trkpt>
      <trkpt lat="46.10434" lon="4.54769">
        <ele>590</ele>
        <time>2020-10-24T06:35:00Z</time>
      </trkpt>
      <trkpt lat="46.10432" lon="4.5477">
        <ele>589.4</ele>
        <time>2020-10-24T06:35:01Z</time>
      </trkpt>
      <trkpt lat="46.1043" lon="4.54771">
        <ele>589</ele>
        <time>2020-10-24T06:35:02Z</time>
      </trkpt>
      <trkpt lat="46.10427" lon="4.54772">
        <ele>588.8</ele>
        <time>2020-10-24T06:35:03Z</time>
      </trkpt>
      <trkpt lat="46.10425" lon="4.54774">
        <ele>588.4</ele>
        <time>2020-10-24T06:35:04Z</time>
      </trkpt>
      <trkpt lat="46.10422" lon="4.54775">
        <ele>587.8</ele>
        <time>2020-10-24T06:35:05Z</time>
      </trkpt>
      <trkpt lat="46.1042" lon="4.54777">
        <ele>587.6</ele>
        <time>2020-10-24T06:35:06Z</time>
      </trkpt>
      <trkpt lat="46.10418" lon="4.54778">
        <ele>587.2</ele>
        <time>2020-10-24T06:35:07Z</time>
      </trkpt>
      <trkpt lat="46.10415" lon="4.54779">
        <ele>586.8</ele>
        <time>2020-10-24T06:35:08Z</time>
      </trkpt>
      <trkpt lat="46.10413" lon="4.54781">
        <ele>586.6</ele>
        <time>2020-10-24T06:35:09Z</time>
      </trkpt>
      <trkpt lat="46.1041" lon="4.54782">
        <ele>586.2</ele>
        <time>2020-10-24T06:35:10Z</time>
      </trkpt>
      <trkpt lat="46.10408" lon="4.54783">
        <ele>586.2</ele>
        <time>2020-10-24T06:35:11Z</time>
      </trkpt>
      <trkpt lat="46.10405" lon="4.54784">
        <ele>586</ele>
        <time>2020-10-24T06:35:12Z</time>
      </trkpt>
      <trkpt lat="46.10403" lon="4.54784">
        <ele>585.6</ele>
        <time>2020-10-24T06:35:13Z</time>
      </trkpt>
      <trkpt lat="46.104" lon="4.54785">
        <ele>585.6</ele>
        <time>2020-10-24T06:35:14Z</time>
      </trkpt>
      <trkpt lat="46.10398" lon="4.54786">
        <ele>585.6</ele>
        <time>2020-10-24T06:35:15Z</time>
      </trkpt>
      <trkpt lat="46.10396" lon="4.54787">
        <ele>585.6</ele>
        <time>2020-10-24T06:35:16Z</time>
      </trkpt>
      <trkpt lat="46.10393" lon="4.54788">
        <ele>586</ele>
        <time>2020-10-24T06:35:17Z</time>
      </trkpt>
      <trkpt lat="46.10391" lon="4.54789">
        <ele>585.8</ele>
        <time>2020-10-24T06:35:18Z</time>
      </trkpt>
      <trkpt lat="46.10389" lon="4.5479">
        <ele>585.8</ele>
        <time>2020-10-24T06:35:19Z</time>
      </trkpt>
      <trkpt lat="46.10387" lon="4.5479">
        <ele>586.2</ele>
        <time>2020-10-24T06:35:20Z</time>
      </trkpt>
      <trkpt lat="46.10384" lon="4.54792">
        <ele>586.2</ele>
        <time>2020-10-24T06:35:21Z</time>
      </trkpt>
      <trkpt lat="46.10382" lon="4.54793">
        <ele>586.2</ele>
        <time>2020-10-24T06:35:22Z</time>
      </trkpt>
      <trkpt lat="46.1038" lon="4.54794">
        <ele>586.8</ele>
        <time>2020-10-24T06:35:23Z</time>
      </trkpt>
      <trkpt lat="46.10378" lon="4.54794">
        <ele>586.8</ele>
        <time>2020-10-24T06:35:24Z</time>
      </trkpt>
      <trkpt lat="46.10376" lon="4.54795">
        <ele>587</ele>
        <time>2020-10-24T06:35:25Z</time>
      </trkpt>
      <trkpt lat="46.10373" lon="4.54797">
        <ele>587.2</ele>
        <time>2020-10-24T06:35:26Z</time>
      </trkpt>
      <trkpt lat="46.10371" lon="4.54798">
        <ele>587</ele>
        <time>2020-10-24T06:35:27Z</time>
      </trkpt>
      <trkpt lat="46.10369" lon="4.54799">
        <ele>587.2</ele>
        <time>2020-10-24T06:35:28Z</time>
      </trkpt>
      <trkpt lat="46.10367" lon="4.548">
        <ele>587.6</ele>
        <time>2020-10-24T06:35:29Z</time>
      </trkpt>
      <trkpt lat="46.10365" lon="4.54801">
        <ele>587.4</ele>
        <time>2020-10-24T06:35:30Z</time>
      </trkpt>
      <trkpt lat="46.10363" lon="4.54801">
        <ele>587.8</ele>
        <time>2020-10-24T06:35:31Z</time>
      </trkpt>
      <trkpt lat="46.10361" lon="4.54802">
        <ele>588</ele>
        <time>2020-10-24T06:35:32Z</time>
      </trkpt>
      <trkpt lat="46.10359" lon="4.54803">
        <ele>588</ele>
        <time>2020-10-24T06:35:33Z</time>
      </trkpt>
      <trkpt lat="46.10356" lon="4.54803">
        <ele>588.4</ele>
        <time>2020-10-24T06:35:34Z</time>
      </trkpt>
      <trkpt lat="46.10354" lon="4.54804">
        <ele>588.6</ele>
        <time>2020-10-24T06:35:35Z</time>
      </trkpt>
      <trkpt lat="46.10352" lon="4.54805">
        <ele>588.6</ele>
        <time>2020-10-24T06:35:36Z</time>
      </trkpt>
      <trkpt lat="46.1035" lon="4.54806">
        <ele>588.8</ele>
        <time>2020-10-24T06:35:37Z</time>
      </trkpt>
      <trkpt lat="46.10348" lon="4.54807">
        <ele>589</ele>
        <time>2020-10-24T06:35:38Z</time>
      </trkpt>
      <trkpt lat="46.10346" lon="4.54807">
        <ele>588.8</ele>
        <time>2020-10-24T06:35:39Z</time>
      </trkpt>
      <trkpt lat="46.10343" lon="4.54808">
        <ele>589</ele>
        <time>2020-10-24T06:35:40Z</time>
      </trkpt>
      <trkpt lat="46.10341" lon="4.54809">
        <ele>589.4</ele>
        <time>2020-10-24T06:35:41Z</time>
      </trkpt>
      <trkpt lat="46.10338" lon="4.54809">
        <ele>589.2</ele>
        <time>2020-10-24T06:35:42Z</time>
      </trkpt>
      <trkpt lat="46.10335" lon="4.5481">
        <ele>589.4</ele>
        <time>2020-10-24T06:35:43Z</time>
      </trkpt>
      <trkpt lat="46.10333" lon="4.54811">
        <ele>589.4</ele>
        <time>2020-10-24T06:35:44Z</time>
      </trkpt>
      <trkpt lat="46.10331" lon="4.54812">
        <ele>589</ele>
        <time>2020-10-24T06:35:45Z</time>
      </trkpt>
      <trkpt lat="46.10329" lon="4.54813">
        <ele>589.2</ele>
        <time>2020-10-24T06:35:46Z</time>
      </trkpt>
      <trkpt lat="46.10327" lon="4.54814">
        <ele>589.4</ele>
        <time>2020-10-24T06:35:47Z</time>
      </trkpt>
      <trkpt lat="46.10324" lon="4.54815">
        <ele>589</ele>
        <time>2020-10-24T06:35:48Z</time>
      </trkpt>
      <trkpt lat="46.10322" lon="4.54816">
        <ele>589</ele>
        <time>2020-10-24T06:35:49Z</time>
      </trkpt>
      <trkpt lat="46.1032" lon="4.54817">
        <ele>589</ele>
        <time>2020-10-24T06:35:50Z</time>
      </trkpt>
      <trkpt lat="46.10317" lon="4.54818">
        <ele>588.6</ele>
        <time>2020-10-24T06:35:51Z</time>
      </trkpt>
      <trkpt lat="46.10315" lon="4.54819">
        <ele>588.2</ele>
        <time>2020-10-24T06:35:52Z</time>
      </trkpt>
      <trkpt lat="46.10313" lon="4.5482">
        <ele>588.2</ele>
        <time>2020-10-24T06:35:53Z</time>
      </trkpt>
      <trkpt lat="46.10311" lon="4.5482">
        <ele>587.8</ele>
        <time>2020-10-24T06:35:54Z</time>
      </trkpt>
      <trkpt lat="46.10309" lon="4.54821">
        <ele>587.2</ele>
        <time>2020-10-24T06:35:55Z</time>
      </trkpt>
      <trkpt lat="46.10307" lon="4.54821">
        <ele>587</ele>
        <time>2020-10-24T06:35:56Z</time>
      </trkpt>
      <trkpt lat="46.10305" lon="4.54822">
        <ele>586.4</ele>
        <time>2020-10-24T06:35:57Z</time>
      </trkpt>
      <trkpt lat="46.10304" lon="4.54823">
        <ele>586</ele>
        <time>2020-10-24T06:35:58Z</time>
      </trkpt>
      <trkpt lat="46.10302" lon="4.54824">
        <ele>585.6</ele>
        <time>2020-10-24T06:35:59Z</time>
      </trkpt>
      <trkpt lat="46.103" lon="4.54825">
        <ele>585</ele>
        <time>2020-10-24T06:36:00Z</time>
      </trkpt>
      <trkpt lat="46.10298" lon="4.54827">
        <ele>585.2</ele>
        <time>2020-10-24T06:36:01Z</time>
      </trkpt>
      <trkpt lat="46.10295" lon="4.54828">
        <ele>584.6</ele>
        <time>2020-10-24T06:36:02Z</time>
      </trkpt>
      <trkpt lat="46.10293" lon="4.54829">
        <ele>584</ele>
        <time>2020-10-24T06:36:03Z</time>
      </trkpt>
      <trkpt lat="46.10291" lon="4.5483">
        <ele>583.8</ele>
        <time>2020-10-24T06:36:04Z</time>
      </trkpt>
      <trkpt lat="46.10288" lon="4.54831">
        <ele>583.4</ele>
        <time>2020-10-24T06:36:05Z</time>
      </trkpt>
      <trkpt lat="46.10286" lon="4.54833">
        <ele>583</ele>
        <time>2020-10-24T06:36:06Z</time>
      </trkpt>
      <trkpt lat="46.10284" lon="4.54834">
        <ele>582.6</ele>
        <time>2020-10-24T06:36:07Z</time>
      </trkpt>
      <trkpt lat="46.10282" lon="4.54835">
        <ele>582</ele>
        <time>2020-10-24T06:36:08Z</time>
      </trkpt>
      <trkpt lat="46.10279" lon="4.54835">
        <ele>581.6</ele>
        <time>2020-10-24T06:36:09Z</time>
      </trkpt>
      <trkpt lat="46.10277" lon="4.54835">
        <ele>581.4</ele>
        <time>2020-10-24T06:36:10Z</time>
      </trkpt>
      <trkpt lat="46.10275" lon="4.54836">
        <ele>581.2</ele>
        <time>2020-10-24T06:36:11Z</time>
      </trkpt>
      <trkpt lat="46.10273" lon="4.54836">
        <ele>580.6</ele>
        <time>2020-10-24T06:36:12Z</time>
      </trkpt>
      <trkpt lat="46.1027" lon="4.54836">
        <ele>580.4</ele>
        <time>2020-10-24T06:36:13Z</time>
      </trkpt>
      <trkpt lat="46.10267" lon="4.54836">
        <ele>579.8</ele>
        <time>2020-10-24T06:36:14Z</time>
      </trkpt>
      <trkpt lat="46.10265" lon="4.54836">
        <ele>579</ele>
        <time>2020-10-24T06:36:15Z</time>
      </trkpt>
      <trkpt lat="46.10263" lon="4.54837">
        <ele>579</ele>
        <time>2020-10-24T06:36:16Z</time>
      </trkpt>
      <trkpt lat="46.1026" lon="4.54837">
        <ele>578.6</ele>
        <time>2020-10-24T06:36:17Z</time>
      </trkpt>
      <trkpt lat="46.10258" lon="4.54837">
        <ele>578.4</ele>
        <time>2020-10-24T06:36:18Z</time>
      </trkpt>
      <trkpt lat="46.10255" lon="4.54837">
        <ele>578.4</ele>
        <time>2020-10-24T06:36:19Z</time>
      </trkpt>
      <trkpt lat="46.10253" lon="4.54837">
        <ele>578</ele>
        <time>2020-10-24T06:36:20Z</time>
      </trkpt>
      <trkpt lat="46.10251" lon="4.54837">
        <ele>577.8</ele>
        <time>2020-10-24T06:36:21Z</time>
      </trkpt>
      <trkpt lat="46.10248" lon="4.54837">
        <ele>577.4</ele>
        <time>2020-10-24T06:36:22Z</time>
      </trkpt>
      <trkpt lat="46.10246" lon="4.54837">
        <ele>576.8</ele>
        <time>2020-10-24T06:36:23Z</time>
      </trkpt>
      <trkpt lat="46.10244" lon="4.54836">
        <ele>576.6</ele>
        <time>2020-10-24T06:36:24Z</time>
      </trkpt>
      <trkpt lat="46.10241" lon="4.54836">
        <ele>576</ele>
        <time>2020-10-24T06:36:25Z</time>
      </trkpt>
      <trkpt lat="46.10239" lon="4.54835">
        <ele>575.6</ele>
        <time>2020-10-24T06:36:26Z</time>
      </trkpt>
      <trkpt lat="46.10237" lon="4.54834">
        <ele>575.2</ele>
        <time>2020-10-24T06:36:27Z</time>
      </trkpt>
      <trkpt lat="46.10237" lon="4.54834">
        <ele>574.6</ele>
        <time>2020-10-24T06:36:28Z</time>
      </trkpt>
      <trkpt lat="46.10234" lon="4.54833">
        <ele>574.2</ele>
        <time>2020-10-24T06:36:29Z</time>
      </trkpt>
      <trkpt lat="46.10234" lon="4.54833">
        <ele>573.8</ele>
        <time>2020-10-24T06:36:30Z</time>
      </trkpt>
      <trkpt lat="46.10234" lon="4.54833">
        <ele>573.4</ele>
        <time>2020-10-24T06:36:31Z</time>
      </trkpt>
      <trkpt lat="46.10234" lon="4.54833">
        <ele>573.4</ele>
        <time>2020-10-24T06:36:32Z</time>
      </trkpt>
      <trkpt lat="46.10232" lon="4.5483">
        <ele>573.4</ele>
        <time>2020-10-24T06:36:33Z</time>
      </trkpt>
      <trkpt lat="46.10232" lon="4.5483">
        <ele>573.2</ele>
        <time>2020-10-24T06:36:34Z</time>
      </trkpt>
      <trkpt lat="46.10232" lon="4.54826">
        <ele>573</ele>
        <time>2020-10-24T06:36:35Z</time>
      </trkpt>
      <trkpt lat="46.10232" lon="4.54826">
        <ele>573</ele>
        <time>2020-10-24T06:36:36Z</time>
      </trkpt>
      <trkpt lat="46.10231" lon="4.54822">
        <ele>573.2</ele>
        <time>2020-10-24T06:36:37Z</time>
      </trkpt>
      <trkpt lat="46.10231" lon="4.54822">
        <ele>573.2</ele>
        <time>2020-10-24T06:36:38Z</time>
      </trkpt>
      <trkpt lat="46.1023" lon="4.54818">
        <ele>573.2</ele>
        <time>2020-10-24T06:36:39Z</time>
      </trkpt>
      <trkpt lat="46.1023" lon="4.54818">
        <ele>573.2</ele>
        <time>2020-10-24T06:36:40Z</time>
      </trkpt>
      <trkpt lat="46.1023" lon="4.54814">
        <ele>573.2</ele>
        <time>2020-10-24T06:36:41Z</time>
      </trkpt>
      <trkpt lat="46.1023" lon="4.54814">
        <ele>573.6</ele>
        <time>2020-10-24T06:36:42Z</time>
      </trkpt>
      <trkpt lat="46.1023" lon="4.5481">
        <ele>574</ele>
        <time>2020-10-24T06:36:43Z</time>
      </trkpt>
      <trkpt lat="46.1023" lon="4.5481">
        <ele>574.6</ele>
        <time>2020-10-24T06:36:44Z</time>
      </trkpt>
      <trkpt lat="46.10229" lon="4.54806">
        <ele>575.2</ele>
        <time>2020-10-24T06:36:45Z</time>
      </trkpt>
      <trkpt lat="46.10229" lon="4.54806">
        <ele>575.6</ele>
        <time>2020-10-24T06:36:46Z</time>
      </trkpt>
      <trkpt lat="46.10228" lon="4.54803">
        <ele>575.6</ele>
        <time>2020-10-24T06:36:47Z</time>
      </trkpt>
      <trkpt lat="46.10228" lon="4.54803">
        <ele>575.6</ele>
        <time>2020-10-24T06:36:48Z</time>
      </trkpt>
      <trkpt lat="46.10227" lon="4.548">
        <ele>575.6</ele>
        <time>2020-10-24T06:36:49Z</time>
      </trkpt>
      <trkpt lat="46.10227" lon="4.548">
        <ele>575.8</ele>
        <time>2020-10-24T06:36:50Z</time>
      </trkpt>
      <trkpt lat="46.10226" lon="4.54797">
        <ele>575.6</ele>
        <time>2020-10-24T06:36:51Z</time>
      </trkpt>
      <trkpt lat="46.10226" lon="4.54797">
        <ele>575.8</ele>
        <time>2020-10-24T06:36:52Z</time>
      </trkpt>
      <trkpt lat="46.10225" lon="4.54795">
        <ele>576</ele>
        <time>2020-10-24T06:36:53Z</time>
      </trkpt>
      <trkpt lat="46.10225" lon="4.54795">
        <ele>576</ele>
        <time>2020-10-24T06:36:54Z</time>
      </trkpt>
      <trkpt lat="46.10224" lon="4.54792">
        <ele>576.2</ele>
        <time>2020-10-24T06:36:55Z</time>
      </trkpt>
      <trkpt lat="46.10224" lon="4.54792">
        <ele>576.2</ele>
        <time>2020-10-24T06:36:56Z</time>
      </trkpt>
      <trkpt lat="46.10222" lon="4.54788">
        <ele>576.4</ele>
        <time>2020-10-24T06:36:57Z</time>
      </trkpt>
      <trkpt lat="46.10222" lon="4.54788">
        <ele>576.8</ele>
        <time>2020-10-24T06:36:58Z</time>
      </trkpt>
      <trkpt lat="46.10222" lon="4.54784">
        <ele>577.2</ele>
        <time>2020-10-24T06:36:59Z</time>
      </trkpt>
      <trkpt lat="46.10222" lon="4.54784">
        <ele>577.6</ele>
        <time>2020-10-24T06:37:00Z</time>
      </trkpt>
      <trkpt lat="46.1022" lon="4.54781">
        <ele>578</ele>
        <time>2020-10-24T06:37:01Z</time>
      </trkpt>
      <trkpt lat="46.1022" lon="4.54781">
        <ele>578.2</ele>
        <time>2020-10-24T06:37:02Z</time>
      </trkpt>
      <trkpt lat="46.10219" lon="4.54777">
        <ele>578.4</ele>
        <time>2020-10-24T06:37:03Z</time>
      </trkpt>
      <trkpt lat="46.10219" lon="4.54777">
        <ele>578.6</ele>
        <time>2020-10-24T06:37:04Z</time>
      </trkpt>
      <trkpt lat="46.10217" lon="4.54774">
        <ele>579</ele>
        <time>2020-10-24T06:37:05Z</time>
      </trkpt>
      <trkpt lat="46.10217" lon="4.54774">
        <ele>579.2</ele>
        <time>2020-10-24T06:37:06Z</time>
      </trkpt>
      <trkpt lat="46.10216" lon="4.54771">
        <ele>579.4</ele>
        <time>2020-10-24T06:37:07Z</time>
      </trkpt>
      <trkpt lat="46.10216" lon="4.54771">
        <ele>579.6</ele>
        <time>2020-10-24T06:37:08Z</time>
      </trkpt>
      <trkpt lat="46.10215" lon="4.54769">
        <ele>579.8</ele>
        <time>2020-10-24T06:37:09Z</time>
      </trkpt>
      <trkpt lat="46.10215" lon="4.54769">
        <ele>580</ele>
        <time>2020-10-24T06:37:10Z</time>
      </trkpt>
      <trkpt lat="46.10214" lon="4.54766">
        <ele>580</ele>
        <time>2020-10-24T06:37:11Z</time>
      </trkpt>
      <trkpt lat="46.10214" lon="4.54766">
        <ele>580.4</ele>
        <time>2020-10-24T06:37:12Z</time>
      </trkpt>
      <trkpt lat="46.10212" lon="4.54763">
        <ele>580.6</ele>
        <time>2020-10-24T06:37:13Z</time>
      </trkpt>
      <trkpt lat="46.10212" lon="4.54763">
        <ele>580.8</ele>
        <time>2020-10-24T06:37:14Z</time>
      </trkpt>
      <trkpt lat="46.10211" lon="4.5476">
        <ele>580.8</ele>
        <time>2020-10-24T06:37:15Z</time>
      </trkpt>
      <trkpt lat="46.10211" lon="4.5476">
        <ele>581</ele>
        <time>2020-10-24T06:37:16Z</time>
      </trkpt>
      <trkpt lat="46.1021" lon="4.54756">
        <ele>581.2</ele>
        <time>2020-10-24T06:37:17Z</time>
      </trkpt>
      <trkpt lat="46.1021" lon="4.54756">
        <ele>581.6</ele>
        <time>2020-10-24T06:37:18Z</time>
      </trkpt>
      <trkpt lat="46.10208" lon="4.54753">
        <ele>582</ele>
        <time>2020-10-24T06:37:19Z</time>
      </trkpt>
      <trkpt lat="46.10208" lon="4.54753">
        <ele>582.2</ele>
        <time>2020-10-24T06:37:20Z</time>
      </trkpt>
      <trkpt lat="46.10207" lon="4.5475">
        <ele>582.6</ele>
        <time>2020-10-24T06:37:21Z</time>
      </trkpt>
      <trkpt lat="46.10207" lon="4.5475">
        <ele>582.8</ele>
        <time>2020-10-24T06:37:22Z</time>
      </trkpt>
      <trkpt lat="46.10206" lon="4.54747">
        <ele>582.8</ele>
        <time>2020-10-24T06:37:23Z</time>
      </trkpt>
      <trkpt lat="46.10206" lon="4.54747">
        <ele>583.2</ele>
        <time>2020-10-24T06:37:24Z</time>
      </trkpt>
      <trkpt lat="46.10204" lon="4.54744">
        <ele>583.6</ele>
        <time>2020-10-24T06:37:25Z</time>
      </trkpt>
      <trkpt lat="46.10204" lon="4.54744">
        <ele>584</ele>
        <time>2020-10-24T06:37:26Z</time>
      </trkpt>
      <trkpt lat="46.10203" lon="4.5474">
        <ele>584.2</ele>
        <time>2020-10-24T06:37:27Z</time>
      </trkpt>
      <trkpt lat="46.10203" lon="4.5474">
        <ele>584.4</ele>
        <time>2020-10-24T06:37:28Z</time>
      </trkpt>
      <trkpt lat="46.10201" lon="4.54737">
        <ele>584.6</ele>
        <time>2020-10-24T06:37:29Z</time>
      </trkpt>
      <trkpt lat="46.10201" lon="4.54737">
        <ele>584.6</ele>
        <time>2020-10-24T06:37:30Z</time>
      </trkpt>
      <trkpt lat="46.102" lon="4.54733">
        <ele>584.8</ele>
        <time>2020-10-24T06:37:31Z</time>
      </trkpt>
      <trkpt lat="46.102" lon="4.54733">
        <ele>585.2</ele>
        <time>2020-10-24T06:37:32Z</time>
      </trkpt>
      <trkpt lat="46.10198" lon="4.54729">
        <ele>585.4</ele>
        <time>2020-10-24T06:37:33Z</time>
      </trkpt>
      <trkpt lat="46.10198" lon="4.54729">
        <ele>585.8</ele>
        <time>2020-10-24T06:37:34Z</time>
      </trkpt>
      <trkpt lat="46.10197" lon="4.54726">
        <ele>586</ele>
        <time>2020-10-24T06:37:35Z</time>
      </trkpt>
      <trkpt lat="46.10197" lon="4.54726">
        <ele>586.4</ele>
        <time>2020-10-24T06:37:36Z</time>
      </trkpt>
      <trkpt lat="46.10195" lon="4.54723">
        <ele>586.6</ele>
        <time>2020-10-24T06:37:37Z</time>
      </trkpt>
      <trkpt lat="46.10195" lon="4.54723">
        <ele>586.8</ele>
        <time>2020-10-24T06:37:38Z</time>
      </trkpt>
      <trkpt lat="46.10193" lon="4.5472">
        <ele>587</ele>
        <time>2020-10-24T06:37:39Z</time>
      </trkpt>
      <trkpt lat="46.10193" lon="4.5472">
        <ele>587.2</ele>
        <time>2020-10-24T06:37:40Z</time>
      </trkpt>
      <trkpt lat="46.10192" lon="4.54716">
        <ele>587.6</ele>
        <time>2020-10-24T06:37:41Z</time>
      </trkpt>
      <trkpt lat="46.10192" lon="4.54716">
        <ele>587.8</ele>
        <time>2020-10-24T06:37:42Z</time>
      </trkpt>
      <trkpt lat="46.10191" lon="4.54713">
        <ele>588.4</ele>
        <time>2020-10-24T06:37:43Z</time>
      </trkpt>
      <trkpt lat="46.10191" lon="4.54713">
        <ele>588.8</ele>
        <time>2020-10-24T06:37:44Z</time>
      </trkpt>
      <trkpt lat="46.1019" lon="4.54709">
        <ele>589</ele>
        <time>2020-10-24T06:37:45Z</time>
      </trkpt>
      <trkpt lat="46.1019" lon="4.54709">
        <ele>589</ele>
        <time>2020-10-24T06:37:46Z</time>
      </trkpt>
      <trkpt lat="46.10188" lon="4.54706">
        <ele>589.2</ele>
        <time>2020-10-24T06:37:47Z</time>
      </trkpt>
      <trkpt lat="46.10188" lon="4.54706">
        <ele>589.4</ele>
        <time>2020-10-24T06:37:48Z</time>
      </trkpt>
      <trkpt lat="46.10187" lon="4.54703">
        <ele>589.2</ele>
        <time>2020-10-24T06:37:49Z</time>
      </trkpt>
      <trkpt lat="46.10187" lon="4.54703">
        <ele>589.2</ele>
        <time>2020-10-24T06:37:50Z</time>
      </trkpt>
      <trkpt lat="46.10185" lon="4.547">
        <ele>589.2</ele>
        <time>2020-10-24T06:37:51Z</time>
      </trkpt>
      <trkpt lat="46.10185" lon="4.547">
        <ele>589.2</ele>
        <time>2020-10-24T06:37:52Z</time>
      </trkpt>
      <trkpt lat="46.10183" lon="4.54696">
        <ele>589.2</ele>
        <time>2020-10-24T06:37:53Z</time>
      </trkpt>
      <trkpt lat="46.10183" lon="4.54696">
        <ele>589.6</ele>
        <time>2020-10-24T06:37:54Z</time>
      </trkpt>
      <trkpt lat="46.10181" lon="4.54692">
        <ele>589.8</ele>
        <time>2020-10-24T06:37:55Z</time>
      </trkpt>
      <trkpt lat="46.10181" lon="4.54692">
        <ele>590.2</ele>
        <time>2020-10-24T06:37:56Z</time>
      </trkpt>
      <trkpt lat="46.10179" lon="4.54689">
        <ele>590.4</ele>
        <time>2020-10-24T06:37:57Z</time>
      </trkpt>
      <trkpt lat="46.10178" lon="4.54686">
        <ele>590.8</ele>
        <time>2020-10-24T06:37:58Z</time>
      </trkpt>
      <trkpt lat="46.10178" lon="4.54686">
        <ele>590.8</ele>
        <time>2020-10-24T06:37:59Z</time>
      </trkpt>
      <trkpt lat="46.10177" lon="4.54683">
        <ele>591</ele>
        <time>2020-10-24T06:38:00Z</time>
      </trkpt>
      <trkpt lat="46.10177" lon="4.54683">
        <ele>591</ele>
        <time>2020-10-24T06:38:01Z</time>
      </trkpt>
      <trkpt lat="46.10175" lon="4.54679">
        <ele>591.2</ele>
        <time>2020-10-24T06:38:02Z</time>
      </trkpt>
      <trkpt lat="46.10175" lon="4.54679">
        <ele>591.4</ele>
        <time>2020-10-24T06:38:03Z</time>
      </trkpt>
      <trkpt lat="46.10174" lon="4.54677">
        <ele>591.6</ele>
        <time>2020-10-24T06:38:04Z</time>
      </trkpt>
      <trkpt lat="46.10174" lon="4.54677">
        <ele>592</ele>
        <time>2020-10-24T06:38:05Z</time>
      </trkpt>
      <trkpt lat="46.10173" lon="4.54674">
        <ele>591.8</ele>
        <time>2020-10-24T06:38:06Z</time>
      </trkpt>
      <trkpt lat="46.10173" lon="4.54674">
        <ele>592</ele>
        <time>2020-10-24T06:38:07Z</time>
      </trkpt>
      <trkpt lat="46.10171" lon="4.5467">
        <ele>592</ele>
        <time>2020-10-24T06:38:08Z</time>
      </trkpt>
      <trkpt lat="46.10171" lon="4.5467">
        <ele>592.4</ele>
        <time>2020-10-24T06:38:09Z</time>
      </trkpt>
      <trkpt lat="46.10169" lon="4.54667">
        <ele>592.8</ele>
        <time>2020-10-24T06:38:10Z</time>
      </trkpt>
      <trkpt lat="46.10169" lon="4.54667">
        <ele>593</ele>
        <time>2020-10-24T06:38:11Z</time>
      </trkpt>
      <trkpt lat="46.10167" lon="4.54664">
        <ele>593</ele>
        <time>2020-10-24T06:38:12Z</time>
      </trkpt>
      <trkpt lat="46.10167" lon="4.54664">
        <ele>593.2</ele>
        <time>2020-10-24T06:38:13Z</time>
      </trkpt>
      <trkpt lat="46.10165" lon="4.54661">
        <ele>593.4</ele>
        <time>2020-10-24T06:38:14Z</time>
      </trkpt>
      <trkpt lat="46.10165" lon="4.54661">
        <ele>593.6</ele>
        <time>2020-10-24T06:38:15Z</time>
      </trkpt>
      <trkpt lat="46.10163" lon="4.54658">
        <ele>593.8</ele>
        <time>2020-10-24T06:38:16Z</time>
      </trkpt>
      <trkpt lat="46.10163" lon="4.54658">
        <ele>593.8</ele>
        <time>2020-10-24T06:38:17Z</time>
      </trkpt>
      <trkpt lat="46.10161" lon="4.54655">
        <ele>593.8</ele>
        <time>2020-10-24T06:38:18Z</time>
      </trkpt>
      <trkpt lat="46.10161" lon="4.54655">
        <ele>594</ele>
        <time>2020-10-24T06:38:19Z</time>
      </trkpt>
      <trkpt lat="46.10159" lon="4.54653">
        <ele>594</ele>
        <time>2020-10-24T06:38:20Z</time>
      </trkpt>
      <trkpt lat="46.10159" lon="4.54653">
        <ele>594.2</ele>
        <time>2020-10-24T06:38:21Z</time>
      </trkpt>
      <trkpt lat="46.10156" lon="4.54651">
        <ele>594.4</ele>
        <time>2020-10-24T06:38:22Z</time>
      </trkpt>
      <trkpt lat="46.10156" lon="4.54651">
        <ele>594.6</ele>
        <time>2020-10-24T06:38:23Z</time>
      </trkpt>
      <trkpt lat="46.10154" lon="4.54649">
        <ele>595</ele>
        <time>2020-10-24T06:38:24Z</time>
      </trkpt>
      <trkpt lat="46.10154" lon="4.54649">
        <ele>595.2</ele>
        <time>2020-10-24T06:38:25Z</time>
      </trkpt>
      <trkpt lat="46.10151" lon="4.54646">
        <ele>595.4</ele>
        <time>2020-10-24T06:38:26Z</time>
      </trkpt>
      <trkpt lat="46.10151" lon="4.54646">
        <ele>595.8</ele>
        <time>2020-10-24T06:38:27Z</time>
      </trkpt>
      <trkpt lat="46.10149" lon="4.54644">
        <ele>596</ele>
        <time>2020-10-24T06:38:28Z</time>
      </trkpt>
      <trkpt lat="46.10149" lon="4.54644">
        <ele>596</ele>
        <time>2020-10-24T06:38:29Z</time>
      </trkpt>
      <trkpt lat="46.10146" lon="4.54641">
        <ele>596.2</ele>
        <time>2020-10-24T06:38:30Z</time>
      </trkpt>
      <trkpt lat="46.10146" lon="4.54641">
        <ele>596</ele>
        <time>2020-10-24T06:38:31Z</time>
      </trkpt>
      <trkpt lat="46.10144" lon="4.54637">
        <ele>596.2</ele>
        <time>2020-10-24T06:38:32Z</time>
      </trkpt>
      <trkpt lat="46.10144" lon="4.54637">
        <ele>596.4</ele>
        <time>2020-10-24T06:38:33Z</time>
      </trkpt>
      <trkpt lat="46.10141" lon="4.54634">
        <ele>596.6</ele>
        <time>2020-10-24T06:38:34Z</time>
      </trkpt>
      <trkpt lat="46.10141" lon="4.54634">
        <ele>596.8</ele>
        <time>2020-10-24T06:38:35Z</time>
      </trkpt>
      <trkpt lat="46.10139" lon="4.54631">
        <ele>597</ele>
        <time>2020-10-24T06:38:36Z</time>
      </trkpt>
      <trkpt lat="46.10139" lon="4.54631">
        <ele>597.2</ele>
        <time>2020-10-24T06:38:37Z</time>
      </trkpt>
      <trkpt lat="46.10137" lon="4.54629">
        <ele>597.4</ele>
        <time>2020-10-24T06:38:38Z</time>
      </trkpt>
      <trkpt lat="46.10137" lon="4.54629">
        <ele>597.8</ele>
        <time>2020-10-24T06:38:39Z</time>
      </trkpt>
      <trkpt lat="46.10134" lon="4.54625">
        <ele>598</ele>
        <time>2020-10-24T06:38:40Z</time>
      </trkpt>
      <trkpt lat="46.10134" lon="4.54625">
        <ele>598.2</ele>
        <time>2020-10-24T06:38:41Z</time>
      </trkpt>
      <trkpt lat="46.10132" lon="4.54621">
        <ele>598.4</ele>
        <time>2020-10-24T06:38:42Z</time>
      </trkpt>
      <trkpt lat="46.10132" lon="4.54621">
        <ele>598.4</ele>
        <time>2020-10-24T06:38:43Z</time>
      </trkpt>
      <trkpt lat="46.1013" lon="4.54618">
        <ele>598.8</ele>
        <time>2020-10-24T06:38:44Z</time>
      </trkpt>
      <trkpt lat="46.10128" lon="4.54616">
        <ele>599</ele>
        <time>2020-10-24T06:38:45Z</time>
      </trkpt>
      <trkpt lat="46.10127" lon="4.54614">
        <ele>599.2</ele>
        <time>2020-10-24T06:38:46Z</time>
      </trkpt>
      <trkpt lat="46.10127" lon="4.54614">
        <ele>599.4</ele>
        <time>2020-10-24T06:38:47Z</time>
      </trkpt>
      <trkpt lat="46.10125" lon="4.5461">
        <ele>599.4</ele>
        <time>2020-10-24T06:38:48Z</time>
      </trkpt>
      <trkpt lat="46.10125" lon="4.5461">
        <ele>599.4</ele>
        <time>2020-10-24T06:38:49Z</time>
      </trkpt>
      <trkpt lat="46.10123" lon="4.54607">
        <ele>599.6</ele>
        <time>2020-10-24T06:38:50Z</time>
      </trkpt>
      <trkpt lat="46.10123" lon="4.54607">
        <ele>599.8</ele>
        <time>2020-10-24T06:38:51Z</time>
      </trkpt>
      <trkpt lat="46.10121" lon="4.54603">
        <ele>599.8</ele>
        <time>2020-10-24T06:38:52Z</time>
      </trkpt>
      <trkpt lat="46.10121" lon="4.54603">
        <ele>600</ele>
        <time>2020-10-24T06:38:53Z</time>
      </trkpt>
      <trkpt lat="46.10119" lon="4.546">
        <ele>600.2</ele>
        <time>2020-10-24T06:38:54Z</time>
      </trkpt>
      <trkpt lat="46.10119" lon="4.546">
        <ele>600.4</ele>
        <time>2020-10-24T06:38:55Z</time>
      </trkpt>
      <trkpt lat="46.10118" lon="4.54596">
        <ele>600.6</ele>
        <time>2020-10-24T06:38:56Z</time>
      </trkpt>
      <trkpt lat="46.10118" lon="4.54596">
        <ele>600.8</ele>
        <time>2020-10-24T06:38:57Z</time>
      </trkpt>
      <trkpt lat="46.10116" lon="4.54592">
        <ele>600.8</ele>
        <time>2020-10-24T06:38:58Z</time>
      </trkpt>
      <trkpt lat="46.10116" lon="4.54592">
        <ele>601</ele>
        <time>2020-10-24T06:38:59Z</time>
      </trkpt>
      <trkpt lat="46.10115" lon="4.54588">
        <ele>601</ele>
        <time>2020-10-24T06:39:00Z</time>
      </trkpt>
      <trkpt lat="46.10115" lon="4.54588">
        <ele>601</ele>
        <time>2020-10-24T06:39:01Z</time>
      </trkpt>
      <trkpt lat="46.10114" lon="4.54584">
        <ele>601.2</ele>
        <time>2020-10-24T06:39:02Z</time>
      </trkpt>
      <trkpt lat="46.10114" lon="4.54584">
        <ele>601.4</ele>
        <time>2020-10-24T06:39:03Z</time>
      </trkpt>
      <trkpt lat="46.10113" lon="4.54581">
        <ele>601.6</ele>
        <time>2020-10-24T06:39:04Z</time>
      </trkpt>
      <trkpt lat="46.10113" lon="4.54581">
        <ele>601.8</ele>
        <time>2020-10-24T06:39:05Z</time>
      </trkpt>
      <trkpt lat="46.10112" lon="4.54577">
        <ele>602</ele>
        <time>2020-10-24T06:39:06Z</time>
      </trkpt>
      <trkpt lat="46.10112" lon="4.54577">
        <ele>602.4</ele>
        <time>2020-10-24T06:39:07Z</time>
      </trkpt>
      <trkpt lat="46.1011" lon="4.54574">
        <ele>602.8</ele>
        <time>2020-10-24T06:39:08Z</time>
      </trkpt>
      <trkpt lat="46.1011" lon="4.54574">
        <ele>603.4</ele>
        <time>2020-10-24T06:39:09Z</time>
      </trkpt>
      <trkpt lat="46.1011" lon="4.5457">
        <ele>603.8</ele>
        <time>2020-10-24T06:39:10Z</time>
      </trkpt>
      <trkpt lat="46.1011" lon="4.5457">
        <ele>604.2</ele>
        <time>2020-10-24T06:39:11Z</time>
      </trkpt>
      <trkpt lat="46.10108" lon="4.54566">
        <ele>604.4</ele>
        <time>2020-10-24T06:39:12Z</time>
      </trkpt>
      <trkpt lat="46.10108" lon="4.54566">
        <ele>604.8</ele>
        <time>2020-10-24T06:39:13Z</time>
      </trkpt>
      <trkpt lat="46.10107" lon="4.54562">
        <ele>605</ele>
        <time>2020-10-24T06:39:14Z</time>
      </trkpt>
      <trkpt lat="46.10107" lon="4.54562">
        <ele>605.4</ele>
        <time>2020-10-24T06:39:15Z</time>
      </trkpt>
      <trkpt lat="46.10106" lon="4.54559">
        <ele>605.6</ele>
        <time>2020-10-24T06:39:16Z</time>
      </trkpt>
      <trkpt lat="46.10106" lon="4.54559">
        <ele>605.8</ele>
        <time>2020-10-24T06:39:17Z</time>
      </trkpt>
      <trkpt lat="46.10104" lon="4.54556">
        <ele>606</ele>
        <time>2020-10-24T06:39:18Z</time>
      </trkpt>
      <trkpt lat="46.10104" lon="4.54556">
        <ele>606.2</ele>
        <time>2020-10-24T06:39:19Z</time>
      </trkpt>
      <trkpt lat="46.10103" lon="4.54552">
        <ele>606.2</ele>
        <time>2020-10-24T06:39:20Z</time>
      </trkpt>
      <trkpt lat="46.10103" lon="4.54552">
        <ele>606.4</ele>
        <time>2020-10-24T06:39:21Z</time>
      </trkpt>
      <trkpt lat="46.10101" lon="4.54548">
        <ele>606.4</ele>
        <time>2020-10-24T06:39:22Z</time>
      </trkpt>
      <trkpt lat="46.10101" lon="4.54548">
        <ele>606.6</ele>
        <time>2020-10-24T06:39:23Z</time>
      </trkpt>
      <trkpt lat="46.101" lon="4.54543">
        <ele>606.8</ele>
        <time>2020-10-24T06:39:24Z</time>
      </trkpt>
      <trkpt lat="46.101" lon="4.54543">
        <ele>607.2</ele>
        <time>2020-10-24T06:39:25Z</time>
      </trkpt>
      <trkpt lat="46.10099" lon="4.5454">
        <ele>607.4</ele>
        <time>2020-10-24T06:39:26Z</time>
      </trkpt>
      <trkpt lat="46.10099" lon="4.5454">
        <ele>607.6</ele>
        <time>2020-10-24T06:39:27Z</time>
      </trkpt>
      <trkpt lat="46.10097" lon="4.54537">
        <ele>607.6</ele>
        <time>2020-10-24T06:39:28Z</time>
      </trkpt>
      <trkpt lat="46.10097" lon="4.54537">
        <ele>607.8</ele>
        <time>2020-10-24T06:39:29Z</time>
      </trkpt>
      <trkpt lat="46.10096" lon="4.54535">
        <ele>608</ele>
        <time>2020-10-24T06:39:30Z</time>
      </trkpt>
      <trkpt lat="46.10096" lon="4.54535">
        <ele>608</ele>
        <time>2020-10-24T06:39:31Z</time>
      </trkpt>
      <trkpt lat="46.10095" lon="4.54533">
        <ele>608.4</ele>
        <time>2020-10-24T06:39:32Z</time>
      </trkpt>
      <trkpt lat="46.10095" lon="4.54533">
        <ele>608.6</ele>
        <time>2020-10-24T06:39:33Z</time>
      </trkpt>
      <trkpt lat="46.10093" lon="4.5453">
        <ele>608.8</ele>
        <time>2020-10-24T06:39:34Z</time>
      </trkpt>
      <trkpt lat="46.10093" lon="4.5453">
        <ele>609.2</ele>
        <time>2020-10-24T06:39:35Z</time>
      </trkpt>
      <trkpt lat="46.10091" lon="4.54526">
        <ele>609.2</ele>
        <time>2020-10-24T06:39:36Z</time>
      </trkpt>
      <trkpt lat="46.10091" lon="4.54526">
        <ele>609.2</ele>
        <time>2020-10-24T06:39:37Z</time>
      </trkpt>
      <trkpt lat="46.10089" lon="4.54523">
        <ele>609.4</ele>
        <time>2020-10-24T06:39:38Z</time>
      </trkpt>
      <trkpt lat="46.10089" lon="4.54523">
        <ele>609.6</ele>
        <time>2020-10-24T06:39:39Z</time>
      </trkpt>
      <trkpt lat="46.10088" lon="4.54519">
        <ele>609.8</ele>
        <time>2020-10-24T06:39:40Z</time>
      </trkpt>
      <trkpt lat="46.10088" lon="4.54519">
        <ele>610</ele>
        <time>2020-10-24T06:39:41Z</time>
      </trkpt>
      <trkpt lat="46.10086" lon="4.54514">
        <ele>610.2</ele>
        <time>2020-10-24T06:39:42Z</time>
      </trkpt>
      <trkpt lat="46.10084" lon="4.54512">
        <ele>610.4</ele>
        <time>2020-10-24T06:39:43Z</time>
      </trkpt>
      <trkpt lat="46.10084" lon="4.54512">
        <ele>610.6</ele>
        <time>2020-10-24T06:39:44Z</time>
      </trkpt>
      <trkpt lat="46.10083" lon="4.54509">
        <ele>610.8</ele>
        <time>2020-10-24T06:39:45Z</time>
      </trkpt>
      <trkpt lat="46.10083" lon="4.54509">
        <ele>611</ele>
        <time>2020-10-24T06:39:46Z</time>
      </trkpt>
      <trkpt lat="46.10083" lon="4.54509">
        <ele>611.2</ele>
        <time>2020-10-24T06:39:47Z</time>
      </trkpt>
      <trkpt lat="46.10083" lon="4.54509">
        <ele>611.2</ele>
        <time>2020-10-24T06:39:48Z</time>
      </trkpt>
      <trkpt lat="46.10081" lon="4.54505">
        <ele>611.2</ele>
        <time>2020-10-24T06:39:49Z</time>
      </trkpt>
      <trkpt lat="46.10081" lon="4.54505">
        <ele>611.2</ele>
        <time>2020-10-24T06:39:50Z</time>
      </trkpt>
      <trkpt lat="46.10079" lon="4.545">
        <ele>611.4</ele>
        <time>2020-10-24T06:39:51Z</time>
      </trkpt>
      <trkpt lat="46.10079" lon="4.545">
        <ele>612</ele>
        <time>2020-10-24T06:39:52Z</time>
      </trkpt>
      <trkpt lat="46.10077" lon="4.54497">
        <ele>612</ele>
        <time>2020-10-24T06:39:53Z</time>
      </trkpt>
      <trkpt lat="46.10077" lon="4.54497">
        <ele>612.2</ele>
        <time>2020-10-24T06:39:54Z</time>
      </trkpt>
      <trkpt lat="46.10076" lon="4.54494">
        <ele>612.4</ele>
        <time>2020-10-24T06:39:55Z</time>
      </trkpt>
      <trkpt lat="46.10076" lon="4.54494">
        <ele>612.4</ele>
        <time>2020-10-24T06:39:56Z</time>
      </trkpt>
      <trkpt lat="46.10074" lon="4.54491">
        <ele>612.8</ele>
        <time>2020-10-24T06:39:57Z</time>
      </trkpt>
      <trkpt lat="46.10074" lon="4.54491">
        <ele>612.8</ele>
        <time>2020-10-24T06:39:58Z</time>
      </trkpt>
      <trkpt lat="46.10072" lon="4.54489">
        <ele>613</ele>
        <time>2020-10-24T06:39:59Z</time>
      </trkpt>
      <trkpt lat="46.1007" lon="4.54486">
        <ele>613.4</ele>
        <time>2020-10-24T06:40:01Z</time>
      </trkpt>
      <trkpt lat="46.1007" lon="4.54486">
        <ele>613.6</ele>
        <time>2020-10-24T06:40:02Z</time>
      </trkpt>
      <trkpt lat="46.10068" lon="4.54483">
        <ele>613.8</ele>
        <time>2020-10-24T06:40:03Z</time>
      </trkpt>
      <trkpt lat="46.10068" lon="4.54483">
        <ele>614.2</ele>
        <time>2020-10-24T06:40:04Z</time>
      </trkpt>
      <trkpt lat="46.10066" lon="4.54481">
        <ele>614.4</ele>
        <time>2020-10-24T06:40:05Z</time>
      </trkpt>
      <trkpt lat="46.10066" lon="4.54481">
        <ele>614.8</ele>
        <time>2020-10-24T06:40:06Z</time>
      </trkpt>
      <trkpt lat="46.10064" lon="4.54479">
        <ele>615</ele>
        <time>2020-10-24T06:40:07Z</time>
      </trkpt>
      <trkpt lat="46.10064" lon="4.54479">
        <ele>615.4</ele>
        <time>2020-10-24T06:40:08Z</time>
      </trkpt>
      <trkpt lat="46.10062" lon="4.54477">
        <ele>615.6</ele>
        <time>2020-10-24T06:40:09Z</time>
      </trkpt>
      <trkpt lat="46.10062" lon="4.54477">
        <ele>615.6</ele>
        <time>2020-10-24T06:40:10Z</time>
      </trkpt>
      <trkpt lat="46.1006" lon="4.54475">
        <ele>615.8</ele>
        <time>2020-10-24T06:40:11Z</time>
      </trkpt>
      <trkpt lat="46.1006" lon="4.54475">
        <ele>616</ele>
        <time>2020-10-24T06:40:12Z</time>
      </trkpt>
      <trkpt lat="46.10058" lon="4.54473">
        <ele>616.4</ele>
        <time>2020-10-24T06:40:13Z</time>
      </trkpt>
      <trkpt lat="46.10058" lon="4.54473">
        <ele>616.6</ele>
        <time>2020-10-24T06:40:14Z</time>
      </trkpt>
      <trkpt lat="46.10056" lon="4.54471">
        <ele>616.8</ele>
        <time>2020-10-24T06:40:15Z</time>
      </trkpt>
      <trkpt lat="46.10056" lon="4.54471">
        <ele>617.2</ele>
        <time>2020-10-24T06:40:16Z</time>
      </trkpt>
      <trkpt lat="46.10053" lon="4.5447">
        <ele>617.4</ele>
        <time>2020-10-24T06:40:17Z</time>
      </trkpt>
      <trkpt lat="46.10053" lon="4.5447">
        <ele>617.6</ele>
        <time>2020-10-24T06:40:18Z</time>
      </trkpt>
      <trkpt lat="46.10051" lon="4.54469">
        <ele>617.8</ele>
        <time>2020-10-24T06:40:19Z</time>
      </trkpt>
      <trkpt lat="46.10051" lon="4.54469">
        <ele>618</ele>
        <time>2020-10-24T06:40:20Z</time>
      </trkpt>
      <trkpt lat="46.10049" lon="4.54468">
        <ele>618.4</ele>
        <time>2020-10-24T06:40:21Z</time>
      </trkpt>
      <trkpt lat="46.10049" lon="4.54468">
        <ele>618.6</ele>
        <time>2020-10-24T06:40:22Z</time>
      </trkpt>
      <trkpt lat="46.10047" lon="4.54467">
        <ele>618.8</ele>
        <time>2020-10-24T06:40:23Z</time>
      </trkpt>
      <trkpt lat="46.10047" lon="4.54467">
        <ele>618.8</ele>
        <time>2020-10-24T06:40:24Z</time>
      </trkpt>
      <trkpt lat="46.10044" lon="4.54466">
        <ele>619.2</ele>
        <time>2020-10-24T06:40:25Z</time>
      </trkpt>
      <trkpt lat="46.10044" lon="4.54466">
        <ele>619.4</ele>
        <time>2020-10-24T06:40:26Z</time>
      </trkpt>
      <trkpt lat="46.10041" lon="4.54466">
        <ele>619.6</ele>
        <time>2020-10-24T06:40:27Z</time>
      </trkpt>
      <trkpt lat="46.10039" lon="4.54465">
        <ele>619.8</ele>
        <time>2020-10-24T06:40:28Z</time>
      </trkpt>
      <trkpt lat="46.10037" lon="4.54465">
        <ele>620</ele>
        <time>2020-10-24T06:40:29Z</time>
      </trkpt>
      <trkpt lat="46.10037" lon="4.54465">
        <ele>620.2</ele>
        <time>2020-10-24T06:40:30Z</time>
      </trkpt>
      <trkpt lat="46.10035" lon="4.54464">
        <ele>620.8</ele>
        <time>2020-10-24T06:40:31Z</time>
      </trkpt>
      <trkpt lat="46.10035" lon="4.54464">
        <ele>621.2</ele>
        <time>2020-10-24T06:40:32Z</time>
      </trkpt>
      <trkpt lat="46.10032" lon="4.54462">
        <ele>621.6</ele>
        <time>2020-10-24T06:40:33Z</time>
      </trkpt>
      <trkpt lat="46.10032" lon="4.54462">
        <ele>621.4</ele>
        <time>2020-10-24T06:40:34Z</time>
      </trkpt>
      <trkpt lat="46.1003" lon="4.54462">
        <ele>621.6</ele>
        <time>2020-10-24T06:40:35Z</time>
      </trkpt>
      <trkpt lat="46.1003" lon="4.54462">
        <ele>621.6</ele>
        <time>2020-10-24T06:40:36Z</time>
      </trkpt>
      <trkpt lat="46.10028" lon="4.5446">
        <ele>621.6</ele>
        <time>2020-10-24T06:40:37Z</time>
      </trkpt>
      <trkpt lat="46.10028" lon="4.5446">
        <ele>621.6</ele>
        <time>2020-10-24T06:40:38Z</time>
      </trkpt>
      <trkpt lat="46.10025" lon="4.54458">
        <ele>621.8</ele>
        <time>2020-10-24T06:40:39Z</time>
      </trkpt>
      <trkpt lat="46.10025" lon="4.54458">
        <ele>622</ele>
        <time>2020-10-24T06:40:40Z</time>
      </trkpt>
      <trkpt lat="46.10023" lon="4.54457">
        <ele>622.2</ele>
        <time>2020-10-24T06:40:41Z</time>
      </trkpt>
      <trkpt lat="46.10023" lon="4.54457">
        <ele>622.4</ele>
        <time>2020-10-24T06:40:42Z</time>
      </trkpt>
      <trkpt lat="46.10021" lon="4.54456">
        <ele>622.4</ele>
        <time>2020-10-24T06:40:43Z</time>
      </trkpt>
      <trkpt lat="46.10021" lon="4.54456">
        <ele>622.8</ele>
        <time>2020-10-24T06:40:44Z</time>
      </trkpt>
      <trkpt lat="46.10019" lon="4.54455">
        <ele>623</ele>
        <time>2020-10-24T06:40:45Z</time>
      </trkpt>
      <trkpt lat="46.10019" lon="4.54455">
        <ele>623.2</ele>
        <time>2020-10-24T06:40:46Z</time>
      </trkpt>
      <trkpt lat="46.10016" lon="4.54453">
        <ele>623.2</ele>
        <time>2020-10-24T06:40:47Z</time>
      </trkpt>
      <trkpt lat="46.10016" lon="4.54453">
        <ele>623.2</ele>
        <time>2020-10-24T06:40:48Z</time>
      </trkpt>
      <trkpt lat="46.10014" lon="4.54451">
        <ele>623.6</ele>
        <time>2020-10-24T06:40:49Z</time>
      </trkpt>
      <trkpt lat="46.10014" lon="4.54451">
        <ele>623.6</ele>
        <time>2020-10-24T06:40:50Z</time>
      </trkpt>
      <trkpt lat="46.10011" lon="4.54449">
        <ele>623.8</ele>
        <time>2020-10-24T06:40:51Z</time>
      </trkpt>
      <trkpt lat="46.10011" lon="4.54449">
        <ele>624</ele>
        <time>2020-10-24T06:40:52Z</time>
      </trkpt>
      <trkpt lat="46.10009" lon="4.54447">
        <ele>624.2</ele>
        <time>2020-10-24T06:40:53Z</time>
      </trkpt>
      <trkpt lat="46.10009" lon="4.54447">
        <ele>624.4</ele>
        <time>2020-10-24T06:40:54Z</time>
      </trkpt>
      <trkpt lat="46.10008" lon="4.54447">
        <ele>624.6</ele>
        <time>2020-10-24T06:40:55Z</time>
      </trkpt>
      <trkpt lat="46.10008" lon="4.54447">
        <ele>624.6</ele>
        <time>2020-10-24T06:40:56Z</time>
      </trkpt>
      <trkpt lat="46.10005" lon="4.54445">
        <ele>625</ele>
        <time>2020-10-24T06:40:57Z</time>
      </trkpt>
      <trkpt lat="46.10005" lon="4.54445">
        <ele>625.4</ele>
        <time>2020-10-24T06:40:58Z</time>
      </trkpt>
      <trkpt lat="46.10003" lon="4.54444">
        <ele>625.6</ele>
        <time>2020-10-24T06:40:59Z</time>
      </trkpt>
      <trkpt lat="46.10003" lon="4.54444">
        <ele>625.8</ele>
        <time>2020-10-24T06:41:00Z</time>
      </trkpt>
      <trkpt lat="46.1" lon="4.54443">
        <ele>626</ele>
        <time>2020-10-24T06:41:01Z</time>
      </trkpt>
      <trkpt lat="46.1" lon="4.54443">
        <ele>626.2</ele>
        <time>2020-10-24T06:41:02Z</time>
      </trkpt>
      <trkpt lat="46.09998" lon="4.54441">
        <ele>626.2</ele>
        <time>2020-10-24T06:41:03Z</time>
      </trkpt>
      <trkpt lat="46.09998" lon="4.54441">
        <ele>626.4</ele>
        <time>2020-10-24T06:41:04Z</time>
      </trkpt>
      <trkpt lat="46.09996" lon="4.5444">
        <ele>626.6</ele>
        <time>2020-10-24T06:41:05Z</time>
      </trkpt>
      <trkpt lat="46.09996" lon="4.5444">
        <ele>626.8</ele>
        <time>2020-10-24T06:41:06Z</time>
      </trkpt>
      <trkpt lat="46.09994" lon="4.54439">
        <ele>626.8</ele>
        <time>2020-10-24T06:41:07Z</time>
      </trkpt>
      <trkpt lat="46.09994" lon="4.54439">
        <ele>627.2</ele>
        <time>2020-10-24T06:41:08Z</time>
      </trkpt>
      <trkpt lat="46.09992" lon="4.54438">
        <ele>627.4</ele>
        <time>2020-10-24T06:41:09Z</time>
      </trkpt>
      <trkpt lat="46.09992" lon="4.54438">
        <ele>627.6</ele>
        <time>2020-10-24T06:41:10Z</time>
      </trkpt>
      <trkpt lat="46.09992" lon="4.54438">
        <ele>627.6</ele>
        <time>2020-10-24T06:41:11Z</time>
      </trkpt>
      <trkpt lat="46.0999" lon="4.54436">
        <ele>627.8</ele>
        <time>2020-10-24T06:41:12Z</time>
      </trkpt>
      <trkpt lat="46.0999" lon="4.54436">
        <ele>628</ele>
        <time>2020-10-24T06:41:13Z</time>
      </trkpt>
      <trkpt lat="46.09988" lon="4.54434">
        <ele>628.4</ele>
        <time>2020-10-24T06:41:14Z</time>
      </trkpt>
      <trkpt lat="46.09988" lon="4.54434">
        <ele>628.6</ele>
        <time>2020-10-24T06:41:15Z</time>
      </trkpt>
      <trkpt lat="46.09986" lon="4.54431">
        <ele>628.6</ele>
        <time>2020-10-24T06:41:16Z</time>
      </trkpt>
      <trkpt lat="46.09986" lon="4.54431">
        <ele>628.8</ele>
        <time>2020-10-24T06:41:17Z</time>
      </trkpt>
      <trkpt lat="46.09984" lon="4.5443">
        <ele>629.2</ele>
        <time>2020-10-24T06:41:18Z</time>
      </trkpt>
      <trkpt lat="46.09984" lon="4.5443">
        <ele>629.4</ele>
        <time>2020-10-24T06:41:19Z</time>
      </trkpt>
      <trkpt lat="46.09982" lon="4.54428">
        <ele>629.6</ele>
        <time>2020-10-24T06:41:20Z</time>
      </trkpt>
      <trkpt lat="46.09982" lon="4.54428">
        <ele>629.8</ele>
        <time>2020-10-24T06:41:21Z</time>
      </trkpt>
      <trkpt lat="46.09979" lon="4.54424">
        <ele>630</ele>
        <time>2020-10-24T06:41:22Z</time>
      </trkpt>
      <trkpt lat="46.09979" lon="4.54424">
        <ele>630.2</ele>
        <time>2020-10-24T06:41:23Z</time>
      </trkpt>
      <trkpt lat="46.09977" lon="4.54422">
        <ele>630.6</ele>
        <time>2020-10-24T06:41:24Z</time>
      </trkpt>
      <trkpt lat="46.09977" lon="4.54422">
        <ele>631</ele>
        <time>2020-10-24T06:41:25Z</time>
      </trkpt>
      <trkpt lat="46.09974" lon="4.54419">
        <ele>631.4</ele>
        <time>2020-10-24T06:41:26Z</time>
      </trkpt>
      <trkpt lat="46.09974" lon="4.54419">
        <ele>631.6</ele>
        <time>2020-10-24T06:41:27Z</time>
      </trkpt>
      <trkpt lat="46.09971" lon="4.54418">
        <ele>631.8</ele>
        <time>2020-10-24T06:41:28Z</time>
      </trkpt>
      <trkpt lat="46.09971" lon="4.54418">
        <ele>632</ele>
        <time>2020-10-24T06:41:29Z</time>
      </trkpt>
      <trkpt lat="46.09968" lon="4.54416">
        <ele>632</ele>
        <time>2020-10-24T06:41:30Z</time>
      </trkpt>
      <trkpt lat="46.09968" lon="4.54416">
        <ele>632</ele>
        <time>2020-10-24T06:41:31Z</time>
      </trkpt>
      <trkpt lat="46.09965" lon="4.54415">
        <ele>632.4</ele>
        <time>2020-10-24T06:41:32Z</time>
      </trkpt>
      <trkpt lat="46.09965" lon="4.54415">
        <ele>632.8</ele>
        <time>2020-10-24T06:41:33Z</time>
      </trkpt>
      <trkpt lat="46.09963" lon="4.54413">
        <ele>633</ele>
        <time>2020-10-24T06:41:34Z</time>
      </trkpt>
      <trkpt lat="46.09963" lon="4.54413">
        <ele>633.2</ele>
        <time>2020-10-24T06:41:35Z</time>
      </trkpt>
      <trkpt lat="46.0996" lon="4.54412">
        <ele>633.4</ele>
        <time>2020-10-24T06:41:36Z</time>
      </trkpt>
      <trkpt lat="46.0996" lon="4.54412">
        <ele>633.8</ele>
        <time>2020-10-24T06:41:37Z</time>
      </trkpt>
      <trkpt lat="46.09958" lon="4.54409">
        <ele>634</ele>
        <time>2020-10-24T06:41:38Z</time>
      </trkpt>
      <trkpt lat="46.09958" lon="4.54409">
        <ele>634.4</ele>
        <time>2020-10-24T06:41:39Z</time>
      </trkpt>
      <trkpt lat="46.09956" lon="4.54407">
        <ele>634.4</ele>
        <time>2020-10-24T06:41:40Z</time>
      </trkpt>
      <trkpt lat="46.09956" lon="4.54407">
        <ele>634.6</ele>
        <time>2020-10-24T06:41:41Z</time>
      </trkpt>
      <trkpt lat="46.09953" lon="4.54407">
        <ele>634.8</ele>
        <time>2020-10-24T06:41:42Z</time>
      </trkpt>
      <trkpt lat="46.09953" lon="4.54407">
        <ele>635.2</ele>
        <time>2020-10-24T06:41:43Z</time>
      </trkpt>
      <trkpt lat="46.09951" lon="4.54407">
        <ele>635.2</ele>
        <time>2020-10-24T06:41:44Z</time>
      </trkpt>
      <trkpt lat="46.09951" lon="4.54407">
        <ele>635.4</ele>
        <time>2020-10-24T06:41:45Z</time>
      </trkpt>
      <trkpt lat="46.09948" lon="4.54407">
        <ele>635.8</ele>
        <time>2020-10-24T06:41:46Z</time>
      </trkpt>
      <trkpt lat="46.09948" lon="4.54407">
        <ele>636</ele>
        <time>2020-10-24T06:41:47Z</time>
      </trkpt>
      <trkpt lat="46.09945" lon="4.54406">
        <ele>636.2</ele>
        <time>2020-10-24T06:41:48Z</time>
      </trkpt>
      <trkpt lat="46.09945" lon="4.54406">
        <ele>636.4</ele>
        <time>2020-10-24T06:41:49Z</time>
      </trkpt>
      <trkpt lat="46.09943" lon="4.54405">
        <ele>636.4</ele>
        <time>2020-10-24T06:41:50Z</time>
      </trkpt>
      <trkpt lat="46.09943" lon="4.54405">
        <ele>636.8</ele>
        <time>2020-10-24T06:41:51Z</time>
      </trkpt>
      <trkpt lat="46.0994" lon="4.54404">
        <ele>637</ele>
        <time>2020-10-24T06:41:52Z</time>
      </trkpt>
      <trkpt lat="46.0994" lon="4.54404">
        <ele>637.2</ele>
        <time>2020-10-24T06:41:53Z</time>
      </trkpt>
      <trkpt lat="46.09938" lon="4.54403">
        <ele>637.4</ele>
        <time>2020-10-24T06:41:54Z</time>
      </trkpt>
      <trkpt lat="46.09938" lon="4.54403">
        <ele>637.6</ele>
        <time>2020-10-24T06:41:55Z</time>
      </trkpt>
      <trkpt lat="46.09936" lon="4.54402">
        <ele>637.6</ele>
        <time>2020-10-24T06:41:56Z</time>
      </trkpt>
      <trkpt lat="46.09936" lon="4.54402">
        <ele>638</ele>
        <time>2020-10-24T06:41:57Z</time>
      </trkpt>
      <trkpt lat="46.09934" lon="4.54401">
        <ele>638.2</ele>
        <time>2020-10-24T06:41:58Z</time>
      </trkpt>
      <trkpt lat="46.09934" lon="4.54401">
        <ele>638.4</ele>
        <time>2020-10-24T06:41:59Z</time>
      </trkpt>
      <trkpt lat="46.09932" lon="4.544">
        <ele>638.6</ele>
        <time>2020-10-24T06:42:00Z</time>
      </trkpt>
      <trkpt lat="46.09932" lon="4.544">
        <ele>638.6</ele>
        <time>2020-10-24T06:42:01Z</time>
      </trkpt>
      <trkpt lat="46.09932" lon="4.544">
        <ele>638.8</ele>
        <time>2020-10-24T06:42:02Z</time>
      </trkpt>
      <trkpt lat="46.09932" lon="4.544">
        <ele>639</ele>
        <time>2020-10-24T06:42:03Z</time>
      </trkpt>
      <trkpt lat="46.09928" lon="4.54399">
        <ele>639.2</ele>
        <time>2020-10-24T06:42:04Z</time>
      </trkpt>
      <trkpt lat="46.09926" lon="4.54398">
        <ele>639.2</ele>
        <time>2020-10-24T06:42:05Z</time>
      </trkpt>
      <trkpt lat="46.09926" lon="4.54398">
        <ele>639.2</ele>
        <time>2020-10-24T06:42:06Z</time>
      </trkpt>
      <trkpt lat="46.09924" lon="4.54396">
        <ele>639.4</ele>
        <time>2020-10-24T06:42:07Z</time>
      </trkpt>
      <trkpt lat="46.09924" lon="4.54396">
        <ele>639.6</ele>
        <time>2020-10-24T06:42:08Z</time>
      </trkpt>
      <trkpt lat="46.09922" lon="4.54395">
        <ele>640</ele>
        <time>2020-10-24T06:42:09Z</time>
      </trkpt>
      <trkpt lat="46.09922" lon="4.54395">
        <ele>640.2</ele>
        <time>2020-10-24T06:42:10Z</time>
      </trkpt>
      <trkpt lat="46.0992" lon="4.54393">
        <ele>640.2</ele>
        <time>2020-10-24T06:42:11Z</time>
      </trkpt>
      <trkpt lat="46.0992" lon="4.54393">
        <ele>640.2</ele>
        <time>2020-10-24T06:42:12Z</time>
      </trkpt>
      <trkpt lat="46.0992" lon="4.54393">
        <ele>640.6</ele>
        <time>2020-10-24T06:42:13Z</time>
      </trkpt>
      <trkpt lat="46.09917" lon="4.54391">
        <ele>640.8</ele>
        <time>2020-10-24T06:42:14Z</time>
      </trkpt>
      <trkpt lat="46.09917" lon="4.54391">
        <ele>641</ele>
        <time>2020-10-24T06:42:15Z</time>
      </trkpt>
      <trkpt lat="46.09915" lon="4.54389">
        <ele>641</ele>
        <time>2020-10-24T06:42:16Z</time>
      </trkpt>
      <trkpt lat="46.09915" lon="4.54389">
        <ele>641.2</ele>
        <time>2020-10-24T06:42:17Z</time>
      </trkpt>
      <trkpt lat="46.09912" lon="4.54386">
        <ele>641.6</ele>
        <time>2020-10-24T06:42:18Z</time>
      </trkpt>
      <trkpt lat="46.09911" lon="4.54383">
        <ele>641.6</ele>
        <time>2020-10-24T06:42:19Z</time>
      </trkpt>
      <trkpt lat="46.09911" lon="4.54383">
        <ele>641.8</ele>
        <time>2020-10-24T06:42:20Z</time>
      </trkpt>
      <trkpt lat="46.09909" lon="4.54381">
        <ele>642</ele>
        <time>2020-10-24T06:42:21Z</time>
      </trkpt>
      <trkpt lat="46.09909" lon="4.54381">
        <ele>642</ele>
        <time>2020-10-24T06:42:22Z</time>
      </trkpt>
      <trkpt lat="46.09908" lon="4.54378">
        <ele>642.2</ele>
        <time>2020-10-24T06:42:23Z</time>
      </trkpt>
      <trkpt lat="46.09908" lon="4.54378">
        <ele>642.4</ele>
        <time>2020-10-24T06:42:24Z</time>
      </trkpt>
      <trkpt lat="46.09905" lon="4.54377">
        <ele>642.6</ele>
        <time>2020-10-24T06:42:25Z</time>
      </trkpt>
      <trkpt lat="46.09905" lon="4.54377">
        <ele>642.6</ele>
        <time>2020-10-24T06:42:26Z</time>
      </trkpt>
      <trkpt lat="46.09903" lon="4.54376">
        <ele>642.8</ele>
        <time>2020-10-24T06:42:27Z</time>
      </trkpt>
      <trkpt lat="46.09903" lon="4.54376">
        <ele>643</ele>
        <time>2020-10-24T06:42:28Z</time>
      </trkpt>
      <trkpt lat="46.09901" lon="4.54373">
        <ele>643.2</ele>
        <time>2020-10-24T06:42:29Z</time>
      </trkpt>
      <trkpt lat="46.09901" lon="4.54373">
        <ele>643.6</ele>
        <time>2020-10-24T06:42:30Z</time>
      </trkpt>
      <trkpt lat="46.09898" lon="4.54371">
        <ele>644</ele>
        <time>2020-10-24T06:42:31Z</time>
      </trkpt>
      <trkpt lat="46.09898" lon="4.54371">
        <ele>644.2</ele>
        <time>2020-10-24T06:42:32Z</time>
      </trkpt>
      <trkpt lat="46.09896" lon="4.54368">
        <ele>644.6</ele>
        <time>2020-10-24T06:42:33Z</time>
      </trkpt>
      <trkpt lat="46.09896" lon="4.54368">
        <ele>645</ele>
        <time>2020-10-24T06:42:34Z</time>
      </trkpt>
      <trkpt lat="46.09894" lon="4.54367">
        <ele>645.2</ele>
        <time>2020-10-24T06:42:35Z</time>
      </trkpt>
      <trkpt lat="46.09894" lon="4.54367">
        <ele>645.2</ele>
        <time>2020-10-24T06:42:36Z</time>
      </trkpt>
      <trkpt lat="46.09892" lon="4.54366">
        <ele>645.2</ele>
        <time>2020-10-24T06:42:37Z</time>
      </trkpt>
      <trkpt lat="46.09892" lon="4.54366">
        <ele>645.4</ele>
        <time>2020-10-24T06:42:38Z</time>
      </trkpt>
      <trkpt lat="46.0989" lon="4.54364">
        <ele>645.6</ele>
        <time>2020-10-24T06:42:39Z</time>
      </trkpt>
      <trkpt lat="46.0989" lon="4.54364">
        <ele>646.2</ele>
        <time>2020-10-24T06:42:40Z</time>
      </trkpt>
      <trkpt lat="46.09888" lon="4.54363">
        <ele>647</ele>
        <time>2020-10-24T06:42:41Z</time>
      </trkpt>
      <trkpt lat="46.09888" lon="4.54363">
        <ele>646.8</ele>
        <time>2020-10-24T06:42:42Z</time>
      </trkpt>
      <trkpt lat="46.09885" lon="4.54361">
        <ele>647</ele>
        <time>2020-10-24T06:42:43Z</time>
      </trkpt>
      <trkpt lat="46.09885" lon="4.54361">
        <ele>647</ele>
        <time>2020-10-24T06:42:44Z</time>
      </trkpt>
      <trkpt lat="46.09883" lon="4.5436">
        <ele>647</ele>
        <time>2020-10-24T06:42:45Z</time>
      </trkpt>
      <trkpt lat="46.09883" lon="4.5436">
        <ele>647.2</ele>
        <time>2020-10-24T06:42:46Z</time>
      </trkpt>
      <trkpt lat="46.09881" lon="4.54359">
        <ele>647.6</ele>
        <time>2020-10-24T06:42:47Z</time>
      </trkpt>
      <trkpt lat="46.09881" lon="4.54359">
        <ele>647.8</ele>
        <time>2020-10-24T06:42:48Z</time>
      </trkpt>
      <trkpt lat="46.09881" lon="4.54359">
        <ele>647.8</ele>
        <time>2020-10-24T06:42:49Z</time>
      </trkpt>
      <trkpt lat="46.09878" lon="4.54357">
        <ele>648.2</ele>
        <time>2020-10-24T06:42:50Z</time>
      </trkpt>
      <trkpt lat="46.09876" lon="4.54355">
        <ele>648.2</ele>
        <time>2020-10-24T06:42:51Z</time>
      </trkpt>
      <trkpt lat="46.09876" lon="4.54355">
        <ele>648.4</ele>
        <time>2020-10-24T06:42:52Z</time>
      </trkpt>
      <trkpt lat="46.09874" lon="4.54353">
        <ele>648.4</ele>
        <time>2020-10-24T06:42:53Z</time>
      </trkpt>
      <trkpt lat="46.09874" lon="4.54353">
        <ele>648.4</ele>
        <time>2020-10-24T06:42:54Z</time>
      </trkpt>
      <trkpt lat="46.09872" lon="4.54353">
        <ele>648.8</ele>
        <time>2020-10-24T06:42:55Z</time>
      </trkpt>
      <trkpt lat="46.09872" lon="4.54353">
        <ele>648.8</ele>
        <time>2020-10-24T06:42:56Z</time>
      </trkpt>
      <trkpt lat="46.0987" lon="4.54351">
        <ele>649</ele>
        <time>2020-10-24T06:42:57Z</time>
      </trkpt>
      <trkpt lat="46.0987" lon="4.54351">
        <ele>649.4</ele>
        <time>2020-10-24T06:42:58Z</time>
      </trkpt>
      <trkpt lat="46.09869" lon="4.5435">
        <ele>649.4</ele>
        <time>2020-10-24T06:42:59Z</time>
      </trkpt>
      <trkpt lat="46.09869" lon="4.5435">
        <ele>649.8</ele>
        <time>2020-10-24T06:43:00Z</time>
      </trkpt>
      <trkpt lat="46.09866" lon="4.5435">
        <ele>649.8</ele>
        <time>2020-10-24T06:43:01Z</time>
      </trkpt>
      <trkpt lat="46.09866" lon="4.5435">
        <ele>649.8</ele>
        <time>2020-10-24T06:43:02Z</time>
      </trkpt>
      <trkpt lat="46.09864" lon="4.54348">
        <ele>650</ele>
        <time>2020-10-24T06:43:03Z</time>
      </trkpt>
      <trkpt lat="46.09864" lon="4.54348">
        <ele>650.4</ele>
        <time>2020-10-24T06:43:04Z</time>
      </trkpt>
      <trkpt lat="46.09862" lon="4.54346">
        <ele>650.8</ele>
        <time>2020-10-24T06:43:05Z</time>
      </trkpt>
      <trkpt lat="46.0986" lon="4.54344">
        <ele>651</ele>
        <time>2020-10-24T06:43:06Z</time>
      </trkpt>
      <trkpt lat="46.0986" lon="4.54344">
        <ele>651</ele>
        <time>2020-10-24T06:43:07Z</time>
      </trkpt>
      <trkpt lat="46.09858" lon="4.54342">
        <ele>651.2</ele>
        <time>2020-10-24T06:43:08Z</time>
      </trkpt>
      <trkpt lat="46.09858" lon="4.54342">
        <ele>651.2</ele>
        <time>2020-10-24T06:43:09Z</time>
      </trkpt>
      <trkpt lat="46.09855" lon="4.5434">
        <ele>651.2</ele>
        <time>2020-10-24T06:43:10Z</time>
      </trkpt>
      <trkpt lat="46.09855" lon="4.5434">
        <ele>651.4</ele>
        <time>2020-10-24T06:43:11Z</time>
      </trkpt>
      <trkpt lat="46.09852" lon="4.54338">
        <ele>651.6</ele>
        <time>2020-10-24T06:43:12Z</time>
      </trkpt>
      <trkpt lat="46.0985" lon="4.54337">
        <ele>651.6</ele>
        <time>2020-10-24T06:43:13Z</time>
      </trkpt>
      <trkpt lat="46.09849" lon="4.54336">
        <ele>652</ele>
        <time>2020-10-24T06:43:14Z</time>
      </trkpt>
      <trkpt lat="46.09847" lon="4.54334">
        <ele>652</ele>
        <time>2020-10-24T06:43:15Z</time>
      </trkpt>
      <trkpt lat="46.09845" lon="4.54333">
        <ele>652.4</ele>
        <time>2020-10-24T06:43:16Z</time>
      </trkpt>
      <trkpt lat="46.09845" lon="4.54333">
        <ele>652.4</ele>
        <time>2020-10-24T06:43:17Z</time>
      </trkpt>
      <trkpt lat="46.09843" lon="4.54331">
        <ele>652.6</ele>
        <time>2020-10-24T06:43:18Z</time>
      </trkpt>
      <trkpt lat="46.09843" lon="4.54331">
        <ele>652.6</ele>
        <time>2020-10-24T06:43:19Z</time>
      </trkpt>
      <trkpt lat="46.0984" lon="4.54331">
        <ele>653</ele>
        <time>2020-10-24T06:43:20Z</time>
      </trkpt>
      <trkpt lat="46.0984" lon="4.54331">
        <ele>653</ele>
        <time>2020-10-24T06:43:21Z</time>
      </trkpt>
      <trkpt lat="46.09838" lon="4.5433">
        <ele>653.2</ele>
        <time>2020-10-24T06:43:22Z</time>
      </trkpt>
      <trkpt lat="46.09838" lon="4.5433">
        <ele>653.4</ele>
        <time>2020-10-24T06:43:23Z</time>
      </trkpt>
      <trkpt lat="46.09835" lon="4.54329">
        <ele>653.4</ele>
        <time>2020-10-24T06:43:24Z</time>
      </trkpt>
      <trkpt lat="46.09835" lon="4.54329">
        <ele>653.2</ele>
        <time>2020-10-24T06:43:25Z</time>
      </trkpt>
      <trkpt lat="46.09832" lon="4.54327">
        <ele>653.4</ele>
        <time>2020-10-24T06:43:26Z</time>
      </trkpt>
      <trkpt lat="46.09832" lon="4.54327">
        <ele>653.6</ele>
        <time>2020-10-24T06:43:27Z</time>
      </trkpt>
      <trkpt lat="46.0983" lon="4.54325">
        <ele>653.8</ele>
        <time>2020-10-24T06:43:28Z</time>
      </trkpt>
      <trkpt lat="46.0983" lon="4.54325">
        <ele>654.2</ele>
        <time>2020-10-24T06:43:29Z</time>
      </trkpt>
      <trkpt lat="46.09829" lon="4.54324">
        <ele>654.4</ele>
        <time>2020-10-24T06:43:30Z</time>
      </trkpt>
      <trkpt lat="46.09829" lon="4.54324">
        <ele>654.6</ele>
        <time>2020-10-24T06:43:31Z</time>
      </trkpt>
      <trkpt lat="46.09826" lon="4.54323">
        <ele>654.8</ele>
        <time>2020-10-24T06:43:32Z</time>
      </trkpt>
      <trkpt lat="46.09826" lon="4.54323">
        <ele>654.8</ele>
        <time>2020-10-24T06:43:33Z</time>
      </trkpt>
      <trkpt lat="46.09822" lon="4.54321">
        <ele>654.8</ele>
        <time>2020-10-24T06:43:34Z</time>
      </trkpt>
      <trkpt lat="46.09822" lon="4.54321">
        <ele>654.8</ele>
        <time>2020-10-24T06:43:35Z</time>
      </trkpt>
      <trkpt lat="46.0982" lon="4.5432">
        <ele>655</ele>
        <time>2020-10-24T06:43:36Z</time>
      </trkpt>
      <trkpt lat="46.0982" lon="4.5432">
        <ele>655</ele>
        <time>2020-10-24T06:43:37Z</time>
      </trkpt>
      <trkpt lat="46.09817" lon="4.54318">
        <ele>655.2</ele>
        <time>2020-10-24T06:43:38Z</time>
      </trkpt>
      <trkpt lat="46.09815" lon="4.54316">
        <ele>655.4</ele>
        <time>2020-10-24T06:43:39Z</time>
      </trkpt>
      <trkpt lat="46.09815" lon="4.54316">
        <ele>655.4</ele>
        <time>2020-10-24T06:43:40Z</time>
      </trkpt>
      <trkpt lat="46.09812" lon="4.54314">
        <ele>655.6</ele>
        <time>2020-10-24T06:43:41Z</time>
      </trkpt>
      <trkpt lat="46.0981" lon="4.54313">
        <ele>655.6</ele>
        <time>2020-10-24T06:43:42Z</time>
      </trkpt>
      <trkpt lat="46.09808" lon="4.54311">
        <ele>655.8</ele>
        <time>2020-10-24T06:43:43Z</time>
      </trkpt>
      <trkpt lat="46.09806" lon="4.5431">
        <ele>656</ele>
        <time>2020-10-24T06:43:44Z</time>
      </trkpt>
      <trkpt lat="46.09804" lon="4.54308">
        <ele>656.2</ele>
        <time>2020-10-24T06:43:45Z</time>
      </trkpt>
      <trkpt lat="46.09804" lon="4.54308">
        <ele>656.4</ele>
        <time>2020-10-24T06:43:46Z</time>
      </trkpt>
      <trkpt lat="46.09801" lon="4.54306">
        <ele>656.6</ele>
        <time>2020-10-24T06:43:47Z</time>
      </trkpt>
      <trkpt lat="46.09799" lon="4.54305">
        <ele>656.8</ele>
        <time>2020-10-24T06:43:48Z</time>
      </trkpt>
      <trkpt lat="46.09799" lon="4.54305">
        <ele>657</ele>
        <time>2020-10-24T06:43:49Z</time>
      </trkpt>
      <trkpt lat="46.09797" lon="4.54304">
        <ele>657.2</ele>
        <time>2020-10-24T06:43:50Z</time>
      </trkpt>
      <trkpt lat="46.09797" lon="4.54304">
        <ele>657</ele>
        <time>2020-10-24T06:43:51Z</time>
      </trkpt>
      <trkpt lat="46.09794" lon="4.54303">
        <ele>657.2</ele>
        <time>2020-10-24T06:43:52Z</time>
      </trkpt>
      <trkpt lat="46.09794" lon="4.54303">
        <ele>657.4</ele>
        <time>2020-10-24T06:43:53Z</time>
      </trkpt>
      <trkpt lat="46.09791" lon="4.54301">
        <ele>657.8</ele>
        <time>2020-10-24T06:43:54Z</time>
      </trkpt>
      <trkpt lat="46.09791" lon="4.54301">
        <ele>658</ele>
        <time>2020-10-24T06:43:55Z</time>
      </trkpt>
      <trkpt lat="46.09788" lon="4.54301">
        <ele>658</ele>
        <time>2020-10-24T06:43:56Z</time>
      </trkpt>
      <trkpt lat="46.09788" lon="4.54301">
        <ele>658</ele>
        <time>2020-10-24T06:43:57Z</time>
      </trkpt>
      <trkpt lat="46.09786" lon="4.543">
        <ele>658.2</ele>
        <time>2020-10-24T06:43:58Z</time>
      </trkpt>
      <trkpt lat="46.09786" lon="4.543">
        <ele>658.6</ele>
        <time>2020-10-24T06:43:59Z</time>
      </trkpt>
      <trkpt lat="46.09783" lon="4.54299">
        <ele>658.8</ele>
        <time>2020-10-24T06:44:00Z</time>
      </trkpt>
      <trkpt lat="46.09783" lon="4.54299">
        <ele>659</ele>
        <time>2020-10-24T06:44:01Z</time>
      </trkpt>
      <trkpt lat="46.09781" lon="4.54298">
        <ele>659.6</ele>
        <time>2020-10-24T06:44:02Z</time>
      </trkpt>
      <trkpt lat="46.09781" lon="4.54298">
        <ele>660</ele>
        <time>2020-10-24T06:44:03Z</time>
      </trkpt>
      <trkpt lat="46.09779" lon="4.54295">
        <ele>660.4</ele>
        <time>2020-10-24T06:44:04Z</time>
      </trkpt>
      <trkpt lat="46.09779" lon="4.54295">
        <ele>660.4</ele>
        <time>2020-10-24T06:44:05Z</time>
      </trkpt>
      <trkpt lat="46.09776" lon="4.54293">
        <ele>660.2</ele>
        <time>2020-10-24T06:44:06Z</time>
      </trkpt>
      <trkpt lat="46.09776" lon="4.54293">
        <ele>660.4</ele>
        <time>2020-10-24T06:44:07Z</time>
      </trkpt>
      <trkpt lat="46.09774" lon="4.54293">
        <ele>660.8</ele>
        <time>2020-10-24T06:44:08Z</time>
      </trkpt>
      <trkpt lat="46.09774" lon="4.54293">
        <ele>661</ele>
        <time>2020-10-24T06:44:09Z</time>
      </trkpt>
      <trkpt lat="46.09772" lon="4.54293">
        <ele>661</ele>
        <time>2020-10-24T06:44:10Z</time>
      </trkpt>
      <trkpt lat="46.09772" lon="4.54293">
        <ele>661.2</ele>
        <time>2020-10-24T06:44:11Z</time>
      </trkpt>
      <trkpt lat="46.09772" lon="4.54293">
        <ele>661.4</ele>
        <time>2020-10-24T06:44:12Z</time>
      </trkpt>
      <trkpt lat="46.09769" lon="4.5429">
        <ele>661.6</ele>
        <time>2020-10-24T06:44:13Z</time>
      </trkpt>
      <trkpt lat="46.09769" lon="4.5429">
        <ele>661.8</ele>
        <time>2020-10-24T06:44:14Z</time>
      </trkpt>
      <trkpt lat="46.09768" lon="4.54288">
        <ele>662</ele>
        <time>2020-10-24T06:44:15Z</time>
      </trkpt>
      <trkpt lat="46.09768" lon="4.54288">
        <ele>662.4</ele>
        <time>2020-10-24T06:44:16Z</time>
      </trkpt>
      <trkpt lat="46.09766" lon="4.54286">
        <ele>662.6</ele>
        <time>2020-10-24T06:44:17Z</time>
      </trkpt>
      <trkpt lat="46.09766" lon="4.54286">
        <ele>663</ele>
        <time>2020-10-24T06:44:18Z</time>
      </trkpt>
      <trkpt lat="46.09763" lon="4.54285">
        <ele>663.2</ele>
        <time>2020-10-24T06:44:19Z</time>
      </trkpt>
      <trkpt lat="46.09763" lon="4.54285">
        <ele>663.4</ele>
        <time>2020-10-24T06:44:20Z</time>
      </trkpt>
      <trkpt lat="46.09761" lon="4.54284">
        <ele>663.6</ele>
        <time>2020-10-24T06:44:21Z</time>
      </trkpt>
      <trkpt lat="46.09761" lon="4.54284">
        <ele>663.6</ele>
        <time>2020-10-24T06:44:22Z</time>
      </trkpt>
      <trkpt lat="46.09758" lon="4.54284">
        <ele>664</ele>
        <time>2020-10-24T06:44:23Z</time>
      </trkpt>
      <trkpt lat="46.09758" lon="4.54284">
        <ele>664</ele>
        <time>2020-10-24T06:44:24Z</time>
      </trkpt>
      <trkpt lat="46.09756" lon="4.54282">
        <ele>664</ele>
        <time>2020-10-24T06:44:25Z</time>
      </trkpt>
      <trkpt lat="46.09756" lon="4.54282">
        <ele>664.2</ele>
        <time>2020-10-24T06:44:26Z</time>
      </trkpt>
      <trkpt lat="46.09753" lon="4.5428">
        <ele>664.4</ele>
        <time>2020-10-24T06:44:27Z</time>
      </trkpt>
      <trkpt lat="46.09753" lon="4.5428">
        <ele>664.8</ele>
        <time>2020-10-24T06:44:28Z</time>
      </trkpt>
      <trkpt lat="46.09751" lon="4.54278">
        <ele>664.8</ele>
        <time>2020-10-24T06:44:29Z</time>
      </trkpt>
      <trkpt lat="46.09751" lon="4.54278">
        <ele>665.2</ele>
        <time>2020-10-24T06:44:30Z</time>
      </trkpt>
      <trkpt lat="46.09748" lon="4.54277">
        <ele>665.6</ele>
        <time>2020-10-24T06:44:31Z</time>
      </trkpt>
      <trkpt lat="46.09748" lon="4.54277">
        <ele>666</ele>
        <time>2020-10-24T06:44:32Z</time>
      </trkpt>
      <trkpt lat="46.09745" lon="4.54275">
        <ele>666.2</ele>
        <time>2020-10-24T06:44:33Z</time>
      </trkpt>
      <trkpt lat="46.09745" lon="4.54275">
        <ele>666.6</ele>
        <time>2020-10-24T06:44:34Z</time>
      </trkpt>
      <trkpt lat="46.09743" lon="4.54274">
        <ele>667</ele>
        <time>2020-10-24T06:44:35Z</time>
      </trkpt>
      <trkpt lat="46.09743" lon="4.54274">
        <ele>667.2</ele>
        <time>2020-10-24T06:44:36Z</time>
      </trkpt>
      <trkpt lat="46.0974" lon="4.54271">
        <ele>667.4</ele>
        <time>2020-10-24T06:44:37Z</time>
      </trkpt>
      <trkpt lat="46.0974" lon="4.54271">
        <ele>667.6</ele>
        <time>2020-10-24T06:44:38Z</time>
      </trkpt>
      <trkpt lat="46.0974" lon="4.54271">
        <ele>667.8</ele>
        <time>2020-10-24T06:44:39Z</time>
      </trkpt>
      <trkpt lat="46.09738" lon="4.54268">
        <ele>668.2</ele>
        <time>2020-10-24T06:44:40Z</time>
      </trkpt>
      <trkpt lat="46.09737" lon="4.54266">
        <ele>668.6</ele>
        <time>2020-10-24T06:44:41Z</time>
      </trkpt>
      <trkpt lat="46.09737" lon="4.54266">
        <ele>669</ele>
        <time>2020-10-24T06:44:42Z</time>
      </trkpt>
      <trkpt lat="46.09736" lon="4.54263">
        <ele>669.2</ele>
        <time>2020-10-24T06:44:43Z</time>
      </trkpt>
      <trkpt lat="46.09736" lon="4.54263">
        <ele>669.6</ele>
        <time>2020-10-24T06:44:44Z</time>
      </trkpt>
      <trkpt lat="46.09735" lon="4.5426">
        <ele>670</ele>
        <time>2020-10-24T06:44:45Z</time>
      </trkpt>
      <trkpt lat="46.09735" lon="4.5426">
        <ele>670.2</ele>
        <time>2020-10-24T06:44:46Z</time>
      </trkpt>
      <trkpt lat="46.09733" lon="4.54258">
        <ele>670.6</ele>
        <time>2020-10-24T06:44:47Z</time>
      </trkpt>
      <trkpt lat="46.09733" lon="4.54258">
        <ele>671</ele>
        <time>2020-10-24T06:44:48Z</time>
      </trkpt>
      <trkpt lat="46.09732" lon="4.54255">
        <ele>671.4</ele>
        <time>2020-10-24T06:44:49Z</time>
      </trkpt>
      <trkpt lat="46.09732" lon="4.54255">
        <ele>671.8</ele>
        <time>2020-10-24T06:44:50Z</time>
      </trkpt>
      <trkpt lat="46.0973" lon="4.54252">
        <ele>672</ele>
        <time>2020-10-24T06:44:51Z</time>
      </trkpt>
      <trkpt lat="46.0973" lon="4.54252">
        <ele>672.6</ele>
        <time>2020-10-24T06:44:52Z</time>
      </trkpt>
      <trkpt lat="46.09729" lon="4.54251">
        <ele>672.8</ele>
        <time>2020-10-24T06:44:53Z</time>
      </trkpt>
      <trkpt lat="46.09729" lon="4.54251">
        <ele>672.8</ele>
        <time>2020-10-24T06:44:54Z</time>
      </trkpt>
      <trkpt lat="46.09728" lon="4.54247">
        <ele>672.8</ele>
        <time>2020-10-24T06:44:55Z</time>
      </trkpt>
      <trkpt lat="46.09728" lon="4.54247">
        <ele>672.8</ele>
        <time>2020-10-24T06:44:56Z</time>
      </trkpt>
      <trkpt lat="46.09727" lon="4.54243">
        <ele>673.2</ele>
        <time>2020-10-24T06:44:57Z</time>
      </trkpt>
      <trkpt lat="46.09727" lon="4.54243">
        <ele>673.4</ele>
        <time>2020-10-24T06:44:58Z</time>
      </trkpt>
      <trkpt lat="46.09727" lon="4.54239">
        <ele>673.6</ele>
        <time>2020-10-24T06:44:59Z</time>
      </trkpt>
      <trkpt lat="46.09727" lon="4.54239">
        <ele>674</ele>
        <time>2020-10-24T06:45:00Z</time>
      </trkpt>
      <trkpt lat="46.09727" lon="4.54234">
        <ele>674.2</ele>
        <time>2020-10-24T06:45:01Z</time>
      </trkpt>
      <trkpt lat="46.09727" lon="4.54234">
        <ele>674.6</ele>
        <time>2020-10-24T06:45:02Z</time>
      </trkpt>
      <trkpt lat="46.09727" lon="4.5423">
        <ele>675</ele>
        <time>2020-10-24T06:45:03Z</time>
      </trkpt>
      <trkpt lat="46.09727" lon="4.5423">
        <ele>675</ele>
        <time>2020-10-24T06:45:04Z</time>
      </trkpt>
      <trkpt lat="46.09728" lon="4.54226">
        <ele>675</ele>
        <time>2020-10-24T06:45:05Z</time>
      </trkpt>
      <trkpt lat="46.09728" lon="4.54226">
        <ele>675.2</ele>
        <time>2020-10-24T06:45:06Z</time>
      </trkpt>
      <trkpt lat="46.09728" lon="4.54221">
        <ele>675.4</ele>
        <time>2020-10-24T06:45:07Z</time>
      </trkpt>
      <trkpt lat="46.09728" lon="4.54221">
        <ele>675.6</ele>
        <time>2020-10-24T06:45:08Z</time>
      </trkpt>
      <trkpt lat="46.09727" lon="4.54217">
        <ele>675.6</ele>
        <time>2020-10-24T06:45:09Z</time>
      </trkpt>
      <trkpt lat="46.09727" lon="4.54217">
        <ele>675.8</ele>
        <time>2020-10-24T06:45:10Z</time>
      </trkpt>
      <trkpt lat="46.09724" lon="4.54214">
        <ele>675.8</ele>
        <time>2020-10-24T06:45:11Z</time>
      </trkpt>
      <trkpt lat="46.09724" lon="4.54214">
        <ele>676</ele>
        <time>2020-10-24T06:45:12Z</time>
      </trkpt>
      <trkpt lat="46.09721" lon="4.54213">
        <ele>676.2</ele>
        <time>2020-10-24T06:45:13Z</time>
      </trkpt>
      <trkpt lat="46.0972" lon="4.54212">
        <ele>676.2</ele>
        <time>2020-10-24T06:45:14Z</time>
      </trkpt>
      <trkpt lat="46.0972" lon="4.54212">
        <ele>676.2</ele>
        <time>2020-10-24T06:45:15Z</time>
      </trkpt>
      <trkpt lat="46.09717" lon="4.54211">
        <ele>676</ele>
        <time>2020-10-24T06:45:16Z</time>
      </trkpt>
      <trkpt lat="46.09717" lon="4.54211">
        <ele>676.2</ele>
        <time>2020-10-24T06:45:17Z</time>
      </trkpt>
      <trkpt lat="46.09714" lon="4.54211">
        <ele>676</ele>
        <time>2020-10-24T06:45:18Z</time>
      </trkpt>
      <trkpt lat="46.09714" lon="4.54211">
        <ele>676.6</ele>
        <time>2020-10-24T06:45:19Z</time>
      </trkpt>
      <trkpt lat="46.09711" lon="4.54211">
        <ele>676.8</ele>
        <time>2020-10-24T06:45:20Z</time>
      </trkpt>
      <trkpt lat="46.09711" lon="4.54211">
        <ele>676.8</ele>
        <time>2020-10-24T06:45:21Z</time>
      </trkpt>
      <trkpt lat="46.09709" lon="4.54213">
        <ele>676.6</ele>
        <time>2020-10-24T06:45:22Z</time>
      </trkpt>
      <trkpt lat="46.09709" lon="4.54213">
        <ele>676.4</ele>
        <time>2020-10-24T06:45:23Z</time>
      </trkpt>
      <trkpt lat="46.09707" lon="4.54216">
        <ele>676.6</ele>
        <time>2020-10-24T06:45:24Z</time>
      </trkpt>
      <trkpt lat="46.09707" lon="4.54216">
        <ele>676.4</ele>
        <time>2020-10-24T06:45:25Z</time>
      </trkpt>
      <trkpt lat="46.09705" lon="4.54219">
        <ele>676.6</ele>
        <time>2020-10-24T06:45:26Z</time>
      </trkpt>
      <trkpt lat="46.09705" lon="4.54219">
        <ele>676.6</ele>
        <time>2020-10-24T06:45:27Z</time>
      </trkpt>
      <trkpt lat="46.09703" lon="4.54221">
        <ele>676.6</ele>
        <time>2020-10-24T06:45:28Z</time>
      </trkpt>
      <trkpt lat="46.09703" lon="4.54221">
        <ele>676.6</ele>
        <time>2020-10-24T06:45:29Z</time>
      </trkpt>
      <trkpt lat="46.09701" lon="4.54222">
        <ele>676.8</ele>
        <time>2020-10-24T06:45:30Z</time>
      </trkpt>
      <trkpt lat="46.09701" lon="4.54222">
        <ele>676.6</ele>
        <time>2020-10-24T06:45:31Z</time>
      </trkpt>
      <trkpt lat="46.097" lon="4.54225">
        <ele>676.8</ele>
        <time>2020-10-24T06:45:32Z</time>
      </trkpt>
      <trkpt lat="46.097" lon="4.54225">
        <ele>676.8</ele>
        <time>2020-10-24T06:45:33Z</time>
      </trkpt>
      <trkpt lat="46.097" lon="4.54229">
        <ele>677</ele>
        <time>2020-10-24T06:45:34Z</time>
      </trkpt>
      <trkpt lat="46.097" lon="4.54231">
        <ele>677.2</ele>
        <time>2020-10-24T06:45:35Z</time>
      </trkpt>
      <trkpt lat="46.097" lon="4.54232">
        <ele>677.2</ele>
        <time>2020-10-24T06:45:36Z</time>
      </trkpt>
      <trkpt lat="46.09699" lon="4.54234">
        <ele>677.2</ele>
        <time>2020-10-24T06:45:37Z</time>
      </trkpt>
      <trkpt lat="46.09697" lon="4.54238">
        <ele>677.4</ele>
        <time>2020-10-24T06:45:38Z</time>
      </trkpt>
      <trkpt lat="46.09696" lon="4.54239">
        <ele>677.6</ele>
        <time>2020-10-24T06:45:39Z</time>
      </trkpt>
      <trkpt lat="46.09696" lon="4.54239">
        <ele>677.6</ele>
        <time>2020-10-24T06:45:40Z</time>
      </trkpt>
      <trkpt lat="46.09694" lon="4.54242">
        <ele>677.6</ele>
        <time>2020-10-24T06:45:41Z</time>
      </trkpt>
      <trkpt lat="46.09694" lon="4.54242">
        <ele>677.6</ele>
        <time>2020-10-24T06:45:42Z</time>
      </trkpt>
      <trkpt lat="46.09692" lon="4.54245">
        <ele>677.8</ele>
        <time>2020-10-24T06:45:43Z</time>
      </trkpt>
      <trkpt lat="46.09692" lon="4.54245">
        <ele>678</ele>
        <time>2020-10-24T06:45:44Z</time>
      </trkpt>
      <trkpt lat="46.09689" lon="4.54249">
        <ele>678.2</ele>
        <time>2020-10-24T06:45:45Z</time>
      </trkpt>
      <trkpt lat="46.09689" lon="4.54249">
        <ele>678.2</ele>
        <time>2020-10-24T06:45:46Z</time>
      </trkpt>
      <trkpt lat="46.09687" lon="4.54252">
        <ele>678.4</ele>
        <time>2020-10-24T06:45:47Z</time>
      </trkpt>
      <trkpt lat="46.09687" lon="4.54252">
        <ele>678.4</ele>
        <time>2020-10-24T06:45:48Z</time>
      </trkpt>
      <trkpt lat="46.09684" lon="4.54254">
        <ele>678.6</ele>
        <time>2020-10-24T06:45:49Z</time>
      </trkpt>
      <trkpt lat="46.09682" lon="4.54256">
        <ele>678.8</ele>
        <time>2020-10-24T06:45:50Z</time>
      </trkpt>
      <trkpt lat="46.09682" lon="4.54256">
        <ele>679.2</ele>
        <time>2020-10-24T06:45:51Z</time>
      </trkpt>
      <trkpt lat="46.0968" lon="4.54258">
        <ele>679.6</ele>
        <time>2020-10-24T06:45:52Z</time>
      </trkpt>
      <trkpt lat="46.0968" lon="4.54258">
        <ele>679.6</ele>
        <time>2020-10-24T06:45:53Z</time>
      </trkpt>
      <trkpt lat="46.09677" lon="4.5426">
        <ele>679.8</ele>
        <time>2020-10-24T06:45:54Z</time>
      </trkpt>
      <trkpt lat="46.09677" lon="4.5426">
        <ele>680</ele>
        <time>2020-10-24T06:45:55Z</time>
      </trkpt>
      <trkpt lat="46.09675" lon="4.54262">
        <ele>680.2</ele>
        <time>2020-10-24T06:45:56Z</time>
      </trkpt>
      <trkpt lat="46.09675" lon="4.54262">
        <ele>680.2</ele>
        <time>2020-10-24T06:45:57Z</time>
      </trkpt>
      <trkpt lat="46.09673" lon="4.54263">
        <ele>680.4</ele>
        <time>2020-10-24T06:45:58Z</time>
      </trkpt>
      <trkpt lat="46.09673" lon="4.54263">
        <ele>680.2</ele>
        <time>2020-10-24T06:45:59Z</time>
      </trkpt>
      <trkpt lat="46.09671" lon="4.54265">
        <ele>680.2</ele>
        <time>2020-10-24T06:46:00Z</time>
      </trkpt>
      <trkpt lat="46.09671" lon="4.54265">
        <ele>680</ele>
        <time>2020-10-24T06:46:01Z</time>
      </trkpt>
      <trkpt lat="46.09669" lon="4.54266">
        <ele>680.2</ele>
        <time>2020-10-24T06:46:02Z</time>
      </trkpt>
      <trkpt lat="46.09669" lon="4.54266">
        <ele>680.4</ele>
        <time>2020-10-24T06:46:03Z</time>
      </trkpt>
      <trkpt lat="46.09666" lon="4.54268">
        <ele>680.8</ele>
        <time>2020-10-24T06:46:04Z</time>
      </trkpt>
      <trkpt lat="46.09666" lon="4.54268">
        <ele>681.4</ele>
        <time>2020-10-24T06:46:05Z</time>
      </trkpt>
      <trkpt lat="46.09664" lon="4.5427">
        <ele>681.6</ele>
        <time>2020-10-24T06:46:06Z</time>
      </trkpt>
      <trkpt lat="46.09664" lon="4.5427">
        <ele>681.6</ele>
        <time>2020-10-24T06:46:07Z</time>
      </trkpt>
      <trkpt lat="46.09662" lon="4.54272">
        <ele>681.6</ele>
        <time>2020-10-24T06:46:08Z</time>
      </trkpt>
      <trkpt lat="46.09662" lon="4.54272">
        <ele>682</ele>
        <time>2020-10-24T06:46:09Z</time>
      </trkpt>
      <trkpt lat="46.0966" lon="4.54274">
        <ele>682</ele>
        <time>2020-10-24T06:46:10Z</time>
      </trkpt>
      <trkpt lat="46.0966" lon="4.54274">
        <ele>682.2</ele>
        <time>2020-10-24T06:46:11Z</time>
      </trkpt>
      <trkpt lat="46.09658" lon="4.54276">
        <ele>682.4</ele>
        <time>2020-10-24T06:46:12Z</time>
      </trkpt>
      <trkpt lat="46.09658" lon="4.54276">
        <ele>682.6</ele>
        <time>2020-10-24T06:46:13Z</time>
      </trkpt>
      <trkpt lat="46.09656" lon="4.54278">
        <ele>683</ele>
        <time>2020-10-24T06:46:14Z</time>
      </trkpt>
      <trkpt lat="46.09656" lon="4.54278">
        <ele>683.2</ele>
        <time>2020-10-24T06:46:15Z</time>
      </trkpt>
      <trkpt lat="46.09653" lon="4.54279">
        <ele>683.2</ele>
        <time>2020-10-24T06:46:16Z</time>
      </trkpt>
      <trkpt lat="46.09653" lon="4.54279">
        <ele>683.4</ele>
        <time>2020-10-24T06:46:17Z</time>
      </trkpt>
      <trkpt lat="46.09651" lon="4.5428">
        <ele>683.8</ele>
        <time>2020-10-24T06:46:18Z</time>
      </trkpt>
      <trkpt lat="46.09651" lon="4.5428">
        <ele>684</ele>
        <time>2020-10-24T06:46:19Z</time>
      </trkpt>
      <trkpt lat="46.09649" lon="4.54282">
        <ele>684.4</ele>
        <time>2020-10-24T06:46:20Z</time>
      </trkpt>
      <trkpt lat="46.09649" lon="4.54282">
        <ele>684.6</ele>
        <time>2020-10-24T06:46:21Z</time>
      </trkpt>
      <trkpt lat="46.09646" lon="4.54283">
        <ele>684.6</ele>
        <time>2020-10-24T06:46:22Z</time>
      </trkpt>
      <trkpt lat="46.09646" lon="4.54283">
        <ele>685</ele>
        <time>2020-10-24T06:46:23Z</time>
      </trkpt>
      <trkpt lat="46.09643" lon="4.54284">
        <ele>685</ele>
        <time>2020-10-24T06:46:24Z</time>
      </trkpt>
      <trkpt lat="46.09643" lon="4.54284">
        <ele>685.2</ele>
        <time>2020-10-24T06:46:25Z</time>
      </trkpt>
      <trkpt lat="46.09641" lon="4.54286">
        <ele>686</ele>
        <time>2020-10-24T06:46:26Z</time>
      </trkpt>
      <trkpt lat="46.09641" lon="4.54286">
        <ele>686.2</ele>
        <time>2020-10-24T06:46:27Z</time>
      </trkpt>
      <trkpt lat="46.09638" lon="4.54287">
        <ele>686.8</ele>
        <time>2020-10-24T06:46:28Z</time>
      </trkpt>
      <trkpt lat="46.09638" lon="4.54287">
        <ele>686.8</ele>
        <time>2020-10-24T06:46:29Z</time>
      </trkpt>
      <trkpt lat="46.09636" lon="4.54289">
        <ele>686.8</ele>
        <time>2020-10-24T06:46:30Z</time>
      </trkpt>
      <trkpt lat="46.09636" lon="4.54289">
        <ele>687</ele>
        <time>2020-10-24T06:46:31Z</time>
      </trkpt>
      <trkpt lat="46.09634" lon="4.5429">
        <ele>687.2</ele>
        <time>2020-10-24T06:46:32Z</time>
      </trkpt>
      <trkpt lat="46.09634" lon="4.5429">
        <ele>687.6</ele>
        <time>2020-10-24T06:46:33Z</time>
      </trkpt>
      <trkpt lat="46.09632" lon="4.54292">
        <ele>687.6</ele>
        <time>2020-10-24T06:46:34Z</time>
      </trkpt>
      <trkpt lat="46.09632" lon="4.54292">
        <ele>688</ele>
        <time>2020-10-24T06:46:35Z</time>
      </trkpt>
      <trkpt lat="46.0963" lon="4.54293">
        <ele>688</ele>
        <time>2020-10-24T06:46:36Z</time>
      </trkpt>
      <trkpt lat="46.0963" lon="4.54293">
        <ele>688.2</ele>
        <time>2020-10-24T06:46:37Z</time>
      </trkpt>
      <trkpt lat="46.09628" lon="4.54294">
        <ele>688.4</ele>
        <time>2020-10-24T06:46:38Z</time>
      </trkpt>
      <trkpt lat="46.09628" lon="4.54294">
        <ele>688.6</ele>
        <time>2020-10-24T06:46:39Z</time>
      </trkpt>
      <trkpt lat="46.09626" lon="4.54295">
        <ele>689</ele>
        <time>2020-10-24T06:46:40Z</time>
      </trkpt>
      <trkpt lat="46.09626" lon="4.54295">
        <ele>689.2</ele>
        <time>2020-10-24T06:46:41Z</time>
      </trkpt>
      <trkpt lat="46.09624" lon="4.54297">
        <ele>689.6</ele>
        <time>2020-10-24T06:46:42Z</time>
      </trkpt>
      <trkpt lat="46.09624" lon="4.54297">
        <ele>689.6</ele>
        <time>2020-10-24T06:46:43Z</time>
      </trkpt>
      <trkpt lat="46.09621" lon="4.54299">
        <ele>689.8</ele>
        <time>2020-10-24T06:46:44Z</time>
      </trkpt>
      <trkpt lat="46.09621" lon="4.54299">
        <ele>690</ele>
        <time>2020-10-24T06:46:45Z</time>
      </trkpt>
      <trkpt lat="46.0962" lon="4.543">
        <ele>690.2</ele>
        <time>2020-10-24T06:46:46Z</time>
      </trkpt>
      <trkpt lat="46.0962" lon="4.543">
        <ele>690.4</ele>
        <time>2020-10-24T06:46:47Z</time>
      </trkpt>
      <trkpt lat="46.09617" lon="4.54301">
        <ele>690.6</ele>
        <time>2020-10-24T06:46:48Z</time>
      </trkpt>
      <trkpt lat="46.09617" lon="4.54301">
        <ele>690.8</ele>
        <time>2020-10-24T06:46:49Z</time>
      </trkpt>
      <trkpt lat="46.09614" lon="4.54303">
        <ele>691</ele>
        <time>2020-10-24T06:46:50Z</time>
      </trkpt>
      <trkpt lat="46.09614" lon="4.54303">
        <ele>691.6</ele>
        <time>2020-10-24T06:46:51Z</time>
      </trkpt>
      <trkpt lat="46.09612" lon="4.54304">
        <ele>691.6</ele>
        <time>2020-10-24T06:46:52Z</time>
      </trkpt>
      <trkpt lat="46.09612" lon="4.54304">
        <ele>692</ele>
        <time>2020-10-24T06:46:53Z</time>
      </trkpt>
      <trkpt lat="46.0961" lon="4.54305">
        <ele>692.2</ele>
        <time>2020-10-24T06:46:54Z</time>
      </trkpt>
      <trkpt lat="46.0961" lon="4.54305">
        <ele>692.8</ele>
        <time>2020-10-24T06:46:55Z</time>
      </trkpt>
      <trkpt lat="46.09608" lon="4.54307">
        <ele>693.4</ele>
        <time>2020-10-24T06:46:56Z</time>
      </trkpt>
      <trkpt lat="46.09608" lon="4.54307">
        <ele>693.6</ele>
        <time>2020-10-24T06:46:57Z</time>
      </trkpt>
      <trkpt lat="46.09606" lon="4.54309">
        <ele>694</ele>
        <time>2020-10-24T06:46:58Z</time>
      </trkpt>
      <trkpt lat="46.09606" lon="4.54309">
        <ele>694</ele>
        <time>2020-10-24T06:46:59Z</time>
      </trkpt>
      <trkpt lat="46.09605" lon="4.54311">
        <ele>694.2</ele>
        <time>2020-10-24T06:47:00Z</time>
      </trkpt>
      <trkpt lat="46.09605" lon="4.54311">
        <ele>694.4</ele>
        <time>2020-10-24T06:47:01Z</time>
      </trkpt>
      <trkpt lat="46.09603" lon="4.54312">
        <ele>694.6</ele>
        <time>2020-10-24T06:47:02Z</time>
      </trkpt>
      <trkpt lat="46.09603" lon="4.54312">
        <ele>694.8</ele>
        <time>2020-10-24T06:47:03Z</time>
      </trkpt>
      <trkpt lat="46.09601" lon="4.54312">
        <ele>695</ele>
        <time>2020-10-24T06:47:04Z</time>
      </trkpt>
      <trkpt lat="46.09601" lon="4.54312">
        <ele>695.2</ele>
        <time>2020-10-24T06:47:05Z</time>
      </trkpt>
      <trkpt lat="46.09599" lon="4.54313">
        <ele>695.4</ele>
        <time>2020-10-24T06:47:06Z</time>
      </trkpt>
      <trkpt lat="46.09599" lon="4.54313">
        <ele>695.2</ele>
        <time>2020-10-24T06:47:07Z</time>
      </trkpt>
      <trkpt lat="46.09599" lon="4.54313">
        <ele>695.6</ele>
        <time>2020-10-24T06:47:08Z</time>
      </trkpt>
      <trkpt lat="46.09597" lon="4.54315">
        <ele>695.8</ele>
        <time>2020-10-24T06:47:09Z</time>
      </trkpt>
      <trkpt lat="46.09597" lon="4.54315">
        <ele>696</ele>
        <time>2020-10-24T06:47:10Z</time>
      </trkpt>
      <trkpt lat="46.09597" lon="4.54315">
        <ele>696.2</ele>
        <time>2020-10-24T06:47:11Z</time>
      </trkpt>
      <trkpt lat="46.09595" lon="4.54318">
        <ele>696.6</ele>
        <time>2020-10-24T06:47:12Z</time>
      </trkpt>
      <trkpt lat="46.09595" lon="4.54318">
        <ele>696.8</ele>
        <time>2020-10-24T06:47:13Z</time>
      </trkpt>
      <trkpt lat="46.09593" lon="4.54319">
        <ele>697</ele>
        <time>2020-10-24T06:47:14Z</time>
      </trkpt>
      <trkpt lat="46.09593" lon="4.54319">
        <ele>697.2</ele>
        <time>2020-10-24T06:47:15Z</time>
      </trkpt>
      <trkpt lat="46.09591" lon="4.5432">
        <ele>697.6</ele>
        <time>2020-10-24T06:47:16Z</time>
      </trkpt>
      <trkpt lat="46.09591" lon="4.5432">
        <ele>698.2</ele>
        <time>2020-10-24T06:47:17Z</time>
      </trkpt>
      <trkpt lat="46.09589" lon="4.54322">
        <ele>698.2</ele>
        <time>2020-10-24T06:47:18Z</time>
      </trkpt>
      <trkpt lat="46.09589" lon="4.54322">
        <ele>698.8</ele>
        <time>2020-10-24T06:47:19Z</time>
      </trkpt>
      <trkpt lat="46.09586" lon="4.54324">
        <ele>699</ele>
        <time>2020-10-24T06:47:20Z</time>
      </trkpt>
      <trkpt lat="46.09586" lon="4.54324">
        <ele>699.2</ele>
        <time>2020-10-24T06:47:21Z</time>
      </trkpt>
      <trkpt lat="46.09585" lon="4.54325">
        <ele>699.6</ele>
        <time>2020-10-24T06:47:22Z</time>
      </trkpt>
      <trkpt lat="46.09585" lon="4.54325">
        <ele>699.8</ele>
        <time>2020-10-24T06:47:23Z</time>
      </trkpt>
      <trkpt lat="46.09583" lon="4.54327">
        <ele>700</ele>
        <time>2020-10-24T06:47:24Z</time>
      </trkpt>
      <trkpt lat="46.09583" lon="4.54327">
        <ele>700.4</ele>
        <time>2020-10-24T06:47:25Z</time>
      </trkpt>
      <trkpt lat="46.09581" lon="4.54328">
        <ele>700.4</ele>
        <time>2020-10-24T06:47:26Z</time>
      </trkpt>
      <trkpt lat="46.09581" lon="4.54328">
        <ele>700.4</ele>
        <time>2020-10-24T06:47:27Z</time>
      </trkpt>
      <trkpt lat="46.09578" lon="4.54329">
        <ele>700.8</ele>
        <time>2020-10-24T06:47:28Z</time>
      </trkpt>
      <trkpt lat="46.09578" lon="4.54329">
        <ele>701.4</ele>
        <time>2020-10-24T06:47:29Z</time>
      </trkpt>
      <trkpt lat="46.09578" lon="4.54329">
        <ele>701.8</ele>
        <time>2020-10-24T06:47:30Z</time>
      </trkpt>
      <trkpt lat="46.09576" lon="4.54331">
        <ele>702</ele>
        <time>2020-10-24T06:47:31Z</time>
      </trkpt>
      <trkpt lat="46.09576" lon="4.54331">
        <ele>702.2</ele>
        <time>2020-10-24T06:47:32Z</time>
      </trkpt>
      <trkpt lat="46.09574" lon="4.54332">
        <ele>702.6</ele>
        <time>2020-10-24T06:47:33Z</time>
      </trkpt>
      <trkpt lat="46.09574" lon="4.54332">
        <ele>702.8</ele>
        <time>2020-10-24T06:47:34Z</time>
      </trkpt>
      <trkpt lat="46.09572" lon="4.54335">
        <ele>703</ele>
        <time>2020-10-24T06:47:35Z</time>
      </trkpt>
      <trkpt lat="46.09572" lon="4.54335">
        <ele>703.4</ele>
        <time>2020-10-24T06:47:36Z</time>
      </trkpt>
      <trkpt lat="46.0957" lon="4.54337">
        <ele>703.6</ele>
        <time>2020-10-24T06:47:37Z</time>
      </trkpt>
      <trkpt lat="46.0957" lon="4.54337">
        <ele>703.6</ele>
        <time>2020-10-24T06:47:38Z</time>
      </trkpt>
      <trkpt lat="46.09569" lon="4.54339">
        <ele>704</ele>
        <time>2020-10-24T06:47:39Z</time>
      </trkpt>
      <trkpt lat="46.09569" lon="4.54339">
        <ele>704.2</ele>
        <time>2020-10-24T06:47:40Z</time>
      </trkpt>
      <trkpt lat="46.09567" lon="4.5434">
        <ele>704.4</ele>
        <time>2020-10-24T06:47:41Z</time>
      </trkpt>
      <trkpt lat="46.09567" lon="4.5434">
        <ele>704.4</ele>
        <time>2020-10-24T06:47:42Z</time>
      </trkpt>
      <trkpt lat="46.09565" lon="4.54341">
        <ele>704.8</ele>
        <time>2020-10-24T06:47:43Z</time>
      </trkpt>
      <trkpt lat="46.09565" lon="4.54341">
        <ele>705.2</ele>
        <time>2020-10-24T06:47:44Z</time>
      </trkpt>
      <trkpt lat="46.09562" lon="4.54342">
        <ele>705.4</ele>
        <time>2020-10-24T06:47:45Z</time>
      </trkpt>
      <trkpt lat="46.09562" lon="4.54342">
        <ele>705.6</ele>
        <time>2020-10-24T06:47:46Z</time>
      </trkpt>
      <trkpt lat="46.0956" lon="4.54343">
        <ele>705.8</ele>
        <time>2020-10-24T06:47:47Z</time>
      </trkpt>
      <trkpt lat="46.09558" lon="4.54344">
        <ele>706</ele>
        <time>2020-10-24T06:47:48Z</time>
      </trkpt>
      <trkpt lat="46.09558" lon="4.54344">
        <ele>706.2</ele>
        <time>2020-10-24T06:47:49Z</time>
      </trkpt>
      <trkpt lat="46.09556" lon="4.54345">
        <ele>706.6</ele>
        <time>2020-10-24T06:47:50Z</time>
      </trkpt>
      <trkpt lat="46.09556" lon="4.54345">
        <ele>706.8</ele>
        <time>2020-10-24T06:47:51Z</time>
      </trkpt>
      <trkpt lat="46.09556" lon="4.54345">
        <ele>707</ele>
        <time>2020-10-24T06:47:52Z</time>
      </trkpt>
      <trkpt lat="46.09554" lon="4.54347">
        <ele>707.4</ele>
        <time>2020-10-24T06:47:53Z</time>
      </trkpt>
      <trkpt lat="46.09554" lon="4.54347">
        <ele>707.6</ele>
        <time>2020-10-24T06:47:54Z</time>
      </trkpt>
      <trkpt lat="46.09554" lon="4.54347">
        <ele>707.8</ele>
        <time>2020-10-24T06:47:55Z</time>
      </trkpt>
      <trkpt lat="46.09551" lon="4.54348">
        <ele>708.2</ele>
        <time>2020-10-24T06:47:56Z</time>
      </trkpt>
      <trkpt lat="46.09551" lon="4.54348">
        <ele>708.2</ele>
        <time>2020-10-24T06:47:57Z</time>
      </trkpt>
      <trkpt lat="46.09551" lon="4.54348">
        <ele>708.2</ele>
        <time>2020-10-24T06:47:58Z</time>
      </trkpt>
      <trkpt lat="46.0955" lon="4.5435">
        <ele>708.8</ele>
        <time>2020-10-24T06:47:59Z</time>
      </trkpt>
      <trkpt lat="46.0955" lon="4.5435">
        <ele>708.8</ele>
        <time>2020-10-24T06:48:00Z</time>
      </trkpt>
      <trkpt lat="46.0955" lon="4.5435">
        <ele>709</ele>
        <time>2020-10-24T06:48:01Z</time>
      </trkpt>
      <trkpt lat="46.09548" lon="4.54352">
        <ele>709.2</ele>
        <time>2020-10-24T06:48:02Z</time>
      </trkpt>
      <trkpt lat="46.09548" lon="4.54352">
        <ele>709.6</ele>
        <time>2020-10-24T06:48:03Z</time>
      </trkpt>
      <trkpt lat="46.09545" lon="4.54354">
        <ele>709.8</ele>
        <time>2020-10-24T06:48:04Z</time>
      </trkpt>
      <trkpt lat="46.09545" lon="4.54354">
        <ele>710</ele>
        <time>2020-10-24T06:48:05Z</time>
      </trkpt>
      <trkpt lat="46.09543" lon="4.54356">
        <ele>710.4</ele>
        <time>2020-10-24T06:48:06Z</time>
      </trkpt>
      <trkpt lat="46.09543" lon="4.54356">
        <ele>710.4</ele>
        <time>2020-10-24T06:48:07Z</time>
      </trkpt>
      <trkpt lat="46.09541" lon="4.54359">
        <ele>710.8</ele>
        <time>2020-10-24T06:48:08Z</time>
      </trkpt>
      <trkpt lat="46.09541" lon="4.54359">
        <ele>711.2</ele>
        <time>2020-10-24T06:48:09Z</time>
      </trkpt>
      <trkpt lat="46.09539" lon="4.54361">
        <ele>711.4</ele>
        <time>2020-10-24T06:48:10Z</time>
      </trkpt>
      <trkpt lat="46.09539" lon="4.54361">
        <ele>711.6</ele>
        <time>2020-10-24T06:48:11Z</time>
      </trkpt>
      <trkpt lat="46.09538" lon="4.54362">
        <ele>711.8</ele>
        <time>2020-10-24T06:48:12Z</time>
      </trkpt>
      <trkpt lat="46.09538" lon="4.54362">
        <ele>712</ele>
        <time>2020-10-24T06:48:13Z</time>
      </trkpt>
      <trkpt lat="46.09536" lon="4.54364">
        <ele>712.2</ele>
        <time>2020-10-24T06:48:14Z</time>
      </trkpt>
      <trkpt lat="46.09536" lon="4.54364">
        <ele>712.4</ele>
        <time>2020-10-24T06:48:15Z</time>
      </trkpt>
      <trkpt lat="46.09534" lon="4.54365">
        <ele>712.6</ele>
        <time>2020-10-24T06:48:16Z</time>
      </trkpt>
      <trkpt lat="46.09532" lon="4.54366">
        <ele>712.8</ele>
        <time>2020-10-24T06:48:17Z</time>
      </trkpt>
      <trkpt lat="46.09531" lon="4.54367">
        <ele>713.2</ele>
        <time>2020-10-24T06:48:18Z</time>
      </trkpt>
      <trkpt lat="46.09529" lon="4.54368">
        <ele>713.2</ele>
        <time>2020-10-24T06:48:19Z</time>
      </trkpt>
      <trkpt lat="46.09529" lon="4.54368">
        <ele>713.4</ele>
        <time>2020-10-24T06:48:20Z</time>
      </trkpt>
      <trkpt lat="46.09527" lon="4.5437">
        <ele>713.8</ele>
        <time>2020-10-24T06:48:21Z</time>
      </trkpt>
      <trkpt lat="46.09527" lon="4.5437">
        <ele>714</ele>
        <time>2020-10-24T06:48:22Z</time>
      </trkpt>
      <trkpt lat="46.09525" lon="4.54371">
        <ele>714.4</ele>
        <time>2020-10-24T06:48:23Z</time>
      </trkpt>
      <trkpt lat="46.09525" lon="4.54371">
        <ele>714.8</ele>
        <time>2020-10-24T06:48:24Z</time>
      </trkpt>
      <trkpt lat="46.09523" lon="4.54373">
        <ele>714.8</ele>
        <time>2020-10-24T06:48:25Z</time>
      </trkpt>
      <trkpt lat="46.09523" lon="4.54373">
        <ele>714.8</ele>
        <time>2020-10-24T06:48:26Z</time>
      </trkpt>
      <trkpt lat="46.09521" lon="4.54375">
        <ele>715.2</ele>
        <time>2020-10-24T06:48:27Z</time>
      </trkpt>
      <trkpt lat="46.09521" lon="4.54375">
        <ele>715.4</ele>
        <time>2020-10-24T06:48:28Z</time>
      </trkpt>
      <trkpt lat="46.09519" lon="4.54377">
        <ele>715.6</ele>
        <time>2020-10-24T06:48:29Z</time>
      </trkpt>
      <trkpt lat="46.09519" lon="4.54377">
        <ele>715.8</ele>
        <time>2020-10-24T06:48:30Z</time>
      </trkpt>
      <trkpt lat="46.09517" lon="4.5438">
        <ele>716.2</ele>
        <time>2020-10-24T06:48:31Z</time>
      </trkpt>
      <trkpt lat="46.09517" lon="4.5438">
        <ele>716.4</ele>
        <time>2020-10-24T06:48:32Z</time>
      </trkpt>
      <trkpt lat="46.09515" lon="4.54382">
        <ele>716.6</ele>
        <time>2020-10-24T06:48:33Z</time>
      </trkpt>
      <trkpt lat="46.09515" lon="4.54382">
        <ele>716.8</ele>
        <time>2020-10-24T06:48:34Z</time>
      </trkpt>
      <trkpt lat="46.09512" lon="4.54383">
        <ele>717.2</ele>
        <time>2020-10-24T06:48:35Z</time>
      </trkpt>
      <trkpt lat="46.09512" lon="4.54383">
        <ele>717.6</ele>
        <time>2020-10-24T06:48:36Z</time>
      </trkpt>
      <trkpt lat="46.0951" lon="4.54385">
        <ele>717.6</ele>
        <time>2020-10-24T06:48:37Z</time>
      </trkpt>
      <trkpt lat="46.0951" lon="4.54385">
        <ele>717.8</ele>
        <time>2020-10-24T06:48:38Z</time>
      </trkpt>
      <trkpt lat="46.09508" lon="4.54388">
        <ele>718</ele>
        <time>2020-10-24T06:48:39Z</time>
      </trkpt>
      <trkpt lat="46.09508" lon="4.54388">
        <ele>718.2</ele>
        <time>2020-10-24T06:48:40Z</time>
      </trkpt>
      <trkpt lat="46.09505" lon="4.54389">
        <ele>718.4</ele>
        <time>2020-10-24T06:48:41Z</time>
      </trkpt>
      <trkpt lat="46.09505" lon="4.54389">
        <ele>718.8</ele>
        <time>2020-10-24T06:48:42Z</time>
      </trkpt>
      <trkpt lat="46.09503" lon="4.5439">
        <ele>719</ele>
        <time>2020-10-24T06:48:43Z</time>
      </trkpt>
      <trkpt lat="46.09503" lon="4.5439">
        <ele>719.4</ele>
        <time>2020-10-24T06:48:44Z</time>
      </trkpt>
      <trkpt lat="46.09501" lon="4.54391">
        <ele>719.8</ele>
        <time>2020-10-24T06:48:45Z</time>
      </trkpt>
      <trkpt lat="46.09501" lon="4.54391">
        <ele>720.2</ele>
        <time>2020-10-24T06:48:46Z</time>
      </trkpt>
      <trkpt lat="46.09499" lon="4.54392">
        <ele>720.6</ele>
        <time>2020-10-24T06:48:47Z</time>
      </trkpt>
      <trkpt lat="46.09499" lon="4.54392">
        <ele>720.6</ele>
        <time>2020-10-24T06:48:48Z</time>
      </trkpt>
      <trkpt lat="46.09499" lon="4.54392">
        <ele>721</ele>
        <time>2020-10-24T06:48:49Z</time>
      </trkpt>
      <trkpt lat="46.09497" lon="4.54394">
        <ele>721.4</ele>
        <time>2020-10-24T06:48:50Z</time>
      </trkpt>
      <trkpt lat="46.09497" lon="4.54394">
        <ele>721.8</ele>
        <time>2020-10-24T06:48:51Z</time>
      </trkpt>
      <trkpt lat="46.09497" lon="4.54394">
        <ele>721.8</ele>
        <time>2020-10-24T06:48:52Z</time>
      </trkpt>
      <trkpt lat="46.09495" lon="4.54395">
        <ele>722</ele>
        <time>2020-10-24T06:48:53Z</time>
      </trkpt>
      <trkpt lat="46.09495" lon="4.54395">
        <ele>722.6</ele>
        <time>2020-10-24T06:48:54Z</time>
      </trkpt>
      <trkpt lat="46.09493" lon="4.54397">
        <ele>722.6</ele>
        <time>2020-10-24T06:48:55Z</time>
      </trkpt>
      <trkpt lat="46.09493" lon="4.54397">
        <ele>723</ele>
        <time>2020-10-24T06:48:56Z</time>
      </trkpt>
      <trkpt lat="46.09491" lon="4.54399">
        <ele>723.2</ele>
        <time>2020-10-24T06:48:57Z</time>
      </trkpt>
      <trkpt lat="46.09491" lon="4.54399">
        <ele>723.4</ele>
        <time>2020-10-24T06:48:58Z</time>
      </trkpt>
      <trkpt lat="46.09489" lon="4.54402">
        <ele>723.8</ele>
        <time>2020-10-24T06:48:59Z</time>
      </trkpt>
      <trkpt lat="46.09489" lon="4.54402">
        <ele>724</ele>
        <time>2020-10-24T06:49:00Z</time>
      </trkpt>
      <trkpt lat="46.09487" lon="4.54405">
        <ele>724.4</ele>
        <time>2020-10-24T06:49:01Z</time>
      </trkpt>
      <trkpt lat="46.09487" lon="4.54405">
        <ele>724.4</ele>
        <time>2020-10-24T06:49:02Z</time>
      </trkpt>
      <trkpt lat="46.09485" lon="4.54407">
        <ele>724.8</ele>
        <time>2020-10-24T06:49:03Z</time>
      </trkpt>
      <trkpt lat="46.09485" lon="4.54407">
        <ele>725</ele>
        <time>2020-10-24T06:49:04Z</time>
      </trkpt>
      <trkpt lat="46.09483" lon="4.5441">
        <ele>725.4</ele>
        <time>2020-10-24T06:49:05Z</time>
      </trkpt>
      <trkpt lat="46.09483" lon="4.5441">
        <ele>725.6</ele>
        <time>2020-10-24T06:49:06Z</time>
      </trkpt>
      <trkpt lat="46.09483" lon="4.5441">
        <ele>726</ele>
        <time>2020-10-24T06:49:07Z</time>
      </trkpt>
      <trkpt lat="46.09482" lon="4.54413">
        <ele>726.2</ele>
        <time>2020-10-24T06:49:08Z</time>
      </trkpt>
      <trkpt lat="46.09482" lon="4.54413">
        <ele>726.4</ele>
        <time>2020-10-24T06:49:09Z</time>
      </trkpt>
      <trkpt lat="46.09481" lon="4.54415">
        <ele>726.8</ele>
        <time>2020-10-24T06:49:10Z</time>
      </trkpt>
      <trkpt lat="46.09481" lon="4.54415">
        <ele>727.2</ele>
        <time>2020-10-24T06:49:11Z</time>
      </trkpt>
      <trkpt lat="46.09479" lon="4.54417">
        <ele>727.4</ele>
        <time>2020-10-24T06:49:12Z</time>
      </trkpt>
      <trkpt lat="46.09479" lon="4.54417">
        <ele>727.8</ele>
        <time>2020-10-24T06:49:13Z</time>
      </trkpt>
      <trkpt lat="46.09478" lon="4.5442">
        <ele>728</ele>
        <time>2020-10-24T06:49:14Z</time>
      </trkpt>
      <trkpt lat="46.09478" lon="4.5442">
        <ele>728</ele>
        <time>2020-10-24T06:49:15Z</time>
      </trkpt>
      <trkpt lat="46.09476" lon="4.54423">
        <ele>728.2</ele>
        <time>2020-10-24T06:49:16Z</time>
      </trkpt>
      <trkpt lat="46.09476" lon="4.54423">
        <ele>728.4</ele>
        <time>2020-10-24T06:49:17Z</time>
      </trkpt>
      <trkpt lat="46.09474" lon="4.54425">
        <ele>728.8</ele>
        <time>2020-10-24T06:49:18Z</time>
      </trkpt>
      <trkpt lat="46.09474" lon="4.54425">
        <ele>729</ele>
        <time>2020-10-24T06:49:19Z</time>
      </trkpt>
      <trkpt lat="46.09473" lon="4.54427">
        <ele>729.2</ele>
        <time>2020-10-24T06:49:20Z</time>
      </trkpt>
      <trkpt lat="46.09473" lon="4.54427">
        <ele>729.4</ele>
        <time>2020-10-24T06:49:21Z</time>
      </trkpt>
      <trkpt lat="46.09471" lon="4.5443">
        <ele>729.6</ele>
        <time>2020-10-24T06:49:22Z</time>
      </trkpt>
      <trkpt lat="46.09471" lon="4.5443">
        <ele>729.8</ele>
        <time>2020-10-24T06:49:23Z</time>
      </trkpt>
      <trkpt lat="46.09469" lon="4.54433">
        <ele>730</ele>
        <time>2020-10-24T06:49:24Z</time>
      </trkpt>
      <trkpt lat="46.09469" lon="4.54433">
        <ele>730.2</ele>
        <time>2020-10-24T06:49:25Z</time>
      </trkpt>
      <trkpt lat="46.09467" lon="4.54436">
        <ele>730.4</ele>
        <time>2020-10-24T06:49:26Z</time>
      </trkpt>
      <trkpt lat="46.09467" lon="4.54436">
        <ele>730.4</ele>
        <time>2020-10-24T06:49:27Z</time>
      </trkpt>
      <trkpt lat="46.09466" lon="4.54439">
        <ele>730.6</ele>
        <time>2020-10-24T06:49:28Z</time>
      </trkpt>
      <trkpt lat="46.09466" lon="4.54439">
        <ele>730.6</ele>
        <time>2020-10-24T06:49:29Z</time>
      </trkpt>
      <trkpt lat="46.09465" lon="4.54442">
        <ele>730.6</ele>
        <time>2020-10-24T06:49:30Z</time>
      </trkpt>
      <trkpt lat="46.09465" lon="4.54442">
        <ele>730.8</ele>
        <time>2020-10-24T06:49:31Z</time>
      </trkpt>
      <trkpt lat="46.09463" lon="4.54444">
        <ele>731.2</ele>
        <time>2020-10-24T06:49:32Z</time>
      </trkpt>
      <trkpt lat="46.09463" lon="4.54444">
        <ele>731.4</ele>
        <time>2020-10-24T06:49:33Z</time>
      </trkpt>
      <trkpt lat="46.09461" lon="4.54446">
        <ele>731.4</ele>
        <time>2020-10-24T06:49:34Z</time>
      </trkpt>
      <trkpt lat="46.09461" lon="4.54446">
        <ele>731.6</ele>
        <time>2020-10-24T06:49:35Z</time>
      </trkpt>
      <trkpt lat="46.09459" lon="4.54448">
        <ele>731.6</ele>
        <time>2020-10-24T06:49:36Z</time>
      </trkpt>
      <trkpt lat="46.09459" lon="4.54448">
        <ele>731.8</ele>
        <time>2020-10-24T06:49:37Z</time>
      </trkpt>
      <trkpt lat="46.09456" lon="4.5445">
        <ele>732.2</ele>
        <time>2020-10-24T06:49:38Z</time>
      </trkpt>
      <trkpt lat="46.09456" lon="4.5445">
        <ele>732.4</ele>
        <time>2020-10-24T06:49:39Z</time>
      </trkpt>
      <trkpt lat="46.09453" lon="4.54451">
        <ele>732.6</ele>
        <time>2020-10-24T06:49:40Z</time>
      </trkpt>
      <trkpt lat="46.09451" lon="4.54453">
        <ele>732.6</ele>
        <time>2020-10-24T06:49:41Z</time>
      </trkpt>
      <trkpt lat="46.09451" lon="4.54453">
        <ele>732.8</ele>
        <time>2020-10-24T06:49:42Z</time>
      </trkpt>
      <trkpt lat="46.09449" lon="4.54455">
        <ele>733</ele>
        <time>2020-10-24T06:49:43Z</time>
      </trkpt>
      <trkpt lat="46.09449" lon="4.54455">
        <ele>733.2</ele>
        <time>2020-10-24T06:49:44Z</time>
      </trkpt>
      <trkpt lat="46.09447" lon="4.54457">
        <ele>733.2</ele>
        <time>2020-10-24T06:49:45Z</time>
      </trkpt>
      <trkpt lat="46.09445" lon="4.54459">
        <ele>733.2</ele>
        <time>2020-10-24T06:49:46Z</time>
      </trkpt>
      <trkpt lat="46.09444" lon="4.54461">
        <ele>733.4</ele>
        <time>2020-10-24T06:49:47Z</time>
      </trkpt>
      <trkpt lat="46.09442" lon="4.54463">
        <ele>733.6</ele>
        <time>2020-10-24T06:49:48Z</time>
      </trkpt>
      <trkpt lat="46.09441" lon="4.54465">
        <ele>733.6</ele>
        <time>2020-10-24T06:49:49Z</time>
      </trkpt>
      <trkpt lat="46.09441" lon="4.54465">
        <ele>734</ele>
        <time>2020-10-24T06:49:50Z</time>
      </trkpt>
      <trkpt lat="46.09439" lon="4.54468">
        <ele>734.2</ele>
        <time>2020-10-24T06:49:51Z</time>
      </trkpt>
      <trkpt lat="46.09439" lon="4.54468">
        <ele>734.4</ele>
        <time>2020-10-24T06:49:52Z</time>
      </trkpt>
      <trkpt lat="46.09437" lon="4.54471">
        <ele>734.6</ele>
        <time>2020-10-24T06:49:53Z</time>
      </trkpt>
      <trkpt lat="46.09437" lon="4.54471">
        <ele>734.6</ele>
        <time>2020-10-24T06:49:54Z</time>
      </trkpt>
      <trkpt lat="46.09434" lon="4.54474">
        <ele>734.8</ele>
        <time>2020-10-24T06:49:55Z</time>
      </trkpt>
      <trkpt lat="46.09434" lon="4.54474">
        <ele>735</ele>
        <time>2020-10-24T06:49:56Z</time>
      </trkpt>
      <trkpt lat="46.09432" lon="4.54477">
        <ele>735.2</ele>
        <time>2020-10-24T06:49:57Z</time>
      </trkpt>
      <trkpt lat="46.0943" lon="4.54478">
        <ele>735.4</ele>
        <time>2020-10-24T06:49:58Z</time>
      </trkpt>
      <trkpt lat="46.09428" lon="4.54479">
        <ele>735.8</ele>
        <time>2020-10-24T06:49:59Z</time>
      </trkpt>
      <trkpt lat="46.09426" lon="4.54483">
        <ele>735.8</ele>
        <time>2020-10-24T06:50:01Z</time>
      </trkpt>
      <trkpt lat="46.09424" lon="4.54484">
        <ele>736</ele>
        <time>2020-10-24T06:50:02Z</time>
      </trkpt>
      <trkpt lat="46.09424" lon="4.54484">
        <ele>736.2</ele>
        <time>2020-10-24T06:50:03Z</time>
      </trkpt>
      <trkpt lat="46.09421" lon="4.54487">
        <ele>736.4</ele>
        <time>2020-10-24T06:50:04Z</time>
      </trkpt>
      <trkpt lat="46.0942" lon="4.54489">
        <ele>736.6</ele>
        <time>2020-10-24T06:50:05Z</time>
      </trkpt>
      <trkpt lat="46.0942" lon="4.54489">
        <ele>737</ele>
        <time>2020-10-24T06:50:06Z</time>
      </trkpt>
      <trkpt lat="46.09418" lon="4.54491">
        <ele>737.2</ele>
        <time>2020-10-24T06:50:07Z</time>
      </trkpt>
      <trkpt lat="46.09418" lon="4.54491">
        <ele>737.4</ele>
        <time>2020-10-24T06:50:08Z</time>
      </trkpt>
      <trkpt lat="46.09416" lon="4.54494">
        <ele>737.6</ele>
        <time>2020-10-24T06:50:09Z</time>
      </trkpt>
      <trkpt lat="46.09416" lon="4.54494">
        <ele>737.8</ele>
        <time>2020-10-24T06:50:10Z</time>
      </trkpt>
      <trkpt lat="46.09414" lon="4.54498">
        <ele>738</ele>
        <time>2020-10-24T06:50:11Z</time>
      </trkpt>
      <trkpt lat="46.09414" lon="4.54498">
        <ele>738.2</ele>
        <time>2020-10-24T06:50:12Z</time>
      </trkpt>
      <trkpt lat="46.09413" lon="4.54501">
        <ele>738.4</ele>
        <time>2020-10-24T06:50:13Z</time>
      </trkpt>
      <trkpt lat="46.09413" lon="4.54501">
        <ele>738.2</ele>
        <time>2020-10-24T06:50:14Z</time>
      </trkpt>
      <trkpt lat="46.09411" lon="4.54503">
        <ele>738.4</ele>
        <time>2020-10-24T06:50:15Z</time>
      </trkpt>
      <trkpt lat="46.09411" lon="4.54503">
        <ele>738.8</ele>
        <time>2020-10-24T06:50:16Z</time>
      </trkpt>
      <trkpt lat="46.09409" lon="4.54505">
        <ele>739.2</ele>
        <time>2020-10-24T06:50:17Z</time>
      </trkpt>
      <trkpt lat="46.09409" lon="4.54505">
        <ele>739.6</ele>
        <time>2020-10-24T06:50:18Z</time>
      </trkpt>
      <trkpt lat="46.09409" lon="4.54505">
        <ele>739.6</ele>
        <time>2020-10-24T06:50:19Z</time>
      </trkpt>
      <trkpt lat="46.09408" lon="4.54509">
        <ele>739.8</ele>
        <time>2020-10-24T06:50:20Z</time>
      </trkpt>
      <trkpt lat="46.09408" lon="4.54509">
        <ele>739.8</ele>
        <time>2020-10-24T06:50:21Z</time>
      </trkpt>
      <trkpt lat="46.09407" lon="4.54511">
        <ele>740</ele>
        <time>2020-10-24T06:50:22Z</time>
      </trkpt>
      <trkpt lat="46.09407" lon="4.54511">
        <ele>740.6</ele>
        <time>2020-10-24T06:50:23Z</time>
      </trkpt>
      <trkpt lat="46.09406" lon="4.54514">
        <ele>741.2</ele>
        <time>2020-10-24T06:50:24Z</time>
      </trkpt>
      <trkpt lat="46.09406" lon="4.54514">
        <ele>741.4</ele>
        <time>2020-10-24T06:50:25Z</time>
      </trkpt>
      <trkpt lat="46.09406" lon="4.54514">
        <ele>741.6</ele>
        <time>2020-10-24T06:50:26Z</time>
      </trkpt>
      <trkpt lat="46.09404" lon="4.54517">
        <ele>741.8</ele>
        <time>2020-10-24T06:50:27Z</time>
      </trkpt>
      <trkpt lat="46.09404" lon="4.54517">
        <ele>742</ele>
        <time>2020-10-24T06:50:28Z</time>
      </trkpt>
      <trkpt lat="46.09403" lon="4.5452">
        <ele>742.4</ele>
        <time>2020-10-24T06:50:29Z</time>
      </trkpt>
      <trkpt lat="46.09403" lon="4.5452">
        <ele>743</ele>
        <time>2020-10-24T06:50:30Z</time>
      </trkpt>
      <trkpt lat="46.09402" lon="4.54523">
        <ele>743</ele>
        <time>2020-10-24T06:50:31Z</time>
      </trkpt>
      <trkpt lat="46.09402" lon="4.54523">
        <ele>743.2</ele>
        <time>2020-10-24T06:50:32Z</time>
      </trkpt>
      <trkpt lat="46.09402" lon="4.54527">
        <ele>743.2</ele>
        <time>2020-10-24T06:50:33Z</time>
      </trkpt>
      <trkpt lat="46.09402" lon="4.54527">
        <ele>743.2</ele>
        <time>2020-10-24T06:50:34Z</time>
      </trkpt>
      <trkpt lat="46.09401" lon="4.54532">
        <ele>743.4</ele>
        <time>2020-10-24T06:50:35Z</time>
      </trkpt>
      <trkpt lat="46.09401" lon="4.54532">
        <ele>743.8</ele>
        <time>2020-10-24T06:50:36Z</time>
      </trkpt>
      <trkpt lat="46.094" lon="4.54535">
        <ele>744</ele>
        <time>2020-10-24T06:50:37Z</time>
      </trkpt>
      <trkpt lat="46.094" lon="4.54535">
        <ele>744.2</ele>
        <time>2020-10-24T06:50:38Z</time>
      </trkpt>
      <trkpt lat="46.09398" lon="4.54538">
        <ele>744.4</ele>
        <time>2020-10-24T06:50:39Z</time>
      </trkpt>
      <trkpt lat="46.09398" lon="4.54538">
        <ele>744.6</ele>
        <time>2020-10-24T06:50:40Z</time>
      </trkpt>
      <trkpt lat="46.09396" lon="4.54541">
        <ele>744.8</ele>
        <time>2020-10-24T06:50:41Z</time>
      </trkpt>
      <trkpt lat="46.09396" lon="4.54541">
        <ele>745</ele>
        <time>2020-10-24T06:50:42Z</time>
      </trkpt>
      <trkpt lat="46.09394" lon="4.54543">
        <ele>745.4</ele>
        <time>2020-10-24T06:50:43Z</time>
      </trkpt>
      <trkpt lat="46.09394" lon="4.54543">
        <ele>745.4</ele>
        <time>2020-10-24T06:50:44Z</time>
      </trkpt>
      <trkpt lat="46.09391" lon="4.54546">
        <ele>745.8</ele>
        <time>2020-10-24T06:50:45Z</time>
      </trkpt>
      <trkpt lat="46.09391" lon="4.54546">
        <ele>746</ele>
        <time>2020-10-24T06:50:46Z</time>
      </trkpt>
      <trkpt lat="46.09389" lon="4.54547">
        <ele>746.4</ele>
        <time>2020-10-24T06:50:47Z</time>
      </trkpt>
      <trkpt lat="46.09389" lon="4.54547">
        <ele>746.6</ele>
        <time>2020-10-24T06:50:48Z</time>
      </trkpt>
      <trkpt lat="46.09386" lon="4.5455">
        <ele>746.6</ele>
        <time>2020-10-24T06:50:49Z</time>
      </trkpt>
      <trkpt lat="46.09386" lon="4.5455">
        <ele>746.8</ele>
        <time>2020-10-24T06:50:50Z</time>
      </trkpt>
      <trkpt lat="46.09384" lon="4.54553">
        <ele>747</ele>
        <time>2020-10-24T06:50:51Z</time>
      </trkpt>
      <trkpt lat="46.09384" lon="4.54553">
        <ele>747.8</ele>
        <time>2020-10-24T06:50:52Z</time>
      </trkpt>
      <trkpt lat="46.09382" lon="4.54556">
        <ele>748</ele>
        <time>2020-10-24T06:50:53Z</time>
      </trkpt>
      <trkpt lat="46.09382" lon="4.54556">
        <ele>748</ele>
        <time>2020-10-24T06:50:54Z</time>
      </trkpt>
      <trkpt lat="46.09381" lon="4.54558">
        <ele>748.2</ele>
        <time>2020-10-24T06:50:55Z</time>
      </trkpt>
      <trkpt lat="46.09381" lon="4.54558">
        <ele>748.6</ele>
        <time>2020-10-24T06:50:56Z</time>
      </trkpt>
      <trkpt lat="46.0938" lon="4.54561">
        <ele>748.8</ele>
        <time>2020-10-24T06:50:57Z</time>
      </trkpt>
      <trkpt lat="46.0938" lon="4.54561">
        <ele>749.2</ele>
        <time>2020-10-24T06:50:58Z</time>
      </trkpt>
      <trkpt lat="46.09379" lon="4.54563">
        <ele>749.2</ele>
        <time>2020-10-24T06:50:59Z</time>
      </trkpt>
      <trkpt lat="46.09379" lon="4.54563">
        <ele>749.4</ele>
        <time>2020-10-24T06:51:00Z</time>
      </trkpt>
      <trkpt lat="46.09377" lon="4.54565">
        <ele>749.8</ele>
        <time>2020-10-24T06:51:01Z</time>
      </trkpt>
      <trkpt lat="46.09377" lon="4.54565">
        <ele>750</ele>
        <time>2020-10-24T06:51:02Z</time>
      </trkpt>
      <trkpt lat="46.09376" lon="4.54569">
        <ele>750</ele>
        <time>2020-10-24T06:51:03Z</time>
      </trkpt>
      <trkpt lat="46.09376" lon="4.54569">
        <ele>750.2</ele>
        <time>2020-10-24T06:51:04Z</time>
      </trkpt>
      <trkpt lat="46.09375" lon="4.54572">
        <ele>750.4</ele>
        <time>2020-10-24T06:51:05Z</time>
      </trkpt>
      <trkpt lat="46.09375" lon="4.54572">
        <ele>750.6</ele>
        <time>2020-10-24T06:51:06Z</time>
      </trkpt>
      <trkpt lat="46.09374" lon="4.54576">
        <ele>750.8</ele>
        <time>2020-10-24T06:51:07Z</time>
      </trkpt>
      <trkpt lat="46.09374" lon="4.54576">
        <ele>751</ele>
        <time>2020-10-24T06:51:08Z</time>
      </trkpt>
      <trkpt lat="46.09373" lon="4.54581">
        <ele>751.4</ele>
        <time>2020-10-24T06:51:09Z</time>
      </trkpt>
      <trkpt lat="46.09372" lon="4.54583">
        <ele>751.4</ele>
        <time>2020-10-24T06:51:10Z</time>
      </trkpt>
      <trkpt lat="46.09371" lon="4.54585">
        <ele>751.4</ele>
        <time>2020-10-24T06:51:11Z</time>
      </trkpt>
      <trkpt lat="46.09369" lon="4.54587">
        <ele>751.6</ele>
        <time>2020-10-24T06:51:12Z</time>
      </trkpt>
      <trkpt lat="46.09368" lon="4.54588">
        <ele>751.8</ele>
        <time>2020-10-24T06:51:13Z</time>
      </trkpt>
      <trkpt lat="46.09368" lon="4.54588">
        <ele>752</ele>
        <time>2020-10-24T06:51:14Z</time>
      </trkpt>
      <trkpt lat="46.09365" lon="4.54591">
        <ele>752</ele>
        <time>2020-10-24T06:51:15Z</time>
      </trkpt>
      <trkpt lat="46.09365" lon="4.54591">
        <ele>752.4</ele>
        <time>2020-10-24T06:51:16Z</time>
      </trkpt>
      <trkpt lat="46.09365" lon="4.54594">
        <ele>752.4</ele>
        <time>2020-10-24T06:51:17Z</time>
      </trkpt>
      <trkpt lat="46.09365" lon="4.54594">
        <ele>752.4</ele>
        <time>2020-10-24T06:51:18Z</time>
      </trkpt>
      <trkpt lat="46.09363" lon="4.54597">
        <ele>752.6</ele>
        <time>2020-10-24T06:51:19Z</time>
      </trkpt>
      <trkpt lat="46.09363" lon="4.54597">
        <ele>752.6</ele>
        <time>2020-10-24T06:51:20Z</time>
      </trkpt>
      <trkpt lat="46.09361" lon="4.54599">
        <ele>752.8</ele>
        <time>2020-10-24T06:51:21Z</time>
      </trkpt>
      <trkpt lat="46.09361" lon="4.54599">
        <ele>753.2</ele>
        <time>2020-10-24T06:51:22Z</time>
      </trkpt>
      <trkpt lat="46.09359" lon="4.54602">
        <ele>753.4</ele>
        <time>2020-10-24T06:51:23Z</time>
      </trkpt>
      <trkpt lat="46.09359" lon="4.54602">
        <ele>753.6</ele>
        <time>2020-10-24T06:51:24Z</time>
      </trkpt>
      <trkpt lat="46.09356" lon="4.54603">
        <ele>753.6</ele>
        <time>2020-10-24T06:51:25Z</time>
      </trkpt>
      <trkpt lat="46.09356" lon="4.54603">
        <ele>753.8</ele>
        <time>2020-10-24T06:51:26Z</time>
      </trkpt>
      <trkpt lat="46.09353" lon="4.54605">
        <ele>754</ele>
        <time>2020-10-24T06:51:27Z</time>
      </trkpt>
      <trkpt lat="46.09353" lon="4.54605">
        <ele>754.2</ele>
        <time>2020-10-24T06:51:28Z</time>
      </trkpt>
      <trkpt lat="46.09351" lon="4.54607">
        <ele>754.4</ele>
        <time>2020-10-24T06:51:29Z</time>
      </trkpt>
      <trkpt lat="46.09351" lon="4.54607">
        <ele>754.6</ele>
        <time>2020-10-24T06:51:30Z</time>
      </trkpt>
      <trkpt lat="46.09349" lon="4.5461">
        <ele>755</ele>
        <time>2020-10-24T06:51:31Z</time>
      </trkpt>
      <trkpt lat="46.09349" lon="4.5461">
        <ele>755.4</ele>
        <time>2020-10-24T06:51:32Z</time>
      </trkpt>
      <trkpt lat="46.09347" lon="4.54613">
        <ele>755.6</ele>
        <time>2020-10-24T06:51:33Z</time>
      </trkpt>
      <trkpt lat="46.09347" lon="4.54613">
        <ele>755.6</ele>
        <time>2020-10-24T06:51:34Z</time>
      </trkpt>
      <trkpt lat="46.09345" lon="4.54616">
        <ele>755.8</ele>
        <time>2020-10-24T06:51:35Z</time>
      </trkpt>
      <trkpt lat="46.09345" lon="4.54616">
        <ele>756</ele>
        <time>2020-10-24T06:51:36Z</time>
      </trkpt>
      <trkpt lat="46.09343" lon="4.54619">
        <ele>756.2</ele>
        <time>2020-10-24T06:51:37Z</time>
      </trkpt>
      <trkpt lat="46.09343" lon="4.54619">
        <ele>756.6</ele>
        <time>2020-10-24T06:51:38Z</time>
      </trkpt>
      <trkpt lat="46.0934" lon="4.54622">
        <ele>756.8</ele>
        <time>2020-10-24T06:51:39Z</time>
      </trkpt>
      <trkpt lat="46.09338" lon="4.54623">
        <ele>757.2</ele>
        <time>2020-10-24T06:51:40Z</time>
      </trkpt>
      <trkpt lat="46.09336" lon="4.54626">
        <ele>757.2</ele>
        <time>2020-10-24T06:51:41Z</time>
      </trkpt>
      <trkpt lat="46.09334" lon="4.54627">
        <ele>757.2</ele>
        <time>2020-10-24T06:51:42Z</time>
      </trkpt>
      <trkpt lat="46.09334" lon="4.54627">
        <ele>757.8</ele>
        <time>2020-10-24T06:51:43Z</time>
      </trkpt>
      <trkpt lat="46.09331" lon="4.54629">
        <ele>758.4</ele>
        <time>2020-10-24T06:51:44Z</time>
      </trkpt>
      <trkpt lat="46.0933" lon="4.5463">
        <ele>758.6</ele>
        <time>2020-10-24T06:51:45Z</time>
      </trkpt>
      <trkpt lat="46.09328" lon="4.54632">
        <ele>758.6</ele>
        <time>2020-10-24T06:51:46Z</time>
      </trkpt>
      <trkpt lat="46.09325" lon="4.54633">
        <ele>758.8</ele>
        <time>2020-10-24T06:51:47Z</time>
      </trkpt>
      <trkpt lat="46.09323" lon="4.54633">
        <ele>759</ele>
        <time>2020-10-24T06:51:48Z</time>
      </trkpt>
      <trkpt lat="46.09323" lon="4.54633">
        <ele>759.2</ele>
        <time>2020-10-24T06:51:49Z</time>
      </trkpt>
      <trkpt lat="46.09321" lon="4.54635">
        <ele>759.4</ele>
        <time>2020-10-24T06:51:50Z</time>
      </trkpt>
      <trkpt lat="46.09321" lon="4.54635">
        <ele>759.6</ele>
        <time>2020-10-24T06:51:51Z</time>
      </trkpt>
      <trkpt lat="46.09318" lon="4.54636">
        <ele>759.8</ele>
        <time>2020-10-24T06:51:52Z</time>
      </trkpt>
      <trkpt lat="46.09318" lon="4.54636">
        <ele>760</ele>
        <time>2020-10-24T06:51:53Z</time>
      </trkpt>
      <trkpt lat="46.09316" lon="4.54638">
        <ele>760.2</ele>
        <time>2020-10-24T06:51:54Z</time>
      </trkpt>
      <trkpt lat="46.09316" lon="4.54638">
        <ele>760.4</ele>
        <time>2020-10-24T06:51:55Z</time>
      </trkpt>
      <trkpt lat="46.09313" lon="4.5464">
        <ele>760.6</ele>
        <time>2020-10-24T06:51:56Z</time>
      </trkpt>
      <trkpt lat="46.09313" lon="4.5464">
        <ele>760.6</ele>
        <time>2020-10-24T06:51:57Z</time>
      </trkpt>
      <trkpt lat="46.09311" lon="4.54641">
        <ele>760.6</ele>
        <time>2020-10-24T06:51:58Z</time>
      </trkpt>
      <trkpt lat="46.09311" lon="4.54641">
        <ele>760.8</ele>
        <time>2020-10-24T06:51:59Z</time>
      </trkpt>
      <trkpt lat="46.09308" lon="4.54642">
        <ele>760.8</ele>
        <time>2020-10-24T06:52:00Z</time>
      </trkpt>
      <trkpt lat="46.09308" lon="4.54642">
        <ele>761.2</ele>
        <time>2020-10-24T06:52:01Z</time>
      </trkpt>
      <trkpt lat="46.09305" lon="4.54645">
        <ele>761.6</ele>
        <time>2020-10-24T06:52:02Z</time>
      </trkpt>
      <trkpt lat="46.09305" lon="4.54645">
        <ele>761.8</ele>
        <time>2020-10-24T06:52:03Z</time>
      </trkpt>
      <trkpt lat="46.09302" lon="4.54646">
        <ele>761.8</ele>
        <time>2020-10-24T06:52:04Z</time>
      </trkpt>
      <trkpt lat="46.09302" lon="4.54646">
        <ele>762.2</ele>
        <time>2020-10-24T06:52:05Z</time>
      </trkpt>
      <trkpt lat="46.093" lon="4.54648">
        <ele>762.4</ele>
        <time>2020-10-24T06:52:06Z</time>
      </trkpt>
      <trkpt lat="46.093" lon="4.54648">
        <ele>762.4</ele>
        <time>2020-10-24T06:52:07Z</time>
      </trkpt>
      <trkpt lat="46.09297" lon="4.5465">
        <ele>762.6</ele>
        <time>2020-10-24T06:52:08Z</time>
      </trkpt>
      <trkpt lat="46.09297" lon="4.5465">
        <ele>762.8</ele>
        <time>2020-10-24T06:52:09Z</time>
      </trkpt>
      <trkpt lat="46.09295" lon="4.54653">
        <ele>763</ele>
        <time>2020-10-24T06:52:10Z</time>
      </trkpt>
      <trkpt lat="46.09295" lon="4.54653">
        <ele>763</ele>
        <time>2020-10-24T06:52:11Z</time>
      </trkpt>
      <trkpt lat="46.09291" lon="4.54656">
        <ele>763.2</ele>
        <time>2020-10-24T06:52:12Z</time>
      </trkpt>
      <trkpt lat="46.09291" lon="4.54656">
        <ele>763</ele>
        <time>2020-10-24T06:52:13Z</time>
      </trkpt>
      <trkpt lat="46.09289" lon="4.54658">
        <ele>763.2</ele>
        <time>2020-10-24T06:52:14Z</time>
      </trkpt>
      <trkpt lat="46.09289" lon="4.54658">
        <ele>763.4</ele>
        <time>2020-10-24T06:52:15Z</time>
      </trkpt>
      <trkpt lat="46.09287" lon="4.54662">
        <ele>763.4</ele>
        <time>2020-10-24T06:52:16Z</time>
      </trkpt>
      <trkpt lat="46.09287" lon="4.54662">
        <ele>763.8</ele>
        <time>2020-10-24T06:52:17Z</time>
      </trkpt>
      <trkpt lat="46.09285" lon="4.54664">
        <ele>764</ele>
        <time>2020-10-24T06:52:18Z</time>
      </trkpt>
      <trkpt lat="46.09285" lon="4.54664">
        <ele>764</ele>
        <time>2020-10-24T06:52:19Z</time>
      </trkpt>
      <trkpt lat="46.09283" lon="4.54667">
        <ele>764</ele>
        <time>2020-10-24T06:52:20Z</time>
      </trkpt>
      <trkpt lat="46.09283" lon="4.54667">
        <ele>764.2</ele>
        <time>2020-10-24T06:52:21Z</time>
      </trkpt>
      <trkpt lat="46.09281" lon="4.5467">
        <ele>764.4</ele>
        <time>2020-10-24T06:52:22Z</time>
      </trkpt>
      <trkpt lat="46.09281" lon="4.5467">
        <ele>764.4</ele>
        <time>2020-10-24T06:52:23Z</time>
      </trkpt>
      <trkpt lat="46.09281" lon="4.5467">
        <ele>764.6</ele>
        <time>2020-10-24T06:52:24Z</time>
      </trkpt>
      <trkpt lat="46.0928" lon="4.54673">
        <ele>764.8</ele>
        <time>2020-10-24T06:52:25Z</time>
      </trkpt>
      <trkpt lat="46.0928" lon="4.54673">
        <ele>765.2</ele>
        <time>2020-10-24T06:52:26Z</time>
      </trkpt>
      <trkpt lat="46.0928" lon="4.54673">
        <ele>765.2</ele>
        <time>2020-10-24T06:52:27Z</time>
      </trkpt>
      <trkpt lat="46.09279" lon="4.54676">
        <ele>765.2</ele>
        <time>2020-10-24T06:52:28Z</time>
      </trkpt>
      <trkpt lat="46.09279" lon="4.54676">
        <ele>765.2</ele>
        <time>2020-10-24T06:52:29Z</time>
      </trkpt>
      <trkpt lat="46.09279" lon="4.54676">
        <ele>765.4</ele>
        <time>2020-10-24T06:52:30Z</time>
      </trkpt>
      <trkpt lat="46.09279" lon="4.54676">
        <ele>765.8</ele>
        <time>2020-10-24T06:52:31Z</time>
      </trkpt>
      <trkpt lat="46.09278" lon="4.54679">
        <ele>765.8</ele>
        <time>2020-10-24T06:52:32Z</time>
      </trkpt>
      <trkpt lat="46.09278" lon="4.54679">
        <ele>766</ele>
        <time>2020-10-24T06:52:33Z</time>
      </trkpt>
      <trkpt lat="46.09278" lon="4.54679">
        <ele>766.2</ele>
        <time>2020-10-24T06:52:34Z</time>
      </trkpt>
      <trkpt lat="46.09277" lon="4.54681">
        <ele>766.2</ele>
        <time>2020-10-24T06:52:35Z</time>
      </trkpt>
      <trkpt lat="46.09277" lon="4.54681">
        <ele>766.2</ele>
        <time>2020-10-24T06:52:36Z</time>
      </trkpt>
      <trkpt lat="46.09277" lon="4.54681">
        <ele>766.4</ele>
        <time>2020-10-24T06:52:37Z</time>
      </trkpt>
      <trkpt lat="46.09274" lon="4.54683">
        <ele>766.4</ele>
        <time>2020-10-24T06:52:38Z</time>
      </trkpt>
      <trkpt lat="46.09274" lon="4.54683">
        <ele>766.6</ele>
        <time>2020-10-24T06:52:39Z</time>
      </trkpt>
      <trkpt lat="46.09274" lon="4.54683">
        <ele>766.6</ele>
        <time>2020-10-24T06:52:40Z</time>
      </trkpt>
      <trkpt lat="46.09272" lon="4.54686">
        <ele>767</ele>
        <time>2020-10-24T06:52:41Z</time>
      </trkpt>
      <trkpt lat="46.09272" lon="4.54686">
        <ele>767</ele>
        <time>2020-10-24T06:52:42Z</time>
      </trkpt>
      <trkpt lat="46.09271" lon="4.54689">
        <ele>767.2</ele>
        <time>2020-10-24T06:52:43Z</time>
      </trkpt>
      <trkpt lat="46.09271" lon="4.54689">
        <ele>767.4</ele>
        <time>2020-10-24T06:52:44Z</time>
      </trkpt>
      <trkpt lat="46.09271" lon="4.54693">
        <ele>768</ele>
        <time>2020-10-24T06:52:45Z</time>
      </trkpt>
      <trkpt lat="46.09271" lon="4.54693">
        <ele>767.8</ele>
        <time>2020-10-24T06:52:46Z</time>
      </trkpt>
      <trkpt lat="46.09269" lon="4.54698">
        <ele>768</ele>
        <time>2020-10-24T06:52:47Z</time>
      </trkpt>
      <trkpt lat="46.09268" lon="4.547">
        <ele>768.4</ele>
        <time>2020-10-24T06:52:48Z</time>
      </trkpt>
      <trkpt lat="46.09266" lon="4.54703">
        <ele>768.6</ele>
        <time>2020-10-24T06:52:49Z</time>
      </trkpt>
      <trkpt lat="46.09265" lon="4.54705">
        <ele>768.6</ele>
        <time>2020-10-24T06:52:50Z</time>
      </trkpt>
      <trkpt lat="46.09264" lon="4.54708">
        <ele>769</ele>
        <time>2020-10-24T06:52:51Z</time>
      </trkpt>
      <trkpt lat="46.09262" lon="4.5471">
        <ele>769.2</ele>
        <time>2020-10-24T06:52:52Z</time>
      </trkpt>
      <trkpt lat="46.09261" lon="4.54713">
        <ele>769.4</ele>
        <time>2020-10-24T06:52:53Z</time>
      </trkpt>
      <trkpt lat="46.09259" lon="4.54715">
        <ele>769.8</ele>
        <time>2020-10-24T06:52:54Z</time>
      </trkpt>
      <trkpt lat="46.09258" lon="4.54717">
        <ele>770</ele>
        <time>2020-10-24T06:52:55Z</time>
      </trkpt>
      <trkpt lat="46.09257" lon="4.54719">
        <ele>770.2</ele>
        <time>2020-10-24T06:52:56Z</time>
      </trkpt>
      <trkpt lat="46.09256" lon="4.54721">
        <ele>770.2</ele>
        <time>2020-10-24T06:52:57Z</time>
      </trkpt>
      <trkpt lat="46.09255" lon="4.54725">
        <ele>770.2</ele>
        <time>2020-10-24T06:52:58Z</time>
      </trkpt>
      <trkpt lat="46.09254" lon="4.54728">
        <ele>770.6</ele>
        <time>2020-10-24T06:52:59Z</time>
      </trkpt>
      <trkpt lat="46.09254" lon="4.54728">
        <ele>770.4</ele>
        <time>2020-10-24T06:53:00Z</time>
      </trkpt>
      <trkpt lat="46.09252" lon="4.54732">
        <ele>770.4</ele>
        <time>2020-10-24T06:53:01Z</time>
      </trkpt>
      <trkpt lat="46.09251" lon="4.54734">
        <ele>770.8</ele>
        <time>2020-10-24T06:53:02Z</time>
      </trkpt>
      <trkpt lat="46.0925" lon="4.54737">
        <ele>770.8</ele>
        <time>2020-10-24T06:53:03Z</time>
      </trkpt>
      <trkpt lat="46.09248" lon="4.54739">
        <ele>770.8</ele>
        <time>2020-10-24T06:53:04Z</time>
      </trkpt>
      <trkpt lat="46.09247" lon="4.54742">
        <ele>771</ele>
        <time>2020-10-24T06:53:05Z</time>
      </trkpt>
      <trkpt lat="46.09245" lon="4.54744">
        <ele>771.2</ele>
        <time>2020-10-24T06:53:06Z</time>
      </trkpt>
      <trkpt lat="46.09244" lon="4.54746">
        <ele>771.2</ele>
        <time>2020-10-24T06:53:07Z</time>
      </trkpt>
      <trkpt lat="46.09242" lon="4.54749">
        <ele>771.4</ele>
        <time>2020-10-24T06:53:08Z</time>
      </trkpt>
      <trkpt lat="46.09241" lon="4.54752">
        <ele>771.2</ele>
        <time>2020-10-24T06:53:09Z</time>
      </trkpt>
      <trkpt lat="46.0924" lon="4.54754">
        <ele>771.2</ele>
        <time>2020-10-24T06:53:10Z</time>
      </trkpt>
      <trkpt lat="46.09239" lon="4.54756">
        <ele>771.2</ele>
        <time>2020-10-24T06:53:11Z</time>
      </trkpt>
      <trkpt lat="46.09238" lon="4.54759">
        <ele>771</ele>
        <time>2020-10-24T06:53:12Z</time>
      </trkpt>
      <trkpt lat="46.09236" lon="4.54762">
        <ele>770.8</ele>
        <time>2020-10-24T06:53:13Z</time>
      </trkpt>
      <trkpt lat="46.09235" lon="4.54766">
        <ele>771.2</ele>
        <time>2020-10-24T06:53:14Z</time>
      </trkpt>
      <trkpt lat="46.09233" lon="4.54769">
        <ele>770.6</ele>
        <time>2020-10-24T06:53:15Z</time>
      </trkpt>
      <trkpt lat="46.09232" lon="4.54772">
        <ele>770.4</ele>
        <time>2020-10-24T06:53:16Z</time>
      </trkpt>
      <trkpt lat="46.0923" lon="4.54775">
        <ele>770.6</ele>
        <time>2020-10-24T06:53:17Z</time>
      </trkpt>
      <trkpt lat="46.09229" lon="4.54778">
        <ele>770.4</ele>
        <time>2020-10-24T06:53:18Z</time>
      </trkpt>
      <trkpt lat="46.09227" lon="4.54782">
        <ele>770</ele>
        <time>2020-10-24T06:53:19Z</time>
      </trkpt>
      <trkpt lat="46.09226" lon="4.54786">
        <ele>770</ele>
        <time>2020-10-24T06:53:20Z</time>
      </trkpt>
      <trkpt lat="46.09224" lon="4.5479">
        <ele>769.6</ele>
        <time>2020-10-24T06:53:21Z</time>
      </trkpt>
      <trkpt lat="46.09222" lon="4.54794">
        <ele>769.4</ele>
        <time>2020-10-24T06:53:22Z</time>
      </trkpt>
      <trkpt lat="46.09219" lon="4.54798">
        <ele>769.4</ele>
        <time>2020-10-24T06:53:23Z</time>
      </trkpt>
      <trkpt lat="46.09217" lon="4.54801">
        <ele>769.2</ele>
        <time>2020-10-24T06:53:24Z</time>
      </trkpt>
      <trkpt lat="46.09215" lon="4.54804">
        <ele>769.2</ele>
        <time>2020-10-24T06:53:25Z</time>
      </trkpt>
      <trkpt lat="46.09213" lon="4.54806">
        <ele>769.2</ele>
        <time>2020-10-24T06:53:26Z</time>
      </trkpt>
      <trkpt lat="46.09211" lon="4.54808">
        <ele>769</ele>
        <time>2020-10-24T06:53:27Z</time>
      </trkpt>
      <trkpt lat="46.0921" lon="4.5481">
        <ele>768.8</ele>
        <time>2020-10-24T06:53:28Z</time>
      </trkpt>
      <trkpt lat="46.09209" lon="4.54812">
        <ele>769</ele>
        <time>2020-10-24T06:53:29Z</time>
      </trkpt>
      <trkpt lat="46.09203" lon="4.54819">
        <ele>769</ele>
        <time>2020-10-24T06:53:30Z</time>
      </trkpt>
      <trkpt lat="46.09202" lon="4.54821">
        <ele>769.4</ele>
        <time>2020-10-24T06:53:31Z</time>
      </trkpt>
      <trkpt lat="46.09201" lon="4.54823">
        <ele>769.6</ele>
        <time>2020-10-24T06:53:32Z</time>
      </trkpt>
      <trkpt lat="46.09195" lon="4.54832">
        <ele>769.2</ele>
        <time>2020-10-24T06:53:33Z</time>
      </trkpt>
      <trkpt lat="46.09192" lon="4.54836">
        <ele>769.4</ele>
        <time>2020-10-24T06:53:34Z</time>
      </trkpt>
      <trkpt lat="46.0919" lon="4.54839">
        <ele>769.6</ele>
        <time>2020-10-24T06:53:35Z</time>
      </trkpt>
      <trkpt lat="46.09188" lon="4.54843">
        <ele>769.4</ele>
        <time>2020-10-24T06:53:36Z</time>
      </trkpt>
      <trkpt lat="46.09186" lon="4.54846">
        <ele>769.4</ele>
        <time>2020-10-24T06:53:37Z</time>
      </trkpt>
      <trkpt lat="46.09184" lon="4.54848">
        <ele>769.4</ele>
        <time>2020-10-24T06:53:38Z</time>
      </trkpt>
      <trkpt lat="46.09182" lon="4.5485">
        <ele>769.2</ele>
        <time>2020-10-24T06:53:39Z</time>
      </trkpt>
      <trkpt lat="46.0918" lon="4.54852">
        <ele>769</ele>
        <time>2020-10-24T06:53:40Z</time>
      </trkpt>
      <trkpt lat="46.09178" lon="4.54854">
        <ele>769.2</ele>
        <time>2020-10-24T06:53:41Z</time>
      </trkpt>
      <trkpt lat="46.09176" lon="4.54856">
        <ele>769</ele>
        <time>2020-10-24T06:53:42Z</time>
      </trkpt>
      <trkpt lat="46.09175" lon="4.54859">
        <ele>769</ele>
        <time>2020-10-24T06:53:43Z</time>
      </trkpt>
      <trkpt lat="46.09173" lon="4.54862">
        <ele>769</ele>
        <time>2020-10-24T06:53:44Z</time>
      </trkpt>
      <trkpt lat="46.09172" lon="4.54864">
        <ele>768.8</ele>
        <time>2020-10-24T06:53:45Z</time>
      </trkpt>
      <trkpt lat="46.0917" lon="4.54866">
        <ele>769</ele>
        <time>2020-10-24T06:53:46Z</time>
      </trkpt>
      <trkpt lat="46.0917" lon="4.54866">
        <ele>768.8</ele>
        <time>2020-10-24T06:53:47Z</time>
      </trkpt>
      <trkpt lat="46.09167" lon="4.5487">
        <ele>768.8</ele>
        <time>2020-10-24T06:53:48Z</time>
      </trkpt>
      <trkpt lat="46.09166" lon="4.54873">
        <ele>769.2</ele>
        <time>2020-10-24T06:53:49Z</time>
      </trkpt>
      <trkpt lat="46.09164" lon="4.54875">
        <ele>769.2</ele>
        <time>2020-10-24T06:53:50Z</time>
      </trkpt>
      <trkpt lat="46.09162" lon="4.54877">
        <ele>769</ele>
        <time>2020-10-24T06:53:51Z</time>
      </trkpt>
      <trkpt lat="46.09161" lon="4.54879">
        <ele>769.4</ele>
        <time>2020-10-24T06:53:52Z</time>
      </trkpt>
      <trkpt lat="46.09158" lon="4.54881">
        <ele>769.2</ele>
        <time>2020-10-24T06:53:53Z</time>
      </trkpt>
      <trkpt lat="46.09157" lon="4.54883">
        <ele>769.2</ele>
        <time>2020-10-24T06:53:54Z</time>
      </trkpt>
      <trkpt lat="46.09156" lon="4.54885">
        <ele>769.6</ele>
        <time>2020-10-24T06:53:55Z</time>
      </trkpt>
      <trkpt lat="46.09154" lon="4.54887">
        <ele>769.6</ele>
        <time>2020-10-24T06:53:56Z</time>
      </trkpt>
      <trkpt lat="46.09153" lon="4.54889">
        <ele>770</ele>
        <time>2020-10-24T06:53:57Z</time>
      </trkpt>
      <trkpt lat="46.09152" lon="4.54891">
        <ele>769.8</ele>
        <time>2020-10-24T06:53:58Z</time>
      </trkpt>
      <trkpt lat="46.0915" lon="4.54893">
        <ele>769.8</ele>
        <time>2020-10-24T06:53:59Z</time>
      </trkpt>
      <trkpt lat="46.09148" lon="4.54895">
        <ele>770.2</ele>
        <time>2020-10-24T06:54:00Z</time>
      </trkpt>
      <trkpt lat="46.09146" lon="4.54897">
        <ele>770.4</ele>
        <time>2020-10-24T06:54:01Z</time>
      </trkpt>
      <trkpt lat="46.09144" lon="4.54899">
        <ele>770.4</ele>
        <time>2020-10-24T06:54:02Z</time>
      </trkpt>
      <trkpt lat="46.09142" lon="4.54901">
        <ele>770.6</ele>
        <time>2020-10-24T06:54:03Z</time>
      </trkpt>
      <trkpt lat="46.0914" lon="4.54903">
        <ele>770.4</ele>
        <time>2020-10-24T06:54:04Z</time>
      </trkpt>
      <trkpt lat="46.09138" lon="4.54905">
        <ele>770.4</ele>
        <time>2020-10-24T06:54:05Z</time>
      </trkpt>
      <trkpt lat="46.09136" lon="4.54907">
        <ele>770.6</ele>
        <time>2020-10-24T06:54:06Z</time>
      </trkpt>
      <trkpt lat="46.09134" lon="4.54909">
        <ele>770.4</ele>
        <time>2020-10-24T06:54:07Z</time>
      </trkpt>
      <trkpt lat="46.09131" lon="4.54911">
        <ele>770</ele>
        <time>2020-10-24T06:54:08Z</time>
      </trkpt>
      <trkpt lat="46.09129" lon="4.54913">
        <ele>770.4</ele>
        <time>2020-10-24T06:54:09Z</time>
      </trkpt>
      <trkpt lat="46.09127" lon="4.54915">
        <ele>770.4</ele>
        <time>2020-10-24T06:54:10Z</time>
      </trkpt>
      <trkpt lat="46.09125" lon="4.54917">
        <ele>770</ele>
        <time>2020-10-24T06:54:11Z</time>
      </trkpt>
      <trkpt lat="46.09123" lon="4.5492">
        <ele>770.4</ele>
        <time>2020-10-24T06:54:12Z</time>
      </trkpt>
      <trkpt lat="46.0912" lon="4.54923">
        <ele>770.4</ele>
        <time>2020-10-24T06:54:13Z</time>
      </trkpt>
      <trkpt lat="46.09118" lon="4.54925">
        <ele>770.4</ele>
        <time>2020-10-24T06:54:14Z</time>
      </trkpt>
      <trkpt lat="46.09116" lon="4.54928">
        <ele>770.8</ele>
        <time>2020-10-24T06:54:15Z</time>
      </trkpt>
      <trkpt lat="46.09113" lon="4.54931">
        <ele>770.6</ele>
        <time>2020-10-24T06:54:16Z</time>
      </trkpt>
      <trkpt lat="46.09111" lon="4.54934">
        <ele>770.8</ele>
        <time>2020-10-24T06:54:17Z</time>
      </trkpt>
      <trkpt lat="46.0911" lon="4.54936">
        <ele>771</ele>
        <time>2020-10-24T06:54:18Z</time>
      </trkpt>
      <trkpt lat="46.09109" lon="4.54938">
        <ele>770.8</ele>
        <time>2020-10-24T06:54:19Z</time>
      </trkpt>
      <trkpt lat="46.09107" lon="4.54941">
        <ele>770.8</ele>
        <time>2020-10-24T06:54:20Z</time>
      </trkpt>
      <trkpt lat="46.09106" lon="4.54944">
        <ele>770.8</ele>
        <time>2020-10-24T06:54:21Z</time>
      </trkpt>
      <trkpt lat="46.09104" lon="4.54946">
        <ele>770.6</ele>
        <time>2020-10-24T06:54:22Z</time>
      </trkpt>
      <trkpt lat="46.09102" lon="4.54949">
        <ele>771</ele>
        <time>2020-10-24T06:54:23Z</time>
      </trkpt>
      <trkpt lat="46.09101" lon="4.54951">
        <ele>770.8</ele>
        <time>2020-10-24T06:54:24Z</time>
      </trkpt>
      <trkpt lat="46.09099" lon="4.54953">
        <ele>770.8</ele>
        <time>2020-10-24T06:54:25Z</time>
      </trkpt>
      <trkpt lat="46.09098" lon="4.54955">
        <ele>771</ele>
        <time>2020-10-24T06:54:26Z</time>
      </trkpt>
      <trkpt lat="46.09096" lon="4.54958">
        <ele>770.8</ele>
        <time>2020-10-24T06:54:27Z</time>
      </trkpt>
      <trkpt lat="46.09094" lon="4.5496">
        <ele>770.4</ele>
        <time>2020-10-24T06:54:28Z</time>
      </trkpt>
      <trkpt lat="46.09093" lon="4.54963">
        <ele>770.8</ele>
        <time>2020-10-24T06:54:29Z</time>
      </trkpt>
      <trkpt lat="46.09091" lon="4.54965">
        <ele>770.8</ele>
        <time>2020-10-24T06:54:30Z</time>
      </trkpt>
      <trkpt lat="46.0909" lon="4.54968">
        <ele>770.6</ele>
        <time>2020-10-24T06:54:31Z</time>
      </trkpt>
      <trkpt lat="46.09088" lon="4.54971">
        <ele>771</ele>
        <time>2020-10-24T06:54:32Z</time>
      </trkpt>
      <trkpt lat="46.09086" lon="4.54974">
        <ele>771.2</ele>
        <time>2020-10-24T06:54:33Z</time>
      </trkpt>
      <trkpt lat="46.09085" lon="4.54977">
        <ele>771.4</ele>
        <time>2020-10-24T06:54:34Z</time>
      </trkpt>
      <trkpt lat="46.09082" lon="4.5498">
        <ele>771.2</ele>
        <time>2020-10-24T06:54:35Z</time>
      </trkpt>
      <trkpt lat="46.09081" lon="4.54983">
        <ele>771.2</ele>
        <time>2020-10-24T06:54:36Z</time>
      </trkpt>
      <trkpt lat="46.0908" lon="4.54985">
        <ele>771.4</ele>
        <time>2020-10-24T06:54:37Z</time>
      </trkpt>
      <trkpt lat="46.09079" lon="4.54987">
        <ele>771.6</ele>
        <time>2020-10-24T06:54:38Z</time>
      </trkpt>
      <trkpt lat="46.09077" lon="4.5499">
        <ele>771.6</ele>
        <time>2020-10-24T06:54:39Z</time>
      </trkpt>
      <trkpt lat="46.09076" lon="4.54993">
        <ele>771.8</ele>
        <time>2020-10-24T06:54:40Z</time>
      </trkpt>
      <trkpt lat="46.09075" lon="4.54996">
        <ele>771.8</ele>
        <time>2020-10-24T06:54:41Z</time>
      </trkpt>
      <trkpt lat="46.09073" lon="4.54999">
        <ele>771.8</ele>
        <time>2020-10-24T06:54:42Z</time>
      </trkpt>
      <trkpt lat="46.09072" lon="4.55001">
        <ele>772</ele>
        <time>2020-10-24T06:54:43Z</time>
      </trkpt>
      <trkpt lat="46.09071" lon="4.55004">
        <ele>771.8</ele>
        <time>2020-10-24T06:54:44Z</time>
      </trkpt>
      <trkpt lat="46.09071" lon="4.55004">
        <ele>771.8</ele>
        <time>2020-10-24T06:54:45Z</time>
      </trkpt>
      <trkpt lat="46.09069" lon="4.55007">
        <ele>772.2</ele>
        <time>2020-10-24T06:54:46Z</time>
      </trkpt>
      <trkpt lat="46.09067" lon="4.5501">
        <ele>772.6</ele>
        <time>2020-10-24T06:54:47Z</time>
      </trkpt>
      <trkpt lat="46.09066" lon="4.55012">
        <ele>772.8</ele>
        <time>2020-10-24T06:54:48Z</time>
      </trkpt>
      <trkpt lat="46.09064" lon="4.55015">
        <ele>772.8</ele>
        <time>2020-10-24T06:54:49Z</time>
      </trkpt>
      <trkpt lat="46.09062" lon="4.55017">
        <ele>772.6</ele>
        <time>2020-10-24T06:54:50Z</time>
      </trkpt>
      <trkpt lat="46.09061" lon="4.5502">
        <ele>772.4</ele>
        <time>2020-10-24T06:54:51Z</time>
      </trkpt>
      <trkpt lat="46.09061" lon="4.5502">
        <ele>772.4</ele>
        <time>2020-10-24T06:54:52Z</time>
      </trkpt>
      <trkpt lat="46.09058" lon="4.55023">
        <ele>772.2</ele>
        <time>2020-10-24T06:54:53Z</time>
      </trkpt>
      <trkpt lat="46.09058" lon="4.55023">
        <ele>772</ele>
        <time>2020-10-24T06:54:54Z</time>
      </trkpt>
      <trkpt lat="46.09056" lon="4.55025">
        <ele>772</ele>
        <time>2020-10-24T06:54:55Z</time>
      </trkpt>
      <trkpt lat="46.09056" lon="4.55025">
        <ele>772</ele>
        <time>2020-10-24T06:54:56Z</time>
      </trkpt>
      <trkpt lat="46.09056" lon="4.55025">
        <ele>771.8</ele>
        <time>2020-10-24T06:54:57Z</time>
      </trkpt>
      <trkpt lat="46.09054" lon="4.55027">
        <ele>771.6</ele>
        <time>2020-10-24T06:54:58Z</time>
      </trkpt>
      <trkpt lat="46.09054" lon="4.55027">
        <ele>771.4</ele>
        <time>2020-10-24T06:54:59Z</time>
      </trkpt>
      <trkpt lat="46.09054" lon="4.55027">
        <ele>771.6</ele>
        <time>2020-10-24T06:55:00Z</time>
      </trkpt>
      <trkpt lat="46.09053" lon="4.55029">
        <ele>771.4</ele>
        <time>2020-10-24T06:55:01Z</time>
      </trkpt>
      <trkpt lat="46.09053" lon="4.55029">
        <ele>771.4</ele>
        <time>2020-10-24T06:55:02Z</time>
      </trkpt>
      <trkpt lat="46.09053" lon="4.55029">
        <ele>771.4</ele>
        <time>2020-10-24T06:55:03Z</time>
      </trkpt>
      <trkpt lat="46.0905" lon="4.55029">
        <ele>771.6</ele>
        <time>2020-10-24T06:55:04Z</time>
      </trkpt>
      <trkpt lat="46.0905" lon="4.55029">
        <ele>771.6</ele>
        <time>2020-10-24T06:55:05Z</time>
      </trkpt>
      <trkpt lat="46.09048" lon="4.55026">
        <ele>771.6</ele>
        <time>2020-10-24T06:55:06Z</time>
      </trkpt>
      <trkpt lat="46.09048" lon="4.55026">
        <ele>771.8</ele>
        <time>2020-10-24T06:55:07Z</time>
      </trkpt>
      <trkpt lat="46.09048" lon="4.55026">
        <ele>772</ele>
        <time>2020-10-24T06:55:08Z</time>
      </trkpt>
      <trkpt lat="46.09048" lon="4.55026">
        <ele>772</ele>
        <time>2020-10-24T06:55:09Z</time>
      </trkpt>
      <trkpt lat="46.09047" lon="4.55029">
        <ele>772.2</ele>
        <time>2020-10-24T06:55:10Z</time>
      </trkpt>
      <trkpt lat="46.09047" lon="4.55029">
        <ele>772.4</ele>
        <time>2020-10-24T06:55:11Z</time>
      </trkpt>
      <trkpt lat="46.09047" lon="4.55029">
        <ele>772.2</ele>
        <time>2020-10-24T06:55:12Z</time>
      </trkpt>
      <trkpt lat="46.09047" lon="4.55029">
        <ele>772</ele>
        <time>2020-10-24T06:55:13Z</time>
      </trkpt>
      <trkpt lat="46.09046" lon="4.55032">
        <ele>771.8</ele>
        <time>2020-10-24T06:55:14Z</time>
      </trkpt>
      <trkpt lat="46.09046" lon="4.55032">
        <ele>771.4</ele>
        <time>2020-10-24T06:55:15Z</time>
      </trkpt>
      <trkpt lat="46.09044" lon="4.55033">
        <ele>772</ele>
        <time>2020-10-24T06:55:16Z</time>
      </trkpt>
      <trkpt lat="46.09042" lon="4.55035">
        <ele>772</ele>
        <time>2020-10-24T06:55:17Z</time>
      </trkpt>
      <trkpt lat="46.09042" lon="4.55035">
        <ele>772.2</ele>
        <time>2020-10-24T06:55:18Z</time>
      </trkpt>
      <trkpt lat="46.09039" lon="4.55037">
        <ele>772.2</ele>
        <time>2020-10-24T06:55:19Z</time>
      </trkpt>
      <trkpt lat="46.09038" lon="4.55038">
        <ele>772</ele>
        <time>2020-10-24T06:55:20Z</time>
      </trkpt>
      <trkpt lat="46.09036" lon="4.55039">
        <ele>772.2</ele>
        <time>2020-10-24T06:55:21Z</time>
      </trkpt>
      <trkpt lat="46.09034" lon="4.5504">
        <ele>772.2</ele>
        <time>2020-10-24T06:55:22Z</time>
      </trkpt>
      <trkpt lat="46.09033" lon="4.55043">
        <ele>772.2</ele>
        <time>2020-10-24T06:55:23Z</time>
      </trkpt>
      <trkpt lat="46.09031" lon="4.55045">
        <ele>772.4</ele>
        <time>2020-10-24T06:55:24Z</time>
      </trkpt>
      <trkpt lat="46.09029" lon="4.55046">
        <ele>772.4</ele>
        <time>2020-10-24T06:55:25Z</time>
      </trkpt>
      <trkpt lat="46.09027" lon="4.55049">
        <ele>772</ele>
        <time>2020-10-24T06:55:26Z</time>
      </trkpt>
      <trkpt lat="46.09025" lon="4.5505">
        <ele>772.6</ele>
        <time>2020-10-24T06:55:27Z</time>
      </trkpt>
      <trkpt lat="46.09023" lon="4.55052">
        <ele>772.6</ele>
        <time>2020-10-24T06:55:28Z</time>
      </trkpt>
      <trkpt lat="46.09021" lon="4.55053">
        <ele>772.8</ele>
        <time>2020-10-24T06:55:29Z</time>
      </trkpt>
      <trkpt lat="46.09019" lon="4.55055">
        <ele>772.8</ele>
        <time>2020-10-24T06:55:30Z</time>
      </trkpt>
      <trkpt lat="46.09016" lon="4.55056">
        <ele>772.8</ele>
        <time>2020-10-24T06:55:31Z</time>
      </trkpt>
      <trkpt lat="46.09014" lon="4.55057">
        <ele>773.2</ele>
        <time>2020-10-24T06:55:32Z</time>
      </trkpt>
      <trkpt lat="46.09012" lon="4.55058">
        <ele>773</ele>
        <time>2020-10-24T06:55:33Z</time>
      </trkpt>
      <trkpt lat="46.0901" lon="4.55059">
        <ele>773</ele>
        <time>2020-10-24T06:55:34Z</time>
      </trkpt>
      <trkpt lat="46.09008" lon="4.5506">
        <ele>773.2</ele>
        <time>2020-10-24T06:55:35Z</time>
      </trkpt>
      <trkpt lat="46.09006" lon="4.55062">
        <ele>773.2</ele>
        <time>2020-10-24T06:55:36Z</time>
      </trkpt>
      <trkpt lat="46.09003" lon="4.55063">
        <ele>773</ele>
        <time>2020-10-24T06:55:37Z</time>
      </trkpt>
      <trkpt lat="46.09" lon="4.55065">
        <ele>773.4</ele>
        <time>2020-10-24T06:55:38Z</time>
      </trkpt>
      <trkpt lat="46.08996" lon="4.55066">
        <ele>773.4</ele>
        <time>2020-10-24T06:55:39Z</time>
      </trkpt>
      <trkpt lat="46.08993" lon="4.55067">
        <ele>773.4</ele>
        <time>2020-10-24T06:55:40Z</time>
      </trkpt>
      <trkpt lat="46.0899" lon="4.55068">
        <ele>773.8</ele>
        <time>2020-10-24T06:55:41Z</time>
      </trkpt>
      <trkpt lat="46.08987" lon="4.55069">
        <ele>774</ele>
        <time>2020-10-24T06:55:42Z</time>
      </trkpt>
      <trkpt lat="46.08985" lon="4.55069">
        <ele>774.2</ele>
        <time>2020-10-24T06:55:43Z</time>
      </trkpt>
      <trkpt lat="46.08983" lon="4.5507">
        <ele>774.4</ele>
        <time>2020-10-24T06:55:44Z</time>
      </trkpt>
      <trkpt lat="46.0898" lon="4.5507">
        <ele>774.4</ele>
        <time>2020-10-24T06:55:45Z</time>
      </trkpt>
      <trkpt lat="46.08977" lon="4.5507">
        <ele>774.6</ele>
        <time>2020-10-24T06:55:46Z</time>
      </trkpt>
      <trkpt lat="46.08975" lon="4.5507">
        <ele>774.4</ele>
        <time>2020-10-24T06:55:47Z</time>
      </trkpt>
      <trkpt lat="46.08972" lon="4.5507">
        <ele>774.4</ele>
        <time>2020-10-24T06:55:48Z</time>
      </trkpt>
      <trkpt lat="46.08971" lon="4.5507">
        <ele>774.8</ele>
        <time>2020-10-24T06:55:49Z</time>
      </trkpt>
      <trkpt lat="46.08969" lon="4.5507">
        <ele>774.8</ele>
        <time>2020-10-24T06:55:50Z</time>
      </trkpt>
      <trkpt lat="46.08967" lon="4.55071">
        <ele>774.6</ele>
        <time>2020-10-24T06:55:51Z</time>
      </trkpt>
      <trkpt lat="46.08964" lon="4.55071">
        <ele>775.2</ele>
        <time>2020-10-24T06:55:52Z</time>
      </trkpt>
      <trkpt lat="46.08963" lon="4.55072">
        <ele>775.2</ele>
        <time>2020-10-24T06:55:53Z</time>
      </trkpt>
      <trkpt lat="46.08963" lon="4.55072">
        <ele>775</ele>
        <time>2020-10-24T06:55:54Z</time>
      </trkpt>
      <trkpt lat="46.08959" lon="4.55072">
        <ele>775.4</ele>
        <time>2020-10-24T06:55:55Z</time>
      </trkpt>
      <trkpt lat="46.08956" lon="4.55073">
        <ele>775.6</ele>
        <time>2020-10-24T06:55:56Z</time>
      </trkpt>
      <trkpt lat="46.08956" lon="4.55073">
        <ele>775.6</ele>
        <time>2020-10-24T06:55:57Z</time>
      </trkpt>
      <trkpt lat="46.08953" lon="4.55073">
        <ele>775.8</ele>
        <time>2020-10-24T06:55:58Z</time>
      </trkpt>
      <trkpt lat="46.08951" lon="4.55074">
        <ele>776</ele>
        <time>2020-10-24T06:55:59Z</time>
      </trkpt>
      <trkpt lat="46.08949" lon="4.55075">
        <ele>776.4</ele>
        <time>2020-10-24T06:56:00Z</time>
      </trkpt>
      <trkpt lat="46.08946" lon="4.55076">
        <ele>776.2</ele>
        <time>2020-10-24T06:56:01Z</time>
      </trkpt>
      <trkpt lat="46.08944" lon="4.55076">
        <ele>776.2</ele>
        <time>2020-10-24T06:56:02Z</time>
      </trkpt>
      <trkpt lat="46.08941" lon="4.55077">
        <ele>776.6</ele>
        <time>2020-10-24T06:56:03Z</time>
      </trkpt>
      <trkpt lat="46.0894" lon="4.55078">
        <ele>776.6</ele>
        <time>2020-10-24T06:56:04Z</time>
      </trkpt>
      <trkpt lat="46.0894" lon="4.55078">
        <ele>776.6</ele>
        <time>2020-10-24T06:56:05Z</time>
      </trkpt>
      <trkpt lat="46.08936" lon="4.55078">
        <ele>777</ele>
        <time>2020-10-24T06:56:06Z</time>
      </trkpt>
      <trkpt lat="46.08934" lon="4.55078">
        <ele>777</ele>
        <time>2020-10-24T06:56:07Z</time>
      </trkpt>
      <trkpt lat="46.08932" lon="4.55078">
        <ele>776.8</ele>
        <time>2020-10-24T06:56:08Z</time>
      </trkpt>
      <trkpt lat="46.0893" lon="4.55078">
        <ele>777.4</ele>
        <time>2020-10-24T06:56:09Z</time>
      </trkpt>
      <trkpt lat="46.08928" lon="4.55078">
        <ele>777.4</ele>
        <time>2020-10-24T06:56:10Z</time>
      </trkpt>
      <trkpt lat="46.08926" lon="4.55079">
        <ele>777.2</ele>
        <time>2020-10-24T06:56:11Z</time>
      </trkpt>
      <trkpt lat="46.08924" lon="4.55079">
        <ele>777.6</ele>
        <time>2020-10-24T06:56:12Z</time>
      </trkpt>
      <trkpt lat="46.08922" lon="4.55079">
        <ele>777.6</ele>
        <time>2020-10-24T06:56:13Z</time>
      </trkpt>
      <trkpt lat="46.0892" lon="4.55079">
        <ele>777.6</ele>
        <time>2020-10-24T06:56:14Z</time>
      </trkpt>
      <trkpt lat="46.08918" lon="4.55079">
        <ele>778.2</ele>
        <time>2020-10-24T06:56:15Z</time>
      </trkpt>
      <trkpt lat="46.08918" lon="4.55079">
        <ele>778.2</ele>
        <time>2020-10-24T06:56:16Z</time>
      </trkpt>
      <trkpt lat="46.08914" lon="4.55079">
        <ele>778.4</ele>
        <time>2020-10-24T06:56:17Z</time>
      </trkpt>
      <trkpt lat="46.08912" lon="4.55079">
        <ele>778.8</ele>
        <time>2020-10-24T06:56:18Z</time>
      </trkpt>
      <trkpt lat="46.08909" lon="4.5508">
        <ele>779</ele>
        <time>2020-10-24T06:56:19Z</time>
      </trkpt>
      <trkpt lat="46.08907" lon="4.5508">
        <ele>779.4</ele>
        <time>2020-10-24T06:56:20Z</time>
      </trkpt>
      <trkpt lat="46.08905" lon="4.5508">
        <ele>779.4</ele>
        <time>2020-10-24T06:56:21Z</time>
      </trkpt>
      <trkpt lat="46.08903" lon="4.55081">
        <ele>779.6</ele>
        <time>2020-10-24T06:56:22Z</time>
      </trkpt>
      <trkpt lat="46.08901" lon="4.55081">
        <ele>780.2</ele>
        <time>2020-10-24T06:56:23Z</time>
      </trkpt>
      <trkpt lat="46.08899" lon="4.55082">
        <ele>780.2</ele>
        <time>2020-10-24T06:56:24Z</time>
      </trkpt>
      <trkpt lat="46.08898" lon="4.55083">
        <ele>780.4</ele>
        <time>2020-10-24T06:56:25Z</time>
      </trkpt>
      <trkpt lat="46.08896" lon="4.55085">
        <ele>780.8</ele>
        <time>2020-10-24T06:56:26Z</time>
      </trkpt>
      <trkpt lat="46.08894" lon="4.55086">
        <ele>781</ele>
        <time>2020-10-24T06:56:27Z</time>
      </trkpt>
      <trkpt lat="46.08892" lon="4.55087">
        <ele>781</ele>
        <time>2020-10-24T06:56:28Z</time>
      </trkpt>
      <trkpt lat="46.0889" lon="4.55088">
        <ele>781.4</ele>
        <time>2020-10-24T06:56:29Z</time>
      </trkpt>
      <trkpt lat="46.08888" lon="4.55089">
        <ele>781.4</ele>
        <time>2020-10-24T06:56:30Z</time>
      </trkpt>
      <trkpt lat="46.08886" lon="4.55091">
        <ele>781.8</ele>
        <time>2020-10-24T06:56:31Z</time>
      </trkpt>
      <trkpt lat="46.08884" lon="4.55093">
        <ele>782</ele>
        <time>2020-10-24T06:56:32Z</time>
      </trkpt>
      <trkpt lat="46.08882" lon="4.55093">
        <ele>782</ele>
        <time>2020-10-24T06:56:33Z</time>
      </trkpt>
      <trkpt lat="46.0888" lon="4.55094">
        <ele>782.2</ele>
        <time>2020-10-24T06:56:34Z</time>
      </trkpt>
      <trkpt lat="46.08878" lon="4.55095">
        <ele>782.4</ele>
        <time>2020-10-24T06:56:35Z</time>
      </trkpt>
      <trkpt lat="46.08875" lon="4.55096">
        <ele>782</ele>
        <time>2020-10-24T06:56:36Z</time>
      </trkpt>
      <trkpt lat="46.08872" lon="4.55097">
        <ele>782.6</ele>
        <time>2020-10-24T06:56:37Z</time>
      </trkpt>
      <trkpt lat="46.08869" lon="4.55098">
        <ele>782.6</ele>
        <time>2020-10-24T06:56:38Z</time>
      </trkpt>
      <trkpt lat="46.08866" lon="4.55099">
        <ele>782.2</ele>
        <time>2020-10-24T06:56:39Z</time>
      </trkpt>
      <trkpt lat="46.08864" lon="4.55099">
        <ele>782.8</ele>
        <time>2020-10-24T06:56:40Z</time>
      </trkpt>
      <trkpt lat="46.08862" lon="4.551">
        <ele>782.8</ele>
        <time>2020-10-24T06:56:41Z</time>
      </trkpt>
      <trkpt lat="46.08859" lon="4.55101">
        <ele>782.6</ele>
        <time>2020-10-24T06:56:42Z</time>
      </trkpt>
      <trkpt lat="46.08857" lon="4.55103">
        <ele>783</ele>
        <time>2020-10-24T06:56:43Z</time>
      </trkpt>
      <trkpt lat="46.08853" lon="4.55105">
        <ele>782.8</ele>
        <time>2020-10-24T06:56:44Z</time>
      </trkpt>
      <trkpt lat="46.0885" lon="4.55107">
        <ele>782.2</ele>
        <time>2020-10-24T06:56:45Z</time>
      </trkpt>
      <trkpt lat="46.08847" lon="4.55108">
        <ele>782.6</ele>
        <time>2020-10-24T06:56:46Z</time>
      </trkpt>
      <trkpt lat="46.08844" lon="4.55109">
        <ele>782.2</ele>
        <time>2020-10-24T06:56:47Z</time>
      </trkpt>
      <trkpt lat="46.08842" lon="4.5511">
        <ele>782</ele>
        <time>2020-10-24T06:56:48Z</time>
      </trkpt>
      <trkpt lat="46.08839" lon="4.55111">
        <ele>782.2</ele>
        <time>2020-10-24T06:56:49Z</time>
      </trkpt>
      <trkpt lat="46.08838" lon="4.55112">
        <ele>782</ele>
        <time>2020-10-24T06:56:50Z</time>
      </trkpt>
      <trkpt lat="46.08838" lon="4.55112">
        <ele>781.6</ele>
        <time>2020-10-24T06:56:51Z</time>
      </trkpt>
      <trkpt lat="46.08834" lon="4.55115">
        <ele>781.6</ele>
        <time>2020-10-24T06:56:52Z</time>
      </trkpt>
      <trkpt lat="46.08833" lon="4.55116">
        <ele>781.4</ele>
        <time>2020-10-24T06:56:53Z</time>
      </trkpt>
      <trkpt lat="46.08831" lon="4.55118">
        <ele>780.8</ele>
        <time>2020-10-24T06:56:54Z</time>
      </trkpt>
      <trkpt lat="46.08829" lon="4.5512">
        <ele>781.2</ele>
        <time>2020-10-24T06:56:55Z</time>
      </trkpt>
      <trkpt lat="46.08826" lon="4.55121">
        <ele>781</ele>
        <time>2020-10-24T06:56:56Z</time>
      </trkpt>
      <trkpt lat="46.08824" lon="4.55123">
        <ele>781</ele>
        <time>2020-10-24T06:56:57Z</time>
      </trkpt>
      <trkpt lat="46.08821" lon="4.55125">
        <ele>781</ele>
        <time>2020-10-24T06:56:58Z</time>
      </trkpt>
      <trkpt lat="46.08819" lon="4.55126">
        <ele>781</ele>
        <time>2020-10-24T06:56:59Z</time>
      </trkpt>
      <trkpt lat="46.08817" lon="4.55128">
        <ele>781</ele>
        <time>2020-10-24T06:57:00Z</time>
      </trkpt>
      <trkpt lat="46.08814" lon="4.55129">
        <ele>781.4</ele>
        <time>2020-10-24T06:57:01Z</time>
      </trkpt>
      <trkpt lat="46.08812" lon="4.5513">
        <ele>781</ele>
        <time>2020-10-24T06:57:02Z</time>
      </trkpt>
      <trkpt lat="46.0881" lon="4.55131">
        <ele>780.6</ele>
        <time>2020-10-24T06:57:03Z</time>
      </trkpt>
      <trkpt lat="46.08808" lon="4.55133">
        <ele>780.6</ele>
        <time>2020-10-24T06:57:04Z</time>
      </trkpt>
      <trkpt lat="46.08806" lon="4.55134">
        <ele>780.2</ele>
        <time>2020-10-24T06:57:05Z</time>
      </trkpt>
      <trkpt lat="46.08804" lon="4.55135">
        <ele>779.6</ele>
        <time>2020-10-24T06:57:06Z</time>
      </trkpt>
      <trkpt lat="46.08802" lon="4.55136">
        <ele>779.8</ele>
        <time>2020-10-24T06:57:07Z</time>
      </trkpt>
      <trkpt lat="46.08802" lon="4.55136">
        <ele>779.4</ele>
        <time>2020-10-24T06:57:08Z</time>
      </trkpt>
      <trkpt lat="46.08799" lon="4.55139">
        <ele>779</ele>
        <time>2020-10-24T06:57:09Z</time>
      </trkpt>
      <trkpt lat="46.08799" lon="4.55139">
        <ele>778.8</ele>
        <time>2020-10-24T06:57:10Z</time>
      </trkpt>
      <trkpt lat="46.08796" lon="4.55142">
        <ele>778.2</ele>
        <time>2020-10-24T06:57:11Z</time>
      </trkpt>
      <trkpt lat="46.08795" lon="4.55143">
        <ele>778</ele>
        <time>2020-10-24T06:57:12Z</time>
      </trkpt>
      <trkpt lat="46.08793" lon="4.55145">
        <ele>778</ele>
        <time>2020-10-24T06:57:13Z</time>
      </trkpt>
      <trkpt lat="46.08791" lon="4.55147">
        <ele>777.6</ele>
        <time>2020-10-24T06:57:14Z</time>
      </trkpt>
      <trkpt lat="46.08789" lon="4.55148">
        <ele>777.4</ele>
        <time>2020-10-24T06:57:15Z</time>
      </trkpt>
      <trkpt lat="46.08787" lon="4.5515">
        <ele>776.8</ele>
        <time>2020-10-24T06:57:16Z</time>
      </trkpt>
      <trkpt lat="46.08785" lon="4.55152">
        <ele>776.6</ele>
        <time>2020-10-24T06:57:17Z</time>
      </trkpt>
      <trkpt lat="46.08783" lon="4.55154">
        <ele>776.2</ele>
        <time>2020-10-24T06:57:18Z</time>
      </trkpt>
      <trkpt lat="46.08781" lon="4.55156">
        <ele>775.6</ele>
        <time>2020-10-24T06:57:19Z</time>
      </trkpt>
      <trkpt lat="46.08779" lon="4.55158">
        <ele>775</ele>
        <time>2020-10-24T06:57:20Z</time>
      </trkpt>
      <trkpt lat="46.08777" lon="4.5516">
        <ele>774.8</ele>
        <time>2020-10-24T06:57:21Z</time>
      </trkpt>
      <trkpt lat="46.08775" lon="4.55161">
        <ele>774.4</ele>
        <time>2020-10-24T06:57:22Z</time>
      </trkpt>
      <trkpt lat="46.08772" lon="4.55163">
        <ele>773.8</ele>
        <time>2020-10-24T06:57:23Z</time>
      </trkpt>
      <trkpt lat="46.0877" lon="4.55164">
        <ele>773.6</ele>
        <time>2020-10-24T06:57:24Z</time>
      </trkpt>
      <trkpt lat="46.08768" lon="4.55165">
        <ele>773</ele>
        <time>2020-10-24T06:57:25Z</time>
      </trkpt>
      <trkpt lat="46.08766" lon="4.55166">
        <ele>772.6</ele>
        <time>2020-10-24T06:57:26Z</time>
      </trkpt>
      <trkpt lat="46.08764" lon="4.55167">
        <ele>772.2</ele>
        <time>2020-10-24T06:57:27Z</time>
      </trkpt>
      <trkpt lat="46.08762" lon="4.55168">
        <ele>772</ele>
        <time>2020-10-24T06:57:28Z</time>
      </trkpt>
      <trkpt lat="46.08759" lon="4.55169">
        <ele>771.6</ele>
        <time>2020-10-24T06:57:29Z</time>
      </trkpt>
      <trkpt lat="46.08757" lon="4.5517">
        <ele>771</ele>
        <time>2020-10-24T06:57:30Z</time>
      </trkpt>
      <trkpt lat="46.08754" lon="4.55171">
        <ele>771</ele>
        <time>2020-10-24T06:57:31Z</time>
      </trkpt>
      <trkpt lat="46.08752" lon="4.55172">
        <ele>770.6</ele>
        <time>2020-10-24T06:57:32Z</time>
      </trkpt>
      <trkpt lat="46.08749" lon="4.55172">
        <ele>770</ele>
        <time>2020-10-24T06:57:33Z</time>
      </trkpt>
      <trkpt lat="46.08747" lon="4.55173">
        <ele>770</ele>
        <time>2020-10-24T06:57:34Z</time>
      </trkpt>
      <trkpt lat="46.08745" lon="4.55173">
        <ele>769.4</ele>
        <time>2020-10-24T06:57:35Z</time>
      </trkpt>
      <trkpt lat="46.08743" lon="4.55173">
        <ele>768.8</ele>
        <time>2020-10-24T06:57:36Z</time>
      </trkpt>
      <trkpt lat="46.0874" lon="4.55174">
        <ele>768.6</ele>
        <time>2020-10-24T06:57:37Z</time>
      </trkpt>
      <trkpt lat="46.08738" lon="4.55174">
        <ele>768</ele>
        <time>2020-10-24T06:57:38Z</time>
      </trkpt>
      <trkpt lat="46.08735" lon="4.55175">
        <ele>767.6</ele>
        <time>2020-10-24T06:57:39Z</time>
      </trkpt>
      <trkpt lat="46.08733" lon="4.55176">
        <ele>767.6</ele>
        <time>2020-10-24T06:57:40Z</time>
      </trkpt>
      <trkpt lat="46.08731" lon="4.55176">
        <ele>767</ele>
        <time>2020-10-24T06:57:41Z</time>
      </trkpt>
      <trkpt lat="46.08728" lon="4.55177">
        <ele>766.8</ele>
        <time>2020-10-24T06:57:42Z</time>
      </trkpt>
      <trkpt lat="46.08725" lon="4.55178">
        <ele>766.8</ele>
        <time>2020-10-24T06:57:43Z</time>
      </trkpt>
      <trkpt lat="46.08723" lon="4.55179">
        <ele>766.4</ele>
        <time>2020-10-24T06:57:44Z</time>
      </trkpt>
      <trkpt lat="46.0872" lon="4.5518">
        <ele>766</ele>
        <time>2020-10-24T06:57:45Z</time>
      </trkpt>
      <trkpt lat="46.08718" lon="4.5518">
        <ele>766</ele>
        <time>2020-10-24T06:57:46Z</time>
      </trkpt>
      <trkpt lat="46.08715" lon="4.55181">
        <ele>765.6</ele>
        <time>2020-10-24T06:57:47Z</time>
      </trkpt>
      <trkpt lat="46.08712" lon="4.55181">
        <ele>765.2</ele>
        <time>2020-10-24T06:57:48Z</time>
      </trkpt>
      <trkpt lat="46.08709" lon="4.55181">
        <ele>765</ele>
        <time>2020-10-24T06:57:49Z</time>
      </trkpt>
      <trkpt lat="46.08706" lon="4.55182">
        <ele>764.6</ele>
        <time>2020-10-24T06:57:50Z</time>
      </trkpt>
      <trkpt lat="46.08703" lon="4.55182">
        <ele>764.4</ele>
        <time>2020-10-24T06:57:51Z</time>
      </trkpt>
      <trkpt lat="46.08701" lon="4.55182">
        <ele>764</ele>
        <time>2020-10-24T06:57:52Z</time>
      </trkpt>
      <trkpt lat="46.08698" lon="4.55182">
        <ele>764.2</ele>
        <time>2020-10-24T06:57:53Z</time>
      </trkpt>
      <trkpt lat="46.08695" lon="4.55182">
        <ele>763.8</ele>
        <time>2020-10-24T06:57:54Z</time>
      </trkpt>
      <trkpt lat="46.08693" lon="4.55182">
        <ele>763.2</ele>
        <time>2020-10-24T06:57:55Z</time>
      </trkpt>
      <trkpt lat="46.0869" lon="4.55183">
        <ele>763.4</ele>
        <time>2020-10-24T06:57:56Z</time>
      </trkpt>
      <trkpt lat="46.08687" lon="4.55183">
        <ele>762.8</ele>
        <time>2020-10-24T06:57:57Z</time>
      </trkpt>
      <trkpt lat="46.08684" lon="4.55183">
        <ele>762.6</ele>
        <time>2020-10-24T06:57:58Z</time>
      </trkpt>
      <trkpt lat="46.08682" lon="4.55183">
        <ele>762.8</ele>
        <time>2020-10-24T06:57:59Z</time>
      </trkpt>
      <trkpt lat="46.08679" lon="4.55184">
        <ele>762.6</ele>
        <time>2020-10-24T06:58:00Z</time>
      </trkpt>
      <trkpt lat="46.08677" lon="4.55184">
        <ele>762</ele>
        <time>2020-10-24T06:58:01Z</time>
      </trkpt>
      <trkpt lat="46.08674" lon="4.55183">
        <ele>762.2</ele>
        <time>2020-10-24T06:58:02Z</time>
      </trkpt>
      <trkpt lat="46.08671" lon="4.55183">
        <ele>762.2</ele>
        <time>2020-10-24T06:58:03Z</time>
      </trkpt>
      <trkpt lat="46.08668" lon="4.55182">
        <ele>761.8</ele>
        <time>2020-10-24T06:58:04Z</time>
      </trkpt>
      <trkpt lat="46.08666" lon="4.55181">
        <ele>762</ele>
        <time>2020-10-24T06:58:05Z</time>
      </trkpt>
      <trkpt lat="46.08663" lon="4.5518">
        <ele>761.6</ele>
        <time>2020-10-24T06:58:06Z</time>
      </trkpt>
      <trkpt lat="46.08661" lon="4.55179">
        <ele>761.4</ele>
        <time>2020-10-24T06:58:07Z</time>
      </trkpt>
      <trkpt lat="46.08659" lon="4.55177">
        <ele>761.6</ele>
        <time>2020-10-24T06:58:08Z</time>
      </trkpt>
      <trkpt lat="46.08657" lon="4.55175">
        <ele>761.2</ele>
        <time>2020-10-24T06:58:09Z</time>
      </trkpt>
      <trkpt lat="46.08655" lon="4.55173">
        <ele>761</ele>
        <time>2020-10-24T06:58:10Z</time>
      </trkpt>
      <trkpt lat="46.08653" lon="4.55171">
        <ele>761</ele>
        <time>2020-10-24T06:58:11Z</time>
      </trkpt>
      <trkpt lat="46.0865" lon="4.55169">
        <ele>760.8</ele>
        <time>2020-10-24T06:58:12Z</time>
      </trkpt>
      <trkpt lat="46.08648" lon="4.55167">
        <ele>760.4</ele>
        <time>2020-10-24T06:58:13Z</time>
      </trkpt>
      <trkpt lat="46.08646" lon="4.55165">
        <ele>760.4</ele>
        <time>2020-10-24T06:58:14Z</time>
      </trkpt>
      <trkpt lat="46.08643" lon="4.55163">
        <ele>760.4</ele>
        <time>2020-10-24T06:58:15Z</time>
      </trkpt>
      <trkpt lat="46.08641" lon="4.55161">
        <ele>760</ele>
        <time>2020-10-24T06:58:16Z</time>
      </trkpt>
      <trkpt lat="46.08638" lon="4.5516">
        <ele>759.8</ele>
        <time>2020-10-24T06:58:17Z</time>
      </trkpt>
      <trkpt lat="46.08636" lon="4.55158">
        <ele>759.6</ele>
        <time>2020-10-24T06:58:18Z</time>
      </trkpt>
      <trkpt lat="46.08633" lon="4.55157">
        <ele>759.2</ele>
        <time>2020-10-24T06:58:19Z</time>
      </trkpt>
      <trkpt lat="46.08631" lon="4.55156">
        <ele>759.2</ele>
        <time>2020-10-24T06:58:20Z</time>
      </trkpt>
      <trkpt lat="46.08628" lon="4.55155">
        <ele>759</ele>
        <time>2020-10-24T06:58:21Z</time>
      </trkpt>
      <trkpt lat="46.08626" lon="4.55153">
        <ele>758.4</ele>
        <time>2020-10-24T06:58:22Z</time>
      </trkpt>
      <trkpt lat="46.08623" lon="4.55153">
        <ele>758.2</ele>
        <time>2020-10-24T06:58:23Z</time>
      </trkpt>
      <trkpt lat="46.08621" lon="4.55153">
        <ele>758</ele>
        <time>2020-10-24T06:58:24Z</time>
      </trkpt>
      <trkpt lat="46.08618" lon="4.55154">
        <ele>757.6</ele>
        <time>2020-10-24T06:58:25Z</time>
      </trkpt>
      <trkpt lat="46.08615" lon="4.55156">
        <ele>757</ele>
        <time>2020-10-24T06:58:26Z</time>
      </trkpt>
      <trkpt lat="46.08613" lon="4.55157">
        <ele>757</ele>
        <time>2020-10-24T06:58:27Z</time>
      </trkpt>
      <trkpt lat="46.0861" lon="4.55159">
        <ele>756.6</ele>
        <time>2020-10-24T06:58:28Z</time>
      </trkpt>
      <trkpt lat="46.08608" lon="4.55161">
        <ele>756.4</ele>
        <time>2020-10-24T06:58:29Z</time>
      </trkpt>
      <trkpt lat="46.08606" lon="4.55164">
        <ele>755.6</ele>
        <time>2020-10-24T06:58:30Z</time>
      </trkpt>
      <trkpt lat="46.08604" lon="4.55165">
        <ele>755.2</ele>
        <time>2020-10-24T06:58:31Z</time>
      </trkpt>
      <trkpt lat="46.08602" lon="4.55167">
        <ele>755</ele>
        <time>2020-10-24T06:58:32Z</time>
      </trkpt>
      <trkpt lat="46.08599" lon="4.55169">
        <ele>754.6</ele>
        <time>2020-10-24T06:58:33Z</time>
      </trkpt>
      <trkpt lat="46.08596" lon="4.5517">
        <ele>754.2</ele>
        <time>2020-10-24T06:58:34Z</time>
      </trkpt>
      <trkpt lat="46.08593" lon="4.55169">
        <ele>754.4</ele>
        <time>2020-10-24T06:58:35Z</time>
      </trkpt>
      <trkpt lat="46.08591" lon="4.55168">
        <ele>753.8</ele>
        <time>2020-10-24T06:58:36Z</time>
      </trkpt>
      <trkpt lat="46.08589" lon="4.55166">
        <ele>753.4</ele>
        <time>2020-10-24T06:58:37Z</time>
      </trkpt>
      <trkpt lat="46.08586" lon="4.55164">
        <ele>753.4</ele>
        <time>2020-10-24T06:58:38Z</time>
      </trkpt>
      <trkpt lat="46.08584" lon="4.55161">
        <ele>753</ele>
        <time>2020-10-24T06:58:39Z</time>
      </trkpt>
      <trkpt lat="46.08582" lon="4.55159">
        <ele>752.8</ele>
        <time>2020-10-24T06:58:40Z</time>
      </trkpt>
      <trkpt lat="46.0858" lon="4.55157">
        <ele>752.8</ele>
        <time>2020-10-24T06:58:41Z</time>
      </trkpt>
      <trkpt lat="46.08578" lon="4.55154">
        <ele>752.6</ele>
        <time>2020-10-24T06:58:42Z</time>
      </trkpt>
      <trkpt lat="46.08577" lon="4.55152">
        <ele>752.8</ele>
        <time>2020-10-24T06:58:43Z</time>
      </trkpt>
      <trkpt lat="46.08575" lon="4.55148">
        <ele>752.8</ele>
        <time>2020-10-24T06:58:44Z</time>
      </trkpt>
      <trkpt lat="46.08573" lon="4.55145">
        <ele>752.6</ele>
        <time>2020-10-24T06:58:45Z</time>
      </trkpt>
      <trkpt lat="46.08572" lon="4.55142">
        <ele>752.6</ele>
        <time>2020-10-24T06:58:46Z</time>
      </trkpt>
      <trkpt lat="46.0857" lon="4.55138">
        <ele>752.6</ele>
        <time>2020-10-24T06:58:47Z</time>
      </trkpt>
      <trkpt lat="46.08568" lon="4.55135">
        <ele>752.4</ele>
        <time>2020-10-24T06:58:48Z</time>
      </trkpt>
      <trkpt lat="46.08567" lon="4.55131">
        <ele>752.6</ele>
        <time>2020-10-24T06:58:49Z</time>
      </trkpt>
      <trkpt lat="46.08565" lon="4.55128">
        <ele>752.4</ele>
        <time>2020-10-24T06:58:50Z</time>
      </trkpt>
      <trkpt lat="46.08564" lon="4.55124">
        <ele>752.2</ele>
        <time>2020-10-24T06:58:51Z</time>
      </trkpt>
      <trkpt lat="46.08562" lon="4.55121">
        <ele>752.4</ele>
        <time>2020-10-24T06:58:52Z</time>
      </trkpt>
      <trkpt lat="46.0856" lon="4.55118">
        <ele>752</ele>
        <time>2020-10-24T06:58:53Z</time>
      </trkpt>
      <trkpt lat="46.08559" lon="4.55115">
        <ele>752</ele>
        <time>2020-10-24T06:58:54Z</time>
      </trkpt>
      <trkpt lat="46.08558" lon="4.55112">
        <ele>752.4</ele>
        <time>2020-10-24T06:58:55Z</time>
      </trkpt>
      <trkpt lat="46.08557" lon="4.55109">
        <ele>752.4</ele>
        <time>2020-10-24T06:58:56Z</time>
      </trkpt>
      <trkpt lat="46.08557" lon="4.55109">
        <ele>752.6</ele>
        <time>2020-10-24T06:58:57Z</time>
      </trkpt>
      <trkpt lat="46.08555" lon="4.55105">
        <ele>752.6</ele>
        <time>2020-10-24T06:58:58Z</time>
      </trkpt>
      <trkpt lat="46.08555" lon="4.55105">
        <ele>752.4</ele>
        <time>2020-10-24T06:58:59Z</time>
      </trkpt>
      <trkpt lat="46.08554" lon="4.55101">
        <ele>752.6</ele>
        <time>2020-10-24T06:59:00Z</time>
      </trkpt>
      <trkpt lat="46.08554" lon="4.55101">
        <ele>752.6</ele>
        <time>2020-10-24T06:59:01Z</time>
      </trkpt>
      <trkpt lat="46.08553" lon="4.55096">
        <ele>752.2</ele>
        <time>2020-10-24T06:59:02Z</time>
      </trkpt>
      <trkpt lat="46.08552" lon="4.55093">
        <ele>752</ele>
        <time>2020-10-24T06:59:03Z</time>
      </trkpt>
      <trkpt lat="46.08552" lon="4.55093">
        <ele>752.2</ele>
        <time>2020-10-24T06:59:04Z</time>
      </trkpt>
      <trkpt lat="46.0855" lon="4.55089">
        <ele>752</ele>
        <time>2020-10-24T06:59:05Z</time>
      </trkpt>
      <trkpt lat="46.08549" lon="4.55086">
        <ele>752.2</ele>
        <time>2020-10-24T06:59:06Z</time>
      </trkpt>
      <trkpt lat="46.08549" lon="4.55083">
        <ele>752.6</ele>
        <time>2020-10-24T06:59:07Z</time>
      </trkpt>
      <trkpt lat="46.08548" lon="4.5508">
        <ele>752.8</ele>
        <time>2020-10-24T06:59:08Z</time>
      </trkpt>
      <trkpt lat="46.08546" lon="4.55078">
        <ele>753.2</ele>
        <time>2020-10-24T06:59:09Z</time>
      </trkpt>
      <trkpt lat="46.08545" lon="4.55075">
        <ele>753.6</ele>
        <time>2020-10-24T06:59:10Z</time>
      </trkpt>
      <trkpt lat="46.08544" lon="4.55073">
        <ele>753.6</ele>
        <time>2020-10-24T06:59:11Z</time>
      </trkpt>
      <trkpt lat="46.08544" lon="4.55073">
        <ele>753.4</ele>
        <time>2020-10-24T06:59:12Z</time>
      </trkpt>
      <trkpt lat="46.08542" lon="4.55071">
        <ele>753.4</ele>
        <time>2020-10-24T06:59:13Z</time>
      </trkpt>
      <trkpt lat="46.08542" lon="4.55071">
        <ele>753.6</ele>
        <time>2020-10-24T06:59:14Z</time>
      </trkpt>
      <trkpt lat="46.08539" lon="4.55069">
        <ele>753.4</ele>
        <time>2020-10-24T06:59:15Z</time>
      </trkpt>
      <trkpt lat="46.08539" lon="4.55069">
        <ele>753.4</ele>
        <time>2020-10-24T06:59:16Z</time>
      </trkpt>
      <trkpt lat="46.08538" lon="4.55066">
        <ele>753.6</ele>
        <time>2020-10-24T06:59:17Z</time>
      </trkpt>
      <trkpt lat="46.08538" lon="4.55066">
        <ele>753.8</ele>
        <time>2020-10-24T06:59:18Z</time>
      </trkpt>
      <trkpt lat="46.08536" lon="4.55065">
        <ele>753.8</ele>
        <time>2020-10-24T06:59:19Z</time>
      </trkpt>
      <trkpt lat="46.08536" lon="4.55065">
        <ele>754</ele>
        <time>2020-10-24T06:59:20Z</time>
      </trkpt>
      <trkpt lat="46.08534" lon="4.55061">
        <ele>754.2</ele>
        <time>2020-10-24T06:59:21Z</time>
      </trkpt>
      <trkpt lat="46.08534" lon="4.55061">
        <ele>754.2</ele>
        <time>2020-10-24T06:59:22Z</time>
      </trkpt>
      <trkpt lat="46.08533" lon="4.55059">
        <ele>754.4</ele>
        <time>2020-10-24T06:59:23Z</time>
      </trkpt>
      <trkpt lat="46.08533" lon="4.55059">
        <ele>755</ele>
        <time>2020-10-24T06:59:24Z</time>
      </trkpt>
      <trkpt lat="46.08531" lon="4.55057">
        <ele>755.2</ele>
        <time>2020-10-24T06:59:25Z</time>
      </trkpt>
      <trkpt lat="46.08531" lon="4.55057">
        <ele>755.2</ele>
        <time>2020-10-24T06:59:26Z</time>
      </trkpt>
      <trkpt lat="46.08528" lon="4.55055">
        <ele>755.6</ele>
        <time>2020-10-24T06:59:27Z</time>
      </trkpt>
      <trkpt lat="46.08528" lon="4.55055">
        <ele>755.8</ele>
        <time>2020-10-24T06:59:28Z</time>
      </trkpt>
      <trkpt lat="46.08526" lon="4.55053">
        <ele>756</ele>
        <time>2020-10-24T06:59:29Z</time>
      </trkpt>
      <trkpt lat="46.08526" lon="4.55053">
        <ele>756.2</ele>
        <time>2020-10-24T06:59:30Z</time>
      </trkpt>
      <trkpt lat="46.08525" lon="4.5505">
        <ele>756.2</ele>
        <time>2020-10-24T06:59:31Z</time>
      </trkpt>
      <trkpt lat="46.08523" lon="4.55048">
        <ele>756.6</ele>
        <time>2020-10-24T06:59:32Z</time>
      </trkpt>
      <trkpt lat="46.08522" lon="4.55046">
        <ele>756.6</ele>
        <time>2020-10-24T06:59:33Z</time>
      </trkpt>
      <trkpt lat="46.08522" lon="4.55046">
        <ele>757</ele>
        <time>2020-10-24T06:59:34Z</time>
      </trkpt>
      <trkpt lat="46.0852" lon="4.55042">
        <ele>757.2</ele>
        <time>2020-10-24T06:59:35Z</time>
      </trkpt>
      <trkpt lat="46.08519" lon="4.5504">
        <ele>757.4</ele>
        <time>2020-10-24T06:59:36Z</time>
      </trkpt>
      <trkpt lat="46.08519" lon="4.5504">
        <ele>757.4</ele>
        <time>2020-10-24T06:59:37Z</time>
      </trkpt>
      <trkpt lat="46.08518" lon="4.55038">
        <ele>757.6</ele>
        <time>2020-10-24T06:59:38Z</time>
      </trkpt>
      <trkpt lat="46.08518" lon="4.55038">
        <ele>757.6</ele>
        <time>2020-10-24T06:59:39Z</time>
      </trkpt>
      <trkpt lat="46.08515" lon="4.55036">
        <ele>757.8</ele>
        <time>2020-10-24T06:59:40Z</time>
      </trkpt>
      <trkpt lat="46.08514" lon="4.55033">
        <ele>757.6</ele>
        <time>2020-10-24T06:59:41Z</time>
      </trkpt>
      <trkpt lat="46.08514" lon="4.55033">
        <ele>757.8</ele>
        <time>2020-10-24T06:59:42Z</time>
      </trkpt>
      <trkpt lat="46.08512" lon="4.5503">
        <ele>758</ele>
        <time>2020-10-24T06:59:43Z</time>
      </trkpt>
      <trkpt lat="46.08511" lon="4.55027">
        <ele>758</ele>
        <time>2020-10-24T06:59:44Z</time>
      </trkpt>
      <trkpt lat="46.08511" lon="4.55027">
        <ele>758.2</ele>
        <time>2020-10-24T06:59:45Z</time>
      </trkpt>
      <trkpt lat="46.08509" lon="4.55024">
        <ele>758.4</ele>
        <time>2020-10-24T06:59:46Z</time>
      </trkpt>
      <trkpt lat="46.08509" lon="4.55024">
        <ele>758.6</ele>
        <time>2020-10-24T06:59:47Z</time>
      </trkpt>
      <trkpt lat="46.08507" lon="4.55021">
        <ele>758.8</ele>
        <time>2020-10-24T06:59:48Z</time>
      </trkpt>
      <trkpt lat="46.08507" lon="4.55021">
        <ele>759</ele>
        <time>2020-10-24T06:59:49Z</time>
      </trkpt>
      <trkpt lat="46.08506" lon="4.55018">
        <ele>759.2</ele>
        <time>2020-10-24T06:59:50Z</time>
      </trkpt>
      <trkpt lat="46.08506" lon="4.55018">
        <ele>759.4</ele>
        <time>2020-10-24T06:59:51Z</time>
      </trkpt>
      <trkpt lat="46.08504" lon="4.55016">
        <ele>759.4</ele>
        <time>2020-10-24T06:59:52Z</time>
      </trkpt>
      <trkpt lat="46.08504" lon="4.55016">
        <ele>759.4</ele>
        <time>2020-10-24T06:59:53Z</time>
      </trkpt>
      <trkpt lat="46.08502" lon="4.55013">
        <ele>759.6</ele>
        <time>2020-10-24T06:59:54Z</time>
      </trkpt>
      <trkpt lat="46.08501" lon="4.55011">
        <ele>759.6</ele>
        <time>2020-10-24T06:59:55Z</time>
      </trkpt>
      <trkpt lat="46.085" lon="4.55009">
        <ele>759.4</ele>
        <time>2020-10-24T06:59:56Z</time>
      </trkpt>
      <trkpt lat="46.08499" lon="4.55007">
        <ele>759.6</ele>
        <time>2020-10-24T06:59:57Z</time>
      </trkpt>
      <trkpt lat="46.08499" lon="4.55007">
        <ele>759.8</ele>
        <time>2020-10-24T06:59:58Z</time>
      </trkpt>
      <trkpt lat="46.08497" lon="4.55003">
        <ele>760</ele>
        <time>2020-10-24T06:59:59Z</time>
      </trkpt>
      <trkpt lat="46.08495" lon="4.54999">
        <ele>760.4</ele>
        <time>2020-10-24T07:00:01Z</time>
      </trkpt>
      <trkpt lat="46.08495" lon="4.54999">
        <ele>760.6</ele>
        <time>2020-10-24T07:00:02Z</time>
      </trkpt>
      <trkpt lat="46.08495" lon="4.54999">
        <ele>760.8</ele>
        <time>2020-10-24T07:00:03Z</time>
      </trkpt>
      <trkpt lat="46.08492" lon="4.54997">
        <ele>760.6</ele>
        <time>2020-10-24T07:00:04Z</time>
      </trkpt>
      <trkpt lat="46.0849" lon="4.54995">
        <ele>761</ele>
        <time>2020-10-24T07:00:05Z</time>
      </trkpt>
      <trkpt lat="46.0849" lon="4.54995">
        <ele>761.2</ele>
        <time>2020-10-24T07:00:06Z</time>
      </trkpt>
      <trkpt lat="46.08488" lon="4.54993">
        <ele>761.8</ele>
        <time>2020-10-24T07:00:07Z</time>
      </trkpt>
      <trkpt lat="46.08488" lon="4.54993">
        <ele>762</ele>
        <time>2020-10-24T07:00:08Z</time>
      </trkpt>
      <trkpt lat="46.08486" lon="4.5499">
        <ele>762</ele>
        <time>2020-10-24T07:00:09Z</time>
      </trkpt>
      <trkpt lat="46.08486" lon="4.5499">
        <ele>762.4</ele>
        <time>2020-10-24T07:00:10Z</time>
      </trkpt>
      <trkpt lat="46.08484" lon="4.54988">
        <ele>762.4</ele>
        <time>2020-10-24T07:00:11Z</time>
      </trkpt>
      <trkpt lat="46.08484" lon="4.54988">
        <ele>762.4</ele>
        <time>2020-10-24T07:00:12Z</time>
      </trkpt>
      <trkpt lat="46.08481" lon="4.54986">
        <ele>762.8</ele>
        <time>2020-10-24T07:00:13Z</time>
      </trkpt>
      <trkpt lat="46.08481" lon="4.54986">
        <ele>763</ele>
        <time>2020-10-24T07:00:14Z</time>
      </trkpt>
      <trkpt lat="46.08479" lon="4.54986">
        <ele>763.2</ele>
        <time>2020-10-24T07:00:15Z</time>
      </trkpt>
      <trkpt lat="46.08479" lon="4.54986">
        <ele>763.4</ele>
        <time>2020-10-24T07:00:16Z</time>
      </trkpt>
      <trkpt lat="46.08479" lon="4.54986">
        <ele>763.4</ele>
        <time>2020-10-24T07:00:17Z</time>
      </trkpt>
      <trkpt lat="46.08477" lon="4.54986">
        <ele>763.4</ele>
        <time>2020-10-24T07:00:18Z</time>
      </trkpt>
      <trkpt lat="46.08477" lon="4.54986">
        <ele>763.4</ele>
        <time>2020-10-24T07:00:19Z</time>
      </trkpt>
      <trkpt lat="46.08475" lon="4.54984">
        <ele>763.8</ele>
        <time>2020-10-24T07:00:20Z</time>
      </trkpt>
      <trkpt lat="46.08475" lon="4.54984">
        <ele>764</ele>
        <time>2020-10-24T07:00:21Z</time>
      </trkpt>
      <trkpt lat="46.08475" lon="4.54984">
        <ele>764.2</ele>
        <time>2020-10-24T07:00:22Z</time>
      </trkpt>
      <trkpt lat="46.08472" lon="4.54983">
        <ele>764.6</ele>
        <time>2020-10-24T07:00:23Z</time>
      </trkpt>
      <trkpt lat="46.08471" lon="4.54984">
        <ele>764.8</ele>
        <time>2020-10-24T07:00:24Z</time>
      </trkpt>
      <trkpt lat="46.08469" lon="4.54984">
        <ele>765</ele>
        <time>2020-10-24T07:00:25Z</time>
      </trkpt>
      <trkpt lat="46.08468" lon="4.54985">
        <ele>765.2</ele>
        <time>2020-10-24T07:00:26Z</time>
      </trkpt>
      <trkpt lat="46.08468" lon="4.54985">
        <ele>765.2</ele>
        <time>2020-10-24T07:00:27Z</time>
      </trkpt>
      <trkpt lat="46.08468" lon="4.54985">
        <ele>765.4</ele>
        <time>2020-10-24T07:00:28Z</time>
      </trkpt>
      <trkpt lat="46.08464" lon="4.54985">
        <ele>766</ele>
        <time>2020-10-24T07:00:29Z</time>
      </trkpt>
      <trkpt lat="46.08464" lon="4.54985">
        <ele>766.4</ele>
        <time>2020-10-24T07:00:30Z</time>
      </trkpt>
      <trkpt lat="46.08462" lon="4.54983">
        <ele>766.8</ele>
        <time>2020-10-24T07:00:31Z</time>
      </trkpt>
      <trkpt lat="46.08462" lon="4.54983">
        <ele>767</ele>
        <time>2020-10-24T07:00:32Z</time>
      </trkpt>
      <trkpt lat="46.08459" lon="4.54981">
        <ele>767</ele>
        <time>2020-10-24T07:00:33Z</time>
      </trkpt>
      <trkpt lat="46.08457" lon="4.5498">
        <ele>767.2</ele>
        <time>2020-10-24T07:00:34Z</time>
      </trkpt>
      <trkpt lat="46.08457" lon="4.5498">
        <ele>767.6</ele>
        <time>2020-10-24T07:00:35Z</time>
      </trkpt>
      <trkpt lat="46.08455" lon="4.54979">
        <ele>767.8</ele>
        <time>2020-10-24T07:00:36Z</time>
      </trkpt>
      <trkpt lat="46.08455" lon="4.54979">
        <ele>768.2</ele>
        <time>2020-10-24T07:00:37Z</time>
      </trkpt>
      <trkpt lat="46.08451" lon="4.54979">
        <ele>768.6</ele>
        <time>2020-10-24T07:00:38Z</time>
      </trkpt>
      <trkpt lat="46.08451" lon="4.54979">
        <ele>768.8</ele>
        <time>2020-10-24T07:00:39Z</time>
      </trkpt>
      <trkpt lat="46.08448" lon="4.54979">
        <ele>768.6</ele>
        <time>2020-10-24T07:00:40Z</time>
      </trkpt>
      <trkpt lat="46.08446" lon="4.54979">
        <ele>768.6</ele>
        <time>2020-10-24T07:00:41Z</time>
      </trkpt>
      <trkpt lat="46.08444" lon="4.54978">
        <ele>768.4</ele>
        <time>2020-10-24T07:00:42Z</time>
      </trkpt>
      <trkpt lat="46.08444" lon="4.54978">
        <ele>768.6</ele>
        <time>2020-10-24T07:00:43Z</time>
      </trkpt>
      <trkpt lat="46.08441" lon="4.54978">
        <ele>768.4</ele>
        <time>2020-10-24T07:00:44Z</time>
      </trkpt>
      <trkpt lat="46.08441" lon="4.54978">
        <ele>768.4</ele>
        <time>2020-10-24T07:00:45Z</time>
      </trkpt>
      <trkpt lat="46.08438" lon="4.54978">
        <ele>768.4</ele>
        <time>2020-10-24T07:00:46Z</time>
      </trkpt>
      <trkpt lat="46.08438" lon="4.54978">
        <ele>768.2</ele>
        <time>2020-10-24T07:00:47Z</time>
      </trkpt>
      <trkpt lat="46.08435" lon="4.54977">
        <ele>768.4</ele>
        <time>2020-10-24T07:00:48Z</time>
      </trkpt>
      <trkpt lat="46.08435" lon="4.54977">
        <ele>768.4</ele>
        <time>2020-10-24T07:00:49Z</time>
      </trkpt>
      <trkpt lat="46.08432" lon="4.54976">
        <ele>768.2</ele>
        <time>2020-10-24T07:00:50Z</time>
      </trkpt>
      <trkpt lat="46.08432" lon="4.54976">
        <ele>768.4</ele>
        <time>2020-10-24T07:00:51Z</time>
      </trkpt>
      <trkpt lat="46.0843" lon="4.54974">
        <ele>768.6</ele>
        <time>2020-10-24T07:00:52Z</time>
      </trkpt>
      <trkpt lat="46.0843" lon="4.54974">
        <ele>769</ele>
        <time>2020-10-24T07:00:53Z</time>
      </trkpt>
      <trkpt lat="46.08426" lon="4.54972">
        <ele>768.6</ele>
        <time>2020-10-24T07:00:54Z</time>
      </trkpt>
      <trkpt lat="46.08425" lon="4.54971">
        <ele>768.6</ele>
        <time>2020-10-24T07:00:55Z</time>
      </trkpt>
      <trkpt lat="46.08425" lon="4.54971">
        <ele>768.4</ele>
        <time>2020-10-24T07:00:56Z</time>
      </trkpt>
      <trkpt lat="46.08421" lon="4.54969">
        <ele>768.4</ele>
        <time>2020-10-24T07:00:57Z</time>
      </trkpt>
      <trkpt lat="46.08419" lon="4.54968">
        <ele>768.4</ele>
        <time>2020-10-24T07:00:58Z</time>
      </trkpt>
      <trkpt lat="46.08417" lon="4.54966">
        <ele>768.8</ele>
        <time>2020-10-24T07:00:59Z</time>
      </trkpt>
      <trkpt lat="46.08415" lon="4.54965">
        <ele>768.2</ele>
        <time>2020-10-24T07:01:00Z</time>
      </trkpt>
      <trkpt lat="46.08413" lon="4.54964">
        <ele>768</ele>
        <time>2020-10-24T07:01:01Z</time>
      </trkpt>
      <trkpt lat="46.08411" lon="4.54964">
        <ele>767.6</ele>
        <time>2020-10-24T07:01:02Z</time>
      </trkpt>
      <trkpt lat="46.08409" lon="4.54963">
        <ele>767.2</ele>
        <time>2020-10-24T07:01:03Z</time>
      </trkpt>
      <trkpt lat="46.08407" lon="4.54962">
        <ele>767.2</ele>
        <time>2020-10-24T07:01:04Z</time>
      </trkpt>
      <trkpt lat="46.08406" lon="4.54961">
        <ele>766.6</ele>
        <time>2020-10-24T07:01:05Z</time>
      </trkpt>
      <trkpt lat="46.08406" lon="4.54961">
        <ele>766.4</ele>
        <time>2020-10-24T07:01:06Z</time>
      </trkpt>
      <trkpt lat="46.08403" lon="4.54959">
        <ele>766.6</ele>
        <time>2020-10-24T07:01:07Z</time>
      </trkpt>
      <trkpt lat="46.084" lon="4.54958">
        <ele>766.2</ele>
        <time>2020-10-24T07:01:08Z</time>
      </trkpt>
      <trkpt lat="46.08398" lon="4.54957">
        <ele>765.8</ele>
        <time>2020-10-24T07:01:09Z</time>
      </trkpt>
      <trkpt lat="46.08396" lon="4.54956">
        <ele>765.8</ele>
        <time>2020-10-24T07:01:10Z</time>
      </trkpt>
      <trkpt lat="46.08394" lon="4.54956">
        <ele>765.4</ele>
        <time>2020-10-24T07:01:11Z</time>
      </trkpt>
      <trkpt lat="46.08392" lon="4.54955">
        <ele>765.4</ele>
        <time>2020-10-24T07:01:12Z</time>
      </trkpt>
      <trkpt lat="46.08389" lon="4.54955">
        <ele>765.4</ele>
        <time>2020-10-24T07:01:13Z</time>
      </trkpt>
      <trkpt lat="46.08387" lon="4.54955">
        <ele>765</ele>
        <time>2020-10-24T07:01:14Z</time>
      </trkpt>
      <trkpt lat="46.08384" lon="4.54955">
        <ele>764.8</ele>
        <time>2020-10-24T07:01:15Z</time>
      </trkpt>
      <trkpt lat="46.08382" lon="4.54956">
        <ele>764.6</ele>
        <time>2020-10-24T07:01:16Z</time>
      </trkpt>
      <trkpt lat="46.08382" lon="4.54956">
        <ele>764.6</ele>
        <time>2020-10-24T07:01:17Z</time>
      </trkpt>
      <trkpt lat="46.0838" lon="4.54958">
        <ele>764.6</ele>
        <time>2020-10-24T07:01:18Z</time>
      </trkpt>
      <trkpt lat="46.0838" lon="4.54958">
        <ele>764.6</ele>
        <time>2020-10-24T07:01:19Z</time>
      </trkpt>
      <trkpt lat="46.08378" lon="4.5496">
        <ele>764.4</ele>
        <time>2020-10-24T07:01:20Z</time>
      </trkpt>
      <trkpt lat="46.08378" lon="4.5496">
        <ele>764.4</ele>
        <time>2020-10-24T07:01:21Z</time>
      </trkpt>
      <trkpt lat="46.08377" lon="4.54963">
        <ele>764.4</ele>
        <time>2020-10-24T07:01:22Z</time>
      </trkpt>
      <trkpt lat="46.08377" lon="4.54963">
        <ele>764.4</ele>
        <time>2020-10-24T07:01:23Z</time>
      </trkpt>
      <trkpt lat="46.08375" lon="4.54967">
        <ele>764.6</ele>
        <time>2020-10-24T07:01:24Z</time>
      </trkpt>
      <trkpt lat="46.08375" lon="4.54967">
        <ele>764.6</ele>
        <time>2020-10-24T07:01:25Z</time>
      </trkpt>
      <trkpt lat="46.08374" lon="4.5497">
        <ele>764.8</ele>
        <time>2020-10-24T07:01:26Z</time>
      </trkpt>
      <trkpt lat="46.08374" lon="4.5497">
        <ele>764.8</ele>
        <time>2020-10-24T07:01:27Z</time>
      </trkpt>
      <trkpt lat="46.08375" lon="4.54973">
        <ele>764.8</ele>
        <time>2020-10-24T07:01:28Z</time>
      </trkpt>
      <trkpt lat="46.08375" lon="4.54973">
        <ele>764.8</ele>
        <time>2020-10-24T07:01:29Z</time>
      </trkpt>
      <trkpt lat="46.08377" lon="4.54975">
        <ele>765.2</ele>
        <time>2020-10-24T07:01:30Z</time>
      </trkpt>
      <trkpt lat="46.08377" lon="4.54975">
        <ele>765.2</ele>
        <time>2020-10-24T07:01:31Z</time>
      </trkpt>
      <trkpt lat="46.08378" lon="4.54977">
        <ele>765.2</ele>
        <time>2020-10-24T07:01:32Z</time>
      </trkpt>
      <trkpt lat="46.08378" lon="4.54977">
        <ele>765.6</ele>
        <time>2020-10-24T07:01:33Z</time>
      </trkpt>
      <trkpt lat="46.08381" lon="4.5498">
        <ele>765.6</ele>
        <time>2020-10-24T07:01:34Z</time>
      </trkpt>
      <trkpt lat="46.08382" lon="4.54983">
        <ele>765.8</ele>
        <time>2020-10-24T07:01:35Z</time>
      </trkpt>
      <trkpt lat="46.08383" lon="4.54986">
        <ele>766</ele>
        <time>2020-10-24T07:01:36Z</time>
      </trkpt>
      <trkpt lat="46.08385" lon="4.54988">
        <ele>765.6</ele>
        <time>2020-10-24T07:01:37Z</time>
      </trkpt>
      <trkpt lat="46.08387" lon="4.54991">
        <ele>765.8</ele>
        <time>2020-10-24T07:01:38Z</time>
      </trkpt>
      <trkpt lat="46.08389" lon="4.54993">
        <ele>765.4</ele>
        <time>2020-10-24T07:01:39Z</time>
      </trkpt>
      <trkpt lat="46.08391" lon="4.54994">
        <ele>765</ele>
        <time>2020-10-24T07:01:40Z</time>
      </trkpt>
      <trkpt lat="46.08391" lon="4.54994">
        <ele>765.4</ele>
        <time>2020-10-24T07:01:41Z</time>
      </trkpt>
      <trkpt lat="46.08393" lon="4.54995">
        <ele>765.2</ele>
        <time>2020-10-24T07:01:42Z</time>
      </trkpt>
      <trkpt lat="46.08393" lon="4.54995">
        <ele>764.8</ele>
        <time>2020-10-24T07:01:43Z</time>
      </trkpt>
      <trkpt lat="46.08396" lon="4.54995">
        <ele>765.4</ele>
        <time>2020-10-24T07:01:44Z</time>
      </trkpt>
      <trkpt lat="46.08396" lon="4.54995">
        <ele>765.6</ele>
        <time>2020-10-24T07:01:45Z</time>
      </trkpt>
      <trkpt lat="46.08399" lon="4.54994">
        <ele>765.4</ele>
        <time>2020-10-24T07:01:46Z</time>
      </trkpt>
      <trkpt lat="46.08399" lon="4.54994">
        <ele>766.2</ele>
        <time>2020-10-24T07:01:47Z</time>
      </trkpt>
      <trkpt lat="46.08403" lon="4.54995">
        <ele>766.6</ele>
        <time>2020-10-24T07:01:48Z</time>
      </trkpt>
      <trkpt lat="46.08405" lon="4.54996">
        <ele>767</ele>
        <time>2020-10-24T07:01:49Z</time>
      </trkpt>
      <trkpt lat="46.08408" lon="4.54997">
        <ele>767.2</ele>
        <time>2020-10-24T07:01:50Z</time>
      </trkpt>
      <trkpt lat="46.0841" lon="4.54999">
        <ele>767.4</ele>
        <time>2020-10-24T07:01:51Z</time>
      </trkpt>
      <trkpt lat="46.08412" lon="4.55001">
        <ele>767.8</ele>
        <time>2020-10-24T07:01:52Z</time>
      </trkpt>
      <trkpt lat="46.08414" lon="4.55004">
        <ele>767.6</ele>
        <time>2020-10-24T07:01:53Z</time>
      </trkpt>
      <trkpt lat="46.08414" lon="4.55007">
        <ele>767.6</ele>
        <time>2020-10-24T07:01:54Z</time>
      </trkpt>
      <trkpt lat="46.08415" lon="4.5501">
        <ele>767.8</ele>
        <time>2020-10-24T07:01:55Z</time>
      </trkpt>
      <trkpt lat="46.08416" lon="4.55014">
        <ele>768.2</ele>
        <time>2020-10-24T07:01:56Z</time>
      </trkpt>
      <trkpt lat="46.08418" lon="4.55018">
        <ele>768.2</ele>
        <time>2020-10-24T07:01:57Z</time>
      </trkpt>
      <trkpt lat="46.08419" lon="4.55022">
        <ele>768</ele>
        <time>2020-10-24T07:01:58Z</time>
      </trkpt>
      <trkpt lat="46.0842" lon="4.55025">
        <ele>768</ele>
        <time>2020-10-24T07:01:59Z</time>
      </trkpt>
      <trkpt lat="46.08421" lon="4.55028">
        <ele>767.6</ele>
        <time>2020-10-24T07:02:00Z</time>
      </trkpt>
      <trkpt lat="46.08421" lon="4.55031">
        <ele>767.2</ele>
        <time>2020-10-24T07:02:01Z</time>
      </trkpt>
      <trkpt lat="46.08422" lon="4.55035">
        <ele>767.2</ele>
        <time>2020-10-24T07:02:02Z</time>
      </trkpt>
      <trkpt lat="46.08424" lon="4.55039">
        <ele>766.8</ele>
        <time>2020-10-24T07:02:03Z</time>
      </trkpt>
      <trkpt lat="46.08425" lon="4.55042">
        <ele>766.6</ele>
        <time>2020-10-24T07:02:04Z</time>
      </trkpt>
      <trkpt lat="46.08426" lon="4.55045">
        <ele>766</ele>
        <time>2020-10-24T07:02:05Z</time>
      </trkpt>
      <trkpt lat="46.08427" lon="4.55048">
        <ele>765.4</ele>
        <time>2020-10-24T07:02:06Z</time>
      </trkpt>
      <trkpt lat="46.08427" lon="4.55051">
        <ele>765.4</ele>
        <time>2020-10-24T07:02:07Z</time>
      </trkpt>
      <trkpt lat="46.08429" lon="4.55055">
        <ele>764.6</ele>
        <time>2020-10-24T07:02:08Z</time>
      </trkpt>
      <trkpt lat="46.08429" lon="4.55058">
        <ele>764.2</ele>
        <time>2020-10-24T07:02:09Z</time>
      </trkpt>
      <trkpt lat="46.08431" lon="4.55061">
        <ele>764</ele>
        <time>2020-10-24T07:02:10Z</time>
      </trkpt>
      <trkpt lat="46.08432" lon="4.55065">
        <ele>763.4</ele>
        <time>2020-10-24T07:02:11Z</time>
      </trkpt>
      <trkpt lat="46.08433" lon="4.55069">
        <ele>763</ele>
        <time>2020-10-24T07:02:12Z</time>
      </trkpt>
      <trkpt lat="46.08433" lon="4.55073">
        <ele>762.8</ele>
        <time>2020-10-24T07:02:13Z</time>
      </trkpt>
      <trkpt lat="46.08432" lon="4.55076">
        <ele>762.2</ele>
        <time>2020-10-24T07:02:14Z</time>
      </trkpt>
      <trkpt lat="46.08431" lon="4.55079">
        <ele>762</ele>
        <time>2020-10-24T07:02:15Z</time>
      </trkpt>
      <trkpt lat="46.08431" lon="4.55081">
        <ele>761.2</ele>
        <time>2020-10-24T07:02:16Z</time>
      </trkpt>
      <trkpt lat="46.0843" lon="4.55083">
        <ele>760.6</ele>
        <time>2020-10-24T07:02:17Z</time>
      </trkpt>
      <trkpt lat="46.0843" lon="4.55085">
        <ele>760</ele>
        <time>2020-10-24T07:02:18Z</time>
      </trkpt>
      <trkpt lat="46.08429" lon="4.55086">
        <ele>759.4</ele>
        <time>2020-10-24T07:02:19Z</time>
      </trkpt>
      <trkpt lat="46.08428" lon="4.55088">
        <ele>758.8</ele>
        <time>2020-10-24T07:02:20Z</time>
      </trkpt>
      <trkpt lat="46.08425" lon="4.55097">
        <ele>758.2</ele>
        <time>2020-10-24T07:02:21Z</time>
      </trkpt>
      <trkpt lat="46.08425" lon="4.551">
        <ele>757.6</ele>
        <time>2020-10-24T07:02:22Z</time>
      </trkpt>
      <trkpt lat="46.08424" lon="4.55104">
        <ele>757.2</ele>
        <time>2020-10-24T07:02:23Z</time>
      </trkpt>
      <trkpt lat="46.08423" lon="4.55107">
        <ele>756.2</ele>
        <time>2020-10-24T07:02:24Z</time>
      </trkpt>
      <trkpt lat="46.08422" lon="4.5511">
        <ele>755.4</ele>
        <time>2020-10-24T07:02:25Z</time>
      </trkpt>
      <trkpt lat="46.08421" lon="4.55113">
        <ele>754.8</ele>
        <time>2020-10-24T07:02:26Z</time>
      </trkpt>
      <trkpt lat="46.08419" lon="4.55116">
        <ele>754</ele>
        <time>2020-10-24T07:02:27Z</time>
      </trkpt>
      <trkpt lat="46.08418" lon="4.55119">
        <ele>753.2</ele>
        <time>2020-10-24T07:02:28Z</time>
      </trkpt>
      <trkpt lat="46.08416" lon="4.55122">
        <ele>752.2</ele>
        <time>2020-10-24T07:02:29Z</time>
      </trkpt>
      <trkpt lat="46.08415" lon="4.55124">
        <ele>751.6</ele>
        <time>2020-10-24T07:02:30Z</time>
      </trkpt>
      <trkpt lat="46.08413" lon="4.55127">
        <ele>751.2</ele>
        <time>2020-10-24T07:02:31Z</time>
      </trkpt>
      <trkpt lat="46.08413" lon="4.55129">
        <ele>750.6</ele>
        <time>2020-10-24T07:02:32Z</time>
      </trkpt>
      <trkpt lat="46.08413" lon="4.5513">
        <ele>750.4</ele>
        <time>2020-10-24T07:02:33Z</time>
      </trkpt>
      <trkpt lat="46.08413" lon="4.55132">
        <ele>749.4</ele>
        <time>2020-10-24T07:02:34Z</time>
      </trkpt>
      <trkpt lat="46.08412" lon="4.55134">
        <ele>749</ele>
        <time>2020-10-24T07:02:35Z</time>
      </trkpt>
      <trkpt lat="46.08412" lon="4.55135">
        <ele>748.8</ele>
        <time>2020-10-24T07:02:36Z</time>
      </trkpt>
      <trkpt lat="46.0841" lon="4.55147">
        <ele>748</ele>
        <time>2020-10-24T07:02:37Z</time>
      </trkpt>
      <trkpt lat="46.08409" lon="4.5515">
        <ele>747.6</ele>
        <time>2020-10-24T07:02:38Z</time>
      </trkpt>
      <trkpt lat="46.08408" lon="4.55153">
        <ele>746.6</ele>
        <time>2020-10-24T07:02:39Z</time>
      </trkpt>
      <trkpt lat="46.08407" lon="4.55157">
        <ele>746</ele>
        <time>2020-10-24T07:02:40Z</time>
      </trkpt>
      <trkpt lat="46.08408" lon="4.5516">
        <ele>745.8</ele>
        <time>2020-10-24T07:02:41Z</time>
      </trkpt>
      <trkpt lat="46.08408" lon="4.55164">
        <ele>745</ele>
        <time>2020-10-24T07:02:42Z</time>
      </trkpt>
      <trkpt lat="46.08407" lon="4.55167">
        <ele>744.4</ele>
        <time>2020-10-24T07:02:43Z</time>
      </trkpt>
      <trkpt lat="46.08406" lon="4.55169">
        <ele>744.4</ele>
        <time>2020-10-24T07:02:44Z</time>
      </trkpt>
      <trkpt lat="46.08405" lon="4.55173">
        <ele>744</ele>
        <time>2020-10-24T07:02:45Z</time>
      </trkpt>
      <trkpt lat="46.08403" lon="4.55175">
        <ele>743.6</ele>
        <time>2020-10-24T07:02:46Z</time>
      </trkpt>
      <trkpt lat="46.08402" lon="4.55178">
        <ele>743.4</ele>
        <time>2020-10-24T07:02:47Z</time>
      </trkpt>
      <trkpt lat="46.08401" lon="4.5518">
        <ele>743</ele>
        <time>2020-10-24T07:02:48Z</time>
      </trkpt>
      <trkpt lat="46.08401" lon="4.55183">
        <ele>742.6</ele>
        <time>2020-10-24T07:02:49Z</time>
      </trkpt>
      <trkpt lat="46.08402" lon="4.55185">
        <ele>742.2</ele>
        <time>2020-10-24T07:02:50Z</time>
      </trkpt>
      <trkpt lat="46.08402" lon="4.55187">
        <ele>741.8</ele>
        <time>2020-10-24T07:02:51Z</time>
      </trkpt>
      <trkpt lat="46.08403" lon="4.5519">
        <ele>741.4</ele>
        <time>2020-10-24T07:02:52Z</time>
      </trkpt>
      <trkpt lat="46.08404" lon="4.55193">
        <ele>740.8</ele>
        <time>2020-10-24T07:02:53Z</time>
      </trkpt>
      <trkpt lat="46.08406" lon="4.55197">
        <ele>740.2</ele>
        <time>2020-10-24T07:02:54Z</time>
      </trkpt>
      <trkpt lat="46.08406" lon="4.55201">
        <ele>740.4</ele>
        <time>2020-10-24T07:02:55Z</time>
      </trkpt>
      <trkpt lat="46.08407" lon="4.55205">
        <ele>739.8</ele>
        <time>2020-10-24T07:02:56Z</time>
      </trkpt>
      <trkpt lat="46.08407" lon="4.55209">
        <ele>739.4</ele>
        <time>2020-10-24T07:02:57Z</time>
      </trkpt>
      <trkpt lat="46.08408" lon="4.55212">
        <ele>739.2</ele>
        <time>2020-10-24T07:02:58Z</time>
      </trkpt>
      <trkpt lat="46.08408" lon="4.55216">
        <ele>738.6</ele>
        <time>2020-10-24T07:02:59Z</time>
      </trkpt>
      <trkpt lat="46.08408" lon="4.5522">
        <ele>738.2</ele>
        <time>2020-10-24T07:03:00Z</time>
      </trkpt>
      <trkpt lat="46.08407" lon="4.55222">
        <ele>738</ele>
        <time>2020-10-24T07:03:01Z</time>
      </trkpt>
      <trkpt lat="46.08407" lon="4.55222">
        <ele>738</ele>
        <time>2020-10-24T07:03:02Z</time>
      </trkpt>
      <trkpt lat="46.08407" lon="4.55222">
        <ele>738</ele>
        <time>2020-10-24T07:03:03Z</time>
      </trkpt>
      <trkpt lat="46.08407" lon="4.55222">
        <ele>737.8</ele>
        <time>2020-10-24T07:03:04Z</time>
      </trkpt>
      <trkpt lat="46.08407" lon="4.55222">
        <ele>737.8</ele>
        <time>2020-10-24T07:03:05Z</time>
      </trkpt>
      <trkpt lat="46.08407" lon="4.55222">
        <ele>737.8</ele>
        <time>2020-10-24T07:03:06Z</time>
      </trkpt>
      <trkpt lat="46.08407" lon="4.55222">
        <ele>737.8</ele>
        <time>2020-10-24T07:03:07Z</time>
      </trkpt>
      <trkpt lat="46.08407" lon="4.55222">
        <ele>738</ele>
        <time>2020-10-24T07:03:08Z</time>
      </trkpt>
      <trkpt lat="46.08407" lon="4.55222">
        <ele>738</ele>
        <time>2020-10-24T07:03:09Z</time>
      </trkpt>
      <trkpt lat="46.08407" lon="4.55222">
        <ele>738.2</ele>
        <time>2020-10-24T07:03:10Z</time>
      </trkpt>
      <trkpt lat="46.08407" lon="4.55222">
        <ele>738.2</ele>
        <time>2020-10-24T07:03:11Z</time>
      </trkpt>
      <trkpt lat="46.08407" lon="4.55222">
        <ele>738.2</ele>
        <time>2020-10-24T07:03:12Z</time>
      </trkpt>
      <trkpt lat="46.08407" lon="4.55222">
        <ele>738.2</ele>
        <time>2020-10-24T07:03:13Z</time>
      </trkpt>
      <trkpt lat="46.08407" lon="4.55222">
        <ele>738.2</ele>
        <time>2020-10-24T07:03:14Z</time>
      </trkpt>
      <trkpt lat="46.08407" lon="4.55222">
        <ele>737.8</ele>
        <time>2020-10-24T07:03:15Z</time>
      </trkpt>
      <trkpt lat="46.08407" lon="4.55222">
        <ele>737.6</ele>
        <time>2020-10-24T07:03:16Z</time>
      </trkpt>
      <trkpt lat="46.08406" lon="4.55226">
        <ele>737.4</ele>
        <time>2020-10-24T07:03:17Z</time>
      </trkpt>
      <trkpt lat="46.08406" lon="4.55226">
        <ele>737.4</ele>
        <time>2020-10-24T07:03:18Z</time>
      </trkpt>
      <trkpt lat="46.08405" lon="4.5523">
        <ele>737.2</ele>
        <time>2020-10-24T07:03:19Z</time>
      </trkpt>
      <trkpt lat="46.08405" lon="4.5523">
        <ele>736.8</ele>
        <time>2020-10-24T07:03:20Z</time>
      </trkpt>
      <trkpt lat="46.08404" lon="4.55235">
        <ele>736.8</ele>
        <time>2020-10-24T07:03:21Z</time>
      </trkpt>
      <trkpt lat="46.08404" lon="4.55235">
        <ele>736.6</ele>
        <time>2020-10-24T07:03:22Z</time>
      </trkpt>
      <trkpt lat="46.08404" lon="4.5524">
        <ele>736.4</ele>
        <time>2020-10-24T07:03:23Z</time>
      </trkpt>
      <trkpt lat="46.08404" lon="4.55243">
        <ele>736</ele>
        <time>2020-10-24T07:03:24Z</time>
      </trkpt>
      <trkpt lat="46.08404" lon="4.55246">
        <ele>736</ele>
        <time>2020-10-24T07:03:25Z</time>
      </trkpt>
      <trkpt lat="46.08404" lon="4.55249">
        <ele>736</ele>
        <time>2020-10-24T07:03:26Z</time>
      </trkpt>
      <trkpt lat="46.08403" lon="4.55253">
        <ele>735.4</ele>
        <time>2020-10-24T07:03:27Z</time>
      </trkpt>
      <trkpt lat="46.08403" lon="4.55257">
        <ele>735.2</ele>
        <time>2020-10-24T07:03:28Z</time>
      </trkpt>
      <trkpt lat="46.08402" lon="4.5526">
        <ele>735.2</ele>
        <time>2020-10-24T07:03:29Z</time>
      </trkpt>
      <trkpt lat="46.08402" lon="4.55265">
        <ele>734.6</ele>
        <time>2020-10-24T07:03:30Z</time>
      </trkpt>
      <trkpt lat="46.08402" lon="4.55268">
        <ele>734.4</ele>
        <time>2020-10-24T07:03:31Z</time>
      </trkpt>
      <trkpt lat="46.08402" lon="4.55272">
        <ele>734.2</ele>
        <time>2020-10-24T07:03:32Z</time>
      </trkpt>
      <trkpt lat="46.08401" lon="4.55275">
        <ele>734</ele>
        <time>2020-10-24T07:03:33Z</time>
      </trkpt>
      <trkpt lat="46.08401" lon="4.55279">
        <ele>733.8</ele>
        <time>2020-10-24T07:03:34Z</time>
      </trkpt>
      <trkpt lat="46.08401" lon="4.55282">
        <ele>733.6</ele>
        <time>2020-10-24T07:03:35Z</time>
      </trkpt>
      <trkpt lat="46.084" lon="4.55286">
        <ele>733.2</ele>
        <time>2020-10-24T07:03:36Z</time>
      </trkpt>
      <trkpt lat="46.084" lon="4.5529">
        <ele>733.2</ele>
        <time>2020-10-24T07:03:37Z</time>
      </trkpt>
      <trkpt lat="46.084" lon="4.55293">
        <ele>733.2</ele>
        <time>2020-10-24T07:03:38Z</time>
      </trkpt>
      <trkpt lat="46.084" lon="4.55297">
        <ele>732.8</ele>
        <time>2020-10-24T07:03:39Z</time>
      </trkpt>
      <trkpt lat="46.084" lon="4.553">
        <ele>732.8</ele>
        <time>2020-10-24T07:03:40Z</time>
      </trkpt>
      <trkpt lat="46.084" lon="4.55304">
        <ele>732.6</ele>
        <time>2020-10-24T07:03:41Z</time>
      </trkpt>
      <trkpt lat="46.08399" lon="4.55308">
        <ele>732.4</ele>
        <time>2020-10-24T07:03:42Z</time>
      </trkpt>
      <trkpt lat="46.08399" lon="4.55311">
        <ele>732.4</ele>
        <time>2020-10-24T07:03:43Z</time>
      </trkpt>
      <trkpt lat="46.08399" lon="4.55315">
        <ele>732.2</ele>
        <time>2020-10-24T07:03:44Z</time>
      </trkpt>
      <trkpt lat="46.08399" lon="4.55318">
        <ele>731.8</ele>
        <time>2020-10-24T07:03:45Z</time>
      </trkpt>
      <trkpt lat="46.08398" lon="4.55322">
        <ele>731.8</ele>
        <time>2020-10-24T07:03:46Z</time>
      </trkpt>
      <trkpt lat="46.08398" lon="4.55326">
        <ele>731.6</ele>
        <time>2020-10-24T07:03:47Z</time>
      </trkpt>
      <trkpt lat="46.08398" lon="4.55329">
        <ele>731</ele>
        <time>2020-10-24T07:03:48Z</time>
      </trkpt>
      <trkpt lat="46.08397" lon="4.55333">
        <ele>730.8</ele>
        <time>2020-10-24T07:03:49Z</time>
      </trkpt>
      <trkpt lat="46.08396" lon="4.55337">
        <ele>730.8</ele>
        <time>2020-10-24T07:03:50Z</time>
      </trkpt>
      <trkpt lat="46.08396" lon="4.5534">
        <ele>730.2</ele>
        <time>2020-10-24T07:03:51Z</time>
      </trkpt>
      <trkpt lat="46.08394" lon="4.55343">
        <ele>730</ele>
        <time>2020-10-24T07:03:52Z</time>
      </trkpt>
      <trkpt lat="46.08393" lon="4.55347">
        <ele>729.8</ele>
        <time>2020-10-24T07:03:53Z</time>
      </trkpt>
      <trkpt lat="46.08392" lon="4.5535">
        <ele>729.2</ele>
        <time>2020-10-24T07:03:54Z</time>
      </trkpt>
      <trkpt lat="46.0839" lon="4.55353">
        <ele>728.8</ele>
        <time>2020-10-24T07:03:55Z</time>
      </trkpt>
      <trkpt lat="46.08389" lon="4.55356">
        <ele>728.8</ele>
        <time>2020-10-24T07:03:56Z</time>
      </trkpt>
      <trkpt lat="46.08387" lon="4.55359">
        <ele>728.4</ele>
        <time>2020-10-24T07:03:57Z</time>
      </trkpt>
      <trkpt lat="46.08386" lon="4.55363">
        <ele>727.8</ele>
        <time>2020-10-24T07:03:58Z</time>
      </trkpt>
      <trkpt lat="46.08385" lon="4.55366">
        <ele>728</ele>
        <time>2020-10-24T07:03:59Z</time>
      </trkpt>
      <trkpt lat="46.08384" lon="4.55369">
        <ele>727.6</ele>
        <time>2020-10-24T07:04:00Z</time>
      </trkpt>
      <trkpt lat="46.08382" lon="4.55372">
        <ele>727.2</ele>
        <time>2020-10-24T07:04:01Z</time>
      </trkpt>
      <trkpt lat="46.08381" lon="4.55375">
        <ele>727.4</ele>
        <time>2020-10-24T07:04:02Z</time>
      </trkpt>
      <trkpt lat="46.0838" lon="4.55377">
        <ele>727</ele>
        <time>2020-10-24T07:04:03Z</time>
      </trkpt>
      <trkpt lat="46.08379" lon="4.5538">
        <ele>726.4</ele>
        <time>2020-10-24T07:04:04Z</time>
      </trkpt>
      <trkpt lat="46.08379" lon="4.55383">
        <ele>726.6</ele>
        <time>2020-10-24T07:04:05Z</time>
      </trkpt>
      <trkpt lat="46.08378" lon="4.55386">
        <ele>726.2</ele>
        <time>2020-10-24T07:04:06Z</time>
      </trkpt>
      <trkpt lat="46.08377" lon="4.55388">
        <ele>725.6</ele>
        <time>2020-10-24T07:04:07Z</time>
      </trkpt>
      <trkpt lat="46.08377" lon="4.55392">
        <ele>725.8</ele>
        <time>2020-10-24T07:04:08Z</time>
      </trkpt>
      <trkpt lat="46.08377" lon="4.55394">
        <ele>725.4</ele>
        <time>2020-10-24T07:04:09Z</time>
      </trkpt>
      <trkpt lat="46.08376" lon="4.55397">
        <ele>725.2</ele>
        <time>2020-10-24T07:04:10Z</time>
      </trkpt>
      <trkpt lat="46.08376" lon="4.554">
        <ele>725</ele>
        <time>2020-10-24T07:04:11Z</time>
      </trkpt>
      <trkpt lat="46.08376" lon="4.55403">
        <ele>724.8</ele>
        <time>2020-10-24T07:04:12Z</time>
      </trkpt>
      <trkpt lat="46.08375" lon="4.55406">
        <ele>724.4</ele>
        <time>2020-10-24T07:04:13Z</time>
      </trkpt>
      <trkpt lat="46.08375" lon="4.55409">
        <ele>724.2</ele>
        <time>2020-10-24T07:04:14Z</time>
      </trkpt>
      <trkpt lat="46.08374" lon="4.55412">
        <ele>723.8</ele>
        <time>2020-10-24T07:04:15Z</time>
      </trkpt>
      <trkpt lat="46.08373" lon="4.55415">
        <ele>723.2</ele>
        <time>2020-10-24T07:04:16Z</time>
      </trkpt>
      <trkpt lat="46.08372" lon="4.55418">
        <ele>723</ele>
        <time>2020-10-24T07:04:17Z</time>
      </trkpt>
      <trkpt lat="46.08371" lon="4.55423">
        <ele>722.4</ele>
        <time>2020-10-24T07:04:18Z</time>
      </trkpt>
      <trkpt lat="46.0837" lon="4.55426">
        <ele>721.8</ele>
        <time>2020-10-24T07:04:19Z</time>
      </trkpt>
      <trkpt lat="46.08369" lon="4.5543">
        <ele>721.6</ele>
        <time>2020-10-24T07:04:20Z</time>
      </trkpt>
      <trkpt lat="46.08369" lon="4.55434">
        <ele>721</ele>
        <time>2020-10-24T07:04:21Z</time>
      </trkpt>
      <trkpt lat="46.08369" lon="4.55438">
        <ele>720.2</ele>
        <time>2020-10-24T07:04:22Z</time>
      </trkpt>
      <trkpt lat="46.08368" lon="4.55442">
        <ele>720.2</ele>
        <time>2020-10-24T07:04:23Z</time>
      </trkpt>
      <trkpt lat="46.08368" lon="4.55445">
        <ele>719.8</ele>
        <time>2020-10-24T07:04:24Z</time>
      </trkpt>
      <trkpt lat="46.08367" lon="4.55449">
        <ele>719.4</ele>
        <time>2020-10-24T07:04:25Z</time>
      </trkpt>
      <trkpt lat="46.08366" lon="4.55452">
        <ele>719.2</ele>
        <time>2020-10-24T07:04:26Z</time>
      </trkpt>
      <trkpt lat="46.08366" lon="4.55456">
        <ele>718.6</ele>
        <time>2020-10-24T07:04:27Z</time>
      </trkpt>
      <trkpt lat="46.08365" lon="4.55461">
        <ele>718</ele>
        <time>2020-10-24T07:04:28Z</time>
      </trkpt>
      <trkpt lat="46.08364" lon="4.55465">
        <ele>717.8</ele>
        <time>2020-10-24T07:04:29Z</time>
      </trkpt>
      <trkpt lat="46.08363" lon="4.55469">
        <ele>717.8</ele>
        <time>2020-10-24T07:04:30Z</time>
      </trkpt>
      <trkpt lat="46.08362" lon="4.55472">
        <ele>717.2</ele>
        <time>2020-10-24T07:04:31Z</time>
      </trkpt>
      <trkpt lat="46.08361" lon="4.55476">
        <ele>717.2</ele>
        <time>2020-10-24T07:04:32Z</time>
      </trkpt>
      <trkpt lat="46.0836" lon="4.5548">
        <ele>717</ele>
        <time>2020-10-24T07:04:33Z</time>
      </trkpt>
      <trkpt lat="46.08358" lon="4.55485">
        <ele>716.4</ele>
        <time>2020-10-24T07:04:34Z</time>
      </trkpt>
      <trkpt lat="46.08357" lon="4.55489">
        <ele>716.2</ele>
        <time>2020-10-24T07:04:35Z</time>
      </trkpt>
      <trkpt lat="46.08356" lon="4.55493">
        <ele>715.8</ele>
        <time>2020-10-24T07:04:36Z</time>
      </trkpt>
      <trkpt lat="46.08355" lon="4.55496">
        <ele>715.4</ele>
        <time>2020-10-24T07:04:37Z</time>
      </trkpt>
      <trkpt lat="46.08354" lon="4.555">
        <ele>715.2</ele>
        <time>2020-10-24T07:04:38Z</time>
      </trkpt>
      <trkpt lat="46.08353" lon="4.55504">
        <ele>715.4</ele>
        <time>2020-10-24T07:04:39Z</time>
      </trkpt>
      <trkpt lat="46.08351" lon="4.55508">
        <ele>714.8</ele>
        <time>2020-10-24T07:04:40Z</time>
      </trkpt>
      <trkpt lat="46.0835" lon="4.55511">
        <ele>714.4</ele>
        <time>2020-10-24T07:04:41Z</time>
      </trkpt>
      <trkpt lat="46.08349" lon="4.55514">
        <ele>714.2</ele>
        <time>2020-10-24T07:04:42Z</time>
      </trkpt>
      <trkpt lat="46.08349" lon="4.55517">
        <ele>713.8</ele>
        <time>2020-10-24T07:04:43Z</time>
      </trkpt>
      <trkpt lat="46.08348" lon="4.55519">
        <ele>713.8</ele>
        <time>2020-10-24T07:04:44Z</time>
      </trkpt>
      <trkpt lat="46.08347" lon="4.55522">
        <ele>713.6</ele>
        <time>2020-10-24T07:04:45Z</time>
      </trkpt>
      <trkpt lat="46.08347" lon="4.55526">
        <ele>713.4</ele>
        <time>2020-10-24T07:04:46Z</time>
      </trkpt>
      <trkpt lat="46.08346" lon="4.5553">
        <ele>713.6</ele>
        <time>2020-10-24T07:04:47Z</time>
      </trkpt>
      <trkpt lat="46.08346" lon="4.55533">
        <ele>713.6</ele>
        <time>2020-10-24T07:04:48Z</time>
      </trkpt>
      <trkpt lat="46.08345" lon="4.55537">
        <ele>713.6</ele>
        <time>2020-10-24T07:04:49Z</time>
      </trkpt>
      <trkpt lat="46.08345" lon="4.5554">
        <ele>713.6</ele>
        <time>2020-10-24T07:04:50Z</time>
      </trkpt>
      <trkpt lat="46.08344" lon="4.55542">
        <ele>713.4</ele>
        <time>2020-10-24T07:04:51Z</time>
      </trkpt>
      <trkpt lat="46.08343" lon="4.55546">
        <ele>713</ele>
        <time>2020-10-24T07:04:52Z</time>
      </trkpt>
      <trkpt lat="46.08342" lon="4.5555">
        <ele>713.2</ele>
        <time>2020-10-24T07:04:53Z</time>
      </trkpt>
      <trkpt lat="46.08341" lon="4.55554">
        <ele>713</ele>
        <time>2020-10-24T07:04:54Z</time>
      </trkpt>
      <trkpt lat="46.08339" lon="4.55558">
        <ele>712.6</ele>
        <time>2020-10-24T07:04:55Z</time>
      </trkpt>
      <trkpt lat="46.08338" lon="4.55561">
        <ele>713</ele>
        <time>2020-10-24T07:04:56Z</time>
      </trkpt>
      <trkpt lat="46.08338" lon="4.55564">
        <ele>712.6</ele>
        <time>2020-10-24T07:04:57Z</time>
      </trkpt>
      <trkpt lat="46.08338" lon="4.55564">
        <ele>712.2</ele>
        <time>2020-10-24T07:04:58Z</time>
      </trkpt>
      <trkpt lat="46.08337" lon="4.55569">
        <ele>712.2</ele>
        <time>2020-10-24T07:04:59Z</time>
      </trkpt>
      <trkpt lat="46.08338" lon="4.55573">
        <ele>712.2</ele>
        <time>2020-10-24T07:05:00Z</time>
      </trkpt>
      <trkpt lat="46.08338" lon="4.55577">
        <ele>712.2</ele>
        <time>2020-10-24T07:05:01Z</time>
      </trkpt>
      <trkpt lat="46.08339" lon="4.5558">
        <ele>712.2</ele>
        <time>2020-10-24T07:05:02Z</time>
      </trkpt>
      <trkpt lat="46.08339" lon="4.55584">
        <ele>712.4</ele>
        <time>2020-10-24T07:05:03Z</time>
      </trkpt>
      <trkpt lat="46.0834" lon="4.55587">
        <ele>712.2</ele>
        <time>2020-10-24T07:05:04Z</time>
      </trkpt>
      <trkpt lat="46.08341" lon="4.5559">
        <ele>712.4</ele>
        <time>2020-10-24T07:05:05Z</time>
      </trkpt>
      <trkpt lat="46.08341" lon="4.55594">
        <ele>712.4</ele>
        <time>2020-10-24T07:05:06Z</time>
      </trkpt>
      <trkpt lat="46.08342" lon="4.55597">
        <ele>712.4</ele>
        <time>2020-10-24T07:05:07Z</time>
      </trkpt>
      <trkpt lat="46.08343" lon="4.556">
        <ele>712.6</ele>
        <time>2020-10-24T07:05:08Z</time>
      </trkpt>
      <trkpt lat="46.08343" lon="4.55604">
        <ele>712.4</ele>
        <time>2020-10-24T07:05:09Z</time>
      </trkpt>
      <trkpt lat="46.08344" lon="4.55608">
        <ele>712.2</ele>
        <time>2020-10-24T07:05:10Z</time>
      </trkpt>
      <trkpt lat="46.08345" lon="4.55611">
        <ele>712.2</ele>
        <time>2020-10-24T07:05:11Z</time>
      </trkpt>
      <trkpt lat="46.08345" lon="4.55615">
        <ele>712.2</ele>
        <time>2020-10-24T07:05:12Z</time>
      </trkpt>
      <trkpt lat="46.08345" lon="4.55619">
        <ele>711.8</ele>
        <time>2020-10-24T07:05:13Z</time>
      </trkpt>
      <trkpt lat="46.08346" lon="4.55622">
        <ele>711.8</ele>
        <time>2020-10-24T07:05:14Z</time>
      </trkpt>
      <trkpt lat="46.08346" lon="4.55626">
        <ele>711.6</ele>
        <time>2020-10-24T07:05:15Z</time>
      </trkpt>
      <trkpt lat="46.08347" lon="4.5563">
        <ele>711.6</ele>
        <time>2020-10-24T07:05:16Z</time>
      </trkpt>
      <trkpt lat="46.08347" lon="4.55633">
        <ele>711.6</ele>
        <time>2020-10-24T07:05:17Z</time>
      </trkpt>
      <trkpt lat="46.08348" lon="4.55637">
        <ele>711.2</ele>
        <time>2020-10-24T07:05:18Z</time>
      </trkpt>
      <trkpt lat="46.08348" lon="4.55641">
        <ele>711.2</ele>
        <time>2020-10-24T07:05:19Z</time>
      </trkpt>
      <trkpt lat="46.08348" lon="4.55645">
        <ele>711.4</ele>
        <time>2020-10-24T07:05:20Z</time>
      </trkpt>
      <trkpt lat="46.08349" lon="4.55648">
        <ele>711</ele>
        <time>2020-10-24T07:05:21Z</time>
      </trkpt>
      <trkpt lat="46.08349" lon="4.55651">
        <ele>710.8</ele>
        <time>2020-10-24T07:05:22Z</time>
      </trkpt>
      <trkpt lat="46.0835" lon="4.55654">
        <ele>710.8</ele>
        <time>2020-10-24T07:05:23Z</time>
      </trkpt>
      <trkpt lat="46.0835" lon="4.55657">
        <ele>710</ele>
        <time>2020-10-24T07:05:24Z</time>
      </trkpt>
      <trkpt lat="46.08349" lon="4.55661">
        <ele>710</ele>
        <time>2020-10-24T07:05:25Z</time>
      </trkpt>
      <trkpt lat="46.08349" lon="4.55665">
        <ele>709.8</ele>
        <time>2020-10-24T07:05:26Z</time>
      </trkpt>
      <trkpt lat="46.08349" lon="4.5567">
        <ele>709.4</ele>
        <time>2020-10-24T07:05:27Z</time>
      </trkpt>
      <trkpt lat="46.08348" lon="4.55673">
        <ele>709.4</ele>
        <time>2020-10-24T07:05:28Z</time>
      </trkpt>
      <trkpt lat="46.08347" lon="4.55678">
        <ele>709.6</ele>
        <time>2020-10-24T07:05:29Z</time>
      </trkpt>
      <trkpt lat="46.08348" lon="4.55681">
        <ele>709</ele>
        <time>2020-10-24T07:05:30Z</time>
      </trkpt>
      <trkpt lat="46.08347" lon="4.55685">
        <ele>708.8</ele>
        <time>2020-10-24T07:05:31Z</time>
      </trkpt>
      <trkpt lat="46.08347" lon="4.55688">
        <ele>708.6</ele>
        <time>2020-10-24T07:05:32Z</time>
      </trkpt>
      <trkpt lat="46.08347" lon="4.55692">
        <ele>708.2</ele>
        <time>2020-10-24T07:05:33Z</time>
      </trkpt>
      <trkpt lat="46.08347" lon="4.55695">
        <ele>708.4</ele>
        <time>2020-10-24T07:05:34Z</time>
      </trkpt>
      <trkpt lat="46.08346" lon="4.55699">
        <ele>708</ele>
        <time>2020-10-24T07:05:35Z</time>
      </trkpt>
      <trkpt lat="46.08346" lon="4.55702">
        <ele>707.6</ele>
        <time>2020-10-24T07:05:36Z</time>
      </trkpt>
      <trkpt lat="46.08346" lon="4.55705">
        <ele>707.8</ele>
        <time>2020-10-24T07:05:37Z</time>
      </trkpt>
      <trkpt lat="46.08347" lon="4.55709">
        <ele>707.6</ele>
        <time>2020-10-24T07:05:38Z</time>
      </trkpt>
      <trkpt lat="46.08347" lon="4.55712">
        <ele>707.4</ele>
        <time>2020-10-24T07:05:39Z</time>
      </trkpt>
      <trkpt lat="46.08348" lon="4.55716">
        <ele>707.6</ele>
        <time>2020-10-24T07:05:40Z</time>
      </trkpt>
      <trkpt lat="46.08348" lon="4.55719">
        <ele>707.4</ele>
        <time>2020-10-24T07:05:41Z</time>
      </trkpt>
      <trkpt lat="46.08348" lon="4.55723">
        <ele>707.8</ele>
        <time>2020-10-24T07:05:42Z</time>
      </trkpt>
      <trkpt lat="46.08348" lon="4.55726">
        <ele>707.6</ele>
        <time>2020-10-24T07:05:43Z</time>
      </trkpt>
      <trkpt lat="46.08348" lon="4.5573">
        <ele>707.4</ele>
        <time>2020-10-24T07:05:44Z</time>
      </trkpt>
      <trkpt lat="46.08349" lon="4.55733">
        <ele>707.8</ele>
        <time>2020-10-24T07:05:45Z</time>
      </trkpt>
      <trkpt lat="46.0835" lon="4.55736">
        <ele>707.8</ele>
        <time>2020-10-24T07:05:46Z</time>
      </trkpt>
      <trkpt lat="46.0835" lon="4.55739">
        <ele>707.4</ele>
        <time>2020-10-24T07:05:47Z</time>
      </trkpt>
      <trkpt lat="46.08351" lon="4.55742">
        <ele>707.6</ele>
        <time>2020-10-24T07:05:48Z</time>
      </trkpt>
      <trkpt lat="46.08351" lon="4.55746">
        <ele>707.4</ele>
        <time>2020-10-24T07:05:49Z</time>
      </trkpt>
      <trkpt lat="46.08351" lon="4.55749">
        <ele>707.4</ele>
        <time>2020-10-24T07:05:50Z</time>
      </trkpt>
      <trkpt lat="46.08351" lon="4.55749">
        <ele>707.4</ele>
        <time>2020-10-24T07:05:51Z</time>
      </trkpt>
      <trkpt lat="46.08352" lon="4.55754">
        <ele>707.4</ele>
        <time>2020-10-24T07:05:52Z</time>
      </trkpt>
      <trkpt lat="46.08353" lon="4.55757">
        <ele>707.4</ele>
        <time>2020-10-24T07:05:53Z</time>
      </trkpt>
      <trkpt lat="46.08354" lon="4.5576">
        <ele>707.2</ele>
        <time>2020-10-24T07:05:54Z</time>
      </trkpt>
      <trkpt lat="46.08355" lon="4.55763">
        <ele>707</ele>
        <time>2020-10-24T07:05:55Z</time>
      </trkpt>
      <trkpt lat="46.08356" lon="4.55765">
        <ele>707.6</ele>
        <time>2020-10-24T07:05:56Z</time>
      </trkpt>
      <trkpt lat="46.08356" lon="4.55768">
        <ele>707.4</ele>
        <time>2020-10-24T07:05:57Z</time>
      </trkpt>
      <trkpt lat="46.08357" lon="4.55771">
        <ele>707.4</ele>
        <time>2020-10-24T07:05:58Z</time>
      </trkpt>
      <trkpt lat="46.08358" lon="4.55774">
        <ele>707.8</ele>
        <time>2020-10-24T07:05:59Z</time>
      </trkpt>
      <trkpt lat="46.08358" lon="4.55774">
        <ele>707.8</ele>
        <time>2020-10-24T07:06:00Z</time>
      </trkpt>
      <trkpt lat="46.08358" lon="4.5578">
        <ele>708</ele>
        <time>2020-10-24T07:06:01Z</time>
      </trkpt>
      <trkpt lat="46.08358" lon="4.55783">
        <ele>708</ele>
        <time>2020-10-24T07:06:02Z</time>
      </trkpt>
      <trkpt lat="46.08358" lon="4.55783">
        <ele>708</ele>
        <time>2020-10-24T07:06:03Z</time>
      </trkpt>
      <trkpt lat="46.08358" lon="4.55788">
        <ele>708</ele>
        <time>2020-10-24T07:06:04Z</time>
      </trkpt>
      <trkpt lat="46.08358" lon="4.55788">
        <ele>708.4</ele>
        <time>2020-10-24T07:06:05Z</time>
      </trkpt>
      <trkpt lat="46.08357" lon="4.55792">
        <ele>708.6</ele>
        <time>2020-10-24T07:06:06Z</time>
      </trkpt>
      <trkpt lat="46.08357" lon="4.55792">
        <ele>708.4</ele>
        <time>2020-10-24T07:06:07Z</time>
      </trkpt>
      <trkpt lat="46.08356" lon="4.55796">
        <ele>708.6</ele>
        <time>2020-10-24T07:06:08Z</time>
      </trkpt>
      <trkpt lat="46.08356" lon="4.55796">
        <ele>708.8</ele>
        <time>2020-10-24T07:06:09Z</time>
      </trkpt>
      <trkpt lat="46.08356" lon="4.55799">
        <ele>709</ele>
        <time>2020-10-24T07:06:10Z</time>
      </trkpt>
      <trkpt lat="46.08356" lon="4.55799">
        <ele>709.2</ele>
        <time>2020-10-24T07:06:11Z</time>
      </trkpt>
      <trkpt lat="46.08355" lon="4.55802">
        <ele>709.6</ele>
        <time>2020-10-24T07:06:12Z</time>
      </trkpt>
      <trkpt lat="46.08355" lon="4.55802">
        <ele>710</ele>
        <time>2020-10-24T07:06:13Z</time>
      </trkpt>
      <trkpt lat="46.08354" lon="4.55806">
        <ele>710.2</ele>
        <time>2020-10-24T07:06:14Z</time>
      </trkpt>
      <trkpt lat="46.08354" lon="4.55806">
        <ele>710.4</ele>
        <time>2020-10-24T07:06:15Z</time>
      </trkpt>
      <trkpt lat="46.08352" lon="4.55809">
        <ele>710.6</ele>
        <time>2020-10-24T07:06:16Z</time>
      </trkpt>
      <trkpt lat="46.08352" lon="4.55809">
        <ele>710.8</ele>
        <time>2020-10-24T07:06:17Z</time>
      </trkpt>
      <trkpt lat="46.08351" lon="4.55813">
        <ele>711</ele>
        <time>2020-10-24T07:06:18Z</time>
      </trkpt>
      <trkpt lat="46.08351" lon="4.55813">
        <ele>711.2</ele>
        <time>2020-10-24T07:06:19Z</time>
      </trkpt>
      <trkpt lat="46.08349" lon="4.55817">
        <ele>711.4</ele>
        <time>2020-10-24T07:06:20Z</time>
      </trkpt>
      <trkpt lat="46.08349" lon="4.55817">
        <ele>711.6</ele>
        <time>2020-10-24T07:06:21Z</time>
      </trkpt>
      <trkpt lat="46.08348" lon="4.5582">
        <ele>711.6</ele>
        <time>2020-10-24T07:06:22Z</time>
      </trkpt>
      <trkpt lat="46.08348" lon="4.5582">
        <ele>712</ele>
        <time>2020-10-24T07:06:23Z</time>
      </trkpt>
      <trkpt lat="46.08346" lon="4.55823">
        <ele>712.2</ele>
        <time>2020-10-24T07:06:24Z</time>
      </trkpt>
      <trkpt lat="46.08345" lon="4.55825">
        <ele>712.6</ele>
        <time>2020-10-24T07:06:25Z</time>
      </trkpt>
      <trkpt lat="46.08344" lon="4.55827">
        <ele>712.6</ele>
        <time>2020-10-24T07:06:26Z</time>
      </trkpt>
      <trkpt lat="46.08344" lon="4.55827">
        <ele>712.8</ele>
        <time>2020-10-24T07:06:27Z</time>
      </trkpt>
      <trkpt lat="46.08342" lon="4.5583">
        <ele>713</ele>
        <time>2020-10-24T07:06:28Z</time>
      </trkpt>
      <trkpt lat="46.08342" lon="4.5583">
        <ele>713</ele>
        <time>2020-10-24T07:06:29Z</time>
      </trkpt>
      <trkpt lat="46.0834" lon="4.55833">
        <ele>713.2</ele>
        <time>2020-10-24T07:06:30Z</time>
      </trkpt>
      <trkpt lat="46.0834" lon="4.55833">
        <ele>713.4</ele>
        <time>2020-10-24T07:06:31Z</time>
      </trkpt>
      <trkpt lat="46.08338" lon="4.55836">
        <ele>713.6</ele>
        <time>2020-10-24T07:06:32Z</time>
      </trkpt>
      <trkpt lat="46.08338" lon="4.55836">
        <ele>713.6</ele>
        <time>2020-10-24T07:06:33Z</time>
      </trkpt>
      <trkpt lat="46.08337" lon="4.55839">
        <ele>713.6</ele>
        <time>2020-10-24T07:06:34Z</time>
      </trkpt>
      <trkpt lat="46.08337" lon="4.55839">
        <ele>713.8</ele>
        <time>2020-10-24T07:06:35Z</time>
      </trkpt>
      <trkpt lat="46.08335" lon="4.55842">
        <ele>713.8</ele>
        <time>2020-10-24T07:06:36Z</time>
      </trkpt>
      <trkpt lat="46.08335" lon="4.55842">
        <ele>714</ele>
        <time>2020-10-24T07:06:37Z</time>
      </trkpt>
      <trkpt lat="46.08333" lon="4.55845">
        <ele>714</ele>
        <time>2020-10-24T07:06:38Z</time>
      </trkpt>
      <trkpt lat="46.08333" lon="4.55845">
        <ele>714.2</ele>
        <time>2020-10-24T07:06:39Z</time>
      </trkpt>
      <trkpt lat="46.08331" lon="4.55848">
        <ele>714.2</ele>
        <time>2020-10-24T07:06:40Z</time>
      </trkpt>
      <trkpt lat="46.08331" lon="4.55848">
        <ele>714.2</ele>
        <time>2020-10-24T07:06:41Z</time>
      </trkpt>
      <trkpt lat="46.08329" lon="4.5585">
        <ele>714.4</ele>
        <time>2020-10-24T07:06:42Z</time>
      </trkpt>
      <trkpt lat="46.08327" lon="4.55852">
        <ele>714.8</ele>
        <time>2020-10-24T07:06:43Z</time>
      </trkpt>
      <trkpt lat="46.08327" lon="4.55852">
        <ele>715.2</ele>
        <time>2020-10-24T07:06:44Z</time>
      </trkpt>
      <trkpt lat="46.08326" lon="4.55855">
        <ele>715.2</ele>
        <time>2020-10-24T07:06:45Z</time>
      </trkpt>
      <trkpt lat="46.08326" lon="4.55855">
        <ele>715.4</ele>
        <time>2020-10-24T07:06:46Z</time>
      </trkpt>
      <trkpt lat="46.08324" lon="4.55858">
        <ele>715.4</ele>
        <time>2020-10-24T07:06:47Z</time>
      </trkpt>
      <trkpt lat="46.08324" lon="4.55858">
        <ele>715.4</ele>
        <time>2020-10-24T07:06:48Z</time>
      </trkpt>
      <trkpt lat="46.08323" lon="4.55862">
        <ele>715.4</ele>
        <time>2020-10-24T07:06:49Z</time>
      </trkpt>
      <trkpt lat="46.08323" lon="4.55862">
        <ele>715.8</ele>
        <time>2020-10-24T07:06:50Z</time>
      </trkpt>
      <trkpt lat="46.08322" lon="4.55865">
        <ele>716.4</ele>
        <time>2020-10-24T07:06:51Z</time>
      </trkpt>
      <trkpt lat="46.08322" lon="4.55865">
        <ele>716.6</ele>
        <time>2020-10-24T07:06:52Z</time>
      </trkpt>
      <trkpt lat="46.08321" lon="4.55869">
        <ele>716.6</ele>
        <time>2020-10-24T07:06:53Z</time>
      </trkpt>
      <trkpt lat="46.08321" lon="4.55869">
        <ele>716.6</ele>
        <time>2020-10-24T07:06:54Z</time>
      </trkpt>
      <trkpt lat="46.08321" lon="4.55873">
        <ele>716.6</ele>
        <time>2020-10-24T07:06:55Z</time>
      </trkpt>
      <trkpt lat="46.08321" lon="4.55873">
        <ele>716.6</ele>
        <time>2020-10-24T07:06:56Z</time>
      </trkpt>
      <trkpt lat="46.0832" lon="4.55876">
        <ele>716.8</ele>
        <time>2020-10-24T07:06:57Z</time>
      </trkpt>
      <trkpt lat="46.0832" lon="4.55879">
        <ele>717.2</ele>
        <time>2020-10-24T07:06:58Z</time>
      </trkpt>
      <trkpt lat="46.0832" lon="4.55879">
        <ele>717.4</ele>
        <time>2020-10-24T07:06:59Z</time>
      </trkpt>
      <trkpt lat="46.0832" lon="4.55883">
        <ele>717.8</ele>
        <time>2020-10-24T07:07:00Z</time>
      </trkpt>
      <trkpt lat="46.0832" lon="4.55883">
        <ele>718.2</ele>
        <time>2020-10-24T07:07:01Z</time>
      </trkpt>
      <trkpt lat="46.08319" lon="4.55886">
        <ele>718.4</ele>
        <time>2020-10-24T07:07:02Z</time>
      </trkpt>
      <trkpt lat="46.08319" lon="4.55886">
        <ele>718.4</ele>
        <time>2020-10-24T07:07:03Z</time>
      </trkpt>
      <trkpt lat="46.08319" lon="4.55886">
        <ele>718.6</ele>
        <time>2020-10-24T07:07:04Z</time>
      </trkpt>
      <trkpt lat="46.0832" lon="4.55889">
        <ele>718.8</ele>
        <time>2020-10-24T07:07:05Z</time>
      </trkpt>
      <trkpt lat="46.0832" lon="4.55889">
        <ele>719</ele>
        <time>2020-10-24T07:07:06Z</time>
      </trkpt>
      <trkpt lat="46.0832" lon="4.55889">
        <ele>719</ele>
        <time>2020-10-24T07:07:07Z</time>
      </trkpt>
      <trkpt lat="46.08321" lon="4.55893">
        <ele>719.2</ele>
        <time>2020-10-24T07:07:08Z</time>
      </trkpt>
      <trkpt lat="46.08321" lon="4.55893">
        <ele>719.4</ele>
        <time>2020-10-24T07:07:09Z</time>
      </trkpt>
      <trkpt lat="46.08323" lon="4.55895">
        <ele>719.4</ele>
        <time>2020-10-24T07:07:10Z</time>
      </trkpt>
      <trkpt lat="46.08323" lon="4.55895">
        <ele>719.6</ele>
        <time>2020-10-24T07:07:11Z</time>
      </trkpt>
      <trkpt lat="46.08323" lon="4.55898">
        <ele>719.6</ele>
        <time>2020-10-24T07:07:12Z</time>
      </trkpt>
      <trkpt lat="46.08323" lon="4.55898">
        <ele>720</ele>
        <time>2020-10-24T07:07:13Z</time>
      </trkpt>
      <trkpt lat="46.08324" lon="4.559">
        <ele>720.2</ele>
        <time>2020-10-24T07:07:14Z</time>
      </trkpt>
      <trkpt lat="46.08324" lon="4.559">
        <ele>720.6</ele>
        <time>2020-10-24T07:07:15Z</time>
      </trkpt>
      <trkpt lat="46.08326" lon="4.55901">
        <ele>720.8</ele>
        <time>2020-10-24T07:07:16Z</time>
      </trkpt>
      <trkpt lat="46.08326" lon="4.55901">
        <ele>721.2</ele>
        <time>2020-10-24T07:07:17Z</time>
      </trkpt>
      <trkpt lat="46.08326" lon="4.55904">
        <ele>721.4</ele>
        <time>2020-10-24T07:07:18Z</time>
      </trkpt>
      <trkpt lat="46.08326" lon="4.55904">
        <ele>721.6</ele>
        <time>2020-10-24T07:07:19Z</time>
      </trkpt>
      <trkpt lat="46.08327" lon="4.55907">
        <ele>721.8</ele>
        <time>2020-10-24T07:07:20Z</time>
      </trkpt>
      <trkpt lat="46.08327" lon="4.55907">
        <ele>722.2</ele>
        <time>2020-10-24T07:07:21Z</time>
      </trkpt>
      <trkpt lat="46.08328" lon="4.5591">
        <ele>722.6</ele>
        <time>2020-10-24T07:07:22Z</time>
      </trkpt>
      <trkpt lat="46.08328" lon="4.5591">
        <ele>722.8</ele>
        <time>2020-10-24T07:07:23Z</time>
      </trkpt>
      <trkpt lat="46.08329" lon="4.55913">
        <ele>723.2</ele>
        <time>2020-10-24T07:07:24Z</time>
      </trkpt>
      <trkpt lat="46.08329" lon="4.55913">
        <ele>723.4</ele>
        <time>2020-10-24T07:07:25Z</time>
      </trkpt>
      <trkpt lat="46.08329" lon="4.55917">
        <ele>724</ele>
        <time>2020-10-24T07:07:26Z</time>
      </trkpt>
      <trkpt lat="46.08329" lon="4.55917">
        <ele>724.8</ele>
        <time>2020-10-24T07:07:27Z</time>
      </trkpt>
      <trkpt lat="46.08329" lon="4.55921">
        <ele>724.8</ele>
        <time>2020-10-24T07:07:28Z</time>
      </trkpt>
      <trkpt lat="46.08329" lon="4.55921">
        <ele>725</ele>
        <time>2020-10-24T07:07:29Z</time>
      </trkpt>
      <trkpt lat="46.0833" lon="4.55924">
        <ele>725.4</ele>
        <time>2020-10-24T07:07:30Z</time>
      </trkpt>
      <trkpt lat="46.0833" lon="4.55924">
        <ele>725.6</ele>
        <time>2020-10-24T07:07:31Z</time>
      </trkpt>
      <trkpt lat="46.0833" lon="4.55927">
        <ele>725.8</ele>
        <time>2020-10-24T07:07:32Z</time>
      </trkpt>
      <trkpt lat="46.0833" lon="4.55927">
        <ele>726</ele>
        <time>2020-10-24T07:07:33Z</time>
      </trkpt>
      <trkpt lat="46.0833" lon="4.55931">
        <ele>726.2</ele>
        <time>2020-10-24T07:07:34Z</time>
      </trkpt>
      <trkpt lat="46.0833" lon="4.55931">
        <ele>726.4</ele>
        <time>2020-10-24T07:07:35Z</time>
      </trkpt>
      <trkpt lat="46.0833" lon="4.55936">
        <ele>726.6</ele>
        <time>2020-10-24T07:07:36Z</time>
      </trkpt>
      <trkpt lat="46.0833" lon="4.55936">
        <ele>726.8</ele>
        <time>2020-10-24T07:07:37Z</time>
      </trkpt>
      <trkpt lat="46.08331" lon="4.5594">
        <ele>727.2</ele>
        <time>2020-10-24T07:07:38Z</time>
      </trkpt>
      <trkpt lat="46.08331" lon="4.5594">
        <ele>727.6</ele>
        <time>2020-10-24T07:07:39Z</time>
      </trkpt>
      <trkpt lat="46.08332" lon="4.55944">
        <ele>728</ele>
        <time>2020-10-24T07:07:40Z</time>
      </trkpt>
      <trkpt lat="46.08332" lon="4.55944">
        <ele>728.4</ele>
        <time>2020-10-24T07:07:41Z</time>
      </trkpt>
      <trkpt lat="46.08332" lon="4.55948">
        <ele>728.6</ele>
        <time>2020-10-24T07:07:42Z</time>
      </trkpt>
      <trkpt lat="46.08332" lon="4.55948">
        <ele>729</ele>
        <time>2020-10-24T07:07:43Z</time>
      </trkpt>
      <trkpt lat="46.08331" lon="4.55952">
        <ele>729.4</ele>
        <time>2020-10-24T07:07:44Z</time>
      </trkpt>
      <trkpt lat="46.08331" lon="4.55952">
        <ele>729.8</ele>
        <time>2020-10-24T07:07:45Z</time>
      </trkpt>
      <trkpt lat="46.0833" lon="4.55956">
        <ele>729.8</ele>
        <time>2020-10-24T07:07:46Z</time>
      </trkpt>
      <trkpt lat="46.0833" lon="4.55956">
        <ele>730</ele>
        <time>2020-10-24T07:07:47Z</time>
      </trkpt>
      <trkpt lat="46.08329" lon="4.5596">
        <ele>730.2</ele>
        <time>2020-10-24T07:07:48Z</time>
      </trkpt>
      <trkpt lat="46.08329" lon="4.5596">
        <ele>730.2</ele>
        <time>2020-10-24T07:07:49Z</time>
      </trkpt>
      <trkpt lat="46.08327" lon="4.55963">
        <ele>730.2</ele>
        <time>2020-10-24T07:07:50Z</time>
      </trkpt>
      <trkpt lat="46.08327" lon="4.55963">
        <ele>730.4</ele>
        <time>2020-10-24T07:07:51Z</time>
      </trkpt>
      <trkpt lat="46.08326" lon="4.55968">
        <ele>730.4</ele>
        <time>2020-10-24T07:07:52Z</time>
      </trkpt>
      <trkpt lat="46.08326" lon="4.55968">
        <ele>730.6</ele>
        <time>2020-10-24T07:07:53Z</time>
      </trkpt>
      <trkpt lat="46.08325" lon="4.55972">
        <ele>730.8</ele>
        <time>2020-10-24T07:07:54Z</time>
      </trkpt>
      <trkpt lat="46.08324" lon="4.55975">
        <ele>730.8</ele>
        <time>2020-10-24T07:07:55Z</time>
      </trkpt>
      <trkpt lat="46.08324" lon="4.55975">
        <ele>731</ele>
        <time>2020-10-24T07:07:56Z</time>
      </trkpt>
      <trkpt lat="46.08324" lon="4.55979">
        <ele>731.4</ele>
        <time>2020-10-24T07:07:57Z</time>
      </trkpt>
      <trkpt lat="46.08324" lon="4.55979">
        <ele>732</ele>
        <time>2020-10-24T07:07:58Z</time>
      </trkpt>
      <trkpt lat="46.08323" lon="4.55984">
        <ele>732.4</ele>
        <time>2020-10-24T07:07:59Z</time>
      </trkpt>
      <trkpt lat="46.08323" lon="4.55984">
        <ele>732.6</ele>
        <time>2020-10-24T07:08:00Z</time>
      </trkpt>
      <trkpt lat="46.08322" lon="4.55987">
        <ele>732.8</ele>
        <time>2020-10-24T07:08:01Z</time>
      </trkpt>
      <trkpt lat="46.08322" lon="4.55987">
        <ele>733</ele>
        <time>2020-10-24T07:08:02Z</time>
      </trkpt>
      <trkpt lat="46.08322" lon="4.55991">
        <ele>733</ele>
        <time>2020-10-24T07:08:03Z</time>
      </trkpt>
      <trkpt lat="46.08322" lon="4.55991">
        <ele>733</ele>
        <time>2020-10-24T07:08:04Z</time>
      </trkpt>
      <trkpt lat="46.08321" lon="4.55995">
        <ele>733.4</ele>
        <time>2020-10-24T07:08:05Z</time>
      </trkpt>
      <trkpt lat="46.08321" lon="4.55995">
        <ele>733.6</ele>
        <time>2020-10-24T07:08:06Z</time>
      </trkpt>
      <trkpt lat="46.08321" lon="4.55999">
        <ele>734</ele>
        <time>2020-10-24T07:08:07Z</time>
      </trkpt>
      <trkpt lat="46.08321" lon="4.55999">
        <ele>734.2</ele>
        <time>2020-10-24T07:08:08Z</time>
      </trkpt>
      <trkpt lat="46.0832" lon="4.56002">
        <ele>734.4</ele>
        <time>2020-10-24T07:08:09Z</time>
      </trkpt>
      <trkpt lat="46.0832" lon="4.56002">
        <ele>734.6</ele>
        <time>2020-10-24T07:08:10Z</time>
      </trkpt>
      <trkpt lat="46.08319" lon="4.56006">
        <ele>734.6</ele>
        <time>2020-10-24T07:08:11Z</time>
      </trkpt>
      <trkpt lat="46.08319" lon="4.56006">
        <ele>734.8</ele>
        <time>2020-10-24T07:08:12Z</time>
      </trkpt>
      <trkpt lat="46.08318" lon="4.56009">
        <ele>735</ele>
        <time>2020-10-24T07:08:13Z</time>
      </trkpt>
      <trkpt lat="46.08318" lon="4.56009">
        <ele>735.4</ele>
        <time>2020-10-24T07:08:14Z</time>
      </trkpt>
      <trkpt lat="46.08317" lon="4.56013">
        <ele>735.8</ele>
        <time>2020-10-24T07:08:15Z</time>
      </trkpt>
      <trkpt lat="46.08317" lon="4.56013">
        <ele>736</ele>
        <time>2020-10-24T07:08:16Z</time>
      </trkpt>
      <trkpt lat="46.08316" lon="4.56017">
        <ele>736</ele>
        <time>2020-10-24T07:08:17Z</time>
      </trkpt>
      <trkpt lat="46.08316" lon="4.56017">
        <ele>736.2</ele>
        <time>2020-10-24T07:08:18Z</time>
      </trkpt>
      <trkpt lat="46.08314" lon="4.5602">
        <ele>736.4</ele>
        <time>2020-10-24T07:08:19Z</time>
      </trkpt>
      <trkpt lat="46.08314" lon="4.5602">
        <ele>736.6</ele>
        <time>2020-10-24T07:08:20Z</time>
      </trkpt>
      <trkpt lat="46.08312" lon="4.56024">
        <ele>736.8</ele>
        <time>2020-10-24T07:08:21Z</time>
      </trkpt>
      <trkpt lat="46.08312" lon="4.56024">
        <ele>737</ele>
        <time>2020-10-24T07:08:22Z</time>
      </trkpt>
      <trkpt lat="46.0831" lon="4.56028">
        <ele>737</ele>
        <time>2020-10-24T07:08:23Z</time>
      </trkpt>
      <trkpt lat="46.0831" lon="4.56028">
        <ele>737</ele>
        <time>2020-10-24T07:08:24Z</time>
      </trkpt>
      <trkpt lat="46.08308" lon="4.56032">
        <ele>737.2</ele>
        <time>2020-10-24T07:08:25Z</time>
      </trkpt>
      <trkpt lat="46.08307" lon="4.56034">
        <ele>737.2</ele>
        <time>2020-10-24T07:08:26Z</time>
      </trkpt>
      <trkpt lat="46.08307" lon="4.56034">
        <ele>737</ele>
        <time>2020-10-24T07:08:27Z</time>
      </trkpt>
      <trkpt lat="46.08305" lon="4.56037">
        <ele>737.2</ele>
        <time>2020-10-24T07:08:28Z</time>
      </trkpt>
      <trkpt lat="46.08305" lon="4.56037">
        <ele>737</ele>
        <time>2020-10-24T07:08:29Z</time>
      </trkpt>
      <trkpt lat="46.08303" lon="4.56041">
        <ele>737.4</ele>
        <time>2020-10-24T07:08:30Z</time>
      </trkpt>
      <trkpt lat="46.08303" lon="4.56041">
        <ele>737.4</ele>
        <time>2020-10-24T07:08:31Z</time>
      </trkpt>
      <trkpt lat="46.08302" lon="4.56044">
        <ele>737.8</ele>
        <time>2020-10-24T07:08:32Z</time>
      </trkpt>
      <trkpt lat="46.08302" lon="4.56044">
        <ele>738</ele>
        <time>2020-10-24T07:08:33Z</time>
      </trkpt>
      <trkpt lat="46.08301" lon="4.56047">
        <ele>738.2</ele>
        <time>2020-10-24T07:08:34Z</time>
      </trkpt>
      <trkpt lat="46.08301" lon="4.56047">
        <ele>738.4</ele>
        <time>2020-10-24T07:08:35Z</time>
      </trkpt>
      <trkpt lat="46.083" lon="4.56051">
        <ele>738.6</ele>
        <time>2020-10-24T07:08:36Z</time>
      </trkpt>
      <trkpt lat="46.083" lon="4.56051">
        <ele>738.6</ele>
        <time>2020-10-24T07:08:37Z</time>
      </trkpt>
      <trkpt lat="46.08298" lon="4.56054">
        <ele>738.8</ele>
        <time>2020-10-24T07:08:38Z</time>
      </trkpt>
      <trkpt lat="46.08298" lon="4.56054">
        <ele>739</ele>
        <time>2020-10-24T07:08:39Z</time>
      </trkpt>
      <trkpt lat="46.08298" lon="4.56058">
        <ele>739.2</ele>
        <time>2020-10-24T07:08:40Z</time>
      </trkpt>
      <trkpt lat="46.08298" lon="4.56058">
        <ele>739.4</ele>
        <time>2020-10-24T07:08:41Z</time>
      </trkpt>
      <trkpt lat="46.08297" lon="4.56063">
        <ele>739.6</ele>
        <time>2020-10-24T07:08:42Z</time>
      </trkpt>
      <trkpt lat="46.08296" lon="4.56066">
        <ele>739.4</ele>
        <time>2020-10-24T07:08:43Z</time>
      </trkpt>
      <trkpt lat="46.08296" lon="4.56069">
        <ele>739.6</ele>
        <time>2020-10-24T07:08:44Z</time>
      </trkpt>
      <trkpt lat="46.08296" lon="4.56069">
        <ele>739.8</ele>
        <time>2020-10-24T07:08:45Z</time>
      </trkpt>
      <trkpt lat="46.08296" lon="4.56073">
        <ele>740.2</ele>
        <time>2020-10-24T07:08:46Z</time>
      </trkpt>
      <trkpt lat="46.08296" lon="4.56073">
        <ele>740.4</ele>
        <time>2020-10-24T07:08:47Z</time>
      </trkpt>
      <trkpt lat="46.08296" lon="4.56077">
        <ele>740.4</ele>
        <time>2020-10-24T07:08:48Z</time>
      </trkpt>
      <trkpt lat="46.08296" lon="4.56077">
        <ele>740.6</ele>
        <time>2020-10-24T07:08:49Z</time>
      </trkpt>
      <trkpt lat="46.08295" lon="4.5608">
        <ele>740.8</ele>
        <time>2020-10-24T07:08:50Z</time>
      </trkpt>
      <trkpt lat="46.08295" lon="4.5608">
        <ele>740.8</ele>
        <time>2020-10-24T07:08:51Z</time>
      </trkpt>
      <trkpt lat="46.08295" lon="4.56085">
        <ele>740.8</ele>
        <time>2020-10-24T07:08:52Z</time>
      </trkpt>
      <trkpt lat="46.08295" lon="4.56085">
        <ele>741</ele>
        <time>2020-10-24T07:08:53Z</time>
      </trkpt>
      <trkpt lat="46.08295" lon="4.5609">
        <ele>740.8</ele>
        <time>2020-10-24T07:08:54Z</time>
      </trkpt>
      <trkpt lat="46.08294" lon="4.56093">
        <ele>741.2</ele>
        <time>2020-10-24T07:08:55Z</time>
      </trkpt>
      <trkpt lat="46.08294" lon="4.56096">
        <ele>741</ele>
        <time>2020-10-24T07:08:56Z</time>
      </trkpt>
      <trkpt lat="46.08294" lon="4.56096">
        <ele>741.2</ele>
        <time>2020-10-24T07:08:57Z</time>
      </trkpt>
      <trkpt lat="46.08294" lon="4.56101">
        <ele>741.2</ele>
        <time>2020-10-24T07:08:58Z</time>
      </trkpt>
      <trkpt lat="46.08294" lon="4.56101">
        <ele>741.4</ele>
        <time>2020-10-24T07:08:59Z</time>
      </trkpt>
      <trkpt lat="46.08295" lon="4.56105">
        <ele>741.6</ele>
        <time>2020-10-24T07:09:00Z</time>
      </trkpt>
      <trkpt lat="46.08295" lon="4.56105">
        <ele>741.8</ele>
        <time>2020-10-24T07:09:01Z</time>
      </trkpt>
      <trkpt lat="46.08296" lon="4.56109">
        <ele>742</ele>
        <time>2020-10-24T07:09:02Z</time>
      </trkpt>
      <trkpt lat="46.08296" lon="4.56109">
        <ele>742.2</ele>
        <time>2020-10-24T07:09:03Z</time>
      </trkpt>
      <trkpt lat="46.08297" lon="4.56112">
        <ele>742.4</ele>
        <time>2020-10-24T07:09:04Z</time>
      </trkpt>
      <trkpt lat="46.08297" lon="4.56112">
        <ele>742.4</ele>
        <time>2020-10-24T07:09:05Z</time>
      </trkpt>
      <trkpt lat="46.08299" lon="4.56115">
        <ele>742.6</ele>
        <time>2020-10-24T07:09:06Z</time>
      </trkpt>
      <trkpt lat="46.08299" lon="4.56115">
        <ele>742.8</ele>
        <time>2020-10-24T07:09:07Z</time>
      </trkpt>
      <trkpt lat="46.08302" lon="4.56118">
        <ele>743</ele>
        <time>2020-10-24T07:09:08Z</time>
      </trkpt>
      <trkpt lat="46.08302" lon="4.56118">
        <ele>743.2</ele>
        <time>2020-10-24T07:09:09Z</time>
      </trkpt>
      <trkpt lat="46.08305" lon="4.56119">
        <ele>743.4</ele>
        <time>2020-10-24T07:09:10Z</time>
      </trkpt>
      <trkpt lat="46.08306" lon="4.56121">
        <ele>743.4</ele>
        <time>2020-10-24T07:09:11Z</time>
      </trkpt>
      <trkpt lat="46.08307" lon="4.56123">
        <ele>743.4</ele>
        <time>2020-10-24T07:09:12Z</time>
      </trkpt>
      <trkpt lat="46.08307" lon="4.56126">
        <ele>743.8</ele>
        <time>2020-10-24T07:09:13Z</time>
      </trkpt>
      <trkpt lat="46.08307" lon="4.5613">
        <ele>744</ele>
        <time>2020-10-24T07:09:14Z</time>
      </trkpt>
      <trkpt lat="46.08308" lon="4.56134">
        <ele>744</ele>
        <time>2020-10-24T07:09:15Z</time>
      </trkpt>
      <trkpt lat="46.08308" lon="4.56138">
        <ele>743.8</ele>
        <time>2020-10-24T07:09:16Z</time>
      </trkpt>
      <trkpt lat="46.08308" lon="4.56141">
        <ele>743.8</ele>
        <time>2020-10-24T07:09:17Z</time>
      </trkpt>
      <trkpt lat="46.08308" lon="4.56145">
        <ele>744</ele>
        <time>2020-10-24T07:09:18Z</time>
      </trkpt>
      <trkpt lat="46.08308" lon="4.56149">
        <ele>744</ele>
        <time>2020-10-24T07:09:19Z</time>
      </trkpt>
      <trkpt lat="46.08307" lon="4.56152">
        <ele>743.8</ele>
        <time>2020-10-24T07:09:20Z</time>
      </trkpt>
      <trkpt lat="46.08307" lon="4.56156">
        <ele>744</ele>
        <time>2020-10-24T07:09:21Z</time>
      </trkpt>
      <trkpt lat="46.08307" lon="4.5616">
        <ele>744</ele>
        <time>2020-10-24T07:09:22Z</time>
      </trkpt>
      <trkpt lat="46.08307" lon="4.56163">
        <ele>744.2</ele>
        <time>2020-10-24T07:09:23Z</time>
      </trkpt>
      <trkpt lat="46.08306" lon="4.56166">
        <ele>744.2</ele>
        <time>2020-10-24T07:09:24Z</time>
      </trkpt>
      <trkpt lat="46.08306" lon="4.5617">
        <ele>744.2</ele>
        <time>2020-10-24T07:09:25Z</time>
      </trkpt>
      <trkpt lat="46.08305" lon="4.56173">
        <ele>744.2</ele>
        <time>2020-10-24T07:09:26Z</time>
      </trkpt>
      <trkpt lat="46.08304" lon="4.56177">
        <ele>744.2</ele>
        <time>2020-10-24T07:09:27Z</time>
      </trkpt>
      <trkpt lat="46.08303" lon="4.5618">
        <ele>744.4</ele>
        <time>2020-10-24T07:09:28Z</time>
      </trkpt>
      <trkpt lat="46.08302" lon="4.56183">
        <ele>744.2</ele>
        <time>2020-10-24T07:09:29Z</time>
      </trkpt>
      <trkpt lat="46.08302" lon="4.56187">
        <ele>744.4</ele>
        <time>2020-10-24T07:09:30Z</time>
      </trkpt>
      <trkpt lat="46.08301" lon="4.5619">
        <ele>744.8</ele>
        <time>2020-10-24T07:09:31Z</time>
      </trkpt>
      <trkpt lat="46.083" lon="4.56193">
        <ele>744.8</ele>
        <time>2020-10-24T07:09:32Z</time>
      </trkpt>
      <trkpt lat="46.083" lon="4.56196">
        <ele>744.8</ele>
        <time>2020-10-24T07:09:33Z</time>
      </trkpt>
      <trkpt lat="46.08299" lon="4.56199">
        <ele>745.6</ele>
        <time>2020-10-24T07:09:34Z</time>
      </trkpt>
      <trkpt lat="46.08299" lon="4.56202">
        <ele>745.4</ele>
        <time>2020-10-24T07:09:35Z</time>
      </trkpt>
      <trkpt lat="46.08299" lon="4.56206">
        <ele>745</ele>
        <time>2020-10-24T07:09:36Z</time>
      </trkpt>
      <trkpt lat="46.08299" lon="4.56209">
        <ele>745.6</ele>
        <time>2020-10-24T07:09:37Z</time>
      </trkpt>
      <trkpt lat="46.08299" lon="4.56213">
        <ele>745.6</ele>
        <time>2020-10-24T07:09:38Z</time>
      </trkpt>
      <trkpt lat="46.08299" lon="4.56217">
        <ele>745.2</ele>
        <time>2020-10-24T07:09:39Z</time>
      </trkpt>
      <trkpt lat="46.08299" lon="4.5622">
        <ele>745.8</ele>
        <time>2020-10-24T07:09:40Z</time>
      </trkpt>
      <trkpt lat="46.08298" lon="4.56224">
        <ele>745.8</ele>
        <time>2020-10-24T07:09:41Z</time>
      </trkpt>
      <trkpt lat="46.08298" lon="4.56227">
        <ele>745.6</ele>
        <time>2020-10-24T07:09:42Z</time>
      </trkpt>
      <trkpt lat="46.08298" lon="4.56231">
        <ele>746</ele>
        <time>2020-10-24T07:09:43Z</time>
      </trkpt>
      <trkpt lat="46.08298" lon="4.56234">
        <ele>745.8</ele>
        <time>2020-10-24T07:09:44Z</time>
      </trkpt>
      <trkpt lat="46.08298" lon="4.56238">
        <ele>745.8</ele>
        <time>2020-10-24T07:09:45Z</time>
      </trkpt>
      <trkpt lat="46.08298" lon="4.56243">
        <ele>746.2</ele>
        <time>2020-10-24T07:09:46Z</time>
      </trkpt>
      <trkpt lat="46.08298" lon="4.56247">
        <ele>746</ele>
        <time>2020-10-24T07:09:47Z</time>
      </trkpt>
      <trkpt lat="46.08298" lon="4.56252">
        <ele>745.4</ele>
        <time>2020-10-24T07:09:48Z</time>
      </trkpt>
      <trkpt lat="46.08298" lon="4.56256">
        <ele>745.6</ele>
        <time>2020-10-24T07:09:49Z</time>
      </trkpt>
      <trkpt lat="46.08299" lon="4.56261">
        <ele>745</ele>
        <time>2020-10-24T07:09:50Z</time>
      </trkpt>
      <trkpt lat="46.08299" lon="4.56266">
        <ele>744.6</ele>
        <time>2020-10-24T07:09:51Z</time>
      </trkpt>
      <trkpt lat="46.08299" lon="4.56269">
        <ele>744.8</ele>
        <time>2020-10-24T07:09:52Z</time>
      </trkpt>
      <trkpt lat="46.083" lon="4.56273">
        <ele>744.4</ele>
        <time>2020-10-24T07:09:53Z</time>
      </trkpt>
      <trkpt lat="46.083" lon="4.56277">
        <ele>744.4</ele>
        <time>2020-10-24T07:09:54Z</time>
      </trkpt>
      <trkpt lat="46.08302" lon="4.5628">
        <ele>744.6</ele>
        <time>2020-10-24T07:09:55Z</time>
      </trkpt>
      <trkpt lat="46.08302" lon="4.56284">
        <ele>744.2</ele>
        <time>2020-10-24T07:09:56Z</time>
      </trkpt>
      <trkpt lat="46.08302" lon="4.56288">
        <ele>743.8</ele>
        <time>2020-10-24T07:09:57Z</time>
      </trkpt>
      <trkpt lat="46.08303" lon="4.56291">
        <ele>744</ele>
        <time>2020-10-24T07:09:58Z</time>
      </trkpt>
      <trkpt lat="46.08304" lon="4.56295">
        <ele>743.8</ele>
        <time>2020-10-24T07:09:59Z</time>
      </trkpt>
      <trkpt lat="46.08305" lon="4.563">
        <ele>743.8</ele>
        <time>2020-10-24T07:10:00Z</time>
      </trkpt>
      <trkpt lat="46.08305" lon="4.56301">
        <ele>744</ele>
        <time>2020-10-24T07:10:01Z</time>
      </trkpt>
      <trkpt lat="46.08306" lon="4.56305">
        <ele>743.8</ele>
        <time>2020-10-24T07:10:02Z</time>
      </trkpt>
      <trkpt lat="46.08307" lon="4.56307">
        <ele>744.6</ele>
        <time>2020-10-24T07:10:03Z</time>
      </trkpt>
      <trkpt lat="46.08307" lon="4.56307">
        <ele>744.4</ele>
        <time>2020-10-24T07:10:04Z</time>
      </trkpt>
      <trkpt lat="46.08308" lon="4.56312">
        <ele>744.4</ele>
        <time>2020-10-24T07:10:05Z</time>
      </trkpt>
      <trkpt lat="46.08308" lon="4.56312">
        <ele>744.6</ele>
        <time>2020-10-24T07:10:06Z</time>
      </trkpt>
      <trkpt lat="46.0831" lon="4.56315">
        <ele>744.8</ele>
        <time>2020-10-24T07:10:07Z</time>
      </trkpt>
      <trkpt lat="46.0831" lon="4.56315">
        <ele>744.8</ele>
        <time>2020-10-24T07:10:08Z</time>
      </trkpt>
      <trkpt lat="46.08311" lon="4.56318">
        <ele>745</ele>
        <time>2020-10-24T07:10:09Z</time>
      </trkpt>
      <trkpt lat="46.08311" lon="4.56318">
        <ele>745</ele>
        <time>2020-10-24T07:10:10Z</time>
      </trkpt>
      <trkpt lat="46.08313" lon="4.56321">
        <ele>745.4</ele>
        <time>2020-10-24T07:10:11Z</time>
      </trkpt>
      <trkpt lat="46.08313" lon="4.56321">
        <ele>746</ele>
        <time>2020-10-24T07:10:12Z</time>
      </trkpt>
      <trkpt lat="46.08315" lon="4.56324">
        <ele>746.4</ele>
        <time>2020-10-24T07:10:13Z</time>
      </trkpt>
      <trkpt lat="46.08315" lon="4.56324">
        <ele>746.8</ele>
        <time>2020-10-24T07:10:14Z</time>
      </trkpt>
      <trkpt lat="46.08317" lon="4.56327">
        <ele>747.2</ele>
        <time>2020-10-24T07:10:15Z</time>
      </trkpt>
      <trkpt lat="46.08317" lon="4.56327">
        <ele>747.8</ele>
        <time>2020-10-24T07:10:16Z</time>
      </trkpt>
      <trkpt lat="46.08319" lon="4.5633">
        <ele>748</ele>
        <time>2020-10-24T07:10:17Z</time>
      </trkpt>
      <trkpt lat="46.08319" lon="4.5633">
        <ele>748.4</ele>
        <time>2020-10-24T07:10:18Z</time>
      </trkpt>
      <trkpt lat="46.0832" lon="4.56333">
        <ele>748.6</ele>
        <time>2020-10-24T07:10:19Z</time>
      </trkpt>
      <trkpt lat="46.0832" lon="4.56333">
        <ele>748.8</ele>
        <time>2020-10-24T07:10:20Z</time>
      </trkpt>
      <trkpt lat="46.08322" lon="4.56335">
        <ele>749.2</ele>
        <time>2020-10-24T07:10:21Z</time>
      </trkpt>
      <trkpt lat="46.08322" lon="4.56335">
        <ele>749.6</ele>
        <time>2020-10-24T07:10:22Z</time>
      </trkpt>
      <trkpt lat="46.08324" lon="4.56338">
        <ele>749.8</ele>
        <time>2020-10-24T07:10:23Z</time>
      </trkpt>
      <trkpt lat="46.08324" lon="4.56338">
        <ele>750.2</ele>
        <time>2020-10-24T07:10:24Z</time>
      </trkpt>
      <trkpt lat="46.08326" lon="4.56341">
        <ele>750.4</ele>
        <time>2020-10-24T07:10:25Z</time>
      </trkpt>
      <trkpt lat="46.08326" lon="4.56341">
        <ele>750.8</ele>
        <time>2020-10-24T07:10:26Z</time>
      </trkpt>
      <trkpt lat="46.08328" lon="4.56343">
        <ele>751</ele>
        <time>2020-10-24T07:10:27Z</time>
      </trkpt>
      <trkpt lat="46.08328" lon="4.56343">
        <ele>751.6</ele>
        <time>2020-10-24T07:10:28Z</time>
      </trkpt>
      <trkpt lat="46.08328" lon="4.56343">
        <ele>751.8</ele>
        <time>2020-10-24T07:10:29Z</time>
      </trkpt>
      <trkpt lat="46.08328" lon="4.56343">
        <ele>752.4</ele>
        <time>2020-10-24T07:10:30Z</time>
      </trkpt>
      <trkpt lat="46.0833" lon="4.56346">
        <ele>752.6</ele>
        <time>2020-10-24T07:10:31Z</time>
      </trkpt>
      <trkpt lat="46.0833" lon="4.56346">
        <ele>753</ele>
        <time>2020-10-24T07:10:32Z</time>
      </trkpt>
      <trkpt lat="46.08331" lon="4.56349">
        <ele>753.2</ele>
        <time>2020-10-24T07:10:33Z</time>
      </trkpt>
      <trkpt lat="46.08331" lon="4.56349">
        <ele>753.6</ele>
        <time>2020-10-24T07:10:34Z</time>
      </trkpt>
      <trkpt lat="46.08332" lon="4.56353">
        <ele>754</ele>
        <time>2020-10-24T07:10:35Z</time>
      </trkpt>
      <trkpt lat="46.08332" lon="4.56353">
        <ele>754.6</ele>
        <time>2020-10-24T07:10:36Z</time>
      </trkpt>
      <trkpt lat="46.08334" lon="4.56357">
        <ele>755.2</ele>
        <time>2020-10-24T07:10:37Z</time>
      </trkpt>
      <trkpt lat="46.08334" lon="4.56357">
        <ele>755.4</ele>
        <time>2020-10-24T07:10:38Z</time>
      </trkpt>
      <trkpt lat="46.08335" lon="4.56361">
        <ele>755.8</ele>
        <time>2020-10-24T07:10:39Z</time>
      </trkpt>
      <trkpt lat="46.08335" lon="4.56361">
        <ele>756.2</ele>
        <time>2020-10-24T07:10:40Z</time>
      </trkpt>
      <trkpt lat="46.08335" lon="4.56366">
        <ele>756.6</ele>
        <time>2020-10-24T07:10:41Z</time>
      </trkpt>
      <trkpt lat="46.08335" lon="4.56366">
        <ele>756.8</ele>
        <time>2020-10-24T07:10:42Z</time>
      </trkpt>
      <trkpt lat="46.08337" lon="4.56369">
        <ele>757</ele>
        <time>2020-10-24T07:10:43Z</time>
      </trkpt>
      <trkpt lat="46.08337" lon="4.56369">
        <ele>757</ele>
        <time>2020-10-24T07:10:44Z</time>
      </trkpt>
      <trkpt lat="46.08338" lon="4.56373">
        <ele>757.2</ele>
        <time>2020-10-24T07:10:45Z</time>
      </trkpt>
      <trkpt lat="46.08338" lon="4.56373">
        <ele>757.8</ele>
        <time>2020-10-24T07:10:46Z</time>
      </trkpt>
      <trkpt lat="46.08339" lon="4.56377">
        <ele>758</ele>
        <time>2020-10-24T07:10:47Z</time>
      </trkpt>
      <trkpt lat="46.08339" lon="4.56377">
        <ele>758.8</ele>
        <time>2020-10-24T07:10:48Z</time>
      </trkpt>
      <trkpt lat="46.08341" lon="4.5638">
        <ele>759</ele>
        <time>2020-10-24T07:10:49Z</time>
      </trkpt>
      <trkpt lat="46.08341" lon="4.5638">
        <ele>759.2</ele>
        <time>2020-10-24T07:10:50Z</time>
      </trkpt>
      <trkpt lat="46.08342" lon="4.56382">
        <ele>759.2</ele>
        <time>2020-10-24T07:10:51Z</time>
      </trkpt>
      <trkpt lat="46.08342" lon="4.56382">
        <ele>759.4</ele>
        <time>2020-10-24T07:10:52Z</time>
      </trkpt>
      <trkpt lat="46.08342" lon="4.56382">
        <ele>759.4</ele>
        <time>2020-10-24T07:10:53Z</time>
      </trkpt>
      <trkpt lat="46.08342" lon="4.56382">
        <ele>759.6</ele>
        <time>2020-10-24T07:10:54Z</time>
      </trkpt>
      <trkpt lat="46.08342" lon="4.56382">
        <ele>759.6</ele>
        <time>2020-10-24T07:10:55Z</time>
      </trkpt>
      <trkpt lat="46.08342" lon="4.56382">
        <ele>759.8</ele>
        <time>2020-10-24T07:10:56Z</time>
      </trkpt>
      <trkpt lat="46.08342" lon="4.56382">
        <ele>759.8</ele>
        <time>2020-10-24T07:10:57Z</time>
      </trkpt>
      <trkpt lat="46.08343" lon="4.56385">
        <ele>759.6</ele>
        <time>2020-10-24T07:10:58Z</time>
      </trkpt>
      <trkpt lat="46.08343" lon="4.56385">
        <ele>759.6</ele>
        <time>2020-10-24T07:10:59Z</time>
      </trkpt>
      <trkpt lat="46.08343" lon="4.56385">
        <ele>759.4</ele>
        <time>2020-10-24T07:11:00Z</time>
      </trkpt>
      <trkpt lat="46.08343" lon="4.56385">
        <ele>759.2</ele>
        <time>2020-10-24T07:11:01Z</time>
      </trkpt>
      <trkpt lat="46.08343" lon="4.56385">
        <ele>759</ele>
        <time>2020-10-24T07:11:02Z</time>
      </trkpt>
      <trkpt lat="46.08343" lon="4.56385">
        <ele>759</ele>
        <time>2020-10-24T07:11:03Z</time>
      </trkpt>
      <trkpt lat="46.08343" lon="4.56385">
        <ele>759</ele>
        <time>2020-10-24T07:11:04Z</time>
      </trkpt>
      <trkpt lat="46.08343" lon="4.56385">
        <ele>759</ele>
        <time>2020-10-24T07:11:05Z</time>
      </trkpt>
      <trkpt lat="46.08343" lon="4.56385">
        <ele>759</ele>
        <time>2020-10-24T07:11:06Z</time>
      </trkpt>
      <trkpt lat="46.08343" lon="4.56385">
        <ele>759</ele>
        <time>2020-10-24T07:11:07Z</time>
      </trkpt>
      <trkpt lat="46.08343" lon="4.56385">
        <ele>758.6</ele>
        <time>2020-10-24T07:11:08Z</time>
      </trkpt>
      <trkpt lat="46.08343" lon="4.56385">
        <ele>758.6</ele>
        <time>2020-10-24T07:11:09Z</time>
      </trkpt>
      <trkpt lat="46.08343" lon="4.56385">
        <ele>759</ele>
        <time>2020-10-24T07:11:10Z</time>
      </trkpt>
      <trkpt lat="46.08343" lon="4.56385">
        <ele>759</ele>
        <time>2020-10-24T07:11:11Z</time>
      </trkpt>
      <trkpt lat="46.08343" lon="4.56385">
        <ele>759</ele>
        <time>2020-10-24T07:11:12Z</time>
      </trkpt>
      <trkpt lat="46.08343" lon="4.56385">
        <ele>758.8</ele>
        <time>2020-10-24T07:11:13Z</time>
      </trkpt>
      <trkpt lat="46.08343" lon="4.56385">
        <ele>758.6</ele>
        <time>2020-10-24T07:11:14Z</time>
      </trkpt>
      <trkpt lat="46.08343" lon="4.56388">
        <ele>758.6</ele>
        <time>2020-10-24T07:11:15Z</time>
      </trkpt>
      <trkpt lat="46.08343" lon="4.56388">
        <ele>758.4</ele>
        <time>2020-10-24T07:11:16Z</time>
      </trkpt>
      <trkpt lat="46.08345" lon="4.56391">
        <ele>758</ele>
        <time>2020-10-24T07:11:17Z</time>
      </trkpt>
      <trkpt lat="46.08345" lon="4.56391">
        <ele>757.6</ele>
        <time>2020-10-24T07:11:18Z</time>
      </trkpt>
      <trkpt lat="46.08346" lon="4.56395">
        <ele>757.4</ele>
        <time>2020-10-24T07:11:19Z</time>
      </trkpt>
      <trkpt lat="46.08347" lon="4.56397">
        <ele>757.2</ele>
        <time>2020-10-24T07:11:20Z</time>
      </trkpt>
      <trkpt lat="46.08349" lon="4.56399">
        <ele>756.8</ele>
        <time>2020-10-24T07:11:21Z</time>
      </trkpt>
      <trkpt lat="46.0835" lon="4.56402">
        <ele>756.8</ele>
        <time>2020-10-24T07:11:22Z</time>
      </trkpt>
      <trkpt lat="46.08352" lon="4.56405">
        <ele>756.4</ele>
        <time>2020-10-24T07:11:23Z</time>
      </trkpt>
      <trkpt lat="46.08353" lon="4.56408">
        <ele>756</ele>
        <time>2020-10-24T07:11:24Z</time>
      </trkpt>
      <trkpt lat="46.08355" lon="4.56412">
        <ele>755.8</ele>
        <time>2020-10-24T07:11:25Z</time>
      </trkpt>
      <trkpt lat="46.08357" lon="4.56415">
        <ele>755.2</ele>
        <time>2020-10-24T07:11:26Z</time>
      </trkpt>
      <trkpt lat="46.08358" lon="4.56419">
        <ele>755</ele>
        <time>2020-10-24T07:11:27Z</time>
      </trkpt>
      <trkpt lat="46.0836" lon="4.56421">
        <ele>755</ele>
        <time>2020-10-24T07:11:28Z</time>
      </trkpt>
      <trkpt lat="46.08361" lon="4.56424">
        <ele>754.6</ele>
        <time>2020-10-24T07:11:29Z</time>
      </trkpt>
      <trkpt lat="46.08363" lon="4.56427">
        <ele>754.8</ele>
        <time>2020-10-24T07:11:30Z</time>
      </trkpt>
      <trkpt lat="46.08364" lon="4.56429">
        <ele>754.4</ele>
        <time>2020-10-24T07:11:31Z</time>
      </trkpt>
      <trkpt lat="46.08366" lon="4.56431">
        <ele>754</ele>
        <time>2020-10-24T07:11:32Z</time>
      </trkpt>
      <trkpt lat="46.08368" lon="4.56433">
        <ele>754.4</ele>
        <time>2020-10-24T07:11:33Z</time>
      </trkpt>
      <trkpt lat="46.0837" lon="4.56435">
        <ele>753.8</ele>
        <time>2020-10-24T07:11:34Z</time>
      </trkpt>
      <trkpt lat="46.08372" lon="4.56437">
        <ele>753.6</ele>
        <time>2020-10-24T07:11:35Z</time>
      </trkpt>
      <trkpt lat="46.08374" lon="4.5644">
        <ele>753.8</ele>
        <time>2020-10-24T07:11:36Z</time>
      </trkpt>
      <trkpt lat="46.08375" lon="4.56443">
        <ele>753.8</ele>
        <time>2020-10-24T07:11:37Z</time>
      </trkpt>
      <trkpt lat="46.08376" lon="4.56445">
        <ele>754</ele>
        <time>2020-10-24T07:11:38Z</time>
      </trkpt>
      <trkpt lat="46.08378" lon="4.56448">
        <ele>754.4</ele>
        <time>2020-10-24T07:11:39Z</time>
      </trkpt>
      <trkpt lat="46.08379" lon="4.5645">
        <ele>754.4</ele>
        <time>2020-10-24T07:11:40Z</time>
      </trkpt>
      <trkpt lat="46.08381" lon="4.56453">
        <ele>754.2</ele>
        <time>2020-10-24T07:11:41Z</time>
      </trkpt>
      <trkpt lat="46.08382" lon="4.56455">
        <ele>754</ele>
        <time>2020-10-24T07:11:42Z</time>
      </trkpt>
      <trkpt lat="46.08383" lon="4.56458">
        <ele>753.6</ele>
        <time>2020-10-24T07:11:43Z</time>
      </trkpt>
      <trkpt lat="46.08385" lon="4.56461">
        <ele>753.2</ele>
        <time>2020-10-24T07:11:44Z</time>
      </trkpt>
      <trkpt lat="46.08386" lon="4.56464">
        <ele>753.6</ele>
        <time>2020-10-24T07:11:45Z</time>
      </trkpt>
      <trkpt lat="46.08387" lon="4.56467">
        <ele>753.4</ele>
        <time>2020-10-24T07:11:46Z</time>
      </trkpt>
      <trkpt lat="46.08387" lon="4.5647">
        <ele>753</ele>
        <time>2020-10-24T07:11:47Z</time>
      </trkpt>
      <trkpt lat="46.08389" lon="4.56473">
        <ele>753.2</ele>
        <time>2020-10-24T07:11:48Z</time>
      </trkpt>
      <trkpt lat="46.0839" lon="4.56476">
        <ele>752.8</ele>
        <time>2020-10-24T07:11:49Z</time>
      </trkpt>
      <trkpt lat="46.08391" lon="4.56479">
        <ele>752.4</ele>
        <time>2020-10-24T07:11:50Z</time>
      </trkpt>
      <trkpt lat="46.08392" lon="4.56482">
        <ele>752.4</ele>
        <time>2020-10-24T07:11:51Z</time>
      </trkpt>
      <trkpt lat="46.08394" lon="4.56485">
        <ele>752</ele>
        <time>2020-10-24T07:11:52Z</time>
      </trkpt>
      <trkpt lat="46.08396" lon="4.56488">
        <ele>751.8</ele>
        <time>2020-10-24T07:11:53Z</time>
      </trkpt>
      <trkpt lat="46.08398" lon="4.56491">
        <ele>751.6</ele>
        <time>2020-10-24T07:11:54Z</time>
      </trkpt>
      <trkpt lat="46.084" lon="4.56494">
        <ele>751.6</ele>
        <time>2020-10-24T07:11:55Z</time>
      </trkpt>
      <trkpt lat="46.08402" lon="4.56496">
        <ele>751.6</ele>
        <time>2020-10-24T07:11:56Z</time>
      </trkpt>
      <trkpt lat="46.08404" lon="4.56498">
        <ele>751.4</ele>
        <time>2020-10-24T07:11:57Z</time>
      </trkpt>
      <trkpt lat="46.08405" lon="4.56501">
        <ele>750.8</ele>
        <time>2020-10-24T07:11:58Z</time>
      </trkpt>
      <trkpt lat="46.08407" lon="4.56503">
        <ele>751</ele>
        <time>2020-10-24T07:11:59Z</time>
      </trkpt>
      <trkpt lat="46.08409" lon="4.56506">
        <ele>750.8</ele>
        <time>2020-10-24T07:12:00Z</time>
      </trkpt>
      <trkpt lat="46.08411" lon="4.56507">
        <ele>750.6</ele>
        <time>2020-10-24T07:12:01Z</time>
      </trkpt>
      <trkpt lat="46.08413" lon="4.56509">
        <ele>750.8</ele>
        <time>2020-10-24T07:12:02Z</time>
      </trkpt>
      <trkpt lat="46.08415" lon="4.56511">
        <ele>751</ele>
        <time>2020-10-24T07:12:03Z</time>
      </trkpt>
      <trkpt lat="46.08417" lon="4.56513">
        <ele>751.2</ele>
        <time>2020-10-24T07:12:04Z</time>
      </trkpt>
      <trkpt lat="46.08419" lon="4.56515">
        <ele>750.8</ele>
        <time>2020-10-24T07:12:05Z</time>
      </trkpt>
      <trkpt lat="46.08421" lon="4.56516">
        <ele>750.8</ele>
        <time>2020-10-24T07:12:06Z</time>
      </trkpt>
      <trkpt lat="46.08422" lon="4.56517">
        <ele>751.2</ele>
        <time>2020-10-24T07:12:07Z</time>
      </trkpt>
      <trkpt lat="46.08424" lon="4.56519">
        <ele>751</ele>
        <time>2020-10-24T07:12:08Z</time>
      </trkpt>
      <trkpt lat="46.08426" lon="4.5652">
        <ele>750.6</ele>
        <time>2020-10-24T07:12:09Z</time>
      </trkpt>
      <trkpt lat="46.08428" lon="4.56521">
        <ele>751</ele>
        <time>2020-10-24T07:12:10Z</time>
      </trkpt>
      <trkpt lat="46.0843" lon="4.56524">
        <ele>750.8</ele>
        <time>2020-10-24T07:12:11Z</time>
      </trkpt>
      <trkpt lat="46.08432" lon="4.56526">
        <ele>750.8</ele>
        <time>2020-10-24T07:12:12Z</time>
      </trkpt>
      <trkpt lat="46.08433" lon="4.56528">
        <ele>751</ele>
        <time>2020-10-24T07:12:13Z</time>
      </trkpt>
      <trkpt lat="46.08434" lon="4.5653">
        <ele>751</ele>
        <time>2020-10-24T07:12:14Z</time>
      </trkpt>
      <trkpt lat="46.08434" lon="4.5653">
        <ele>751.2</ele>
        <time>2020-10-24T07:12:15Z</time>
      </trkpt>
      <trkpt lat="46.08436" lon="4.56534">
        <ele>751.6</ele>
        <time>2020-10-24T07:12:16Z</time>
      </trkpt>
      <trkpt lat="46.08436" lon="4.56534">
        <ele>751.6</ele>
        <time>2020-10-24T07:12:17Z</time>
      </trkpt>
      <trkpt lat="46.08438" lon="4.56536">
        <ele>751.2</ele>
        <time>2020-10-24T07:12:18Z</time>
      </trkpt>
      <trkpt lat="46.08438" lon="4.56536">
        <ele>751.2</ele>
        <time>2020-10-24T07:12:19Z</time>
      </trkpt>
      <trkpt lat="46.0844" lon="4.5654">
        <ele>751.2</ele>
        <time>2020-10-24T07:12:20Z</time>
      </trkpt>
      <trkpt lat="46.0844" lon="4.5654">
        <ele>751.8</ele>
        <time>2020-10-24T07:12:21Z</time>
      </trkpt>
      <trkpt lat="46.08441" lon="4.56545">
        <ele>752.2</ele>
        <time>2020-10-24T07:12:22Z</time>
      </trkpt>
      <trkpt lat="46.08442" lon="4.56547">
        <ele>752.4</ele>
        <time>2020-10-24T07:12:23Z</time>
      </trkpt>
      <trkpt lat="46.08443" lon="4.56551">
        <ele>752.4</ele>
        <time>2020-10-24T07:12:24Z</time>
      </trkpt>
      <trkpt lat="46.08443" lon="4.56554">
        <ele>752.6</ele>
        <time>2020-10-24T07:12:25Z</time>
      </trkpt>
      <trkpt lat="46.08444" lon="4.56557">
        <ele>752.4</ele>
        <time>2020-10-24T07:12:26Z</time>
      </trkpt>
      <trkpt lat="46.08445" lon="4.5656">
        <ele>752.2</ele>
        <time>2020-10-24T07:12:27Z</time>
      </trkpt>
      <trkpt lat="46.08445" lon="4.56563">
        <ele>752.4</ele>
        <time>2020-10-24T07:12:28Z</time>
      </trkpt>
      <trkpt lat="46.08446" lon="4.56566">
        <ele>752.2</ele>
        <time>2020-10-24T07:12:29Z</time>
      </trkpt>
      <trkpt lat="46.08447" lon="4.56569">
        <ele>752.2</ele>
        <time>2020-10-24T07:12:30Z</time>
      </trkpt>
      <trkpt lat="46.08448" lon="4.56571">
        <ele>752</ele>
        <time>2020-10-24T07:12:31Z</time>
      </trkpt>
      <trkpt lat="46.08449" lon="4.56575">
        <ele>751.8</ele>
        <time>2020-10-24T07:12:32Z</time>
      </trkpt>
      <trkpt lat="46.0845" lon="4.56578">
        <ele>751.8</ele>
        <time>2020-10-24T07:12:33Z</time>
      </trkpt>
      <trkpt lat="46.08451" lon="4.56581">
        <ele>751.6</ele>
        <time>2020-10-24T07:12:34Z</time>
      </trkpt>
      <trkpt lat="46.08451" lon="4.56585">
        <ele>751.4</ele>
        <time>2020-10-24T07:12:35Z</time>
      </trkpt>
      <trkpt lat="46.08452" lon="4.56588">
        <ele>751.4</ele>
        <time>2020-10-24T07:12:36Z</time>
      </trkpt>
      <trkpt lat="46.08453" lon="4.56591">
        <ele>751</ele>
        <time>2020-10-24T07:12:37Z</time>
      </trkpt>
      <trkpt lat="46.08454" lon="4.56595">
        <ele>750.6</ele>
        <time>2020-10-24T07:12:38Z</time>
      </trkpt>
      <trkpt lat="46.08455" lon="4.56598">
        <ele>750.8</ele>
        <time>2020-10-24T07:12:39Z</time>
      </trkpt>
      <trkpt lat="46.08456" lon="4.56601">
        <ele>750.4</ele>
        <time>2020-10-24T07:12:40Z</time>
      </trkpt>
      <trkpt lat="46.08456" lon="4.56604">
        <ele>750.4</ele>
        <time>2020-10-24T07:12:41Z</time>
      </trkpt>
      <trkpt lat="46.08457" lon="4.56607">
        <ele>750.4</ele>
        <time>2020-10-24T07:12:42Z</time>
      </trkpt>
      <trkpt lat="46.08458" lon="4.5661">
        <ele>750</ele>
        <time>2020-10-24T07:12:43Z</time>
      </trkpt>
      <trkpt lat="46.08458" lon="4.56613">
        <ele>750</ele>
        <time>2020-10-24T07:12:44Z</time>
      </trkpt>
      <trkpt lat="46.08459" lon="4.56616">
        <ele>749.8</ele>
        <time>2020-10-24T07:12:45Z</time>
      </trkpt>
      <trkpt lat="46.08459" lon="4.56619">
        <ele>749.4</ele>
        <time>2020-10-24T07:12:46Z</time>
      </trkpt>
      <trkpt lat="46.08459" lon="4.56622">
        <ele>749.2</ele>
        <time>2020-10-24T07:12:47Z</time>
      </trkpt>
      <trkpt lat="46.08459" lon="4.56622">
        <ele>749</ele>
        <time>2020-10-24T07:12:48Z</time>
      </trkpt>
      <trkpt lat="46.0846" lon="4.56627">
        <ele>748.6</ele>
        <time>2020-10-24T07:12:49Z</time>
      </trkpt>
      <trkpt lat="46.08461" lon="4.5663">
        <ele>748.6</ele>
        <time>2020-10-24T07:12:50Z</time>
      </trkpt>
      <trkpt lat="46.08462" lon="4.56634">
        <ele>748</ele>
        <time>2020-10-24T07:12:51Z</time>
      </trkpt>
      <trkpt lat="46.08462" lon="4.56637">
        <ele>747.4</ele>
        <time>2020-10-24T07:12:52Z</time>
      </trkpt>
      <trkpt lat="46.08463" lon="4.5664">
        <ele>747.4</ele>
        <time>2020-10-24T07:12:53Z</time>
      </trkpt>
      <trkpt lat="46.08464" lon="4.56644">
        <ele>747</ele>
        <time>2020-10-24T07:12:54Z</time>
      </trkpt>
      <trkpt lat="46.08465" lon="4.56648">
        <ele>746.8</ele>
        <time>2020-10-24T07:12:55Z</time>
      </trkpt>
      <trkpt lat="46.08465" lon="4.56652">
        <ele>746.8</ele>
        <time>2020-10-24T07:12:56Z</time>
      </trkpt>
      <trkpt lat="46.08465" lon="4.56655">
        <ele>746</ele>
        <time>2020-10-24T07:12:57Z</time>
      </trkpt>
      <trkpt lat="46.08465" lon="4.56658">
        <ele>745.8</ele>
        <time>2020-10-24T07:12:58Z</time>
      </trkpt>
      <trkpt lat="46.08466" lon="4.56662">
        <ele>745.8</ele>
        <time>2020-10-24T07:12:59Z</time>
      </trkpt>
      <trkpt lat="46.08466" lon="4.56665">
        <ele>745.6</ele>
        <time>2020-10-24T07:13:00Z</time>
      </trkpt>
      <trkpt lat="46.08467" lon="4.56668">
        <ele>745.2</ele>
        <time>2020-10-24T07:13:01Z</time>
      </trkpt>
      <trkpt lat="46.08467" lon="4.56671">
        <ele>745.2</ele>
        <time>2020-10-24T07:13:02Z</time>
      </trkpt>
      <trkpt lat="46.08468" lon="4.56674">
        <ele>745</ele>
        <time>2020-10-24T07:13:03Z</time>
      </trkpt>
      <trkpt lat="46.08468" lon="4.56678">
        <ele>744.6</ele>
        <time>2020-10-24T07:13:04Z</time>
      </trkpt>
      <trkpt lat="46.08469" lon="4.56682">
        <ele>744.6</ele>
        <time>2020-10-24T07:13:05Z</time>
      </trkpt>
      <trkpt lat="46.0847" lon="4.56685">
        <ele>744.4</ele>
        <time>2020-10-24T07:13:06Z</time>
      </trkpt>
      <trkpt lat="46.08471" lon="4.56688">
        <ele>744</ele>
        <time>2020-10-24T07:13:07Z</time>
      </trkpt>
      <trkpt lat="46.08472" lon="4.56691">
        <ele>744.2</ele>
        <time>2020-10-24T07:13:08Z</time>
      </trkpt>
      <trkpt lat="46.08473" lon="4.56695">
        <ele>743.6</ele>
        <time>2020-10-24T07:13:09Z</time>
      </trkpt>
      <trkpt lat="46.08473" lon="4.56699">
        <ele>743.4</ele>
        <time>2020-10-24T07:13:10Z</time>
      </trkpt>
      <trkpt lat="46.08472" lon="4.56703">
        <ele>743.2</ele>
        <time>2020-10-24T07:13:11Z</time>
      </trkpt>
      <trkpt lat="46.08472" lon="4.56706">
        <ele>742.6</ele>
        <time>2020-10-24T07:13:12Z</time>
      </trkpt>
      <trkpt lat="46.08473" lon="4.5671">
        <ele>742.4</ele>
        <time>2020-10-24T07:13:13Z</time>
      </trkpt>
      <trkpt lat="46.08473" lon="4.56713">
        <ele>741.8</ele>
        <time>2020-10-24T07:13:14Z</time>
      </trkpt>
      <trkpt lat="46.08474" lon="4.56717">
        <ele>741</ele>
        <time>2020-10-24T07:13:15Z</time>
      </trkpt>
      <trkpt lat="46.08474" lon="4.5672">
        <ele>740.8</ele>
        <time>2020-10-24T07:13:16Z</time>
      </trkpt>
      <trkpt lat="46.08475" lon="4.56723">
        <ele>740.2</ele>
        <time>2020-10-24T07:13:17Z</time>
      </trkpt>
      <trkpt lat="46.08475" lon="4.56726">
        <ele>740</ele>
        <time>2020-10-24T07:13:18Z</time>
      </trkpt>
      <trkpt lat="46.08475" lon="4.56729">
        <ele>739.4</ele>
        <time>2020-10-24T07:13:19Z</time>
      </trkpt>
      <trkpt lat="46.08477" lon="4.56731">
        <ele>739</ele>
        <time>2020-10-24T07:13:20Z</time>
      </trkpt>
      <trkpt lat="46.08478" lon="4.56733">
        <ele>738.8</ele>
        <time>2020-10-24T07:13:21Z</time>
      </trkpt>
      <trkpt lat="46.0848" lon="4.56736">
        <ele>738.2</ele>
        <time>2020-10-24T07:13:22Z</time>
      </trkpt>
      <trkpt lat="46.08481" lon="4.56738">
        <ele>737.8</ele>
        <time>2020-10-24T07:13:23Z</time>
      </trkpt>
      <trkpt lat="46.08481" lon="4.56742">
        <ele>737.4</ele>
        <time>2020-10-24T07:13:24Z</time>
      </trkpt>
      <trkpt lat="46.08482" lon="4.56744">
        <ele>736.8</ele>
        <time>2020-10-24T07:13:25Z</time>
      </trkpt>
      <trkpt lat="46.08483" lon="4.56747">
        <ele>736.2</ele>
        <time>2020-10-24T07:13:26Z</time>
      </trkpt>
      <trkpt lat="46.08484" lon="4.56749">
        <ele>735.6</ele>
        <time>2020-10-24T07:13:27Z</time>
      </trkpt>
      <trkpt lat="46.08485" lon="4.56752">
        <ele>735.2</ele>
        <time>2020-10-24T07:13:28Z</time>
      </trkpt>
      <trkpt lat="46.08485" lon="4.56755">
        <ele>734.4</ele>
        <time>2020-10-24T07:13:29Z</time>
      </trkpt>
      <trkpt lat="46.08486" lon="4.56758">
        <ele>734.2</ele>
        <time>2020-10-24T07:13:30Z</time>
      </trkpt>
      <trkpt lat="46.08486" lon="4.56761">
        <ele>733.4</ele>
        <time>2020-10-24T07:13:31Z</time>
      </trkpt>
      <trkpt lat="46.08487" lon="4.56764">
        <ele>732.8</ele>
        <time>2020-10-24T07:13:32Z</time>
      </trkpt>
      <trkpt lat="46.08488" lon="4.56767">
        <ele>732.4</ele>
        <time>2020-10-24T07:13:33Z</time>
      </trkpt>
      <trkpt lat="46.08489" lon="4.5677">
        <ele>731.6</ele>
        <time>2020-10-24T07:13:34Z</time>
      </trkpt>
      <trkpt lat="46.0849" lon="4.56772">
        <ele>731.2</ele>
        <time>2020-10-24T07:13:35Z</time>
      </trkpt>
      <trkpt lat="46.08491" lon="4.56775">
        <ele>730.8</ele>
        <time>2020-10-24T07:13:36Z</time>
      </trkpt>
      <trkpt lat="46.08491" lon="4.56778">
        <ele>730.2</ele>
        <time>2020-10-24T07:13:37Z</time>
      </trkpt>
      <trkpt lat="46.08492" lon="4.56781">
        <ele>729.6</ele>
        <time>2020-10-24T07:13:38Z</time>
      </trkpt>
      <trkpt lat="46.08493" lon="4.56785">
        <ele>729.2</ele>
        <time>2020-10-24T07:13:39Z</time>
      </trkpt>
      <trkpt lat="46.08494" lon="4.56788">
        <ele>728.4</ele>
        <time>2020-10-24T07:13:40Z</time>
      </trkpt>
      <trkpt lat="46.08495" lon="4.56792">
        <ele>728</ele>
        <time>2020-10-24T07:13:41Z</time>
      </trkpt>
      <trkpt lat="46.08496" lon="4.56795">
        <ele>727.6</ele>
        <time>2020-10-24T07:13:42Z</time>
      </trkpt>
      <trkpt lat="46.08497" lon="4.56799">
        <ele>726.8</ele>
        <time>2020-10-24T07:13:43Z</time>
      </trkpt>
      <trkpt lat="46.085" lon="4.56804">
        <ele>726.6</ele>
        <time>2020-10-24T07:13:44Z</time>
      </trkpt>
      <trkpt lat="46.08501" lon="4.56808">
        <ele>726.4</ele>
        <time>2020-10-24T07:13:45Z</time>
      </trkpt>
      <trkpt lat="46.08502" lon="4.56812">
        <ele>725.8</ele>
        <time>2020-10-24T07:13:46Z</time>
      </trkpt>
      <trkpt lat="46.08504" lon="4.56815">
        <ele>725.6</ele>
        <time>2020-10-24T07:13:47Z</time>
      </trkpt>
      <trkpt lat="46.08506" lon="4.56818">
        <ele>725</ele>
        <time>2020-10-24T07:13:48Z</time>
      </trkpt>
      <trkpt lat="46.08508" lon="4.56821">
        <ele>724.6</ele>
        <time>2020-10-24T07:13:49Z</time>
      </trkpt>
      <trkpt lat="46.08509" lon="4.56825">
        <ele>724.4</ele>
        <time>2020-10-24T07:13:50Z</time>
      </trkpt>
      <trkpt lat="46.0851" lon="4.56828">
        <ele>724</ele>
        <time>2020-10-24T07:13:51Z</time>
      </trkpt>
      <trkpt lat="46.0851" lon="4.56831">
        <ele>723.6</ele>
        <time>2020-10-24T07:13:52Z</time>
      </trkpt>
      <trkpt lat="46.08511" lon="4.56834">
        <ele>722.8</ele>
        <time>2020-10-24T07:13:53Z</time>
      </trkpt>
      <trkpt lat="46.08512" lon="4.56838">
        <ele>722.6</ele>
        <time>2020-10-24T07:13:54Z</time>
      </trkpt>
      <trkpt lat="46.08512" lon="4.56841">
        <ele>722.2</ele>
        <time>2020-10-24T07:13:55Z</time>
      </trkpt>
      <trkpt lat="46.08513" lon="4.56845">
        <ele>721.4</ele>
        <time>2020-10-24T07:13:56Z</time>
      </trkpt>
      <trkpt lat="46.08514" lon="4.56849">
        <ele>721.4</ele>
        <time>2020-10-24T07:13:57Z</time>
      </trkpt>
      <trkpt lat="46.08514" lon="4.56854">
        <ele>720.6</ele>
        <time>2020-10-24T07:13:58Z</time>
      </trkpt>
      <trkpt lat="46.08515" lon="4.56858">
        <ele>719.8</ele>
        <time>2020-10-24T07:13:59Z</time>
      </trkpt>
      <trkpt lat="46.08515" lon="4.56861">
        <ele>719.6</ele>
        <time>2020-10-24T07:14:00Z</time>
      </trkpt>
      <trkpt lat="46.08515" lon="4.56865">
        <ele>718.8</ele>
        <time>2020-10-24T07:14:01Z</time>
      </trkpt>
      <trkpt lat="46.08515" lon="4.56867">
        <ele>718.4</ele>
        <time>2020-10-24T07:14:02Z</time>
      </trkpt>
      <trkpt lat="46.08516" lon="4.5687">
        <ele>718.4</ele>
        <time>2020-10-24T07:14:03Z</time>
      </trkpt>
      <trkpt lat="46.08516" lon="4.56874">
        <ele>717.8</ele>
        <time>2020-10-24T07:14:04Z</time>
      </trkpt>
      <trkpt lat="46.08517" lon="4.56877">
        <ele>717.4</ele>
        <time>2020-10-24T07:14:05Z</time>
      </trkpt>
      <trkpt lat="46.08518" lon="4.5688">
        <ele>717</ele>
        <time>2020-10-24T07:14:06Z</time>
      </trkpt>
      <trkpt lat="46.08519" lon="4.56884">
        <ele>716.6</ele>
        <time>2020-10-24T07:14:07Z</time>
      </trkpt>
      <trkpt lat="46.08519" lon="4.56888">
        <ele>716.8</ele>
        <time>2020-10-24T07:14:08Z</time>
      </trkpt>
      <trkpt lat="46.0852" lon="4.56892">
        <ele>716.4</ele>
        <time>2020-10-24T07:14:09Z</time>
      </trkpt>
      <trkpt lat="46.0852" lon="4.56895">
        <ele>716</ele>
        <time>2020-10-24T07:14:10Z</time>
      </trkpt>
      <trkpt lat="46.0852" lon="4.56899">
        <ele>716.2</ele>
        <time>2020-10-24T07:14:11Z</time>
      </trkpt>
      <trkpt lat="46.08521" lon="4.56902">
        <ele>716.2</ele>
        <time>2020-10-24T07:14:12Z</time>
      </trkpt>
      <trkpt lat="46.08521" lon="4.56906">
        <ele>715.8</ele>
        <time>2020-10-24T07:14:13Z</time>
      </trkpt>
      <trkpt lat="46.08521" lon="4.56909">
        <ele>716</ele>
        <time>2020-10-24T07:14:14Z</time>
      </trkpt>
      <trkpt lat="46.08522" lon="4.56912">
        <ele>715.4</ele>
        <time>2020-10-24T07:14:15Z</time>
      </trkpt>
      <trkpt lat="46.08522" lon="4.56916">
        <ele>714.8</ele>
        <time>2020-10-24T07:14:16Z</time>
      </trkpt>
      <trkpt lat="46.08523" lon="4.5692">
        <ele>715</ele>
        <time>2020-10-24T07:14:17Z</time>
      </trkpt>
      <trkpt lat="46.08524" lon="4.56923">
        <ele>714.6</ele>
        <time>2020-10-24T07:14:18Z</time>
      </trkpt>
      <trkpt lat="46.08525" lon="4.56927">
        <ele>714.2</ele>
        <time>2020-10-24T07:14:19Z</time>
      </trkpt>
      <trkpt lat="46.08525" lon="4.56931">
        <ele>714.2</ele>
        <time>2020-10-24T07:14:20Z</time>
      </trkpt>
      <trkpt lat="46.08526" lon="4.56934">
        <ele>714</ele>
        <time>2020-10-24T07:14:21Z</time>
      </trkpt>
      <trkpt lat="46.08526" lon="4.56937">
        <ele>713.8</ele>
        <time>2020-10-24T07:14:22Z</time>
      </trkpt>
      <trkpt lat="46.08527" lon="4.5694">
        <ele>714</ele>
        <time>2020-10-24T07:14:23Z</time>
      </trkpt>
      <trkpt lat="46.08527" lon="4.56944">
        <ele>713.8</ele>
        <time>2020-10-24T07:14:24Z</time>
      </trkpt>
      <trkpt lat="46.08528" lon="4.56948">
        <ele>713.4</ele>
        <time>2020-10-24T07:14:25Z</time>
      </trkpt>
      <trkpt lat="46.08528" lon="4.56951">
        <ele>713.8</ele>
        <time>2020-10-24T07:14:26Z</time>
      </trkpt>
      <trkpt lat="46.08529" lon="4.56954">
        <ele>713.6</ele>
        <time>2020-10-24T07:14:27Z</time>
      </trkpt>
      <trkpt lat="46.08529" lon="4.56958">
        <ele>713.4</ele>
        <time>2020-10-24T07:14:28Z</time>
      </trkpt>
      <trkpt lat="46.08529" lon="4.56961">
        <ele>713.4</ele>
        <time>2020-10-24T07:14:29Z</time>
      </trkpt>
      <trkpt lat="46.0853" lon="4.56965">
        <ele>713</ele>
        <time>2020-10-24T07:14:30Z</time>
      </trkpt>
      <trkpt lat="46.08531" lon="4.56969">
        <ele>712.4</ele>
        <time>2020-10-24T07:14:31Z</time>
      </trkpt>
      <trkpt lat="46.08531" lon="4.56972">
        <ele>712.2</ele>
        <time>2020-10-24T07:14:32Z</time>
      </trkpt>
      <trkpt lat="46.08531" lon="4.56976">
        <ele>711.8</ele>
        <time>2020-10-24T07:14:33Z</time>
      </trkpt>
      <trkpt lat="46.08532" lon="4.56979">
        <ele>711.6</ele>
        <time>2020-10-24T07:14:34Z</time>
      </trkpt>
      <trkpt lat="46.08532" lon="4.56983">
        <ele>711.4</ele>
        <time>2020-10-24T07:14:35Z</time>
      </trkpt>
      <trkpt lat="46.08532" lon="4.56986">
        <ele>711</ele>
        <time>2020-10-24T07:14:36Z</time>
      </trkpt>
      <trkpt lat="46.08533" lon="4.5699">
        <ele>710.6</ele>
        <time>2020-10-24T07:14:37Z</time>
      </trkpt>
      <trkpt lat="46.08533" lon="4.56993">
        <ele>710.6</ele>
        <time>2020-10-24T07:14:38Z</time>
      </trkpt>
      <trkpt lat="46.08534" lon="4.56997">
        <ele>710.2</ele>
        <time>2020-10-24T07:14:39Z</time>
      </trkpt>
      <trkpt lat="46.08534" lon="4.57001">
        <ele>709.8</ele>
        <time>2020-10-24T07:14:40Z</time>
      </trkpt>
      <trkpt lat="46.08534" lon="4.57005">
        <ele>709.6</ele>
        <time>2020-10-24T07:14:41Z</time>
      </trkpt>
      <trkpt lat="46.08535" lon="4.57009">
        <ele>709.2</ele>
        <time>2020-10-24T07:14:42Z</time>
      </trkpt>
      <trkpt lat="46.08535" lon="4.57013">
        <ele>708.6</ele>
        <time>2020-10-24T07:14:43Z</time>
      </trkpt>
      <trkpt lat="46.08535" lon="4.57017">
        <ele>708.8</ele>
        <time>2020-10-24T07:14:44Z</time>
      </trkpt>
      <trkpt lat="46.08535" lon="4.57021">
        <ele>708.4</ele>
        <time>2020-10-24T07:14:45Z</time>
      </trkpt>
      <trkpt lat="46.08536" lon="4.57025">
        <ele>708</ele>
        <time>2020-10-24T07:14:46Z</time>
      </trkpt>
      <trkpt lat="46.08537" lon="4.57028">
        <ele>708.4</ele>
        <time>2020-10-24T07:14:47Z</time>
      </trkpt>
      <trkpt lat="46.08537" lon="4.57032">
        <ele>708</ele>
        <time>2020-10-24T07:14:48Z</time>
      </trkpt>
      <trkpt lat="46.08538" lon="4.57035">
        <ele>708.2</ele>
        <time>2020-10-24T07:14:49Z</time>
      </trkpt>
      <trkpt lat="46.08538" lon="4.57039">
        <ele>708.4</ele>
        <time>2020-10-24T07:14:50Z</time>
      </trkpt>
      <trkpt lat="46.08538" lon="4.57042">
        <ele>708.2</ele>
        <time>2020-10-24T07:14:51Z</time>
      </trkpt>
      <trkpt lat="46.08538" lon="4.57045">
        <ele>708.2</ele>
        <time>2020-10-24T07:14:52Z</time>
      </trkpt>
      <trkpt lat="46.08538" lon="4.57045">
        <ele>708.2</ele>
        <time>2020-10-24T07:14:53Z</time>
      </trkpt>
      <trkpt lat="46.08537" lon="4.5705">
        <ele>708</ele>
        <time>2020-10-24T07:14:54Z</time>
      </trkpt>
      <trkpt lat="46.08537" lon="4.5705">
        <ele>708.4</ele>
        <time>2020-10-24T07:14:55Z</time>
      </trkpt>
      <trkpt lat="46.08537" lon="4.57055">
        <ele>708.6</ele>
        <time>2020-10-24T07:14:56Z</time>
      </trkpt>
      <trkpt lat="46.08536" lon="4.57058">
        <ele>708.4</ele>
        <time>2020-10-24T07:14:57Z</time>
      </trkpt>
      <trkpt lat="46.08537" lon="4.57061">
        <ele>708.8</ele>
        <time>2020-10-24T07:14:58Z</time>
      </trkpt>
      <trkpt lat="46.08537" lon="4.57064">
        <ele>708.6</ele>
        <time>2020-10-24T07:14:59Z</time>
      </trkpt>
      <trkpt lat="46.08537" lon="4.57067">
        <ele>708.8</ele>
        <time>2020-10-24T07:15:00Z</time>
      </trkpt>
      <trkpt lat="46.08537" lon="4.57069">
        <ele>709.2</ele>
        <time>2020-10-24T07:15:01Z</time>
      </trkpt>
      <trkpt lat="46.08537" lon="4.57072">
        <ele>709.2</ele>
        <time>2020-10-24T07:15:02Z</time>
      </trkpt>
      <trkpt lat="46.08537" lon="4.57075">
        <ele>709.4</ele>
        <time>2020-10-24T07:15:03Z</time>
      </trkpt>
      <trkpt lat="46.08538" lon="4.57078">
        <ele>709.8</ele>
        <time>2020-10-24T07:15:04Z</time>
      </trkpt>
      <trkpt lat="46.08538" lon="4.5708">
        <ele>709.8</ele>
        <time>2020-10-24T07:15:05Z</time>
      </trkpt>
      <trkpt lat="46.08538" lon="4.57083">
        <ele>709.8</ele>
        <time>2020-10-24T07:15:06Z</time>
      </trkpt>
      <trkpt lat="46.08538" lon="4.57083">
        <ele>710.6</ele>
        <time>2020-10-24T07:15:07Z</time>
      </trkpt>
      <trkpt lat="46.08538" lon="4.57089">
        <ele>710.6</ele>
        <time>2020-10-24T07:15:08Z</time>
      </trkpt>
      <trkpt lat="46.08539" lon="4.57092">
        <ele>710.6</ele>
        <time>2020-10-24T07:15:09Z</time>
      </trkpt>
      <trkpt lat="46.08539" lon="4.57094">
        <ele>711</ele>
        <time>2020-10-24T07:15:10Z</time>
      </trkpt>
      <trkpt lat="46.08539" lon="4.57098">
        <ele>711</ele>
        <time>2020-10-24T07:15:11Z</time>
      </trkpt>
      <trkpt lat="46.08539" lon="4.571">
        <ele>711</ele>
        <time>2020-10-24T07:15:12Z</time>
      </trkpt>
      <trkpt lat="46.08539" lon="4.57104">
        <ele>711.4</ele>
        <time>2020-10-24T07:15:13Z</time>
      </trkpt>
      <trkpt lat="46.0854" lon="4.57107">
        <ele>711.2</ele>
        <time>2020-10-24T07:15:14Z</time>
      </trkpt>
      <trkpt lat="46.0854" lon="4.5711">
        <ele>711.4</ele>
        <time>2020-10-24T07:15:15Z</time>
      </trkpt>
      <trkpt lat="46.08541" lon="4.57113">
        <ele>711.4</ele>
        <time>2020-10-24T07:15:16Z</time>
      </trkpt>
      <trkpt lat="46.08541" lon="4.57117">
        <ele>711.2</ele>
        <time>2020-10-24T07:15:17Z</time>
      </trkpt>
      <trkpt lat="46.08541" lon="4.57119">
        <ele>711.4</ele>
        <time>2020-10-24T07:15:18Z</time>
      </trkpt>
      <trkpt lat="46.08542" lon="4.57123">
        <ele>711</ele>
        <time>2020-10-24T07:15:19Z</time>
      </trkpt>
      <trkpt lat="46.08542" lon="4.57126">
        <ele>710.8</ele>
        <time>2020-10-24T07:15:20Z</time>
      </trkpt>
      <trkpt lat="46.08543" lon="4.57129">
        <ele>711.2</ele>
        <time>2020-10-24T07:15:21Z</time>
      </trkpt>
      <trkpt lat="46.08544" lon="4.57132">
        <ele>710.8</ele>
        <time>2020-10-24T07:15:22Z</time>
      </trkpt>
      <trkpt lat="46.08544" lon="4.57136">
        <ele>710.8</ele>
        <time>2020-10-24T07:15:23Z</time>
      </trkpt>
      <trkpt lat="46.08545" lon="4.57139">
        <ele>711.2</ele>
        <time>2020-10-24T07:15:24Z</time>
      </trkpt>
      <trkpt lat="46.08545" lon="4.57143">
        <ele>711.2</ele>
        <time>2020-10-24T07:15:25Z</time>
      </trkpt>
      <trkpt lat="46.08545" lon="4.57146">
        <ele>711</ele>
        <time>2020-10-24T07:15:26Z</time>
      </trkpt>
      <trkpt lat="46.08546" lon="4.57149">
        <ele>711.2</ele>
        <time>2020-10-24T07:15:27Z</time>
      </trkpt>
      <trkpt lat="46.08546" lon="4.57153">
        <ele>711.4</ele>
        <time>2020-10-24T07:15:28Z</time>
      </trkpt>
      <trkpt lat="46.08547" lon="4.57156">
        <ele>711.4</ele>
        <time>2020-10-24T07:15:29Z</time>
      </trkpt>
      <trkpt lat="46.08547" lon="4.57159">
        <ele>711.6</ele>
        <time>2020-10-24T07:15:30Z</time>
      </trkpt>
      <trkpt lat="46.08548" lon="4.57163">
        <ele>711.4</ele>
        <time>2020-10-24T07:15:31Z</time>
      </trkpt>
      <trkpt lat="46.08548" lon="4.57166">
        <ele>711.2</ele>
        <time>2020-10-24T07:15:32Z</time>
      </trkpt>
      <trkpt lat="46.08549" lon="4.5717">
        <ele>711.2</ele>
        <time>2020-10-24T07:15:33Z</time>
      </trkpt>
      <trkpt lat="46.08549" lon="4.57173">
        <ele>710.8</ele>
        <time>2020-10-24T07:15:34Z</time>
      </trkpt>
      <trkpt lat="46.08549" lon="4.57176">
        <ele>710.6</ele>
        <time>2020-10-24T07:15:35Z</time>
      </trkpt>
      <trkpt lat="46.0855" lon="4.57178">
        <ele>710.6</ele>
        <time>2020-10-24T07:15:36Z</time>
      </trkpt>
      <trkpt lat="46.0855" lon="4.57182">
        <ele>710.4</ele>
        <time>2020-10-24T07:15:37Z</time>
      </trkpt>
      <trkpt lat="46.0855" lon="4.57185">
        <ele>710.6</ele>
        <time>2020-10-24T07:15:38Z</time>
      </trkpt>
      <trkpt lat="46.0855" lon="4.57189">
        <ele>710.4</ele>
        <time>2020-10-24T07:15:39Z</time>
      </trkpt>
      <trkpt lat="46.0855" lon="4.57193">
        <ele>710.2</ele>
        <time>2020-10-24T07:15:40Z</time>
      </trkpt>
      <trkpt lat="46.0855" lon="4.57197">
        <ele>709.6</ele>
        <time>2020-10-24T07:15:41Z</time>
      </trkpt>
      <trkpt lat="46.08549" lon="4.572">
        <ele>709.2</ele>
        <time>2020-10-24T07:15:42Z</time>
      </trkpt>
      <trkpt lat="46.08548" lon="4.57205">
        <ele>709.2</ele>
        <time>2020-10-24T07:15:43Z</time>
      </trkpt>
      <trkpt lat="46.08548" lon="4.57208">
        <ele>708.4</ele>
        <time>2020-10-24T07:15:44Z</time>
      </trkpt>
      <trkpt lat="46.08547" lon="4.57212">
        <ele>708.4</ele>
        <time>2020-10-24T07:15:45Z</time>
      </trkpt>
      <trkpt lat="46.08546" lon="4.57216">
        <ele>708.2</ele>
        <time>2020-10-24T07:15:46Z</time>
      </trkpt>
      <trkpt lat="46.08545" lon="4.5722">
        <ele>707.8</ele>
        <time>2020-10-24T07:15:47Z</time>
      </trkpt>
      <trkpt lat="46.08544" lon="4.57224">
        <ele>707.2</ele>
        <time>2020-10-24T07:15:48Z</time>
      </trkpt>
      <trkpt lat="46.08542" lon="4.57228">
        <ele>707.2</ele>
        <time>2020-10-24T07:15:49Z</time>
      </trkpt>
      <trkpt lat="46.08541" lon="4.57232">
        <ele>706.8</ele>
        <time>2020-10-24T07:15:50Z</time>
      </trkpt>
      <trkpt lat="46.0854" lon="4.57236">
        <ele>706.2</ele>
        <time>2020-10-24T07:15:51Z</time>
      </trkpt>
      <trkpt lat="46.08539" lon="4.5724">
        <ele>706</ele>
        <time>2020-10-24T07:15:52Z</time>
      </trkpt>
      <trkpt lat="46.08538" lon="4.57243">
        <ele>705.8</ele>
        <time>2020-10-24T07:15:53Z</time>
      </trkpt>
      <trkpt lat="46.08537" lon="4.57247">
        <ele>705.4</ele>
        <time>2020-10-24T07:15:54Z</time>
      </trkpt>
      <trkpt lat="46.08536" lon="4.57249">
        <ele>705.6</ele>
        <time>2020-10-24T07:15:55Z</time>
      </trkpt>
      <trkpt lat="46.08535" lon="4.57252">
        <ele>705.4</ele>
        <time>2020-10-24T07:15:56Z</time>
      </trkpt>
      <trkpt lat="46.08534" lon="4.57255">
        <ele>705</ele>
        <time>2020-10-24T07:15:57Z</time>
      </trkpt>
      <trkpt lat="46.08533" lon="4.57258">
        <ele>705.2</ele>
        <time>2020-10-24T07:15:58Z</time>
      </trkpt>
      <trkpt lat="46.08533" lon="4.57262">
        <ele>704.8</ele>
        <time>2020-10-24T07:15:59Z</time>
      </trkpt>
      <trkpt lat="46.08533" lon="4.57265">
        <ele>704.4</ele>
        <time>2020-10-24T07:16:00Z</time>
      </trkpt>
      <trkpt lat="46.08533" lon="4.57268">
        <ele>704.4</ele>
        <time>2020-10-24T07:16:01Z</time>
      </trkpt>
      <trkpt lat="46.08534" lon="4.5727">
        <ele>704.4</ele>
        <time>2020-10-24T07:16:02Z</time>
      </trkpt>
      <trkpt lat="46.08534" lon="4.5727">
        <ele>704.2</ele>
        <time>2020-10-24T07:16:03Z</time>
      </trkpt>
      <trkpt lat="46.08537" lon="4.57272">
        <ele>704.4</ele>
        <time>2020-10-24T07:16:04Z</time>
      </trkpt>
      <trkpt lat="46.08537" lon="4.57272">
        <ele>704.2</ele>
        <time>2020-10-24T07:16:05Z</time>
      </trkpt>
      <trkpt lat="46.08541" lon="4.57273">
        <ele>704</ele>
        <time>2020-10-24T07:16:06Z</time>
      </trkpt>
      <trkpt lat="46.08542" lon="4.57273">
        <ele>704.4</ele>
        <time>2020-10-24T07:16:07Z</time>
      </trkpt>
      <trkpt lat="46.08544" lon="4.57273">
        <ele>704.4</ele>
        <time>2020-10-24T07:16:08Z</time>
      </trkpt>
      <trkpt lat="46.08544" lon="4.57273">
        <ele>704.4</ele>
        <time>2020-10-24T07:16:09Z</time>
      </trkpt>
      <trkpt lat="46.08548" lon="4.57274">
        <ele>704.6</ele>
        <time>2020-10-24T07:16:10Z</time>
      </trkpt>
      <trkpt lat="46.0855" lon="4.57275">
        <ele>704.6</ele>
        <time>2020-10-24T07:16:11Z</time>
      </trkpt>
      <trkpt lat="46.08552" lon="4.57275">
        <ele>704.6</ele>
        <time>2020-10-24T07:16:12Z</time>
      </trkpt>
      <trkpt lat="46.08554" lon="4.57276">
        <ele>704.6</ele>
        <time>2020-10-24T07:16:13Z</time>
      </trkpt>
      <trkpt lat="46.08557" lon="4.57277">
        <ele>704.4</ele>
        <time>2020-10-24T07:16:14Z</time>
      </trkpt>
      <trkpt lat="46.08559" lon="4.57279">
        <ele>704</ele>
        <time>2020-10-24T07:16:15Z</time>
      </trkpt>
      <trkpt lat="46.08561" lon="4.57281">
        <ele>704.2</ele>
        <time>2020-10-24T07:16:16Z</time>
      </trkpt>
      <trkpt lat="46.08564" lon="4.57284">
        <ele>704</ele>
        <time>2020-10-24T07:16:17Z</time>
      </trkpt>
      <trkpt lat="46.08566" lon="4.57286">
        <ele>703.8</ele>
        <time>2020-10-24T07:16:18Z</time>
      </trkpt>
      <trkpt lat="46.08569" lon="4.57289">
        <ele>704</ele>
        <time>2020-10-24T07:16:19Z</time>
      </trkpt>
      <trkpt lat="46.08571" lon="4.57292">
        <ele>703.4</ele>
        <time>2020-10-24T07:16:20Z</time>
      </trkpt>
      <trkpt lat="46.08574" lon="4.57294">
        <ele>703.4</ele>
        <time>2020-10-24T07:16:21Z</time>
      </trkpt>
      <trkpt lat="46.08575" lon="4.57296">
        <ele>703.6</ele>
        <time>2020-10-24T07:16:22Z</time>
      </trkpt>
      <trkpt lat="46.08576" lon="4.57297">
        <ele>703.4</ele>
        <time>2020-10-24T07:16:23Z</time>
      </trkpt>
      <trkpt lat="46.08577" lon="4.57299">
        <ele>703.2</ele>
        <time>2020-10-24T07:16:24Z</time>
      </trkpt>
      <trkpt lat="46.08577" lon="4.573">
        <ele>703.2</ele>
        <time>2020-10-24T07:16:25Z</time>
      </trkpt>
      <trkpt lat="46.08582" lon="4.57308">
        <ele>702.8</ele>
        <time>2020-10-24T07:16:26Z</time>
      </trkpt>
      <trkpt lat="46.08583" lon="4.57311">
        <ele>702.6</ele>
        <time>2020-10-24T07:16:27Z</time>
      </trkpt>
      <trkpt lat="46.08584" lon="4.57313">
        <ele>702.6</ele>
        <time>2020-10-24T07:16:28Z</time>
      </trkpt>
      <trkpt lat="46.08585" lon="4.57315">
        <ele>702.2</ele>
        <time>2020-10-24T07:16:29Z</time>
      </trkpt>
      <trkpt lat="46.08586" lon="4.57317">
        <ele>702.2</ele>
        <time>2020-10-24T07:16:30Z</time>
      </trkpt>
      <trkpt lat="46.08587" lon="4.57319">
        <ele>702</ele>
        <time>2020-10-24T07:16:31Z</time>
      </trkpt>
      <trkpt lat="46.08587" lon="4.5732">
        <ele>701.8</ele>
        <time>2020-10-24T07:16:32Z</time>
      </trkpt>
      <trkpt lat="46.08588" lon="4.57321">
        <ele>701.8</ele>
        <time>2020-10-24T07:16:33Z</time>
      </trkpt>
      <trkpt lat="46.08589" lon="4.57323">
        <ele>701.6</ele>
        <time>2020-10-24T07:16:34Z</time>
      </trkpt>
      <trkpt lat="46.08589" lon="4.57324">
        <ele>701.4</ele>
        <time>2020-10-24T07:16:35Z</time>
      </trkpt>
      <trkpt lat="46.08593" lon="4.57333">
        <ele>701.8</ele>
        <time>2020-10-24T07:16:36Z</time>
      </trkpt>
      <trkpt lat="46.08594" lon="4.57336">
        <ele>701.6</ele>
        <time>2020-10-24T07:16:37Z</time>
      </trkpt>
      <trkpt lat="46.08595" lon="4.57339">
        <ele>701.4</ele>
        <time>2020-10-24T07:16:38Z</time>
      </trkpt>
      <trkpt lat="46.08596" lon="4.57342">
        <ele>701.8</ele>
        <time>2020-10-24T07:16:39Z</time>
      </trkpt>
      <trkpt lat="46.08597" lon="4.57345">
        <ele>701.6</ele>
        <time>2020-10-24T07:16:40Z</time>
      </trkpt>
      <trkpt lat="46.08597" lon="4.57348">
        <ele>701.4</ele>
        <time>2020-10-24T07:16:41Z</time>
      </trkpt>
      <trkpt lat="46.08598" lon="4.57351">
        <ele>701.8</ele>
        <time>2020-10-24T07:16:42Z</time>
      </trkpt>
      <trkpt lat="46.08599" lon="4.57354">
        <ele>701.8</ele>
        <time>2020-10-24T07:16:43Z</time>
      </trkpt>
      <trkpt lat="46.086" lon="4.57357">
        <ele>701.6</ele>
        <time>2020-10-24T07:16:44Z</time>
      </trkpt>
      <trkpt lat="46.08601" lon="4.5736">
        <ele>701.8</ele>
        <time>2020-10-24T07:16:45Z</time>
      </trkpt>
      <trkpt lat="46.08602" lon="4.57363">
        <ele>701.8</ele>
        <time>2020-10-24T07:16:46Z</time>
      </trkpt>
      <trkpt lat="46.08602" lon="4.57367">
        <ele>701.6</ele>
        <time>2020-10-24T07:16:47Z</time>
      </trkpt>
      <trkpt lat="46.08604" lon="4.57371">
        <ele>701.6</ele>
        <time>2020-10-24T07:16:48Z</time>
      </trkpt>
      <trkpt lat="46.08605" lon="4.57373">
        <ele>701.4</ele>
        <time>2020-10-24T07:16:49Z</time>
      </trkpt>
      <trkpt lat="46.08607" lon="4.57376">
        <ele>701.2</ele>
        <time>2020-10-24T07:16:50Z</time>
      </trkpt>
      <trkpt lat="46.08608" lon="4.57379">
        <ele>701.4</ele>
        <time>2020-10-24T07:16:51Z</time>
      </trkpt>
      <trkpt lat="46.0861" lon="4.57382">
        <ele>701</ele>
        <time>2020-10-24T07:16:52Z</time>
      </trkpt>
      <trkpt lat="46.08611" lon="4.57385">
        <ele>701.2</ele>
        <time>2020-10-24T07:16:53Z</time>
      </trkpt>
      <trkpt lat="46.08613" lon="4.57388">
        <ele>700.8</ele>
        <time>2020-10-24T07:16:54Z</time>
      </trkpt>
      <trkpt lat="46.08615" lon="4.57392">
        <ele>700.8</ele>
        <time>2020-10-24T07:16:55Z</time>
      </trkpt>
      <trkpt lat="46.08617" lon="4.57394">
        <ele>701</ele>
        <time>2020-10-24T07:16:56Z</time>
      </trkpt>
      <trkpt lat="46.08619" lon="4.57397">
        <ele>700.6</ele>
        <time>2020-10-24T07:16:57Z</time>
      </trkpt>
      <trkpt lat="46.0862" lon="4.57399">
        <ele>700.4</ele>
        <time>2020-10-24T07:16:58Z</time>
      </trkpt>
      <trkpt lat="46.08622" lon="4.57402">
        <ele>700.6</ele>
        <time>2020-10-24T07:16:59Z</time>
      </trkpt>
      <trkpt lat="46.08624" lon="4.57403">
        <ele>700.6</ele>
        <time>2020-10-24T07:17:00Z</time>
      </trkpt>
      <trkpt lat="46.08627" lon="4.57405">
        <ele>700.2</ele>
        <time>2020-10-24T07:17:01Z</time>
      </trkpt>
      <trkpt lat="46.08628" lon="4.57407">
        <ele>700.6</ele>
        <time>2020-10-24T07:17:02Z</time>
      </trkpt>
      <trkpt lat="46.08631" lon="4.57408">
        <ele>700.6</ele>
        <time>2020-10-24T07:17:03Z</time>
      </trkpt>
      <trkpt lat="46.08633" lon="4.5741">
        <ele>700.6</ele>
        <time>2020-10-24T07:17:04Z</time>
      </trkpt>
      <trkpt lat="46.08635" lon="4.57412">
        <ele>700.8</ele>
        <time>2020-10-24T07:17:05Z</time>
      </trkpt>
      <trkpt lat="46.08636" lon="4.57413">
        <ele>700.8</ele>
        <time>2020-10-24T07:17:06Z</time>
      </trkpt>
      <trkpt lat="46.08637" lon="4.57414">
        <ele>701</ele>
        <time>2020-10-24T07:17:07Z</time>
      </trkpt>
      <trkpt lat="46.08638" lon="4.57415">
        <ele>701.2</ele>
        <time>2020-10-24T07:17:08Z</time>
      </trkpt>
      <trkpt lat="46.08639" lon="4.57417">
        <ele>701.2</ele>
        <time>2020-10-24T07:17:09Z</time>
      </trkpt>
      <trkpt lat="46.08645" lon="4.57424">
        <ele>701.6</ele>
        <time>2020-10-24T07:17:10Z</time>
      </trkpt>
      <trkpt lat="46.08647" lon="4.57426">
        <ele>701.4</ele>
        <time>2020-10-24T07:17:11Z</time>
      </trkpt>
      <trkpt lat="46.08649" lon="4.57428">
        <ele>701.2</ele>
        <time>2020-10-24T07:17:12Z</time>
      </trkpt>
      <trkpt lat="46.08651" lon="4.57429">
        <ele>701.6</ele>
        <time>2020-10-24T07:17:13Z</time>
      </trkpt>
      <trkpt lat="46.08652" lon="4.5743">
        <ele>701.6</ele>
        <time>2020-10-24T07:17:14Z</time>
      </trkpt>
      <trkpt lat="46.08654" lon="4.57432">
        <ele>701.8</ele>
        <time>2020-10-24T07:17:15Z</time>
      </trkpt>
      <trkpt lat="46.08654" lon="4.57432">
        <ele>702.4</ele>
        <time>2020-10-24T07:17:16Z</time>
      </trkpt>
      <trkpt lat="46.08657" lon="4.57434">
        <ele>702.6</ele>
        <time>2020-10-24T07:17:17Z</time>
      </trkpt>
      <trkpt lat="46.08657" lon="4.57434">
        <ele>702.6</ele>
        <time>2020-10-24T07:17:18Z</time>
      </trkpt>
      <trkpt lat="46.0866" lon="4.57436">
        <ele>702.6</ele>
        <time>2020-10-24T07:17:19Z</time>
      </trkpt>
      <trkpt lat="46.0866" lon="4.57436">
        <ele>702.6</ele>
        <time>2020-10-24T07:17:20Z</time>
      </trkpt>
      <trkpt lat="46.08663" lon="4.57438">
        <ele>702.6</ele>
        <time>2020-10-24T07:17:21Z</time>
      </trkpt>
      <trkpt lat="46.08663" lon="4.57438">
        <ele>702.6</ele>
        <time>2020-10-24T07:17:22Z</time>
      </trkpt>
      <trkpt lat="46.08666" lon="4.57439">
        <ele>702.6</ele>
        <time>2020-10-24T07:17:23Z</time>
      </trkpt>
      <trkpt lat="46.08666" lon="4.57439">
        <ele>702.4</ele>
        <time>2020-10-24T07:17:24Z</time>
      </trkpt>
      <trkpt lat="46.08668" lon="4.5744">
        <ele>702.6</ele>
        <time>2020-10-24T07:17:25Z</time>
      </trkpt>
      <trkpt lat="46.08668" lon="4.5744">
        <ele>703</ele>
        <time>2020-10-24T07:17:26Z</time>
      </trkpt>
      <trkpt lat="46.08671" lon="4.57442">
        <ele>703.4</ele>
        <time>2020-10-24T07:17:27Z</time>
      </trkpt>
      <trkpt lat="46.08671" lon="4.57442">
        <ele>703.8</ele>
        <time>2020-10-24T07:17:28Z</time>
      </trkpt>
      <trkpt lat="46.08673" lon="4.57444">
        <ele>703.8</ele>
        <time>2020-10-24T07:17:29Z</time>
      </trkpt>
      <trkpt lat="46.08673" lon="4.57444">
        <ele>704</ele>
        <time>2020-10-24T07:17:30Z</time>
      </trkpt>
      <trkpt lat="46.08675" lon="4.57445">
        <ele>704.2</ele>
        <time>2020-10-24T07:17:31Z</time>
      </trkpt>
      <trkpt lat="46.08675" lon="4.57445">
        <ele>704.4</ele>
        <time>2020-10-24T07:17:32Z</time>
      </trkpt>
      <trkpt lat="46.08678" lon="4.57447">
        <ele>704.6</ele>
        <time>2020-10-24T07:17:33Z</time>
      </trkpt>
      <trkpt lat="46.08678" lon="4.57447">
        <ele>704.6</ele>
        <time>2020-10-24T07:17:34Z</time>
      </trkpt>
      <trkpt lat="46.0868" lon="4.57448">
        <ele>704.6</ele>
        <time>2020-10-24T07:17:35Z</time>
      </trkpt>
      <trkpt lat="46.0868" lon="4.57448">
        <ele>705.2</ele>
        <time>2020-10-24T07:17:36Z</time>
      </trkpt>
      <trkpt lat="46.08683" lon="4.57449">
        <ele>705.8</ele>
        <time>2020-10-24T07:17:37Z</time>
      </trkpt>
      <trkpt lat="46.08683" lon="4.57449">
        <ele>706</ele>
        <time>2020-10-24T07:17:38Z</time>
      </trkpt>
      <trkpt lat="46.08685" lon="4.5745">
        <ele>706.4</ele>
        <time>2020-10-24T07:17:39Z</time>
      </trkpt>
      <trkpt lat="46.08685" lon="4.5745">
        <ele>706.6</ele>
        <time>2020-10-24T07:17:40Z</time>
      </trkpt>
      <trkpt lat="46.08688" lon="4.57452">
        <ele>706.6</ele>
        <time>2020-10-24T07:17:41Z</time>
      </trkpt>
      <trkpt lat="46.08688" lon="4.57452">
        <ele>706.6</ele>
        <time>2020-10-24T07:17:42Z</time>
      </trkpt>
      <trkpt lat="46.08691" lon="4.57454">
        <ele>706.8</ele>
        <time>2020-10-24T07:17:43Z</time>
      </trkpt>
      <trkpt lat="46.08691" lon="4.57454">
        <ele>707.2</ele>
        <time>2020-10-24T07:17:44Z</time>
      </trkpt>
      <trkpt lat="46.08694" lon="4.57455">
        <ele>707.2</ele>
        <time>2020-10-24T07:17:45Z</time>
      </trkpt>
      <trkpt lat="46.08694" lon="4.57455">
        <ele>707.4</ele>
        <time>2020-10-24T07:17:46Z</time>
      </trkpt>
      <trkpt lat="46.08696" lon="4.57458">
        <ele>707.6</ele>
        <time>2020-10-24T07:17:47Z</time>
      </trkpt>
      <trkpt lat="46.08696" lon="4.57458">
        <ele>708</ele>
        <time>2020-10-24T07:17:48Z</time>
      </trkpt>
      <trkpt lat="46.08699" lon="4.5746">
        <ele>708.2</ele>
        <time>2020-10-24T07:17:49Z</time>
      </trkpt>
      <trkpt lat="46.08699" lon="4.5746">
        <ele>708.4</ele>
        <time>2020-10-24T07:17:50Z</time>
      </trkpt>
      <trkpt lat="46.08701" lon="4.57463">
        <ele>708.6</ele>
        <time>2020-10-24T07:17:51Z</time>
      </trkpt>
      <trkpt lat="46.08703" lon="4.57465">
        <ele>708.6</ele>
        <time>2020-10-24T07:17:52Z</time>
      </trkpt>
      <trkpt lat="46.08705" lon="4.57466">
        <ele>708.8</ele>
        <time>2020-10-24T07:17:53Z</time>
      </trkpt>
      <trkpt lat="46.08706" lon="4.57468">
        <ele>708.6</ele>
        <time>2020-10-24T07:17:54Z</time>
      </trkpt>
      <trkpt lat="46.08706" lon="4.57468">
        <ele>708.4</ele>
        <time>2020-10-24T07:17:55Z</time>
      </trkpt>
      <trkpt lat="46.08709" lon="4.5747">
        <ele>708.4</ele>
        <time>2020-10-24T07:17:56Z</time>
      </trkpt>
      <trkpt lat="46.08709" lon="4.5747">
        <ele>708.6</ele>
        <time>2020-10-24T07:17:57Z</time>
      </trkpt>
      <trkpt lat="46.08711" lon="4.57472">
        <ele>709</ele>
        <time>2020-10-24T07:17:58Z</time>
      </trkpt>
      <trkpt lat="46.08711" lon="4.57472">
        <ele>709.4</ele>
        <time>2020-10-24T07:17:59Z</time>
      </trkpt>
      <trkpt lat="46.08714" lon="4.57475">
        <ele>709.8</ele>
        <time>2020-10-24T07:18:00Z</time>
      </trkpt>
      <trkpt lat="46.08714" lon="4.57475">
        <ele>709.8</ele>
        <time>2020-10-24T07:18:01Z</time>
      </trkpt>
      <trkpt lat="46.08717" lon="4.57477">
        <ele>709.8</ele>
        <time>2020-10-24T07:18:02Z</time>
      </trkpt>
      <trkpt lat="46.08717" lon="4.57477">
        <ele>709.8</ele>
        <time>2020-10-24T07:18:03Z</time>
      </trkpt>
      <trkpt lat="46.0872" lon="4.5748">
        <ele>710</ele>
        <time>2020-10-24T07:18:04Z</time>
      </trkpt>
      <trkpt lat="46.0872" lon="4.5748">
        <ele>709.8</ele>
        <time>2020-10-24T07:18:05Z</time>
      </trkpt>
      <trkpt lat="46.08722" lon="4.57482">
        <ele>710.2</ele>
        <time>2020-10-24T07:18:06Z</time>
      </trkpt>
      <trkpt lat="46.08722" lon="4.57482">
        <ele>710.4</ele>
        <time>2020-10-24T07:18:07Z</time>
      </trkpt>
      <trkpt lat="46.08725" lon="4.57485">
        <ele>710.4</ele>
        <time>2020-10-24T07:18:08Z</time>
      </trkpt>
      <trkpt lat="46.08727" lon="4.57486">
        <ele>710.6</ele>
        <time>2020-10-24T07:18:09Z</time>
      </trkpt>
      <trkpt lat="46.08727" lon="4.57486">
        <ele>710.8</ele>
        <time>2020-10-24T07:18:10Z</time>
      </trkpt>
      <trkpt lat="46.08729" lon="4.57488">
        <ele>711</ele>
        <time>2020-10-24T07:18:11Z</time>
      </trkpt>
      <trkpt lat="46.08729" lon="4.57488">
        <ele>711.2</ele>
        <time>2020-10-24T07:18:12Z</time>
      </trkpt>
      <trkpt lat="46.08732" lon="4.5749">
        <ele>711.2</ele>
        <time>2020-10-24T07:18:13Z</time>
      </trkpt>
      <trkpt lat="46.08732" lon="4.5749">
        <ele>711.4</ele>
        <time>2020-10-24T07:18:14Z</time>
      </trkpt>
      <trkpt lat="46.08735" lon="4.57492">
        <ele>711.6</ele>
        <time>2020-10-24T07:18:15Z</time>
      </trkpt>
      <trkpt lat="46.08735" lon="4.57492">
        <ele>711.8</ele>
        <time>2020-10-24T07:18:16Z</time>
      </trkpt>
      <trkpt lat="46.08738" lon="4.57493">
        <ele>711.6</ele>
        <time>2020-10-24T07:18:17Z</time>
      </trkpt>
      <trkpt lat="46.08738" lon="4.57493">
        <ele>711.8</ele>
        <time>2020-10-24T07:18:18Z</time>
      </trkpt>
      <trkpt lat="46.08741" lon="4.57494">
        <ele>712</ele>
        <time>2020-10-24T07:18:19Z</time>
      </trkpt>
      <trkpt lat="46.08741" lon="4.57494">
        <ele>712</ele>
        <time>2020-10-24T07:18:20Z</time>
      </trkpt>
      <trkpt lat="46.08744" lon="4.57496">
        <ele>712.2</ele>
        <time>2020-10-24T07:18:21Z</time>
      </trkpt>
      <trkpt lat="46.08744" lon="4.57496">
        <ele>712.6</ele>
        <time>2020-10-24T07:18:22Z</time>
      </trkpt>
      <trkpt lat="46.08747" lon="4.57497">
        <ele>712.6</ele>
        <time>2020-10-24T07:18:23Z</time>
      </trkpt>
      <trkpt lat="46.08747" lon="4.57497">
        <ele>712.6</ele>
        <time>2020-10-24T07:18:24Z</time>
      </trkpt>
      <trkpt lat="46.0875" lon="4.57498">
        <ele>713</ele>
        <time>2020-10-24T07:18:25Z</time>
      </trkpt>
      <trkpt lat="46.0875" lon="4.57498">
        <ele>713</ele>
        <time>2020-10-24T07:18:26Z</time>
      </trkpt>
      <trkpt lat="46.08753" lon="4.57499">
        <ele>713.2</ele>
        <time>2020-10-24T07:18:27Z</time>
      </trkpt>
      <trkpt lat="46.08754" lon="4.57499">
        <ele>713.2</ele>
        <time>2020-10-24T07:18:28Z</time>
      </trkpt>
      <trkpt lat="46.08754" lon="4.57499">
        <ele>713.6</ele>
        <time>2020-10-24T07:18:29Z</time>
      </trkpt>
      <trkpt lat="46.08757" lon="4.575">
        <ele>714</ele>
        <time>2020-10-24T07:18:30Z</time>
      </trkpt>
      <trkpt lat="46.08757" lon="4.575">
        <ele>714.2</ele>
        <time>2020-10-24T07:18:31Z</time>
      </trkpt>
      <trkpt lat="46.0876" lon="4.57502">
        <ele>714.4</ele>
        <time>2020-10-24T07:18:32Z</time>
      </trkpt>
      <trkpt lat="46.0876" lon="4.57502">
        <ele>714.4</ele>
        <time>2020-10-24T07:18:33Z</time>
      </trkpt>
      <trkpt lat="46.08763" lon="4.57503">
        <ele>714.4</ele>
        <time>2020-10-24T07:18:34Z</time>
      </trkpt>
      <trkpt lat="46.08763" lon="4.57503">
        <ele>714.6</ele>
        <time>2020-10-24T07:18:35Z</time>
      </trkpt>
      <trkpt lat="46.08766" lon="4.57505">
        <ele>714.6</ele>
        <time>2020-10-24T07:18:36Z</time>
      </trkpt>
      <trkpt lat="46.08766" lon="4.57505">
        <ele>715</ele>
        <time>2020-10-24T07:18:37Z</time>
      </trkpt>
      <trkpt lat="46.08768" lon="4.57507">
        <ele>715.4</ele>
        <time>2020-10-24T07:18:38Z</time>
      </trkpt>
      <trkpt lat="46.08768" lon="4.57507">
        <ele>715.2</ele>
        <time>2020-10-24T07:18:39Z</time>
      </trkpt>
      <trkpt lat="46.0877" lon="4.5751">
        <ele>715.6</ele>
        <time>2020-10-24T07:18:40Z</time>
      </trkpt>
      <trkpt lat="46.0877" lon="4.5751">
        <ele>716</ele>
        <time>2020-10-24T07:18:41Z</time>
      </trkpt>
      <trkpt lat="46.08773" lon="4.57513">
        <ele>716</ele>
        <time>2020-10-24T07:18:42Z</time>
      </trkpt>
      <trkpt lat="46.08773" lon="4.57513">
        <ele>716</ele>
        <time>2020-10-24T07:18:43Z</time>
      </trkpt>
      <trkpt lat="46.08775" lon="4.57515">
        <ele>716.2</ele>
        <time>2020-10-24T07:18:44Z</time>
      </trkpt>
      <trkpt lat="46.08775" lon="4.57515">
        <ele>716.4</ele>
        <time>2020-10-24T07:18:45Z</time>
      </trkpt>
      <trkpt lat="46.08778" lon="4.57516">
        <ele>716.6</ele>
        <time>2020-10-24T07:18:46Z</time>
      </trkpt>
      <trkpt lat="46.08778" lon="4.57516">
        <ele>716.8</ele>
        <time>2020-10-24T07:18:47Z</time>
      </trkpt>
      <trkpt lat="46.08781" lon="4.57517">
        <ele>717</ele>
        <time>2020-10-24T07:18:48Z</time>
      </trkpt>
      <trkpt lat="46.08783" lon="4.57518">
        <ele>717</ele>
        <time>2020-10-24T07:18:49Z</time>
      </trkpt>
      <trkpt lat="46.08783" lon="4.57518">
        <ele>717</ele>
        <time>2020-10-24T07:18:50Z</time>
      </trkpt>
      <trkpt lat="46.08787" lon="4.57519">
        <ele>717.2</ele>
        <time>2020-10-24T07:18:51Z</time>
      </trkpt>
      <trkpt lat="46.08787" lon="4.57519">
        <ele>717.2</ele>
        <time>2020-10-24T07:18:52Z</time>
      </trkpt>
      <trkpt lat="46.0879" lon="4.5752">
        <ele>717</ele>
        <time>2020-10-24T07:18:53Z</time>
      </trkpt>
      <trkpt lat="46.0879" lon="4.5752">
        <ele>716.8</ele>
        <time>2020-10-24T07:18:54Z</time>
      </trkpt>
      <trkpt lat="46.08793" lon="4.57521">
        <ele>716.8</ele>
        <time>2020-10-24T07:18:55Z</time>
      </trkpt>
      <trkpt lat="46.08795" lon="4.57523">
        <ele>716.6</ele>
        <time>2020-10-24T07:18:56Z</time>
      </trkpt>
      <trkpt lat="46.08796" lon="4.57524">
        <ele>716.4</ele>
        <time>2020-10-24T07:18:57Z</time>
      </trkpt>
      <trkpt lat="46.08798" lon="4.57527">
        <ele>716.4</ele>
        <time>2020-10-24T07:18:58Z</time>
      </trkpt>
      <trkpt lat="46.08799" lon="4.5753">
        <ele>716.2</ele>
        <time>2020-10-24T07:18:59Z</time>
      </trkpt>
      <trkpt lat="46.088" lon="4.57532">
        <ele>716.4</ele>
        <time>2020-10-24T07:19:00Z</time>
      </trkpt>
      <trkpt lat="46.08801" lon="4.57535">
        <ele>716.2</ele>
        <time>2020-10-24T07:19:01Z</time>
      </trkpt>
      <trkpt lat="46.08802" lon="4.57538">
        <ele>715.6</ele>
        <time>2020-10-24T07:19:02Z</time>
      </trkpt>
      <trkpt lat="46.08803" lon="4.57541">
        <ele>715.8</ele>
        <time>2020-10-24T07:19:03Z</time>
      </trkpt>
      <trkpt lat="46.08805" lon="4.57544">
        <ele>715.4</ele>
        <time>2020-10-24T07:19:04Z</time>
      </trkpt>
      <trkpt lat="46.08806" lon="4.57548">
        <ele>715</ele>
        <time>2020-10-24T07:19:05Z</time>
      </trkpt>
      <trkpt lat="46.08807" lon="4.57551">
        <ele>714.8</ele>
        <time>2020-10-24T07:19:06Z</time>
      </trkpt>
      <trkpt lat="46.08808" lon="4.57554">
        <ele>714.2</ele>
        <time>2020-10-24T07:19:07Z</time>
      </trkpt>
      <trkpt lat="46.08809" lon="4.57557">
        <ele>714.2</ele>
        <time>2020-10-24T07:19:08Z</time>
      </trkpt>
      <trkpt lat="46.0881" lon="4.5756">
        <ele>714.2</ele>
        <time>2020-10-24T07:19:09Z</time>
      </trkpt>
      <trkpt lat="46.08811" lon="4.57564">
        <ele>713.8</ele>
        <time>2020-10-24T07:19:10Z</time>
      </trkpt>
      <trkpt lat="46.08812" lon="4.57567">
        <ele>713.2</ele>
        <time>2020-10-24T07:19:11Z</time>
      </trkpt>
      <trkpt lat="46.08813" lon="4.5757">
        <ele>713</ele>
        <time>2020-10-24T07:19:12Z</time>
      </trkpt>
      <trkpt lat="46.08814" lon="4.57573">
        <ele>712.8</ele>
        <time>2020-10-24T07:19:13Z</time>
      </trkpt>
      <trkpt lat="46.08815" lon="4.57576">
        <ele>712.4</ele>
        <time>2020-10-24T07:19:14Z</time>
      </trkpt>
      <trkpt lat="46.08817" lon="4.57579">
        <ele>712.4</ele>
        <time>2020-10-24T07:19:15Z</time>
      </trkpt>
      <trkpt lat="46.08818" lon="4.57582">
        <ele>712</ele>
        <time>2020-10-24T07:19:16Z</time>
      </trkpt>
      <trkpt lat="46.08819" lon="4.57585">
        <ele>711.6</ele>
        <time>2020-10-24T07:19:17Z</time>
      </trkpt>
      <trkpt lat="46.0882" lon="4.57588">
        <ele>711.6</ele>
        <time>2020-10-24T07:19:18Z</time>
      </trkpt>
      <trkpt lat="46.08821" lon="4.5759">
        <ele>711.4</ele>
        <time>2020-10-24T07:19:19Z</time>
      </trkpt>
      <trkpt lat="46.08822" lon="4.57593">
        <ele>711</ele>
        <time>2020-10-24T07:19:20Z</time>
      </trkpt>
      <trkpt lat="46.08823" lon="4.57596">
        <ele>711</ele>
        <time>2020-10-24T07:19:21Z</time>
      </trkpt>
      <trkpt lat="46.08824" lon="4.57599">
        <ele>711</ele>
        <time>2020-10-24T07:19:22Z</time>
      </trkpt>
      <trkpt lat="46.08825" lon="4.57602">
        <ele>710.8</ele>
        <time>2020-10-24T07:19:23Z</time>
      </trkpt>
      <trkpt lat="46.08825" lon="4.57604">
        <ele>710.6</ele>
        <time>2020-10-24T07:19:24Z</time>
      </trkpt>
      <trkpt lat="46.08826" lon="4.57608">
        <ele>710.4</ele>
        <time>2020-10-24T07:19:25Z</time>
      </trkpt>
      <trkpt lat="46.08826" lon="4.57611">
        <ele>710.2</ele>
        <time>2020-10-24T07:19:26Z</time>
      </trkpt>
      <trkpt lat="46.08827" lon="4.57614">
        <ele>709.8</ele>
        <time>2020-10-24T07:19:27Z</time>
      </trkpt>
      <trkpt lat="46.08827" lon="4.57617">
        <ele>709.8</ele>
        <time>2020-10-24T07:19:28Z</time>
      </trkpt>
      <trkpt lat="46.08828" lon="4.57621">
        <ele>709.2</ele>
        <time>2020-10-24T07:19:29Z</time>
      </trkpt>
      <trkpt lat="46.08828" lon="4.57624">
        <ele>708.8</ele>
        <time>2020-10-24T07:19:30Z</time>
      </trkpt>
      <trkpt lat="46.0883" lon="4.57626">
        <ele>708.6</ele>
        <time>2020-10-24T07:19:31Z</time>
      </trkpt>
      <trkpt lat="46.08832" lon="4.57629">
        <ele>708</ele>
        <time>2020-10-24T07:19:32Z</time>
      </trkpt>
      <trkpt lat="46.08833" lon="4.57632">
        <ele>707.6</ele>
        <time>2020-10-24T07:19:33Z</time>
      </trkpt>
      <trkpt lat="46.08834" lon="4.57635">
        <ele>707.4</ele>
        <time>2020-10-24T07:19:34Z</time>
      </trkpt>
      <trkpt lat="46.08835" lon="4.57638">
        <ele>707</ele>
        <time>2020-10-24T07:19:35Z</time>
      </trkpt>
      <trkpt lat="46.08836" lon="4.57641">
        <ele>706.4</ele>
        <time>2020-10-24T07:19:36Z</time>
      </trkpt>
      <trkpt lat="46.08837" lon="4.57644">
        <ele>706.2</ele>
        <time>2020-10-24T07:19:37Z</time>
      </trkpt>
      <trkpt lat="46.08839" lon="4.57647">
        <ele>706</ele>
        <time>2020-10-24T07:19:38Z</time>
      </trkpt>
      <trkpt lat="46.0884" lon="4.5765">
        <ele>705.4</ele>
        <time>2020-10-24T07:19:39Z</time>
      </trkpt>
      <trkpt lat="46.08841" lon="4.57652">
        <ele>705.6</ele>
        <time>2020-10-24T07:19:40Z</time>
      </trkpt>
      <trkpt lat="46.08842" lon="4.57655">
        <ele>705.2</ele>
        <time>2020-10-24T07:19:41Z</time>
      </trkpt>
      <trkpt lat="46.08842" lon="4.57655">
        <ele>704.6</ele>
        <time>2020-10-24T07:19:42Z</time>
      </trkpt>
      <trkpt lat="46.08844" lon="4.5766">
        <ele>704</ele>
        <time>2020-10-24T07:19:43Z</time>
      </trkpt>
      <trkpt lat="46.08844" lon="4.57663">
        <ele>703.6</ele>
        <time>2020-10-24T07:19:44Z</time>
      </trkpt>
      <trkpt lat="46.08844" lon="4.57663">
        <ele>703.4</ele>
        <time>2020-10-24T07:19:45Z</time>
      </trkpt>
      <trkpt lat="46.08845" lon="4.57667">
        <ele>703.4</ele>
        <time>2020-10-24T07:19:46Z</time>
      </trkpt>
      <trkpt lat="46.08845" lon="4.57667">
        <ele>702.8</ele>
        <time>2020-10-24T07:19:47Z</time>
      </trkpt>
      <trkpt lat="46.08846" lon="4.57672">
        <ele>702.4</ele>
        <time>2020-10-24T07:19:48Z</time>
      </trkpt>
      <trkpt lat="46.08845" lon="4.57674">
        <ele>702.2</ele>
        <time>2020-10-24T07:19:49Z</time>
      </trkpt>
      <trkpt lat="46.08845" lon="4.57674">
        <ele>702</ele>
        <time>2020-10-24T07:19:50Z</time>
      </trkpt>
      <trkpt lat="46.08845" lon="4.57679">
        <ele>701.4</ele>
        <time>2020-10-24T07:19:51Z</time>
      </trkpt>
      <trkpt lat="46.08845" lon="4.57679">
        <ele>701</ele>
        <time>2020-10-24T07:19:52Z</time>
      </trkpt>
      <trkpt lat="46.08845" lon="4.57685">
        <ele>700.6</ele>
        <time>2020-10-24T07:19:53Z</time>
      </trkpt>
      <trkpt lat="46.08846" lon="4.57688">
        <ele>700</ele>
        <time>2020-10-24T07:19:54Z</time>
      </trkpt>
      <trkpt lat="46.08846" lon="4.5769">
        <ele>699.4</ele>
        <time>2020-10-24T07:19:55Z</time>
      </trkpt>
      <trkpt lat="46.08846" lon="4.5769">
        <ele>699</ele>
        <time>2020-10-24T07:19:56Z</time>
      </trkpt>
      <trkpt lat="46.08848" lon="4.57696">
        <ele>698.6</ele>
        <time>2020-10-24T07:19:57Z</time>
      </trkpt>
      <trkpt lat="46.08849" lon="4.57698">
        <ele>698</ele>
        <time>2020-10-24T07:19:58Z</time>
      </trkpt>
      <trkpt lat="46.08849" lon="4.57702">
        <ele>697.4</ele>
        <time>2020-10-24T07:19:59Z</time>
      </trkpt>
      <trkpt lat="46.08851" lon="4.57706">
        <ele>697.4</ele>
        <time>2020-10-24T07:20:00Z</time>
      </trkpt>
      <trkpt lat="46.08852" lon="4.57707">
        <ele>696.8</ele>
        <time>2020-10-24T07:20:01Z</time>
      </trkpt>
      <trkpt lat="46.08853" lon="4.5771">
        <ele>696.2</ele>
        <time>2020-10-24T07:20:02Z</time>
      </trkpt>
      <trkpt lat="46.08854" lon="4.57712">
        <ele>695.8</ele>
        <time>2020-10-24T07:20:03Z</time>
      </trkpt>
      <trkpt lat="46.08856" lon="4.57715">
        <ele>695.4</ele>
        <time>2020-10-24T07:20:04Z</time>
      </trkpt>
      <trkpt lat="46.08858" lon="4.57717">
        <ele>694.8</ele>
        <time>2020-10-24T07:20:05Z</time>
      </trkpt>
      <trkpt lat="46.0886" lon="4.57719">
        <ele>694.2</ele>
        <time>2020-10-24T07:20:06Z</time>
      </trkpt>
      <trkpt lat="46.08862" lon="4.57721">
        <ele>693.2</ele>
        <time>2020-10-24T07:20:07Z</time>
      </trkpt>
      <trkpt lat="46.08864" lon="4.57723">
        <ele>692.8</ele>
        <time>2020-10-24T07:20:08Z</time>
      </trkpt>
      <trkpt lat="46.08866" lon="4.57725">
        <ele>692.6</ele>
        <time>2020-10-24T07:20:09Z</time>
      </trkpt>
      <trkpt lat="46.08867" lon="4.57728">
        <ele>692</ele>
        <time>2020-10-24T07:20:10Z</time>
      </trkpt>
      <trkpt lat="46.08867" lon="4.57731">
        <ele>691.6</ele>
        <time>2020-10-24T07:20:11Z</time>
      </trkpt>
      <trkpt lat="46.08868" lon="4.57735">
        <ele>691</ele>
        <time>2020-10-24T07:20:12Z</time>
      </trkpt>
      <trkpt lat="46.08869" lon="4.57739">
        <ele>690.4</ele>
        <time>2020-10-24T07:20:13Z</time>
      </trkpt>
      <trkpt lat="46.08869" lon="4.57743">
        <ele>690.2</ele>
        <time>2020-10-24T07:20:14Z</time>
      </trkpt>
      <trkpt lat="46.08869" lon="4.57747">
        <ele>690</ele>
        <time>2020-10-24T07:20:15Z</time>
      </trkpt>
      <trkpt lat="46.08868" lon="4.57751">
        <ele>689.2</ele>
        <time>2020-10-24T07:20:16Z</time>
      </trkpt>
      <trkpt lat="46.08868" lon="4.57755">
        <ele>689</ele>
        <time>2020-10-24T07:20:17Z</time>
      </trkpt>
      <trkpt lat="46.08867" lon="4.57759">
        <ele>689</ele>
        <time>2020-10-24T07:20:18Z</time>
      </trkpt>
      <trkpt lat="46.08866" lon="4.57763">
        <ele>688.4</ele>
        <time>2020-10-24T07:20:19Z</time>
      </trkpt>
      <trkpt lat="46.08866" lon="4.57767">
        <ele>688.4</ele>
        <time>2020-10-24T07:20:20Z</time>
      </trkpt>
      <trkpt lat="46.08865" lon="4.5777">
        <ele>688.2</ele>
        <time>2020-10-24T07:20:21Z</time>
      </trkpt>
      <trkpt lat="46.08864" lon="4.57774">
        <ele>687.8</ele>
        <time>2020-10-24T07:20:22Z</time>
      </trkpt>
      <trkpt lat="46.08864" lon="4.57777">
        <ele>687.4</ele>
        <time>2020-10-24T07:20:23Z</time>
      </trkpt>
      <trkpt lat="46.08863" lon="4.57781">
        <ele>687.2</ele>
        <time>2020-10-24T07:20:24Z</time>
      </trkpt>
      <trkpt lat="46.08862" lon="4.57784">
        <ele>686.8</ele>
        <time>2020-10-24T07:20:25Z</time>
      </trkpt>
      <trkpt lat="46.08862" lon="4.57787">
        <ele>686.6</ele>
        <time>2020-10-24T07:20:26Z</time>
      </trkpt>
      <trkpt lat="46.08861" lon="4.57791">
        <ele>686.4</ele>
        <time>2020-10-24T07:20:27Z</time>
      </trkpt>
      <trkpt lat="46.0886" lon="4.57794">
        <ele>686</ele>
        <time>2020-10-24T07:20:28Z</time>
      </trkpt>
      <trkpt lat="46.08859" lon="4.57797">
        <ele>686</ele>
        <time>2020-10-24T07:20:29Z</time>
      </trkpt>
      <trkpt lat="46.08858" lon="4.578">
        <ele>685.8</ele>
        <time>2020-10-24T07:20:30Z</time>
      </trkpt>
      <trkpt lat="46.08857" lon="4.57803">
        <ele>685.6</ele>
        <time>2020-10-24T07:20:31Z</time>
      </trkpt>
      <trkpt lat="46.08856" lon="4.57807">
        <ele>685.4</ele>
        <time>2020-10-24T07:20:32Z</time>
      </trkpt>
      <trkpt lat="46.08854" lon="4.5781">
        <ele>685.4</ele>
        <time>2020-10-24T07:20:33Z</time>
      </trkpt>
      <trkpt lat="46.08853" lon="4.57813">
        <ele>685.2</ele>
        <time>2020-10-24T07:20:34Z</time>
      </trkpt>
      <trkpt lat="46.08852" lon="4.57816">
        <ele>685</ele>
        <time>2020-10-24T07:20:35Z</time>
      </trkpt>
      <trkpt lat="46.08852" lon="4.57819">
        <ele>685</ele>
        <time>2020-10-24T07:20:36Z</time>
      </trkpt>
      <trkpt lat="46.08851" lon="4.57823">
        <ele>684.6</ele>
        <time>2020-10-24T07:20:37Z</time>
      </trkpt>
      <trkpt lat="46.08851" lon="4.57827">
        <ele>684.6</ele>
        <time>2020-10-24T07:20:38Z</time>
      </trkpt>
      <trkpt lat="46.08851" lon="4.5783">
        <ele>684.4</ele>
        <time>2020-10-24T07:20:39Z</time>
      </trkpt>
      <trkpt lat="46.08851" lon="4.57833">
        <ele>684.2</ele>
        <time>2020-10-24T07:20:40Z</time>
      </trkpt>
      <trkpt lat="46.08851" lon="4.57836">
        <ele>684.2</ele>
        <time>2020-10-24T07:20:41Z</time>
      </trkpt>
      <trkpt lat="46.08852" lon="4.5784">
        <ele>684.2</ele>
        <time>2020-10-24T07:20:42Z</time>
      </trkpt>
      <trkpt lat="46.08852" lon="4.57843">
        <ele>683.8</ele>
        <time>2020-10-24T07:20:43Z</time>
      </trkpt>
      <trkpt lat="46.08853" lon="4.57847">
        <ele>683.8</ele>
        <time>2020-10-24T07:20:44Z</time>
      </trkpt>
      <trkpt lat="46.08854" lon="4.5785">
        <ele>683.4</ele>
        <time>2020-10-24T07:20:45Z</time>
      </trkpt>
      <trkpt lat="46.08854" lon="4.57854">
        <ele>683.2</ele>
        <time>2020-10-24T07:20:46Z</time>
      </trkpt>
      <trkpt lat="46.08855" lon="4.57858">
        <ele>683.2</ele>
        <time>2020-10-24T07:20:47Z</time>
      </trkpt>
      <trkpt lat="46.08855" lon="4.57862">
        <ele>683</ele>
        <time>2020-10-24T07:20:48Z</time>
      </trkpt>
      <trkpt lat="46.08855" lon="4.57866">
        <ele>682.8</ele>
        <time>2020-10-24T07:20:49Z</time>
      </trkpt>
      <trkpt lat="46.08855" lon="4.5787">
        <ele>682.6</ele>
        <time>2020-10-24T07:20:50Z</time>
      </trkpt>
      <trkpt lat="46.08854" lon="4.57874">
        <ele>682.2</ele>
        <time>2020-10-24T07:20:51Z</time>
      </trkpt>
      <trkpt lat="46.08853" lon="4.57877">
        <ele>682</ele>
        <time>2020-10-24T07:20:52Z</time>
      </trkpt>
      <trkpt lat="46.08853" lon="4.57881">
        <ele>682</ele>
        <time>2020-10-24T07:20:53Z</time>
      </trkpt>
      <trkpt lat="46.08852" lon="4.57884">
        <ele>681.8</ele>
        <time>2020-10-24T07:20:54Z</time>
      </trkpt>
      <trkpt lat="46.08851" lon="4.57887">
        <ele>681.6</ele>
        <time>2020-10-24T07:20:55Z</time>
      </trkpt>
      <trkpt lat="46.0885" lon="4.57891">
        <ele>681.6</ele>
        <time>2020-10-24T07:20:56Z</time>
      </trkpt>
      <trkpt lat="46.08849" lon="4.57894">
        <ele>681.4</ele>
        <time>2020-10-24T07:20:57Z</time>
      </trkpt>
      <trkpt lat="46.08848" lon="4.57897">
        <ele>681.4</ele>
        <time>2020-10-24T07:20:58Z</time>
      </trkpt>
      <trkpt lat="46.08846" lon="4.57901">
        <ele>681.6</ele>
        <time>2020-10-24T07:20:59Z</time>
      </trkpt>
      <trkpt lat="46.08844" lon="4.57904">
        <ele>681.4</ele>
        <time>2020-10-24T07:21:00Z</time>
      </trkpt>
      <trkpt lat="46.08843" lon="4.57907">
        <ele>680.8</ele>
        <time>2020-10-24T07:21:01Z</time>
      </trkpt>
      <trkpt lat="46.08842" lon="4.5791">
        <ele>681</ele>
        <time>2020-10-24T07:21:02Z</time>
      </trkpt>
      <trkpt lat="46.08841" lon="4.57914">
        <ele>680.8</ele>
        <time>2020-10-24T07:21:03Z</time>
      </trkpt>
      <trkpt lat="46.0884" lon="4.57917">
        <ele>680.4</ele>
        <time>2020-10-24T07:21:04Z</time>
      </trkpt>
      <trkpt lat="46.08839" lon="4.5792">
        <ele>680.4</ele>
        <time>2020-10-24T07:21:05Z</time>
      </trkpt>
      <trkpt lat="46.08839" lon="4.57923">
        <ele>680.2</ele>
        <time>2020-10-24T07:21:06Z</time>
      </trkpt>
      <trkpt lat="46.08838" lon="4.57925">
        <ele>680</ele>
        <time>2020-10-24T07:21:07Z</time>
      </trkpt>
      <trkpt lat="46.08837" lon="4.57928">
        <ele>680</ele>
        <time>2020-10-24T07:21:08Z</time>
      </trkpt>
      <trkpt lat="46.08837" lon="4.57931">
        <ele>680.2</ele>
        <time>2020-10-24T07:21:09Z</time>
      </trkpt>
      <trkpt lat="46.08836" lon="4.57933">
        <ele>680</ele>
        <time>2020-10-24T07:21:10Z</time>
      </trkpt>
      <trkpt lat="46.08836" lon="4.57933">
        <ele>679.8</ele>
        <time>2020-10-24T07:21:11Z</time>
      </trkpt>
      <trkpt lat="46.08835" lon="4.57937">
        <ele>679.6</ele>
        <time>2020-10-24T07:21:12Z</time>
      </trkpt>
      <trkpt lat="46.08835" lon="4.57937">
        <ele>679.6</ele>
        <time>2020-10-24T07:21:13Z</time>
      </trkpt>
      <trkpt lat="46.08834" lon="4.57941">
        <ele>679.4</ele>
        <time>2020-10-24T07:21:14Z</time>
      </trkpt>
      <trkpt lat="46.08834" lon="4.57941">
        <ele>679.4</ele>
        <time>2020-10-24T07:21:15Z</time>
      </trkpt>
      <trkpt lat="46.08833" lon="4.57945">
        <ele>679.4</ele>
        <time>2020-10-24T07:21:16Z</time>
      </trkpt>
      <trkpt lat="46.08833" lon="4.57945">
        <ele>679.2</ele>
        <time>2020-10-24T07:21:17Z</time>
      </trkpt>
      <trkpt lat="46.08833" lon="4.57949">
        <ele>679.2</ele>
        <time>2020-10-24T07:21:18Z</time>
      </trkpt>
      <trkpt lat="46.08833" lon="4.57949">
        <ele>679</ele>
        <time>2020-10-24T07:21:19Z</time>
      </trkpt>
      <trkpt lat="46.08832" lon="4.57954">
        <ele>679.4</ele>
        <time>2020-10-24T07:21:20Z</time>
      </trkpt>
      <trkpt lat="46.08832" lon="4.57954">
        <ele>680</ele>
        <time>2020-10-24T07:21:21Z</time>
      </trkpt>
      <trkpt lat="46.08832" lon="4.57958">
        <ele>680</ele>
        <time>2020-10-24T07:21:22Z</time>
      </trkpt>
      <trkpt lat="46.08832" lon="4.57958">
        <ele>680</ele>
        <time>2020-10-24T07:21:23Z</time>
      </trkpt>
      <trkpt lat="46.08831" lon="4.57962">
        <ele>680.2</ele>
        <time>2020-10-24T07:21:24Z</time>
      </trkpt>
      <trkpt lat="46.08831" lon="4.57962">
        <ele>680</ele>
        <time>2020-10-24T07:21:25Z</time>
      </trkpt>
      <trkpt lat="46.0883" lon="4.57965">
        <ele>680.4</ele>
        <time>2020-10-24T07:21:26Z</time>
      </trkpt>
      <trkpt lat="46.0883" lon="4.57965">
        <ele>680.8</ele>
        <time>2020-10-24T07:21:27Z</time>
      </trkpt>
      <trkpt lat="46.0883" lon="4.57969">
        <ele>681.2</ele>
        <time>2020-10-24T07:21:28Z</time>
      </trkpt>
      <trkpt lat="46.0883" lon="4.57969">
        <ele>681.2</ele>
        <time>2020-10-24T07:21:29Z</time>
      </trkpt>
      <trkpt lat="46.08829" lon="4.57973">
        <ele>681.4</ele>
        <time>2020-10-24T07:21:30Z</time>
      </trkpt>
      <trkpt lat="46.08829" lon="4.57973">
        <ele>681.4</ele>
        <time>2020-10-24T07:21:31Z</time>
      </trkpt>
      <trkpt lat="46.08829" lon="4.57977">
        <ele>681.6</ele>
        <time>2020-10-24T07:21:32Z</time>
      </trkpt>
      <trkpt lat="46.08829" lon="4.57977">
        <ele>682</ele>
        <time>2020-10-24T07:21:33Z</time>
      </trkpt>
      <trkpt lat="46.08829" lon="4.5798">
        <ele>682</ele>
        <time>2020-10-24T07:21:34Z</time>
      </trkpt>
      <trkpt lat="46.08829" lon="4.5798">
        <ele>682.2</ele>
        <time>2020-10-24T07:21:35Z</time>
      </trkpt>
      <trkpt lat="46.08829" lon="4.57983">
        <ele>682.4</ele>
        <time>2020-10-24T07:21:36Z</time>
      </trkpt>
      <trkpt lat="46.08829" lon="4.57983">
        <ele>682.6</ele>
        <time>2020-10-24T07:21:37Z</time>
      </trkpt>
      <trkpt lat="46.08828" lon="4.57987">
        <ele>682.8</ele>
        <time>2020-10-24T07:21:38Z</time>
      </trkpt>
      <trkpt lat="46.08828" lon="4.57987">
        <ele>683.2</ele>
        <time>2020-10-24T07:21:39Z</time>
      </trkpt>
      <trkpt lat="46.08828" lon="4.5799">
        <ele>683.6</ele>
        <time>2020-10-24T07:21:40Z</time>
      </trkpt>
      <trkpt lat="46.08828" lon="4.5799">
        <ele>683.6</ele>
        <time>2020-10-24T07:21:41Z</time>
      </trkpt>
      <trkpt lat="46.08827" lon="4.57993">
        <ele>684</ele>
        <time>2020-10-24T07:21:42Z</time>
      </trkpt>
      <trkpt lat="46.08827" lon="4.57993">
        <ele>684</ele>
        <time>2020-10-24T07:21:43Z</time>
      </trkpt>
      <trkpt lat="46.08827" lon="4.57996">
        <ele>684.2</ele>
        <time>2020-10-24T07:21:44Z</time>
      </trkpt>
      <trkpt lat="46.08827" lon="4.57996">
        <ele>684.2</ele>
        <time>2020-10-24T07:21:45Z</time>
      </trkpt>
      <trkpt lat="46.08826" lon="4.57999">
        <ele>684.4</ele>
        <time>2020-10-24T07:21:46Z</time>
      </trkpt>
      <trkpt lat="46.08826" lon="4.57999">
        <ele>684.6</ele>
        <time>2020-10-24T07:21:47Z</time>
      </trkpt>
      <trkpt lat="46.08825" lon="4.58002">
        <ele>684.6</ele>
        <time>2020-10-24T07:21:48Z</time>
      </trkpt>
      <trkpt lat="46.08825" lon="4.58002">
        <ele>684.8</ele>
        <time>2020-10-24T07:21:49Z</time>
      </trkpt>
      <trkpt lat="46.08825" lon="4.58005">
        <ele>685</ele>
        <time>2020-10-24T07:21:50Z</time>
      </trkpt>
      <trkpt lat="46.08825" lon="4.58005">
        <ele>685</ele>
        <time>2020-10-24T07:21:51Z</time>
      </trkpt>
      <trkpt lat="46.08825" lon="4.58008">
        <ele>685.2</ele>
        <time>2020-10-24T07:21:52Z</time>
      </trkpt>
      <trkpt lat="46.08825" lon="4.58008">
        <ele>685.6</ele>
        <time>2020-10-24T07:21:53Z</time>
      </trkpt>
      <trkpt lat="46.08825" lon="4.58011">
        <ele>686</ele>
        <time>2020-10-24T07:21:54Z</time>
      </trkpt>
      <trkpt lat="46.08825" lon="4.58011">
        <ele>686.2</ele>
        <time>2020-10-24T07:21:55Z</time>
      </trkpt>
      <trkpt lat="46.08825" lon="4.58015">
        <ele>686.6</ele>
        <time>2020-10-24T07:21:56Z</time>
      </trkpt>
      <trkpt lat="46.08825" lon="4.58015">
        <ele>687</ele>
        <time>2020-10-24T07:21:57Z</time>
      </trkpt>
      <trkpt lat="46.08825" lon="4.58018">
        <ele>687.2</ele>
        <time>2020-10-24T07:21:58Z</time>
      </trkpt>
      <trkpt lat="46.08825" lon="4.58018">
        <ele>687.2</ele>
        <time>2020-10-24T07:21:59Z</time>
      </trkpt>
      <trkpt lat="46.08824" lon="4.58022">
        <ele>687.2</ele>
        <time>2020-10-24T07:22:00Z</time>
      </trkpt>
      <trkpt lat="46.08824" lon="4.58022">
        <ele>687.4</ele>
        <time>2020-10-24T07:22:01Z</time>
      </trkpt>
      <trkpt lat="46.08824" lon="4.58026">
        <ele>687.6</ele>
        <time>2020-10-24T07:22:02Z</time>
      </trkpt>
      <trkpt lat="46.08824" lon="4.58026">
        <ele>688</ele>
        <time>2020-10-24T07:22:03Z</time>
      </trkpt>
      <trkpt lat="46.08824" lon="4.58029">
        <ele>688</ele>
        <time>2020-10-24T07:22:04Z</time>
      </trkpt>
      <trkpt lat="46.08824" lon="4.58029">
        <ele>688</ele>
        <time>2020-10-24T07:22:05Z</time>
      </trkpt>
      <trkpt lat="46.08823" lon="4.58033">
        <ele>688</ele>
        <time>2020-10-24T07:22:06Z</time>
      </trkpt>
      <trkpt lat="46.08823" lon="4.58033">
        <ele>688</ele>
        <time>2020-10-24T07:22:07Z</time>
      </trkpt>
      <trkpt lat="46.08823" lon="4.58037">
        <ele>688</ele>
        <time>2020-10-24T07:22:08Z</time>
      </trkpt>
      <trkpt lat="46.08823" lon="4.58037">
        <ele>688.2</ele>
        <time>2020-10-24T07:22:09Z</time>
      </trkpt>
      <trkpt lat="46.08822" lon="4.58041">
        <ele>688.6</ele>
        <time>2020-10-24T07:22:10Z</time>
      </trkpt>
      <trkpt lat="46.08822" lon="4.58041">
        <ele>688.8</ele>
        <time>2020-10-24T07:22:11Z</time>
      </trkpt>
      <trkpt lat="46.08821" lon="4.58044">
        <ele>688.8</ele>
        <time>2020-10-24T07:22:12Z</time>
      </trkpt>
      <trkpt lat="46.08821" lon="4.58044">
        <ele>688.8</ele>
        <time>2020-10-24T07:22:13Z</time>
      </trkpt>
      <trkpt lat="46.08819" lon="4.58048">
        <ele>688.8</ele>
        <time>2020-10-24T07:22:14Z</time>
      </trkpt>
      <trkpt lat="46.08819" lon="4.58048">
        <ele>689.2</ele>
        <time>2020-10-24T07:22:15Z</time>
      </trkpt>
      <trkpt lat="46.08817" lon="4.5805">
        <ele>689.4</ele>
        <time>2020-10-24T07:22:16Z</time>
      </trkpt>
      <trkpt lat="46.08817" lon="4.5805">
        <ele>689.4</ele>
        <time>2020-10-24T07:22:17Z</time>
      </trkpt>
      <trkpt lat="46.08817" lon="4.5805">
        <ele>689.6</ele>
        <time>2020-10-24T07:22:18Z</time>
      </trkpt>
      <trkpt lat="46.08817" lon="4.5805">
        <ele>689.6</ele>
        <time>2020-10-24T07:22:19Z</time>
      </trkpt>
      <trkpt lat="46.08817" lon="4.5805">
        <ele>689.6</ele>
        <time>2020-10-24T07:22:20Z</time>
      </trkpt>
      <trkpt lat="46.08817" lon="4.5805">
        <ele>689.6</ele>
        <time>2020-10-24T07:22:21Z</time>
      </trkpt>
      <trkpt lat="46.08817" lon="4.5805">
        <ele>689.6</ele>
        <time>2020-10-24T07:22:22Z</time>
      </trkpt>
      <trkpt lat="46.08816" lon="4.58053">
        <ele>690</ele>
        <time>2020-10-24T07:22:23Z</time>
      </trkpt>
      <trkpt lat="46.08816" lon="4.58053">
        <ele>689.8</ele>
        <time>2020-10-24T07:22:24Z</time>
      </trkpt>
      <trkpt lat="46.08816" lon="4.58053">
        <ele>690</ele>
        <time>2020-10-24T07:22:25Z</time>
      </trkpt>
      <trkpt lat="46.08816" lon="4.58053">
        <ele>689.8</ele>
        <time>2020-10-24T07:22:26Z</time>
      </trkpt>
      <trkpt lat="46.08816" lon="4.58057">
        <ele>690.2</ele>
        <time>2020-10-24T07:22:27Z</time>
      </trkpt>
      <trkpt lat="46.08816" lon="4.58057">
        <ele>690.2</ele>
        <time>2020-10-24T07:22:28Z</time>
      </trkpt>
      <trkpt lat="46.08815" lon="4.58059">
        <ele>690.4</ele>
        <time>2020-10-24T07:22:29Z</time>
      </trkpt>
      <trkpt lat="46.08815" lon="4.58059">
        <ele>690.4</ele>
        <time>2020-10-24T07:22:30Z</time>
      </trkpt>
      <trkpt lat="46.08815" lon="4.58059">
        <ele>690.4</ele>
        <time>2020-10-24T07:22:31Z</time>
      </trkpt>
      <trkpt lat="46.08815" lon="4.58059">
        <ele>690.8</ele>
        <time>2020-10-24T07:22:32Z</time>
      </trkpt>
      <trkpt lat="46.08815" lon="4.58059">
        <ele>690.8</ele>
        <time>2020-10-24T07:22:33Z</time>
      </trkpt>
      <trkpt lat="46.08815" lon="4.58059">
        <ele>690.8</ele>
        <time>2020-10-24T07:22:34Z</time>
      </trkpt>
      <trkpt lat="46.08815" lon="4.58059">
        <ele>690.8</ele>
        <time>2020-10-24T07:22:35Z</time>
      </trkpt>
      <trkpt lat="46.08815" lon="4.58059">
        <ele>690.8</ele>
        <time>2020-10-24T07:22:36Z</time>
      </trkpt>
      <trkpt lat="46.08815" lon="4.58059">
        <ele>690.8</ele>
        <time>2020-10-24T07:22:37Z</time>
      </trkpt>
      <trkpt lat="46.08815" lon="4.58059">
        <ele>690.8</ele>
        <time>2020-10-24T07:22:38Z</time>
      </trkpt>
      <trkpt lat="46.08815" lon="4.58059">
        <ele>690.8</ele>
        <time>2020-10-24T07:22:39Z</time>
      </trkpt>
      <trkpt lat="46.08815" lon="4.58059">
        <ele>690.6</ele>
        <time>2020-10-24T07:22:40Z</time>
      </trkpt>
      <trkpt lat="46.08815" lon="4.58059">
        <ele>690.8</ele>
        <time>2020-10-24T07:22:41Z</time>
      </trkpt>
      <trkpt lat="46.08815" lon="4.58062">
        <ele>690.8</ele>
        <time>2020-10-24T07:22:42Z</time>
      </trkpt>
      <trkpt lat="46.08815" lon="4.58062">
        <ele>691</ele>
        <time>2020-10-24T07:22:43Z</time>
      </trkpt>
      <trkpt lat="46.08814" lon="4.58067">
        <ele>691</ele>
        <time>2020-10-24T07:22:44Z</time>
      </trkpt>
      <trkpt lat="46.08814" lon="4.58067">
        <ele>691.2</ele>
        <time>2020-10-24T07:22:45Z</time>
      </trkpt>
      <trkpt lat="46.08813" lon="4.58071">
        <ele>691</ele>
        <time>2020-10-24T07:22:46Z</time>
      </trkpt>
      <trkpt lat="46.08813" lon="4.58071">
        <ele>691</ele>
        <time>2020-10-24T07:22:47Z</time>
      </trkpt>
      <trkpt lat="46.08811" lon="4.58075">
        <ele>691.2</ele>
        <time>2020-10-24T07:22:48Z</time>
      </trkpt>
      <trkpt lat="46.0881" lon="4.58077">
        <ele>691.4</ele>
        <time>2020-10-24T07:22:49Z</time>
      </trkpt>
      <trkpt lat="46.0881" lon="4.58077">
        <ele>691.4</ele>
        <time>2020-10-24T07:22:50Z</time>
      </trkpt>
      <trkpt lat="46.08808" lon="4.58081">
        <ele>691.4</ele>
        <time>2020-10-24T07:22:51Z</time>
      </trkpt>
      <trkpt lat="46.08808" lon="4.58081">
        <ele>691.6</ele>
        <time>2020-10-24T07:22:52Z</time>
      </trkpt>
      <trkpt lat="46.08806" lon="4.58084">
        <ele>691.6</ele>
        <time>2020-10-24T07:22:53Z</time>
      </trkpt>
      <trkpt lat="46.08804" lon="4.58086">
        <ele>691.6</ele>
        <time>2020-10-24T07:22:54Z</time>
      </trkpt>
      <trkpt lat="46.08804" lon="4.58086">
        <ele>691.8</ele>
        <time>2020-10-24T07:22:55Z</time>
      </trkpt>
      <trkpt lat="46.08801" lon="4.58088">
        <ele>692.4</ele>
        <time>2020-10-24T07:22:56Z</time>
      </trkpt>
      <trkpt lat="46.08801" lon="4.58088">
        <ele>692.6</ele>
        <time>2020-10-24T07:22:57Z</time>
      </trkpt>
      <trkpt lat="46.08799" lon="4.58092">
        <ele>692.6</ele>
        <time>2020-10-24T07:22:58Z</time>
      </trkpt>
      <trkpt lat="46.08797" lon="4.58094">
        <ele>692.2</ele>
        <time>2020-10-24T07:22:59Z</time>
      </trkpt>
      <trkpt lat="46.08795" lon="4.58096">
        <ele>692.2</ele>
        <time>2020-10-24T07:23:00Z</time>
      </trkpt>
      <trkpt lat="46.08793" lon="4.58099">
        <ele>692.6</ele>
        <time>2020-10-24T07:23:01Z</time>
      </trkpt>
      <trkpt lat="46.08792" lon="4.58102">
        <ele>692.6</ele>
        <time>2020-10-24T07:23:02Z</time>
      </trkpt>
      <trkpt lat="46.08791" lon="4.58104">
        <ele>692.4</ele>
        <time>2020-10-24T07:23:03Z</time>
      </trkpt>
      <trkpt lat="46.0879" lon="4.58107">
        <ele>692.8</ele>
        <time>2020-10-24T07:23:04Z</time>
      </trkpt>
      <trkpt lat="46.08789" lon="4.5811">
        <ele>692.4</ele>
        <time>2020-10-24T07:23:05Z</time>
      </trkpt>
      <trkpt lat="46.08788" lon="4.58113">
        <ele>692.2</ele>
        <time>2020-10-24T07:23:06Z</time>
      </trkpt>
      <trkpt lat="46.08786" lon="4.58116">
        <ele>692.6</ele>
        <time>2020-10-24T07:23:07Z</time>
      </trkpt>
      <trkpt lat="46.08785" lon="4.58118">
        <ele>692.2</ele>
        <time>2020-10-24T07:23:08Z</time>
      </trkpt>
      <trkpt lat="46.08784" lon="4.58121">
        <ele>692.2</ele>
        <time>2020-10-24T07:23:09Z</time>
      </trkpt>
      <trkpt lat="46.08782" lon="4.58124">
        <ele>692.4</ele>
        <time>2020-10-24T07:23:10Z</time>
      </trkpt>
      <trkpt lat="46.0878" lon="4.58127">
        <ele>691.8</ele>
        <time>2020-10-24T07:23:11Z</time>
      </trkpt>
      <trkpt lat="46.08778" lon="4.58129">
        <ele>691.8</ele>
        <time>2020-10-24T07:23:12Z</time>
      </trkpt>
      <trkpt lat="46.08776" lon="4.58131">
        <ele>691.8</ele>
        <time>2020-10-24T07:23:13Z</time>
      </trkpt>
      <trkpt lat="46.08774" lon="4.58133">
        <ele>691.8</ele>
        <time>2020-10-24T07:23:14Z</time>
      </trkpt>
      <trkpt lat="46.08772" lon="4.58135">
        <ele>691.2</ele>
        <time>2020-10-24T07:23:15Z</time>
      </trkpt>
      <trkpt lat="46.08769" lon="4.58138">
        <ele>691.2</ele>
        <time>2020-10-24T07:23:16Z</time>
      </trkpt>
      <trkpt lat="46.08767" lon="4.5814">
        <ele>690.8</ele>
        <time>2020-10-24T07:23:17Z</time>
      </trkpt>
      <trkpt lat="46.08765" lon="4.58142">
        <ele>691</ele>
        <time>2020-10-24T07:23:18Z</time>
      </trkpt>
      <trkpt lat="46.08763" lon="4.58144">
        <ele>690.8</ele>
        <time>2020-10-24T07:23:19Z</time>
      </trkpt>
      <trkpt lat="46.08761" lon="4.58147">
        <ele>690.4</ele>
        <time>2020-10-24T07:23:20Z</time>
      </trkpt>
      <trkpt lat="46.0876" lon="4.58149">
        <ele>690.8</ele>
        <time>2020-10-24T07:23:21Z</time>
      </trkpt>
      <trkpt lat="46.08758" lon="4.58151">
        <ele>690.6</ele>
        <time>2020-10-24T07:23:22Z</time>
      </trkpt>
      <trkpt lat="46.08756" lon="4.58154">
        <ele>690.8</ele>
        <time>2020-10-24T07:23:23Z</time>
      </trkpt>
      <trkpt lat="46.08754" lon="4.58157">
        <ele>691</ele>
        <time>2020-10-24T07:23:24Z</time>
      </trkpt>
      <trkpt lat="46.08752" lon="4.58159">
        <ele>690.8</ele>
        <time>2020-10-24T07:23:25Z</time>
      </trkpt>
      <trkpt lat="46.08751" lon="4.58161">
        <ele>691</ele>
        <time>2020-10-24T07:23:26Z</time>
      </trkpt>
      <trkpt lat="46.08749" lon="4.58164">
        <ele>691</ele>
        <time>2020-10-24T07:23:27Z</time>
      </trkpt>
      <trkpt lat="46.08748" lon="4.58165">
        <ele>691</ele>
        <time>2020-10-24T07:23:28Z</time>
      </trkpt>
      <trkpt lat="46.08747" lon="4.58167">
        <ele>691.6</ele>
        <time>2020-10-24T07:23:29Z</time>
      </trkpt>
      <trkpt lat="46.08745" lon="4.58169">
        <ele>691.8</ele>
        <time>2020-10-24T07:23:30Z</time>
      </trkpt>
      <trkpt lat="46.08744" lon="4.58171">
        <ele>691.8</ele>
        <time>2020-10-24T07:23:31Z</time>
      </trkpt>
      <trkpt lat="46.08742" lon="4.58173">
        <ele>692.4</ele>
        <time>2020-10-24T07:23:32Z</time>
      </trkpt>
      <trkpt lat="46.0874" lon="4.58175">
        <ele>692.6</ele>
        <time>2020-10-24T07:23:33Z</time>
      </trkpt>
      <trkpt lat="46.08739" lon="4.58177">
        <ele>693.2</ele>
        <time>2020-10-24T07:23:34Z</time>
      </trkpt>
      <trkpt lat="46.08737" lon="4.58179">
        <ele>693.4</ele>
        <time>2020-10-24T07:23:35Z</time>
      </trkpt>
      <trkpt lat="46.08735" lon="4.5818">
        <ele>693.6</ele>
        <time>2020-10-24T07:23:36Z</time>
      </trkpt>
      <trkpt lat="46.08733" lon="4.58183">
        <ele>694.2</ele>
        <time>2020-10-24T07:23:37Z</time>
      </trkpt>
      <trkpt lat="46.08731" lon="4.58185">
        <ele>694.2</ele>
        <time>2020-10-24T07:23:38Z</time>
      </trkpt>
      <trkpt lat="46.08729" lon="4.58187">
        <ele>694</ele>
        <time>2020-10-24T07:23:39Z</time>
      </trkpt>
      <trkpt lat="46.08728" lon="4.58189">
        <ele>694.6</ele>
        <time>2020-10-24T07:23:40Z</time>
      </trkpt>
      <trkpt lat="46.08726" lon="4.5819">
        <ele>694.8</ele>
        <time>2020-10-24T07:23:41Z</time>
      </trkpt>
      <trkpt lat="46.08724" lon="4.58191">
        <ele>694.6</ele>
        <time>2020-10-24T07:23:42Z</time>
      </trkpt>
      <trkpt lat="46.08722" lon="4.58193">
        <ele>694.8</ele>
        <time>2020-10-24T07:23:43Z</time>
      </trkpt>
      <trkpt lat="46.0872" lon="4.58195">
        <ele>694.4</ele>
        <time>2020-10-24T07:23:44Z</time>
      </trkpt>
      <trkpt lat="46.08718" lon="4.58197">
        <ele>694</ele>
        <time>2020-10-24T07:23:45Z</time>
      </trkpt>
      <trkpt lat="46.08717" lon="4.582">
        <ele>694.2</ele>
        <time>2020-10-24T07:23:46Z</time>
      </trkpt>
      <trkpt lat="46.08716" lon="4.58202">
        <ele>693.6</ele>
        <time>2020-10-24T07:23:47Z</time>
      </trkpt>
      <trkpt lat="46.08714" lon="4.58204">
        <ele>693.2</ele>
        <time>2020-10-24T07:23:48Z</time>
      </trkpt>
      <trkpt lat="46.08713" lon="4.58206">
        <ele>693.4</ele>
        <time>2020-10-24T07:23:49Z</time>
      </trkpt>
      <trkpt lat="46.08713" lon="4.58206">
        <ele>692.8</ele>
        <time>2020-10-24T07:23:50Z</time>
      </trkpt>
      <trkpt lat="46.08711" lon="4.58211">
        <ele>692.8</ele>
        <time>2020-10-24T07:23:51Z</time>
      </trkpt>
      <trkpt lat="46.08711" lon="4.58214">
        <ele>692.4</ele>
        <time>2020-10-24T07:23:52Z</time>
      </trkpt>
      <trkpt lat="46.08711" lon="4.58216">
        <ele>692.4</ele>
        <time>2020-10-24T07:23:53Z</time>
      </trkpt>
      <trkpt lat="46.08711" lon="4.58219">
        <ele>692.2</ele>
        <time>2020-10-24T07:23:54Z</time>
      </trkpt>
      <trkpt lat="46.08711" lon="4.58219">
        <ele>692.4</ele>
        <time>2020-10-24T07:23:55Z</time>
      </trkpt>
      <trkpt lat="46.0871" lon="4.58224">
        <ele>692.2</ele>
        <time>2020-10-24T07:23:56Z</time>
      </trkpt>
      <trkpt lat="46.0871" lon="4.58226">
        <ele>692.6</ele>
        <time>2020-10-24T07:23:57Z</time>
      </trkpt>
      <trkpt lat="46.0871" lon="4.58229">
        <ele>692.4</ele>
        <time>2020-10-24T07:23:58Z</time>
      </trkpt>
      <trkpt lat="46.0871" lon="4.58232">
        <ele>692.4</ele>
        <time>2020-10-24T07:23:59Z</time>
      </trkpt>
      <trkpt lat="46.0871" lon="4.58232">
        <ele>693</ele>
        <time>2020-10-24T07:24:00Z</time>
      </trkpt>
      <trkpt lat="46.08711" lon="4.58237">
        <ele>692.8</ele>
        <time>2020-10-24T07:24:01Z</time>
      </trkpt>
      <trkpt lat="46.08711" lon="4.5824">
        <ele>692.6</ele>
        <time>2020-10-24T07:24:02Z</time>
      </trkpt>
      <trkpt lat="46.08711" lon="4.5824">
        <ele>693.2</ele>
        <time>2020-10-24T07:24:03Z</time>
      </trkpt>
      <trkpt lat="46.08711" lon="4.58245">
        <ele>693.4</ele>
        <time>2020-10-24T07:24:04Z</time>
      </trkpt>
      <trkpt lat="46.08711" lon="4.58248">
        <ele>693.4</ele>
        <time>2020-10-24T07:24:05Z</time>
      </trkpt>
      <trkpt lat="46.08711" lon="4.58251">
        <ele>694</ele>
        <time>2020-10-24T07:24:06Z</time>
      </trkpt>
      <trkpt lat="46.08711" lon="4.58255">
        <ele>694.2</ele>
        <time>2020-10-24T07:24:07Z</time>
      </trkpt>
      <trkpt lat="46.08712" lon="4.58258">
        <ele>694.4</ele>
        <time>2020-10-24T07:24:08Z</time>
      </trkpt>
      <trkpt lat="46.08712" lon="4.58261">
        <ele>694.6</ele>
        <time>2020-10-24T07:24:09Z</time>
      </trkpt>
      <trkpt lat="46.08713" lon="4.58264">
        <ele>694.6</ele>
        <time>2020-10-24T07:24:10Z</time>
      </trkpt>
      <trkpt lat="46.08712" lon="4.58267">
        <ele>695.2</ele>
        <time>2020-10-24T07:24:11Z</time>
      </trkpt>
      <trkpt lat="46.08712" lon="4.58271">
        <ele>695.2</ele>
        <time>2020-10-24T07:24:12Z</time>
      </trkpt>
      <trkpt lat="46.08713" lon="4.58274">
        <ele>695.4</ele>
        <time>2020-10-24T07:24:13Z</time>
      </trkpt>
      <trkpt lat="46.08713" lon="4.58277">
        <ele>695.8</ele>
        <time>2020-10-24T07:24:14Z</time>
      </trkpt>
      <trkpt lat="46.08714" lon="4.5828">
        <ele>696</ele>
        <time>2020-10-24T07:24:15Z</time>
      </trkpt>
      <trkpt lat="46.08715" lon="4.58285">
        <ele>695.6</ele>
        <time>2020-10-24T07:24:16Z</time>
      </trkpt>
      <trkpt lat="46.08715" lon="4.58289">
        <ele>696.2</ele>
        <time>2020-10-24T07:24:17Z</time>
      </trkpt>
      <trkpt lat="46.08716" lon="4.58292">
        <ele>696.4</ele>
        <time>2020-10-24T07:24:18Z</time>
      </trkpt>
      <trkpt lat="46.08717" lon="4.58296">
        <ele>696.4</ele>
        <time>2020-10-24T07:24:19Z</time>
      </trkpt>
      <trkpt lat="46.08717" lon="4.58299">
        <ele>696.6</ele>
        <time>2020-10-24T07:24:20Z</time>
      </trkpt>
      <trkpt lat="46.08718" lon="4.58303">
        <ele>696.6</ele>
        <time>2020-10-24T07:24:21Z</time>
      </trkpt>
      <trkpt lat="46.08718" lon="4.58306">
        <ele>696.4</ele>
        <time>2020-10-24T07:24:22Z</time>
      </trkpt>
      <trkpt lat="46.08719" lon="4.58309">
        <ele>696.6</ele>
        <time>2020-10-24T07:24:23Z</time>
      </trkpt>
      <trkpt lat="46.0872" lon="4.58313">
        <ele>696.2</ele>
        <time>2020-10-24T07:24:24Z</time>
      </trkpt>
      <trkpt lat="46.08721" lon="4.58316">
        <ele>696</ele>
        <time>2020-10-24T07:24:25Z</time>
      </trkpt>
      <trkpt lat="46.08721" lon="4.5832">
        <ele>696.2</ele>
        <time>2020-10-24T07:24:26Z</time>
      </trkpt>
      <trkpt lat="46.08722" lon="4.58323">
        <ele>696</ele>
        <time>2020-10-24T07:24:27Z</time>
      </trkpt>
      <trkpt lat="46.08723" lon="4.58327">
        <ele>695.8</ele>
        <time>2020-10-24T07:24:28Z</time>
      </trkpt>
      <trkpt lat="46.08723" lon="4.5833">
        <ele>695.8</ele>
        <time>2020-10-24T07:24:29Z</time>
      </trkpt>
      <trkpt lat="46.08724" lon="4.58333">
        <ele>695.4</ele>
        <time>2020-10-24T07:24:30Z</time>
      </trkpt>
      <trkpt lat="46.08725" lon="4.58336">
        <ele>695.2</ele>
        <time>2020-10-24T07:24:31Z</time>
      </trkpt>
      <trkpt lat="46.08726" lon="4.58339">
        <ele>695.4</ele>
        <time>2020-10-24T07:24:32Z</time>
      </trkpt>
      <trkpt lat="46.08726" lon="4.58342">
        <ele>695.4</ele>
        <time>2020-10-24T07:24:33Z</time>
      </trkpt>
      <trkpt lat="46.08727" lon="4.58346">
        <ele>695.2</ele>
        <time>2020-10-24T07:24:34Z</time>
      </trkpt>
      <trkpt lat="46.08727" lon="4.58349">
        <ele>695.4</ele>
        <time>2020-10-24T07:24:35Z</time>
      </trkpt>
      <trkpt lat="46.08727" lon="4.58352">
        <ele>695.2</ele>
        <time>2020-10-24T07:24:36Z</time>
      </trkpt>
      <trkpt lat="46.08728" lon="4.58355">
        <ele>695.2</ele>
        <time>2020-10-24T07:24:37Z</time>
      </trkpt>
      <trkpt lat="46.08729" lon="4.58358">
        <ele>695.6</ele>
        <time>2020-10-24T07:24:38Z</time>
      </trkpt>
      <trkpt lat="46.08729" lon="4.58361">
        <ele>695.6</ele>
        <time>2020-10-24T07:24:39Z</time>
      </trkpt>
      <trkpt lat="46.08729" lon="4.58365">
        <ele>695.4</ele>
        <time>2020-10-24T07:24:40Z</time>
      </trkpt>
      <trkpt lat="46.08729" lon="4.58368">
        <ele>695.8</ele>
        <time>2020-10-24T07:24:41Z</time>
      </trkpt>
      <trkpt lat="46.08729" lon="4.58371">
        <ele>696</ele>
        <time>2020-10-24T07:24:42Z</time>
      </trkpt>
      <trkpt lat="46.0873" lon="4.58374">
        <ele>696</ele>
        <time>2020-10-24T07:24:43Z</time>
      </trkpt>
      <trkpt lat="46.0873" lon="4.58374">
        <ele>696.4</ele>
        <time>2020-10-24T07:24:44Z</time>
      </trkpt>
      <trkpt lat="46.08731" lon="4.58379">
        <ele>696.6</ele>
        <time>2020-10-24T07:24:45Z</time>
      </trkpt>
      <trkpt lat="46.08731" lon="4.58382">
        <ele>696.6</ele>
        <time>2020-10-24T07:24:46Z</time>
      </trkpt>
      <trkpt lat="46.08731" lon="4.58382">
        <ele>696.8</ele>
        <time>2020-10-24T07:24:47Z</time>
      </trkpt>
      <trkpt lat="46.08732" lon="4.58387">
        <ele>697</ele>
        <time>2020-10-24T07:24:48Z</time>
      </trkpt>
      <trkpt lat="46.08732" lon="4.58387">
        <ele>697</ele>
        <time>2020-10-24T07:24:49Z</time>
      </trkpt>
      <trkpt lat="46.08733" lon="4.58392">
        <ele>697.2</ele>
        <time>2020-10-24T07:24:50Z</time>
      </trkpt>
      <trkpt lat="46.08734" lon="4.58395">
        <ele>697</ele>
        <time>2020-10-24T07:24:51Z</time>
      </trkpt>
      <trkpt lat="46.08734" lon="4.58399">
        <ele>696.8</ele>
        <time>2020-10-24T07:24:52Z</time>
      </trkpt>
      <trkpt lat="46.08735" lon="4.58401">
        <ele>697</ele>
        <time>2020-10-24T07:24:53Z</time>
      </trkpt>
      <trkpt lat="46.08736" lon="4.58405">
        <ele>696.8</ele>
        <time>2020-10-24T07:24:54Z</time>
      </trkpt>
      <trkpt lat="46.08737" lon="4.58408">
        <ele>696.6</ele>
        <time>2020-10-24T07:24:55Z</time>
      </trkpt>
      <trkpt lat="46.08738" lon="4.5841">
        <ele>696.8</ele>
        <time>2020-10-24T07:24:56Z</time>
      </trkpt>
      <trkpt lat="46.08738" lon="4.58412">
        <ele>696.8</ele>
        <time>2020-10-24T07:24:57Z</time>
      </trkpt>
      <trkpt lat="46.08739" lon="4.58414">
        <ele>696.6</ele>
        <time>2020-10-24T07:24:58Z</time>
      </trkpt>
      <trkpt lat="46.08739" lon="4.58415">
        <ele>696.8</ele>
        <time>2020-10-24T07:24:59Z</time>
      </trkpt>
      <trkpt lat="46.08743" lon="4.58427">
        <ele>696.6</ele>
        <time>2020-10-24T07:25:00Z</time>
      </trkpt>
      <trkpt lat="46.08743" lon="4.58431">
        <ele>696.6</ele>
        <time>2020-10-24T07:25:01Z</time>
      </trkpt>
      <trkpt lat="46.08744" lon="4.58434">
        <ele>696.8</ele>
        <time>2020-10-24T07:25:02Z</time>
      </trkpt>
      <trkpt lat="46.08745" lon="4.58438">
        <ele>696.6</ele>
        <time>2020-10-24T07:25:03Z</time>
      </trkpt>
      <trkpt lat="46.08746" lon="4.58441">
        <ele>696.4</ele>
        <time>2020-10-24T07:25:04Z</time>
      </trkpt>
      <trkpt lat="46.08747" lon="4.58444">
        <ele>696.6</ele>
        <time>2020-10-24T07:25:05Z</time>
      </trkpt>
      <trkpt lat="46.08748" lon="4.58448">
        <ele>696.6</ele>
        <time>2020-10-24T07:25:06Z</time>
      </trkpt>
      <trkpt lat="46.08749" lon="4.58452">
        <ele>696.8</ele>
        <time>2020-10-24T07:25:07Z</time>
      </trkpt>
      <trkpt lat="46.0875" lon="4.58455">
        <ele>696.8</ele>
        <time>2020-10-24T07:25:08Z</time>
      </trkpt>
      <trkpt lat="46.0875" lon="4.58458">
        <ele>696.8</ele>
        <time>2020-10-24T07:25:09Z</time>
      </trkpt>
      <trkpt lat="46.08751" lon="4.58462">
        <ele>697.2</ele>
        <time>2020-10-24T07:25:10Z</time>
      </trkpt>
      <trkpt lat="46.08752" lon="4.58465">
        <ele>697.2</ele>
        <time>2020-10-24T07:25:11Z</time>
      </trkpt>
      <trkpt lat="46.08752" lon="4.58469">
        <ele>697.2</ele>
        <time>2020-10-24T07:25:12Z</time>
      </trkpt>
      <trkpt lat="46.08753" lon="4.58472">
        <ele>697.4</ele>
        <time>2020-10-24T07:25:13Z</time>
      </trkpt>
      <trkpt lat="46.08754" lon="4.58475">
        <ele>697.2</ele>
        <time>2020-10-24T07:25:14Z</time>
      </trkpt>
      <trkpt lat="46.08755" lon="4.58478">
        <ele>697</ele>
        <time>2020-10-24T07:25:15Z</time>
      </trkpt>
      <trkpt lat="46.08755" lon="4.58481">
        <ele>697.4</ele>
        <time>2020-10-24T07:25:16Z</time>
      </trkpt>
      <trkpt lat="46.08756" lon="4.58483">
        <ele>697.2</ele>
        <time>2020-10-24T07:25:17Z</time>
      </trkpt>
      <trkpt lat="46.08757" lon="4.58486">
        <ele>697</ele>
        <time>2020-10-24T07:25:18Z</time>
      </trkpt>
      <trkpt lat="46.08757" lon="4.58486">
        <ele>697.2</ele>
        <time>2020-10-24T07:25:19Z</time>
      </trkpt>
      <trkpt lat="46.08758" lon="4.5849">
        <ele>697.2</ele>
        <time>2020-10-24T07:25:20Z</time>
      </trkpt>
      <trkpt lat="46.08758" lon="4.58493">
        <ele>697</ele>
        <time>2020-10-24T07:25:21Z</time>
      </trkpt>
      <trkpt lat="46.0876" lon="4.58496">
        <ele>697.2</ele>
        <time>2020-10-24T07:25:22Z</time>
      </trkpt>
      <trkpt lat="46.08761" lon="4.58499">
        <ele>697.2</ele>
        <time>2020-10-24T07:25:23Z</time>
      </trkpt>
      <trkpt lat="46.08762" lon="4.58502">
        <ele>696.8</ele>
        <time>2020-10-24T07:25:24Z</time>
      </trkpt>
      <trkpt lat="46.08763" lon="4.58505">
        <ele>697.2</ele>
        <time>2020-10-24T07:25:25Z</time>
      </trkpt>
      <trkpt lat="46.08764" lon="4.58508">
        <ele>697</ele>
        <time>2020-10-24T07:25:26Z</time>
      </trkpt>
      <trkpt lat="46.08765" lon="4.58511">
        <ele>696.4</ele>
        <time>2020-10-24T07:25:27Z</time>
      </trkpt>
      <trkpt lat="46.08766" lon="4.58514">
        <ele>696.8</ele>
        <time>2020-10-24T07:25:28Z</time>
      </trkpt>
      <trkpt lat="46.08767" lon="4.58517">
        <ele>696.6</ele>
        <time>2020-10-24T07:25:29Z</time>
      </trkpt>
      <trkpt lat="46.08768" lon="4.58521">
        <ele>696.6</ele>
        <time>2020-10-24T07:25:30Z</time>
      </trkpt>
      <trkpt lat="46.0877" lon="4.58524">
        <ele>696.8</ele>
        <time>2020-10-24T07:25:31Z</time>
      </trkpt>
      <trkpt lat="46.08771" lon="4.58527">
        <ele>696.6</ele>
        <time>2020-10-24T07:25:32Z</time>
      </trkpt>
      <trkpt lat="46.08772" lon="4.5853">
        <ele>696.4</ele>
        <time>2020-10-24T07:25:33Z</time>
      </trkpt>
      <trkpt lat="46.08774" lon="4.58533">
        <ele>696.8</ele>
        <time>2020-10-24T07:25:34Z</time>
      </trkpt>
      <trkpt lat="46.08775" lon="4.58535">
        <ele>696.6</ele>
        <time>2020-10-24T07:25:35Z</time>
      </trkpt>
      <trkpt lat="46.08776" lon="4.58538">
        <ele>696.2</ele>
        <time>2020-10-24T07:25:36Z</time>
      </trkpt>
      <trkpt lat="46.08778" lon="4.58541">
        <ele>696.6</ele>
        <time>2020-10-24T07:25:37Z</time>
      </trkpt>
      <trkpt lat="46.08779" lon="4.58543">
        <ele>696.4</ele>
        <time>2020-10-24T07:25:38Z</time>
      </trkpt>
      <trkpt lat="46.08781" lon="4.58546">
        <ele>696.4</ele>
        <time>2020-10-24T07:25:39Z</time>
      </trkpt>
      <trkpt lat="46.08783" lon="4.58548">
        <ele>696.6</ele>
        <time>2020-10-24T07:25:40Z</time>
      </trkpt>
      <trkpt lat="46.08785" lon="4.58551">
        <ele>696.4</ele>
        <time>2020-10-24T07:25:41Z</time>
      </trkpt>
      <trkpt lat="46.08786" lon="4.58554">
        <ele>696.2</ele>
        <time>2020-10-24T07:25:42Z</time>
      </trkpt>
      <trkpt lat="46.08788" lon="4.58556">
        <ele>696.4</ele>
        <time>2020-10-24T07:25:43Z</time>
      </trkpt>
      <trkpt lat="46.0879" lon="4.5856">
        <ele>696</ele>
        <time>2020-10-24T07:25:44Z</time>
      </trkpt>
      <trkpt lat="46.08791" lon="4.58563">
        <ele>695.6</ele>
        <time>2020-10-24T07:25:45Z</time>
      </trkpt>
      <trkpt lat="46.08793" lon="4.58565">
        <ele>695.6</ele>
        <time>2020-10-24T07:25:46Z</time>
      </trkpt>
      <trkpt lat="46.08794" lon="4.58568">
        <ele>695.4</ele>
        <time>2020-10-24T07:25:47Z</time>
      </trkpt>
      <trkpt lat="46.08796" lon="4.58571">
        <ele>694.8</ele>
        <time>2020-10-24T07:25:48Z</time>
      </trkpt>
      <trkpt lat="46.08798" lon="4.58573">
        <ele>694.8</ele>
        <time>2020-10-24T07:25:49Z</time>
      </trkpt>
      <trkpt lat="46.08799" lon="4.58576">
        <ele>694.2</ele>
        <time>2020-10-24T07:25:50Z</time>
      </trkpt>
      <trkpt lat="46.08801" lon="4.58578">
        <ele>694</ele>
        <time>2020-10-24T07:25:51Z</time>
      </trkpt>
      <trkpt lat="46.08802" lon="4.5858">
        <ele>693.6</ele>
        <time>2020-10-24T07:25:52Z</time>
      </trkpt>
      <trkpt lat="46.08804" lon="4.58582">
        <ele>693</ele>
        <time>2020-10-24T07:25:53Z</time>
      </trkpt>
      <trkpt lat="46.08806" lon="4.58582">
        <ele>692.6</ele>
        <time>2020-10-24T07:25:54Z</time>
      </trkpt>
      <trkpt lat="46.08809" lon="4.58583">
        <ele>692.6</ele>
        <time>2020-10-24T07:25:55Z</time>
      </trkpt>
      <trkpt lat="46.08811" lon="4.58584">
        <ele>692.2</ele>
        <time>2020-10-24T07:25:56Z</time>
      </trkpt>
      <trkpt lat="46.08813" lon="4.58585">
        <ele>692</ele>
        <time>2020-10-24T07:25:57Z</time>
      </trkpt>
      <trkpt lat="46.08815" lon="4.58585">
        <ele>691.2</ele>
        <time>2020-10-24T07:25:58Z</time>
      </trkpt>
      <trkpt lat="46.08817" lon="4.58586">
        <ele>690.6</ele>
        <time>2020-10-24T07:25:59Z</time>
      </trkpt>
      <trkpt lat="46.0882" lon="4.58585">
        <ele>690.8</ele>
        <time>2020-10-24T07:26:00Z</time>
      </trkpt>
      <trkpt lat="46.08822" lon="4.58585">
        <ele>690.4</ele>
        <time>2020-10-24T07:26:01Z</time>
      </trkpt>
      <trkpt lat="46.08825" lon="4.58585">
        <ele>689.6</ele>
        <time>2020-10-24T07:26:02Z</time>
      </trkpt>
      <trkpt lat="46.08828" lon="4.58586">
        <ele>689.6</ele>
        <time>2020-10-24T07:26:03Z</time>
      </trkpt>
      <trkpt lat="46.08831" lon="4.58587">
        <ele>689.2</ele>
        <time>2020-10-24T07:26:04Z</time>
      </trkpt>
      <trkpt lat="46.08834" lon="4.58589">
        <ele>688.4</ele>
        <time>2020-10-24T07:26:05Z</time>
      </trkpt>
      <trkpt lat="46.08837" lon="4.5859">
        <ele>688.4</ele>
        <time>2020-10-24T07:26:06Z</time>
      </trkpt>
      <trkpt lat="46.0884" lon="4.58592">
        <ele>687.8</ele>
        <time>2020-10-24T07:26:07Z</time>
      </trkpt>
      <trkpt lat="46.08843" lon="4.58595">
        <ele>687.2</ele>
        <time>2020-10-24T07:26:08Z</time>
      </trkpt>
      <trkpt lat="46.08846" lon="4.58597">
        <ele>687.2</ele>
        <time>2020-10-24T07:26:09Z</time>
      </trkpt>
      <trkpt lat="46.08848" lon="4.58599">
        <ele>686.8</ele>
        <time>2020-10-24T07:26:10Z</time>
      </trkpt>
      <trkpt lat="46.08851" lon="4.58602">
        <ele>686.4</ele>
        <time>2020-10-24T07:26:11Z</time>
      </trkpt>
      <trkpt lat="46.08853" lon="4.58605">
        <ele>686.4</ele>
        <time>2020-10-24T07:26:12Z</time>
      </trkpt>
      <trkpt lat="46.08855" lon="4.58607">
        <ele>686.2</ele>
        <time>2020-10-24T07:26:13Z</time>
      </trkpt>
      <trkpt lat="46.08857" lon="4.5861">
        <ele>685.8</ele>
        <time>2020-10-24T07:26:14Z</time>
      </trkpt>
      <trkpt lat="46.08859" lon="4.58613">
        <ele>686.2</ele>
        <time>2020-10-24T07:26:15Z</time>
      </trkpt>
      <trkpt lat="46.08861" lon="4.58615">
        <ele>685.8</ele>
        <time>2020-10-24T07:26:16Z</time>
      </trkpt>
      <trkpt lat="46.08864" lon="4.58618">
        <ele>685.6</ele>
        <time>2020-10-24T07:26:17Z</time>
      </trkpt>
      <trkpt lat="46.08865" lon="4.5862">
        <ele>686</ele>
        <time>2020-10-24T07:26:18Z</time>
      </trkpt>
      <trkpt lat="46.08867" lon="4.58621">
        <ele>685.8</ele>
        <time>2020-10-24T07:26:19Z</time>
      </trkpt>
      <trkpt lat="46.08869" lon="4.58623">
        <ele>685.8</ele>
        <time>2020-10-24T07:26:20Z</time>
      </trkpt>
      <trkpt lat="46.08871" lon="4.58624">
        <ele>685.8</ele>
        <time>2020-10-24T07:26:21Z</time>
      </trkpt>
      <trkpt lat="46.08873" lon="4.58626">
        <ele>685.8</ele>
        <time>2020-10-24T07:26:22Z</time>
      </trkpt>
      <trkpt lat="46.08874" lon="4.58628">
        <ele>685.8</ele>
        <time>2020-10-24T07:26:23Z</time>
      </trkpt>
      <trkpt lat="46.08876" lon="4.5863">
        <ele>686</ele>
        <time>2020-10-24T07:26:24Z</time>
      </trkpt>
      <trkpt lat="46.08877" lon="4.58632">
        <ele>685.8</ele>
        <time>2020-10-24T07:26:25Z</time>
      </trkpt>
      <trkpt lat="46.08879" lon="4.58634">
        <ele>686</ele>
        <time>2020-10-24T07:26:26Z</time>
      </trkpt>
      <trkpt lat="46.08881" lon="4.58636">
        <ele>686.2</ele>
        <time>2020-10-24T07:26:27Z</time>
      </trkpt>
      <trkpt lat="46.08883" lon="4.58638">
        <ele>686.2</ele>
        <time>2020-10-24T07:26:28Z</time>
      </trkpt>
      <trkpt lat="46.08885" lon="4.58639">
        <ele>686.2</ele>
        <time>2020-10-24T07:26:29Z</time>
      </trkpt>
      <trkpt lat="46.08888" lon="4.5864">
        <ele>686.2</ele>
        <time>2020-10-24T07:26:30Z</time>
      </trkpt>
      <trkpt lat="46.0889" lon="4.5864">
        <ele>685.8</ele>
        <time>2020-10-24T07:26:31Z</time>
      </trkpt>
      <trkpt lat="46.08892" lon="4.5864">
        <ele>685.6</ele>
        <time>2020-10-24T07:26:32Z</time>
      </trkpt>
      <trkpt lat="46.08895" lon="4.58639">
        <ele>685.8</ele>
        <time>2020-10-24T07:26:33Z</time>
      </trkpt>
      <trkpt lat="46.08898" lon="4.58639">
        <ele>685.2</ele>
        <time>2020-10-24T07:26:34Z</time>
      </trkpt>
      <trkpt lat="46.089" lon="4.58639">
        <ele>684.8</ele>
        <time>2020-10-24T07:26:35Z</time>
      </trkpt>
      <trkpt lat="46.08903" lon="4.58638">
        <ele>685</ele>
        <time>2020-10-24T07:26:36Z</time>
      </trkpt>
      <trkpt lat="46.08906" lon="4.58638">
        <ele>684.4</ele>
        <time>2020-10-24T07:26:37Z</time>
      </trkpt>
      <trkpt lat="46.08908" lon="4.58638">
        <ele>684</ele>
        <time>2020-10-24T07:26:38Z</time>
      </trkpt>
      <trkpt lat="46.08911" lon="4.58639">
        <ele>683.8</ele>
        <time>2020-10-24T07:26:39Z</time>
      </trkpt>
      <trkpt lat="46.08914" lon="4.58639">
        <ele>683.2</ele>
        <time>2020-10-24T07:26:40Z</time>
      </trkpt>
      <trkpt lat="46.08917" lon="4.58639">
        <ele>682.8</ele>
        <time>2020-10-24T07:26:41Z</time>
      </trkpt>
      <trkpt lat="46.0892" lon="4.5864">
        <ele>683</ele>
        <time>2020-10-24T07:26:42Z</time>
      </trkpt>
      <trkpt lat="46.08922" lon="4.58641">
        <ele>682.2</ele>
        <time>2020-10-24T07:26:43Z</time>
      </trkpt>
      <trkpt lat="46.08925" lon="4.58642">
        <ele>681.8</ele>
        <time>2020-10-24T07:26:44Z</time>
      </trkpt>
      <trkpt lat="46.08927" lon="4.58643">
        <ele>681.6</ele>
        <time>2020-10-24T07:26:45Z</time>
      </trkpt>
      <trkpt lat="46.0893" lon="4.58645">
        <ele>681.4</ele>
        <time>2020-10-24T07:26:46Z</time>
      </trkpt>
      <trkpt lat="46.08932" lon="4.58647">
        <ele>680.8</ele>
        <time>2020-10-24T07:26:47Z</time>
      </trkpt>
      <trkpt lat="46.08934" lon="4.58649">
        <ele>681</ele>
        <time>2020-10-24T07:26:48Z</time>
      </trkpt>
      <trkpt lat="46.08937" lon="4.58651">
        <ele>680.6</ele>
        <time>2020-10-24T07:26:49Z</time>
      </trkpt>
      <trkpt lat="46.08939" lon="4.58653">
        <ele>680.2</ele>
        <time>2020-10-24T07:26:50Z</time>
      </trkpt>
      <trkpt lat="46.08941" lon="4.58656">
        <ele>680.4</ele>
        <time>2020-10-24T07:26:51Z</time>
      </trkpt>
      <trkpt lat="46.08944" lon="4.58659">
        <ele>680</ele>
        <time>2020-10-24T07:26:52Z</time>
      </trkpt>
      <trkpt lat="46.08946" lon="4.58662">
        <ele>679.8</ele>
        <time>2020-10-24T07:26:53Z</time>
      </trkpt>
      <trkpt lat="46.08949" lon="4.58664">
        <ele>679.8</ele>
        <time>2020-10-24T07:26:54Z</time>
      </trkpt>
      <trkpt lat="46.08951" lon="4.58667">
        <ele>679.4</ele>
        <time>2020-10-24T07:26:55Z</time>
      </trkpt>
      <trkpt lat="46.08953" lon="4.5867">
        <ele>678.8</ele>
        <time>2020-10-24T07:26:56Z</time>
      </trkpt>
      <trkpt lat="46.08956" lon="4.58673">
        <ele>679</ele>
        <time>2020-10-24T07:26:57Z</time>
      </trkpt>
      <trkpt lat="46.08958" lon="4.58676">
        <ele>678.6</ele>
        <time>2020-10-24T07:26:58Z</time>
      </trkpt>
      <trkpt lat="46.0896" lon="4.58679">
        <ele>678.2</ele>
        <time>2020-10-24T07:26:59Z</time>
      </trkpt>
      <trkpt lat="46.08963" lon="4.58682">
        <ele>678.4</ele>
        <time>2020-10-24T07:27:00Z</time>
      </trkpt>
      <trkpt lat="46.08964" lon="4.58685">
        <ele>678</ele>
        <time>2020-10-24T07:27:01Z</time>
      </trkpt>
      <trkpt lat="46.08966" lon="4.58689">
        <ele>677.6</ele>
        <time>2020-10-24T07:27:02Z</time>
      </trkpt>
      <trkpt lat="46.08968" lon="4.58691">
        <ele>677.8</ele>
        <time>2020-10-24T07:27:03Z</time>
      </trkpt>
      <trkpt lat="46.0897" lon="4.58694">
        <ele>677.6</ele>
        <time>2020-10-24T07:27:04Z</time>
      </trkpt>
      <trkpt lat="46.08972" lon="4.58697">
        <ele>677</ele>
        <time>2020-10-24T07:27:05Z</time>
      </trkpt>
      <trkpt lat="46.08974" lon="4.58699">
        <ele>677.2</ele>
        <time>2020-10-24T07:27:06Z</time>
      </trkpt>
      <trkpt lat="46.08976" lon="4.587">
        <ele>677</ele>
        <time>2020-10-24T07:27:07Z</time>
      </trkpt>
      <trkpt lat="46.08978" lon="4.58702">
        <ele>676.6</ele>
        <time>2020-10-24T07:27:08Z</time>
      </trkpt>
      <trkpt lat="46.0898" lon="4.58703">
        <ele>676.6</ele>
        <time>2020-10-24T07:27:09Z</time>
      </trkpt>
      <trkpt lat="46.08981" lon="4.58705">
        <ele>676.4</ele>
        <time>2020-10-24T07:27:10Z</time>
      </trkpt>
      <trkpt lat="46.08983" lon="4.58707">
        <ele>676</ele>
        <time>2020-10-24T07:27:11Z</time>
      </trkpt>
      <trkpt lat="46.08986" lon="4.58709">
        <ele>676.2</ele>
        <time>2020-10-24T07:27:12Z</time>
      </trkpt>
      <trkpt lat="46.08988" lon="4.58711">
        <ele>676.2</ele>
        <time>2020-10-24T07:27:13Z</time>
      </trkpt>
      <trkpt lat="46.0899" lon="4.58713">
        <ele>676</ele>
        <time>2020-10-24T07:27:14Z</time>
      </trkpt>
      <trkpt lat="46.08992" lon="4.58715">
        <ele>676.2</ele>
        <time>2020-10-24T07:27:15Z</time>
      </trkpt>
      <trkpt lat="46.08995" lon="4.58718">
        <ele>676</ele>
        <time>2020-10-24T07:27:16Z</time>
      </trkpt>
    </trkseg>
  </trk>
</gpx>